GFSNW_prec_precacc24_018.txt.gz
Total_Precipitation_Accumulation
0.00 0.01 0.00 0.00 0.00 0.00 0.00 0.00 0.00 0.00 0.03 0.07 0.15 0.34 0.30 0.26 0.35 0.33 0.25 0.08 0.02 0.04 0.05 0.08 0.10 0.04 0.01 0.00 0.00 0.00 0.00 0.00 0.00 0.00 0.00 0.00 0.00 0.00 0.00 0.00 0.00 0.00 0.00 0.00
0.00 0.01 0.00 0.00 0.00 0.00 0.00 0.00 0.00 0.00 0.00 0.00 0.04 0.15 0.24 0.31 0.28 0.14 0.06 0.04 0.03 0.02 0.01 0.07 0.05 0.00 0.00 0.00 0.00 0.00 0.00 0.00 0.00 0.00 0.00 0.00 0.00 0.00 0.00 0.00 0.00 0.00 0.00 0.00
0.01 0.01 0.00 0.00 0.00 0.00 0.00 0.00 0.00 0.00 0.00 0.00 0.01 0.11 0.20 0.17 0.06 0.04 0.02 0.04 0.04 0.01 0.00 0.01 0.01 0.00 0.00 0.00 0.00 0.00 0.00 0.00 0.00 0.00 0.00 0.00 0.00 0.00 0.00 0.00 0.00 0.00 0.00 0.00
0.01 0.01 0.01 0.00 0.00 0.00 0.00 0.00 0.00 0.00 0.00 0.00 0.00 0.01 0.02 0.02 0.05 0.05 0.05 0.09 0.05 0.00 0.01 0.00 0.00 0.00 0.00 0.00 0.00 0.00 0.00 0.00 0.00 0.00 0.00 0.00 0.00 0.00 0.00 0.00 0.00 0.00 0.00 0.00
0.01 0.01 0.01 0.00 0.00 0.00 0.00 0.00 0.00 0.00 0.00 0.00 0.00 0.01 0.01 0.01 0.01 0.02 0.05 0.10 0.02 0.01 0.01 0.00 0.00 0.00 0.00 0.00 0.00 0.00 0.00 0.00 0.00 0.00 0.00 0.00 0.00 0.00 0.00 0.00 0.00 0.00 0.00 0.00
0.02 0.01 0.01 0.00 0.00 0.00 0.00 0.00 0.00 0.00 0.00 0.00 0.00 0.00 0.01 0.01 0.00 0.04 0.04 0.05 0.01 0.01 0.00 0.00 0.00 0.00 0.00 0.00 0.00 0.00 0.00 0.00 0.00 0.00 0.00 0.00 0.00 0.00 0.00 0.00 0.00 0.00 0.00 0.00
0.02 0.01 0.02 0.00 0.00 0.00 0.00 0.00 0.00 0.00 0.00 0.00 0.00 0.00 0.00 0.00 0.00 0.01 0.03 0.02 0.01 0.01 0.00 0.00 0.01 0.00 0.00 0.00 0.00 0.00 0.00 0.00 0.00 0.00 0.00 0.00 0.00 0.00 0.00 0.00 0.00 0.00 0.00 0.00
0.02 0.02 0.01 0.01 0.00 0.00 0.00 0.00 0.00 0.00 0.00 0.00 0.00 0.00 0.00 0.00 0.00 0.00 0.00 0.00 0.00 0.00 0.00 0.02 0.03 0.01 0.00 0.00 0.00 0.00 0.00 0.00 0.00 0.00 0.00 0.00 0.00 0.00 0.00 0.00 0.00 0.00 0.00 0.00
0.02 0.01 0.01 0.01 0.00 0.00 0.00 0.00 0.00 0.00 0.00 0.00 0.00 0.00 0.00 0.00 0.00 0.00 0.00 0.00 0.00 0.00 0.00 0.01 0.01 0.01 0.01 0.00 0.00 0.00 0.00 0.00 0.00 0.00 0.00 0.00 0.00 0.00 0.00 0.00 0.00 0.00 0.00 0.00
0.02 0.01 0.01 0.01 0.00 0.00 0.00 0.00 0.00 0.00 0.00 0.00 0.00 0.00 0.00 0.00 0.00 0.00 0.00 0.00 0.00 0.00 0.00 0.00 0.00 0.00 0.00 0.00 0.00 0.00 0.00 0.00 0.00 0.00 0.00 0.00 0.00 0.00 0.00 0.00 0.00 0.00 0.00 0.00
0.02 0.01 0.01 0.02 0.02 0.01 0.00 0.00 0.00 0.00 0.00 0.00 0.00 0.00 0.00 0.00 0.00 0.00 0.00 0.00 0.00 0.00 0.00 0.00 0.00 0.00 0.00 0.00 0.00 0.00 0.00 0.00 0.00 0.00 0.01 0.00 0.00 0.00 0.00 0.00 0.00 0.00 0.00 0.00
0.02 0.02 0.01 0.01 0.03 0.05 0.02 0.00 0.00 0.00 0.00 0.00 0.00 0.00 0.00 0.00 0.00 0.00 0.00 0.00 0.00 0.00 0.00 0.00 0.00 0.00 0.00 0.00 0.00 0.00 0.00 0.00 0.00 0.00 0.00 0.00 0.00 0.00 0.00 0.00 0.00 0.00 0.00 0.00
0.02 0.02 0.02 0.01 0.01 0.04 0.06 0.01 0.00 0.00 0.01 0.00 0.00 0.00 0.00 0.00 0.00 0.00 0.00 0.00 0.00 0.00 0.00 0.00 0.00 0.00 0.00 0.00 0.00 0.00 0.00 0.00 0.00 0.00 0.00 0.00 0.00 0.00 0.00 0.00 0.00 0.00 0.00 0.00
0.02 0.02 0.03 0.02 0.02 0.04 0.05 0.01 0.00 0.00 0.00 0.00 0.00 0.00 0.00 0.00 0.00 0.00 0.00 0.00 0.00 0.00 0.00 0.00 0.00 0.00 0.00 0.00 0.00 0.00 0.00 0.00 0.00 0.00 0.00 0.00 0.00 0.00 0.00 0.00 0.00 0.00 0.00 0.00
0.02 0.03 0.03 0.02 0.02 0.04 0.04 0.03 0.02 0.00 0.00 0.01 0.00 0.00 0.00 0.00 0.00 0.00 0.00 0.00 0.00 0.00 0.00 0.00 0.00 0.00 0.00 0.00 0.00 0.00 0.00 0.00 0.00 0.00 0.00 0.00 0.00 0.00 0.00 0.00 0.00 0.00 0.00 0.00
0.01 0.03 0.02 0.02 0.03 0.04 0.02 0.03 0.03 0.03 0.04 0.04 0.01 0.00 0.00 0.00 0.00 0.00 0.00 0.00 0.00 0.01 0.01 0.00 0.00 0.00 0.01 0.01 0.00 0.00 0.00 0.00 0.00 0.00 0.00 0.00 0.00 0.00 0.00 0.00 0.00 0.00 0.00 0.01
0.01 0.03 0.02 0.03 0.05 0.02 0.01 0.01 0.01 0.04 0.11 0.06 0.01 0.00 0.00 0.00 0.00 0.00 0.00 0.00 0.01 0.03 0.04 0.03 0.01 0.01 0.02 0.01 0.00 0.00 0.00 0.00 0.00 0.00 0.00 0.00 0.00 0.00 0.00 0.00 0.01 0.04 0.05 0.04
0.02 0.03 0.05 0.06 0.05 0.03 0.02 0.03 0.05 0.08 0.07 0.03 0.00 0.00 0.00 0.00 0.01 0.02 0.02 0.03 0.04 0.05 0.04 0.02 0.01 0.01 0.02 0.02 0.00 0.00 0.00 0.00 0.00 0.00 0.00 0.00 0.00 0.00 0.01 0.04 0.09 0.10 0.05 0.02
0.03 0.06 0.05 0.03 0.01 0.01 0.01 0.01 0.04 0.05 0.03 0.01 0.00 0.00 0.00 0.00 0.01 0.02 0.03 0.04 0.04 0.02 0.02 0.02 0.01 0.01 0.00 0.00 0.00 0.00 0.00 0.00 0.00 0.00 0.00 0.00 0.00 0.02 0.07 0.12 0.09 0.03 0.01 0.00
0.06 0.03 0.01 0.00 0.00 0.00 0.00 0.00 0.03 0.06 0.07 0.02 0.00 0.00 0.00 0.00 0.01 0.02 0.01 0.02 0.01 0.01 0.01 0.01 0.02 0.01 0.00 0.00 0.00 0.00 0.00 0.00 0.00 0.00 0.00 0.01 0.04 0.07 0.05 0.02 0.00 0.00 0.00 0.00
0.04 0.00 0.00 0.00 0.01 0.00 0.00 0.00 0.00 0.01 0.00 0.00 0.00 0.00 0.00 0.00 0.00 0.01 0.00 0.01 0.01 0.02 0.00 0.01 0.01 0.00 0.00 0.00 0.00 0.00 0.00 0.00 0.00 0.00 0.00 0.00 0.01 0.00 0.00 0.00 0.00 0.00 0.00 0.00
0.03 0.00 0.01 0.01 0.00 0.00 0.00 0.00 0.00 0.00 0.00 0.00 0.00 0.00 0.00 0.00 0.00 0.00 0.01 0.01 0.02 0.01 0.00 0.01 0.00 0.00 0.00 0.00 0.00 0.00 0.00 0.00 0.00 0.00 0.00 0.00 0.00 0.00 0.00 0.00 0.00 0.00 0.00 0.00
0.15 0.14 0.18 0.06 0.04 0.01 0.00 0.01 0.00 0.00 0.00 0.00 0.00 0.00 0.00 0.00 0.00 0.00 0.01 0.02 0.02 0.00 0.01 0.00 0.00 0.00 0.00 0.00 0.00 0.00 0.00 0.00 0.00 0.00 0.00 0.00 0.00 0.00 0.00 0.00 0.00 0.00 0.00 0.00
0.31 0.23 0.22 0.04 0.02 0.00 0.00 0.00 0.00 0.00 0.00 0.00 0.00 0.00 0.00 0.00 0.00 0.00 0.02 0.03 0.01 0.02 0.01 0.00 0.00 0.00 0.00 0.00 0.00 0.00 0.00 0.00 0.00 0.00 0.00 0.00 0.00 0.00 0.00 0.00 0.00 0.00 0.00 0.00
0.37 0.15 0.06 0.01 0.00 0.00 0.00 0.00 0.00 0.00 0.00 0.00 0.00 0.00 0.00 0.00 0.01 0.01 0.03 0.05 0.02 0.00 0.00 0.00 0.00 0.00 0.00 0.00 0.00 0.00 0.00 0.00 0.00 0.00 0.00 0.00 0.00 0.00 0.00 0.00 0.00 0.00 0.00 0.00
0.43 0.13 0.02 0.00 0.00 0.00 0.00 0.00 0.00 0.00 0.00 0.00 0.00 0.01 0.02 0.01 0.01 0.04 0.02 0.01 0.00 0.00 0.00 0.00 0.00 0.00 0.00 0.00 0.00 0.00 0.00 0.00 0.00 0.00 0.00 0.00 0.00 0.00 0.00 0.00 0.00 0.00 0.00 0.00
0.47 0.08 0.00 0.00 0.00 0.00 0.00 0.00 0.00 0.00 0.00 0.00 0.00 0.01 0.00 0.00 0.02 0.03 0.00 0.00 0.00 0.00 0.00 0.00 0.00 0.00 0.00 0.00 0.00 0.00 0.00 0.00 0.00 0.00 0.00 0.00 0.00 0.00 0.00 0.00 0.00 0.00 0.00 0.00

GFSNW_prec_precacc24_021.txt.gz
Total_Precipitation_Accumulation
0.01 0.02 0.02 0.01 0.00 0.00 0.00 0.00 0.00 0.01 0.08 0.31 0.38 0.61 0.67 0.54 0.60 0.56 0.38 0.12 0.02 0.04 0.07 0.11 0.12 0.04 0.01 0.00 0.00 0.00 0.00 0.00 0.00 0.00 0.00 0.00 0.00 0.00 0.00 0.00 0.00 0.00 0.00 0.00
0.01 0.02 0.02 0.01 0.01 0.00 0.00 0.00 0.01 0.04 0.04 0.10 0.30 0.51 0.62 0.54 0.51 0.51 0.31 0.14 0.04 0.02 0.02 0.09 0.06 0.00 0.00 0.00 0.00 0.00 0.00 0.00 0.00 0.02 0.03 0.00 0.00 0.00 0.00 0.00 0.00 0.00 0.00 0.00
0.01 0.02 0.02 0.00 0.02 0.01 0.00 0.00 0.00 0.02 0.02 0.01 0.08 0.28 0.41 0.34 0.23 0.25 0.09 0.07 0.04 0.01 0.01 0.01 0.01 0.00 0.00 0.00 0.00 0.00 0.00 0.00 0.00 0.00 0.01 0.00 0.00 0.00 0.00 0.00 0.00 0.00 0.00 0.00
0.01 0.01 0.02 0.01 0.02 0.03 0.00 0.00 0.00 0.00 0.00 0.00 0.01 0.09 0.16 0.16 0.19 0.15 0.06 0.11 0.05 0.00 0.01 0.00 0.00 0.00 0.00 0.00 0.00 0.00 0.00 0.00 0.00 0.00 0.00 0.00 0.00 0.00 0.00 0.00 0.00 0.00 0.00 0.00
0.02 0.01 0.01 0.01 0.02 0.03 0.00 0.00 0.00 0.00 0.00 0.00 0.02 0.07 0.10 0.14 0.04 0.02 0.06 0.10 0.02 0.01 0.01 0.00 0.00 0.00 0.00 0.00 0.00 0.00 0.00 0.00 0.00 0.00 0.00 0.00 0.00 0.00 0.00 0.00 0.00 0.00 0.00 0.00
0.02 0.02 0.01 0.00 0.03 0.02 0.00 0.00 0.00 0.00 0.00 0.00 0.01 0.00 0.07 0.08 0.02 0.04 0.04 0.05 0.01 0.01 0.00 0.00 0.00 0.00 0.00 0.00 0.00 0.00 0.00 0.00 0.00 0.00 0.00 0.00 0.00 0.00 0.00 0.00 0.00 0.00 0.00 0.00
0.02 0.02 0.02 0.01 0.02 0.02 0.00 0.00 0.00 0.00 0.00 0.00 0.00 0.00 0.03 0.02 0.04 0.05 0.04 0.03 0.01 0.01 0.00 0.00 0.01 0.00 0.00 0.00 0.00 0.00 0.02 0.00 0.00 0.00 0.00 0.00 0.00 0.00 0.00 0.00 0.00 0.00 0.00 0.00
0.02 0.02 0.01 0.01 0.02 0.03 0.00 0.00 0.00 0.00 0.00 0.00 0.00 0.00 0.00 0.00 0.01 0.03 0.05 0.04 0.01 0.01 0.00 0.03 0.04 0.02 0.03 0.00 0.00 0.01 0.00 0.00 0.00 0.00 0.00 0.00 0.00 0.00 0.00 0.00 0.00 0.00 0.00 0.00
0.02 0.01 0.01 0.01 0.01 0.02 0.00 0.00 0.00 0.00 0.00 0.00 0.00 0.00 0.00 0.00 0.00 0.01 0.07 0.05 0.02 0.01 0.00 0.02 0.02 0.03 0.05 0.01 0.00 0.00 0.00 0.00 0.00 0.00 0.00 0.00 0.00 0.00 0.00 0.00 0.00 0.00 0.00 0.00
0.02 0.01 0.01 0.01 0.02 0.02 0.00 0.00 0.00 0.00 0.00 0.00 0.00 0.00 0.00 0.00 0.00 0.01 0.01 0.00 0.01 0.01 0.01 0.01 0.00 0.00 0.01 0.01 0.00 0.00 0.00 0.00 0.00 0.00 0.00 0.00 0.00 0.00 0.00 0.00 0.00 0.00 0.00 0.00
0.02 0.01 0.01 0.02 0.03 0.02 0.01 0.00 0.00 0.00 0.00 0.00 0.00 0.00 0.00 0.00 0.00 0.00 0.00 0.00 0.00 0.01 0.00 0.00 0.00 0.00 0.00 0.00 0.00 0.00 0.00 0.00 0.00 0.00 0.01 0.00 0.00 0.00 0.00 0.00 0.00 0.00 0.00 0.00
0.02 0.02 0.02 0.01 0.04 0.07 0.04 0.00 0.00 0.00 0.00 0.00 0.00 0.00 0.00 0.00 0.00 0.00 0.00 0.00 0.00 0.00 0.00 0.00 0.00 0.00 0.00 0.00 0.00 0.00 0.00 0.00 0.00 0.00 0.00 0.00 0.00 0.00 0.00 0.00 0.00 0.00 0.00 0.00
0.02 0.03 0.02 0.01 0.02 0.09 0.08 0.02 0.00 0.00 0.01 0.00 0.00 0.00 0.00 0.00 0.00 0.00 0.00 0.00 0.00 0.00 0.00 0.00 0.00 0.00 0.00 0.00 0.00 0.00 0.00 0.00 0.00 0.00 0.00 0.00 0.00 0.00 0.00 0.00 0.00 0.00 0.00 0.00
0.02 0.03 0.03 0.02 0.02 0.08 0.08 0.01 0.01 0.00 0.00 0.00 0.00 0.00 0.00 0.00 0.00 0.00 0.00 0.00 0.00 0.00 0.00 0.00 0.00 0.00 0.00 0.00 0.00 0.00 0.00 0.00 0.00 0.00 0.00 0.00 0.00 0.00 0.00 0.00 0.00 0.00 0.00 0.00
0.02 0.03 0.03 0.03 0.03 0.06 0.05 0.03 0.02 0.01 0.00 0.01 0.00 0.00 0.00 0.00 0.00 0.00 0.00 0.00 0.00 0.00 0.00 0.00 0.00 0.00 0.00 0.00 0.00 0.00 0.00 0.00 0.00 0.00 0.00 0.00 0.00 0.00 0.00 0.00 0.00 0.00 0.00 0.00
0.01 0.03 0.03 0.02 0.03 0.04 0.02 0.03 0.03 0.03 0.04 0.04 0.01 0.00 0.00 0.00 0.00 0.00 0.00 0.00 0.00 0.01 0.01 0.00 0.00 0.00 0.01 0.01 0.00 0.00 0.00 0.00 0.00 0.00 0.00 0.00 0.00 0.00 0.00 0.00 0.00 0.00 0.00 0.01
0.01 0.03 0.03 0.04 0.06 0.02 0.01 0.01 0.01 0.04 0.11 0.06 0.01 0.00 0.00 0.00 0.00 0.00 0.00 0.00 0.01 0.03 0.04 0.03 0.01 0.01 0.02 0.01 0.00 0.00 0.00 0.00 0.00 0.00 0.00 0.00 0.00 0.00 0.00 0.00 0.01 0.04 0.05 0.04
0.02 0.04 0.06 0.09 0.08 0.04 0.02 0.03 0.05 0.08 0.07 0.03 0.00 0.00 0.00 0.00 0.01 0.02 0.02 0.03 0.05 0.05 0.04 0.02 0.01 0.01 0.02 0.02 0.00 0.00 0.00 0.00 0.00 0.00 0.00 0.00 0.00 0.00 0.01 0.04 0.09 0.10 0.05 0.02
0.04 0.07 0.06 0.06 0.02 0.01 0.01 0.01 0.04 0.05 0.03 0.01 0.00 0.00 0.00 0.00 0.03 0.04 0.03 0.04 0.04 0.02 0.02 0.02 0.01 0.01 0.00 0.00 0.00 0.00 0.00 0.00 0.00 0.00 0.00 0.00 0.00 0.02 0.07 0.12 0.09 0.03 0.01 0.00
0.07 0.04 0.01 0.00 0.00 0.00 0.00 0.00 0.03 0.06 0.07 0.02 0.00 0.00 0.00 0.00 0.01 0.03 0.02 0.02 0.02 0.01 0.01 0.01 0.02 0.01 0.00 0.00 0.00 0.00 0.00 0.00 0.00 0.00 0.00 0.01 0.04 0.07 0.05 0.02 0.00 0.00 0.00 0.00
0.05 0.00 0.00 0.00 0.01 0.00 0.00 0.00 0.00 0.01 0.00 0.00 0.00 0.00 0.00 0.00 0.00 0.01 0.00 0.01 0.01 0.02 0.00 0.01 0.01 0.00 0.00 0.00 0.00 0.00 0.00 0.00 0.00 0.00 0.00 0.00 0.01 0.00 0.00 0.00 0.00 0.00 0.00 0.00
0.04 0.00 0.02 0.01 0.00 0.00 0.00 0.00 0.00 0.00 0.00 0.00 0.00 0.00 0.00 0.00 0.00 0.00 0.01 0.01 0.02 0.01 0.00 0.01 0.00 0.00 0.00 0.00 0.00 0.00 0.00 0.00 0.00 0.00 0.00 0.00 0.00 0.00 0.00 0.00 0.00 0.00 0.00 0.00
0.18 0.20 0.24 0.06 0.04 0.01 0.00 0.01 0.00 0.00 0.00 0.00 0.00 0.00 0.00 0.00 0.00 0.00 0.01 0.02 0.02 0.00 0.01 0.00 0.00 0.00 0.00 0.00 0.00 0.00 0.00 0.00 0.00 0.00 0.00 0.00 0.00 0.00 0.00 0.00 0.00 0.00 0.00 0.00
0.47 0.34 0.29 0.06 0.04 0.00 0.00 0.00 0.00 0.00 0.00 0.00 0.00 0.00 0.00 0.00 0.00 0.00 0.02 0.03 0.01 0.02 0.01 0.00 0.00 0.00 0.00 0.00 0.00 0.00 0.00 0.00 0.00 0.00 0.00 0.00 0.00 0.00 0.00 0.00 0.00 0.00 0.00 0.00
0.50 0.21 0.10 0.03 0.00 0.00 0.00 0.00 0.00 0.00 0.00 0.00 0.00 0.00 0.00 0.00 0.01 0.01 0.03 0.05 0.02 0.00 0.00 0.00 0.00 0.00 0.00 0.00 0.00 0.00 0.00 0.00 0.00 0.00 0.00 0.00 0.00 0.00 0.00 0.00 0.00 0.00 0.00 0.00
0.55 0.20 0.04 0.01 0.00 0.00 0.00 0.00 0.00 0.00 0.00 0.00 0.00 0.01 0.02 0.01 0.01 0.04 0.02 0.01 0.00 0.00 0.00 0.00 0.00 0.00 0.00 0.00 0.00 0.00 0.00 0.00 0.00 0.00 0.00 0.00 0.00 0.00 0.00 0.00 0.00 0.00 0.00 0.00
0.58 0.11 0.00 0.00 0.00 0.00 0.00 0.00 0.00 0.00 0.00 0.00 0.00 0.01 0.00 0.00 0.02 0.03 0.00 0.00 0.00 0.00 0.00 0.00 0.00 0.00 0.00 0.00 0.00 0.00 0.00 0.00 0.00 0.00 0.00 0.00 0.00 0.00 0.00 0.00 0.00 0.00 0.00 0.00

GFSNW_prec_precacc24_027.txt.gz
Total_Precipitation_Accumulation
0.09 0.07 0.07 0.06 0.08 0.08 0.05 0.01 0.02 0.03 0.16 0.55 0.54 0.66 0.79 0.81 0.86 0.85 0.63 0.26 0.07 0.06 0.07 0.12 0.13 0.04 0.01 0.00 0.00 0.01 0.03 0.03 0.13 0.11 0.02 0.01 0.00 0.00 0.00 0.00 0.00 0.00 0.00 0.00
0.10 0.09 0.06 0.06 0.09 0.05 0.01 0.01 0.04 0.22 0.12 0.18 0.35 0.56 0.84 0.95 0.82 0.85 0.62 0.33 0.07 0.02 0.02 0.09 0.07 0.00 0.00 0.00 0.00 0.00 0.00 0.00 0.05 0.08 0.05 0.02 0.01 0.00 0.00 0.00 0.00 0.00 0.00 0.00
0.11 0.08 0.05 0.05 0.08 0.07 0.03 0.02 0.03 0.20 0.20 0.04 0.22 0.61 0.80 0.79 0.59 0.63 0.35 0.30 0.08 0.01 0.01 0.01 0.01 0.01 0.00 0.00 0.00 0.00 0.00 0.00 0.00 0.01 0.02 0.00 0.00 0.00 0.00 0.00 0.00 0.00 0.00 0.00
0.15 0.15 0.05 0.04 0.07 0.10 0.06 0.02 0.01 0.01 0.04 0.01 0.04 0.34 0.52 0.63 0.71 0.48 0.42 0.32 0.09 0.00 0.02 0.01 0.00 0.00 0.00 0.00 0.00 0.00 0.00 0.00 0.00 0.00 0.00 0.00 0.00 0.00 0.00 0.00 0.00 0.00 0.00 0.00
0.16 0.16 0.03 0.02 0.06 0.14 0.07 0.02 0.00 0.00 0.00 0.00 0.02 0.24 0.40 0.53 0.36 0.20 0.25 0.20 0.04 0.01 0.01 0.00 0.00 0.00 0.00 0.00 0.00 0.00 0.00 0.00 0.00 0.00 0.00 0.00 0.00 0.00 0.00 0.00 0.00 0.00 0.00 0.00
0.27 0.15 0.04 0.01 0.07 0.10 0.02 0.01 0.00 0.00 0.00 0.00 0.04 0.08 0.25 0.36 0.17 0.11 0.06 0.07 0.02 0.01 0.01 0.00 0.00 0.00 0.00 0.00 0.00 0.00 0.00 0.00 0.00 0.00 0.00 0.00 0.00 0.00 0.00 0.00 0.00 0.00 0.00 0.00
0.27 0.15 0.07 0.01 0.05 0.04 0.00 0.00 0.00 0.01 0.00 0.00 0.03 0.03 0.16 0.23 0.19 0.13 0.08 0.03 0.01 0.01 0.01 0.02 0.02 0.01 0.01 0.00 0.00 0.00 0.02 0.00 0.00 0.00 0.00 0.00 0.00 0.00 0.00 0.00 0.00 0.00 0.00 0.00
0.22 0.12 0.08 0.02 0.04 0.06 0.01 0.01 0.01 0.00 0.00 0.00 0.02 0.02 0.10 0.18 0.19 0.12 0.10 0.06 0.02 0.01 0.02 0.06 0.07 0.08 0.11 0.06 0.00 0.01 0.01 0.01 0.01 0.00 0.00 0.00 0.00 0.00 0.00 0.00 0.00 0.00 0.00 0.00
0.16 0.05 0.01 0.02 0.03 0.10 0.04 0.01 0.05 0.02 0.00 0.00 0.01 0.01 0.01 0.11 0.17 0.18 0.19 0.10 0.03 0.02 0.02 0.06 0.05 0.11 0.11 0.08 0.03 0.01 0.01 0.02 0.04 0.02 0.00 0.00 0.00 0.00 0.00 0.00 0.00 0.00 0.00 0.00
0.19 0.10 0.03 0.01 0.02 0.09 0.05 0.01 0.04 0.03 0.00 0.00 0.00 0.02 0.01 0.01 0.10 0.23 0.14 0.09 0.07 0.04 0.02 0.03 0.01 0.00 0.03 0.03 0.01 0.01 0.06 0.04 0.03 0.02 0.02 0.00 0.00 0.00 0.00 0.00 0.00 0.00 0.00 0.00
0.24 0.14 0.07 0.02 0.02 0.07 0.07 0.03 0.03 0.02 0.00 0.00 0.00 0.00 0.00 0.00 0.02 0.21 0.09 0.13 0.11 0.09 0.05 0.03 0.00 0.00 0.00 0.01 0.00 0.00 0.02 0.03 0.01 0.01 0.02 0.00 0.00 0.00 0.00 0.00 0.00 0.00 0.00 0.00
0.17 0.11 0.06 0.02 0.03 0.09 0.11 0.06 0.04 0.00 0.00 0.00 0.00 0.00 0.00 0.00 0.01 0.19 0.07 0.05 0.04 0.06 0.05 0.02 0.00 0.00 0.00 0.00 0.00 0.00 0.00 0.00 0.00 0.00 0.00 0.00 0.00 0.00 0.00 0.00 0.00 0.00 0.00 0.00
0.15 0.08 0.05 0.02 0.02 0.12 0.15 0.08 0.08 0.00 0.00 0.00 0.00 0.00 0.00 0.00 0.00 0.05 0.08 0.06 0.05 0.05 0.02 0.03 0.01 0.00 0.00 0.00 0.00 0.00 0.00 0.00 0.00 0.00 0.00 0.00 0.00 0.00 0.00 0.00 0.00 0.00 0.00 0.00
0.09 0.07 0.06 0.03 0.02 0.11 0.16 0.07 0.11 0.00 0.00 0.00 0.00 0.00 0.00 0.00 0.00 0.00 0.01 0.02 0.00 0.01 0.02 0.05 0.03 0.01 0.00 0.00 0.00 0.00 0.00 0.00 0.00 0.00 0.00 0.00 0.00 0.00 0.00 0.00 0.00 0.00 0.00 0.00
0.06 0.07 0.05 0.04 0.03 0.12 0.13 0.07 0.22 0.05 0.00 0.00 0.00 0.00 0.00 0.00 0.00 0.00 0.00 0.00 0.00 0.00 0.00 0.00 0.00 0.00 0.00 0.00 0.00 0.00 0.00 0.00 0.00 0.00 0.00 0.00 0.00 0.00 0.00 0.00 0.00 0.00 0.00 0.00
0.05 0.05 0.03 0.03 0.03 0.11 0.13 0.17 0.20 0.20 0.07 0.02 0.01 0.00 0.00 0.00 0.00 0.00 0.00 0.00 0.00 0.01 0.01 0.00 0.00 0.00 0.01 0.00 0.00 0.00 0.00 0.00 0.00 0.00 0.00 0.00 0.00 0.00 0.00 0.00 0.00 0.00 0.00 0.00
0.04 0.04 0.03 0.05 0.06 0.07 0.11 0.06 0.04 0.16 0.19 0.09 0.01 0.00 0.00 0.00 0.00 0.00 0.00 0.00 0.01 0.03 0.04 0.02 0.01 0.01 0.01 0.00 0.00 0.00 0.00 0.00 0.00 0.00 0.00 0.00 0.00 0.00 0.00 0.00 0.00 0.00 0.00 0.01
0.07 0.05 0.07 0.12 0.10 0.10 0.09 0.02 0.03 0.13 0.15 0.10 0.05 0.01 0.00 0.00 0.01 0.02 0.02 0.03 0.05 0.05 0.04 0.02 0.01 0.00 0.00 0.00 0.00 0.00 0.00 0.00 0.00 0.00 0.00 0.00 0.00 0.00 0.00 0.00 0.00 0.01 0.01 0.01
0.12 0.08 0.09 0.12 0.06 0.02 0.02 0.01 0.03 0.04 0.07 0.06 0.02 0.00 0.00 0.00 0.03 0.04 0.03 0.04 0.04 0.02 0.02 0.02 0.01 0.01 0.00 0.00 0.00 0.00 0.00 0.00 0.00 0.00 0.00 0.00 0.00 0.00 0.00 0.00 0.01 0.00 0.00 0.00
0.16 0.07 0.04 0.03 0.03 0.02 0.01 0.00 0.03 0.05 0.05 0.01 0.00 0.00 0.00 0.01 0.02 0.03 0.03 0.02 0.01 0.01 0.01 0.01 0.01 0.00 0.00 0.00 0.00 0.00 0.00 0.00 0.00 0.00 0.00 0.00 0.00 0.00 0.00 0.00 0.00 0.00 0.00 0.00
0.19 0.05 0.01 0.01 0.02 0.00 0.00 0.00 0.00 0.01 0.00 0.00 0.00 0.00 0.00 0.00 0.00 0.01 0.00 0.00 0.00 0.00 0.00 0.00 0.00 0.00 0.00 0.00 0.00 0.00 0.00 0.00 0.00 0.00 0.00 0.00 0.00 0.00 0.00 0.00 0.00 0.00 0.00 0.00
0.15 0.01 0.03 0.01 0.00 0.01 0.00 0.00 0.00 0.00 0.00 0.00 0.00 0.00 0.00 0.00 0.00 0.00 0.00 0.00 0.01 0.01 0.00 0.01 0.00 0.00 0.00 0.00 0.00 0.00 0.00 0.00 0.00 0.00 0.00 0.00 0.00 0.00 0.00 0.00 0.00 0.00 0.00 0.00
0.28 0.31 0.36 0.10 0.06 0.01 0.00 0.00 0.00 0.00 0.00 0.00 0.00 0.00 0.00 0.00 0.00 0.00 0.01 0.01 0.01 0.00 0.01 0.00 0.00 0.00 0.00 0.00 0.00 0.00 0.00 0.00 0.00 0.00 0.00 0.00 0.00 0.00 0.00 0.00 0.00 0.00 0.00 0.00
0.90 0.66 0.44 0.08 0.06 0.00 0.00 0.00 0.00 0.00 0.00 0.00 0.00 0.00 0.00 0.00 0.00 0.00 0.01 0.02 0.01 0.02 0.01 0.00 0.00 0.00 0.00 0.00 0.00 0.00 0.00 0.00 0.00 0.00 0.00 0.00 0.00 0.00 0.00 0.00 0.00 0.00 0.00 0.00
0.77 0.31 0.13 0.03 0.00 0.00 0.00 0.00 0.00 0.00 0.00 0.00 0.00 0.00 0.00 0.00 0.00 0.00 0.02 0.04 0.02 0.00 0.00 0.00 0.00 0.00 0.00 0.00 0.00 0.00 0.00 0.00 0.00 0.00 0.00 0.00 0.00 0.00 0.00 0.00 0.00 0.00 0.00 0.00
0.79 0.31 0.09 0.02 0.00 0.00 0.00 0.00 0.00 0.00 0.00 0.00 0.00 0.00 0.00 0.00 0.00 0.01 0.01 0.00 0.00 0.00 0.00 0.00 0.00 0.00 0.00 0.00 0.00 0.00 0.00 0.00 0.00 0.00 0.00 0.00 0.00 0.00 0.00 0.00 0.00 0.00 0.00 0.00
0.76 0.18 0.01 0.00 0.00 0.00 0.00 0.00 0.00 0.00 0.00 0.00 0.00 0.00 0.00 0.00 0.01 0.01 0.00 0.00 0.00 0.00 0.00 0.00 0.00 0.00 0.00 0.00 0.00 0.00 0.00 0.00 0.00 0.00 0.00 0.00 0.00 0.00 0.00 0.00 0.00 0.00 0.00 0.00

GFSNW_prec_precacc24_030.txt.gz
Total_Precipitation_Accumulation
0.31 0.26 0.19 0.14 0.13 0.16 0.13 0.09 0.07 0.05 0.21 0.74 0.63 0.67 0.80 0.82 0.93 1.01 0.78 0.39 0.18 0.11 0.09 0.12 0.13 0.04 0.01 0.00 0.00 0.03 0.12 0.23 0.39 0.38 0.11 0.04 0.05 0.01 0.00 0.00 0.00 0.00 0.00 0.00
0.24 0.21 0.18 0.19 0.19 0.08 0.06 0.08 0.11 0.35 0.16 0.24 0.37 0.56 0.84 1.01 0.92 1.02 0.77 0.44 0.16 0.05 0.02 0.09 0.07 0.00 0.00 0.00 0.00 0.01 0.04 0.16 0.31 0.36 0.15 0.03 0.06 0.01 0.00 0.00 0.00 0.00 0.00 0.00
0.22 0.25 0.29 0.35 0.26 0.09 0.08 0.09 0.08 0.38 0.36 0.07 0.23 0.62 0.81 0.87 0.71 0.84 0.55 0.42 0.15 0.03 0.01 0.01 0.01 0.01 0.00 0.00 0.00 0.00 0.06 0.08 0.20 0.17 0.09 0.01 0.01 0.00 0.00 0.00 0.00 0.00 0.00 0.00
0.28 0.31 0.25 0.32 0.17 0.12 0.13 0.09 0.03 0.04 0.09 0.03 0.04 0.35 0.55 0.72 0.91 0.67 0.58 0.44 0.13 0.01 0.02 0.01 0.00 0.00 0.00 0.00 0.00 0.00 0.07 0.02 0.04 0.01 0.00 0.00 0.00 0.00 0.00 0.00 0.00 0.00 0.00 0.00
0.24 0.31 0.21 0.16 0.10 0.17 0.15 0.08 0.00 0.01 0.01 0.00 0.03 0.24 0.43 0.64 0.58 0.42 0.34 0.24 0.05 0.01 0.01 0.00 0.00 0.00 0.00 0.00 0.00 0.00 0.00 0.01 0.00 0.00 0.00 0.00 0.00 0.00 0.00 0.00 0.00 0.00 0.00 0.00
0.37 0.38 0.43 0.31 0.15 0.13 0.09 0.04 0.00 0.00 0.00 0.01 0.05 0.09 0.26 0.45 0.39 0.25 0.08 0.10 0.04 0.02 0.01 0.00 0.00 0.00 0.00 0.00 0.00 0.00 0.00 0.00 0.00 0.00 0.00 0.00 0.00 0.00 0.00 0.00 0.00 0.00 0.00 0.00
0.38 0.31 0.31 0.17 0.13 0.05 0.01 0.01 0.01 0.04 0.01 0.01 0.03 0.03 0.17 0.33 0.38 0.30 0.16 0.06 0.02 0.01 0.01 0.02 0.02 0.01 0.01 0.01 0.00 0.00 0.02 0.01 0.01 0.00 0.00 0.00 0.00 0.00 0.00 0.00 0.00 0.00 0.00 0.00
0.31 0.24 0.29 0.25 0.20 0.10 0.02 0.01 0.02 0.03 0.02 0.01 0.03 0.02 0.13 0.32 0.37 0.26 0.14 0.07 0.02 0.01 0.06 0.09 0.11 0.11 0.13 0.06 0.01 0.01 0.01 0.02 0.02 0.01 0.00 0.00 0.00 0.00 0.00 0.00 0.00 0.00 0.00 0.00
0.26 0.16 0.08 0.03 0.04 0.12 0.06 0.01 0.08 0.08 0.04 0.02 0.01 0.01 0.04 0.29 0.39 0.32 0.20 0.10 0.03 0.02 0.14 0.14 0.10 0.13 0.13 0.08 0.03 0.01 0.01 0.02 0.04 0.03 0.01 0.00 0.00 0.00 0.00 0.00 0.00 0.00 0.00 0.00
0.27 0.27 0.13 0.07 0.05 0.11 0.08 0.02 0.08 0.16 0.05 0.01 0.00 0.02 0.05 0.09 0.29 0.37 0.15 0.09 0.07 0.05 0.14 0.09 0.03 0.01 0.03 0.03 0.01 0.01 0.06 0.05 0.04 0.03 0.03 0.00 0.00 0.00 0.00 0.00 0.00 0.00 0.00 0.00
0.30 0.34 0.16 0.06 0.04 0.11 0.10 0.03 0.08 0.12 0.05 0.01 0.00 0.00 0.04 0.02 0.11 0.34 0.15 0.13 0.11 0.09 0.09 0.07 0.02 0.00 0.00 0.01 0.00 0.00 0.02 0.04 0.02 0.02 0.02 0.00 0.00 0.00 0.00 0.00 0.00 0.00 0.00 0.00
0.21 0.24 0.12 0.05 0.07 0.11 0.14 0.07 0.09 0.11 0.05 0.01 0.00 0.00 0.00 0.00 0.02 0.26 0.14 0.09 0.04 0.06 0.06 0.02 0.00 0.00 0.00 0.00 0.00 0.00 0.00 0.00 0.00 0.00 0.00 0.00 0.00 0.00 0.00 0.00 0.00 0.00 0.00 0.00
0.19 0.16 0.09 0.04 0.08 0.14 0.14 0.09 0.15 0.11 0.04 0.01 0.00 0.00 0.00 0.00 0.00 0.08 0.20 0.16 0.12 0.07 0.03 0.05 0.01 0.00 0.00 0.00 0.00 0.00 0.00 0.00 0.00 0.00 0.00 0.00 0.00 0.00 0.00 0.00 0.00 0.00 0.00 0.00
0.13 0.12 0.08 0.05 0.08 0.14 0.16 0.08 0.19 0.10 0.04 0.01 0.00 0.00 0.00 0.00 0.00 0.01 0.12 0.19 0.05 0.12 0.12 0.13 0.10 0.02 0.00 0.00 0.00 0.00 0.00 0.00 0.00 0.00 0.00 0.00 0.00 0.00 0.00 0.00 0.00 0.00 0.00 0.00
0.09 0.11 0.07 0.07 0.07 0.14 0.13 0.07 0.33 0.16 0.03 0.01 0.00 0.00 0.00 0.00 0.00 0.00 0.03 0.09 0.00 0.02 0.07 0.08 0.06 0.04 0.01 0.01 0.00 0.00 0.00 0.00 0.00 0.00 0.00 0.00 0.00 0.00 0.00 0.00 0.00 0.00 0.00 0.00
0.06 0.09 0.06 0.07 0.07 0.14 0.15 0.18 0.29 0.31 0.08 0.01 0.00 0.00 0.00 0.00 0.00 0.00 0.00 0.00 0.00 0.01 0.01 0.01 0.00 0.00 0.00 0.00 0.00 0.00 0.00 0.00 0.00 0.00 0.00 0.00 0.00 0.00 0.00 0.00 0.00 0.00 0.00 0.00
0.07 0.08 0.07 0.08 0.08 0.08 0.15 0.08 0.06 0.23 0.20 0.07 0.00 0.01 0.00 0.00 0.00 0.00 0.00 0.00 0.01 0.03 0.02 0.01 0.00 0.00 0.00 0.00 0.00 0.00 0.00 0.00 0.00 0.00 0.00 0.00 0.00 0.00 0.00 0.00 0.00 0.00 0.00 0.00
0.15 0.13 0.13 0.16 0.13 0.11 0.11 0.02 0.05 0.22 0.29 0.15 0.08 0.01 0.00 0.00 0.01 0.01 0.01 0.01 0.03 0.04 0.03 0.01 0.00 0.00 0.00 0.00 0.00 0.00 0.00 0.00 0.00 0.00 0.00 0.00 0.00 0.00 0.00 0.00 0.00 0.00 0.00 0.00
0.32 0.25 0.18 0.19 0.09 0.02 0.04 0.03 0.09 0.07 0.20 0.20 0.09 0.01 0.00 0.00 0.03 0.03 0.03 0.03 0.04 0.02 0.01 0.01 0.01 0.00 0.00 0.00 0.00 0.00 0.00 0.00 0.00 0.00 0.00 0.00 0.00 0.00 0.00 0.00 0.00 0.00 0.00 0.00
0.52 0.28 0.13 0.10 0.05 0.04 0.05 0.03 0.05 0.08 0.08 0.07 0.05 0.01 0.00 0.01 0.02 0.03 0.03 0.02 0.01 0.01 0.01 0.00 0.01 0.00 0.00 0.00 0.00 0.00 0.00 0.00 0.00 0.00 0.00 0.00 0.00 0.00 0.00 0.00 0.00 0.00 0.00 0.00
0.57 0.31 0.07 0.05 0.03 0.01 0.01 0.01 0.01 0.01 0.00 0.00 0.00 0.00 0.00 0.00 0.00 0.01 0.00 0.00 0.00 0.00 0.00 0.00 0.00 0.00 0.00 0.00 0.00 0.00 0.00 0.00 0.00 0.00 0.00 0.00 0.00 0.00 0.00 0.00 0.00 0.00 0.00 0.00
0.36 0.07 0.07 0.03 0.02 0.03 0.01 0.00 0.00 0.00 0.00 0.00 0.00 0.00 0.00 0.00 0.00 0.00 0.00 0.00 0.00 0.00 0.00 0.01 0.00 0.00 0.00 0.00 0.00 0.00 0.00 0.00 0.00 0.00 0.00 0.00 0.00 0.00 0.00 0.00 0.00 0.00 0.00 0.00
0.45 0.42 0.48 0.16 0.13 0.04 0.01 0.00 0.00 0.00 0.00 0.00 0.00 0.00 0.00 0.00 0.00 0.00 0.00 0.00 0.01 0.00 0.01 0.00 0.00 0.00 0.00 0.00 0.00 0.00 0.00 0.00 0.00 0.00 0.00 0.00 0.00 0.00 0.00 0.00 0.00 0.00 0.00 0.00
1.19 0.82 0.58 0.11 0.09 0.00 0.00 0.00 0.00 0.00 0.00 0.00 0.00 0.00 0.00 0.00 0.00 0.00 0.00 0.02 0.01 0.01 0.01 0.00 0.00 0.00 0.00 0.00 0.00 0.00 0.00 0.00 0.00 0.00 0.00 0.00 0.00 0.00 0.00 0.00 0.00 0.00 0.00 0.00
0.98 0.36 0.13 0.03 0.00 0.00 0.00 0.00 0.00 0.00 0.00 0.00 0.00 0.00 0.00 0.00 0.00 0.00 0.01 0.04 0.01 0.00 0.00 0.00 0.00 0.00 0.00 0.00 0.00 0.00 0.00 0.00 0.00 0.00 0.00 0.00 0.00 0.00 0.00 0.00 0.00 0.00 0.00 0.00
0.93 0.38 0.10 0.02 0.00 0.00 0.00 0.00 0.00 0.00 0.00 0.00 0.00 0.00 0.00 0.00 0.00 0.00 0.00 0.00 0.00 0.00 0.00 0.00 0.00 0.00 0.00 0.00 0.00 0.00 0.00 0.00 0.00 0.00 0.00 0.00 0.00 0.00 0.00 0.00 0.00 0.00 0.00 0.00
0.85 0.22 0.01 0.00 0.00 0.00 0.00 0.00 0.00 0.00 0.00 0.00 0.00 0.00 0.00 0.00 0.00 0.00 0.00 0.00 0.00 0.00 0.00 0.00 0.00 0.00 0.00 0.00 0.00 0.00 0.00 0.00 0.00 0.00 0.00 0.00 0.00 0.00 0.00 0.00 0.00 0.00 0.00 0.00

GFSNW_prec_precacc24_033.txt.gz
Total_Precipitation_Accumulation
0.52 0.53 0.54 0.38 0.32 0.49 0.37 0.15 0.24 0.24 0.33 1.01 0.78 0.70 0.80 0.82 0.92 1.05 0.88 0.49 0.26 0.16 0.12 0.14 0.13 0.04 0.01 0.00 0.00 0.03 0.12 0.33 0.51 0.43 0.14 0.14 0.25 0.14 0.05 0.02 0.01 0.02 0.00 0.00
0.43 0.49 0.54 0.47 0.63 0.62 0.29 0.15 0.23 0.61 0.25 0.33 0.42 0.57 0.84 1.01 0.93 1.08 0.90 0.53 0.25 0.13 0.08 0.12 0.07 0.00 0.00 0.00 0.00 0.01 0.05 0.27 0.41 0.44 0.22 0.16 0.31 0.06 0.03 0.03 0.02 0.02 0.00 0.00
0.35 0.41 0.49 0.54 0.69 0.74 0.15 0.14 0.19 0.65 0.57 0.11 0.24 0.62 0.82 0.87 0.72 0.94 0.71 0.54 0.27 0.13 0.06 0.02 0.01 0.01 0.00 0.00 0.00 0.01 0.08 0.16 0.40 0.38 0.23 0.06 0.07 0.01 0.00 0.02 0.02 0.01 0.00 0.00
0.38 0.39 0.32 0.42 0.51 0.57 0.16 0.13 0.11 0.09 0.14 0.05 0.05 0.37 0.57 0.73 0.96 0.78 0.73 0.58 0.20 0.06 0.04 0.02 0.00 0.00 0.00 0.00 0.00 0.00 0.17 0.16 0.30 0.25 0.12 0.00 0.00 0.00 0.00 0.00 0.01 0.01 0.00 0.00
0.33 0.36 0.30 0.32 0.37 0.55 0.23 0.11 0.05 0.03 0.01 0.00 0.04 0.28 0.45 0.64 0.63 0.57 0.52 0.38 0.08 0.05 0.02 0.00 0.00 0.00 0.00 0.00 0.00 0.00 0.02 0.09 0.07 0.07 0.07 0.00 0.00 0.00 0.00 0.00 0.00 0.00 0.00 0.00
0.44 0.41 0.55 0.59 0.74 0.73 0.25 0.08 0.03 0.02 0.02 0.02 0.08 0.09 0.27 0.45 0.46 0.38 0.20 0.18 0.09 0.03 0.01 0.00 0.00 0.00 0.00 0.00 0.00 0.00 0.00 0.02 0.05 0.01 0.03 0.01 0.00 0.00 0.00 0.00 0.00 0.00 0.00 0.00
0.42 0.35 0.44 0.40 0.33 0.31 0.13 0.02 0.03 0.07 0.02 0.02 0.04 0.04 0.19 0.34 0.44 0.44 0.28 0.13 0.05 0.02 0.01 0.02 0.03 0.01 0.01 0.01 0.00 0.00 0.02 0.01 0.02 0.00 0.00 0.00 0.00 0.00 0.00 0.00 0.00 0.00 0.00 0.00
0.35 0.27 0.35 0.50 0.44 0.40 0.15 0.01 0.03 0.05 0.03 0.02 0.05 0.05 0.13 0.33 0.43 0.38 0.24 0.10 0.02 0.01 0.06 0.09 0.12 0.14 0.14 0.08 0.02 0.01 0.01 0.02 0.02 0.01 0.00 0.00 0.00 0.00 0.00 0.00 0.00 0.00 0.00 0.00
0.29 0.18 0.14 0.17 0.11 0.16 0.12 0.02 0.09 0.11 0.06 0.04 0.03 0.02 0.05 0.31 0.52 0.48 0.24 0.11 0.03 0.03 0.14 0.15 0.13 0.18 0.14 0.09 0.03 0.01 0.01 0.02 0.05 0.04 0.01 0.00 0.00 0.00 0.00 0.00 0.00 0.00 0.00 0.00
0.30 0.29 0.21 0.21 0.16 0.17 0.13 0.03 0.09 0.20 0.10 0.02 0.04 0.04 0.05 0.13 0.48 0.59 0.24 0.09 0.07 0.05 0.17 0.15 0.04 0.04 0.03 0.04 0.01 0.02 0.08 0.05 0.04 0.04 0.04 0.00 0.00 0.00 0.00 0.00 0.00 0.00 0.00 0.00
0.32 0.37 0.26 0.17 0.08 0.14 0.17 0.04 0.08 0.15 0.10 0.03 0.02 0.01 0.04 0.04 0.24 0.56 0.28 0.13 0.11 0.10 0.20 0.16 0.03 0.00 0.00 0.01 0.00 0.00 0.03 0.04 0.02 0.02 0.02 0.00 0.00 0.00 0.00 0.00 0.00 0.00 0.00 0.00
0.23 0.30 0.22 0.16 0.11 0.16 0.21 0.08 0.09 0.15 0.12 0.05 0.03 0.00 0.00 0.02 0.08 0.38 0.27 0.10 0.04 0.06 0.12 0.04 0.01 0.00 0.00 0.00 0.00 0.00 0.00 0.00 0.00 0.00 0.00 0.00 0.00 0.00 0.00 0.00 0.00 0.00 0.00 0.00
0.20 0.21 0.19 0.11 0.11 0.22 0.20 0.10 0.16 0.20 0.12 0.06 0.02 0.00 0.00 0.00 0.01 0.10 0.28 0.23 0.13 0.07 0.03 0.05 0.01 0.00 0.00 0.00 0.00 0.00 0.00 0.00 0.00 0.00 0.00 0.00 0.00 0.00 0.00 0.00 0.00 0.00 0.00 0.00
0.15 0.15 0.17 0.09 0.09 0.20 0.22 0.08 0.20 0.18 0.15 0.05 0.01 0.00 0.00 0.00 0.00 0.01 0.16 0.30 0.14 0.14 0.13 0.13 0.10 0.02 0.00 0.00 0.00 0.00 0.00 0.00 0.00 0.00 0.00 0.00 0.00 0.00 0.00 0.00 0.00 0.00 0.00 0.00
0.10 0.11 0.14 0.09 0.09 0.17 0.16 0.06 0.35 0.25 0.17 0.09 0.00 0.00 0.00 0.00 0.00 0.00 0.09 0.29 0.16 0.10 0.13 0.10 0.07 0.05 0.02 0.01 0.00 0.00 0.00 0.00 0.00 0.00 0.00 0.00 0.00 0.00 0.00 0.00 0.00 0.00 0.00 0.00
0.07 0.09 0.09 0.08 0.11 0.19 0.19 0.24 0.31 0.38 0.17 0.08 0.00 0.00 0.00 0.00 0.00 0.01 0.06 0.10 0.04 0.03 0.03 0.04 0.03 0.00 0.00 0.01 0.01 0.00 0.00 0.00 0.00 0.00 0.00 0.00 0.00 0.00 0.00 0.00 0.00 0.00 0.00 0.00
0.09 0.10 0.09 0.10 0.14 0.14 0.20 0.09 0.06 0.25 0.27 0.10 0.00 0.00 0.00 0.00 0.00 0.00 0.00 0.00 0.01 0.03 0.02 0.01 0.00 0.00 0.00 0.00 0.00 0.00 0.00 0.00 0.00 0.00 0.00 0.00 0.00 0.00 0.00 0.00 0.00 0.00 0.00 0.00
0.16 0.15 0.18 0.24 0.22 0.18 0.14 0.03 0.08 0.25 0.44 0.20 0.08 0.01 0.00 0.00 0.00 0.01 0.01 0.01 0.02 0.03 0.03 0.01 0.00 0.00 0.00 0.00 0.00 0.00 0.00 0.00 0.00 0.00 0.00 0.00 0.00 0.00 0.00 0.00 0.00 0.00 0.00 0.00
0.33 0.32 0.36 0.36 0.16 0.05 0.05 0.05 0.15 0.15 0.29 0.31 0.11 0.01 0.00 0.00 0.02 0.03 0.03 0.03 0.03 0.02 0.01 0.01 0.00 0.00 0.00 0.00 0.00 0.00 0.00 0.00 0.00 0.00 0.00 0.00 0.00 0.00 0.00 0.00 0.00 0.00 0.00 0.00
0.59 0.66 0.42 0.21 0.10 0.06 0.05 0.06 0.12 0.25 0.13 0.11 0.09 0.01 0.00 0.01 0.01 0.03 0.02 0.02 0.01 0.01 0.00 0.00 0.00 0.00 0.00 0.00 0.00 0.00 0.00 0.00 0.00 0.00 0.00 0.00 0.00 0.00 0.00 0.00 0.00 0.00 0.00 0.00
0.95 0.72 0.19 0.13 0.06 0.02 0.03 0.06 0.05 0.10 0.05 0.01 0.01 0.01 0.01 0.00 0.02 0.01 0.00 0.00 0.00 0.00 0.00 0.00 0.00 0.00 0.00 0.00 0.00 0.00 0.00 0.00 0.00 0.00 0.00 0.00 0.00 0.00 0.00 0.00 0.00 0.00 0.00 0.00
0.53 0.16 0.18 0.09 0.05 0.04 0.02 0.02 0.01 0.00 0.00 0.00 0.00 0.00 0.00 0.00 0.00 0.00 0.00 0.00 0.00 0.00 0.00 0.01 0.00 0.00 0.00 0.00 0.00 0.00 0.00 0.00 0.00 0.00 0.00 0.00 0.00 0.00 0.00 0.00 0.00 0.00 0.00 0.00
0.60 0.58 0.65 0.22 0.17 0.04 0.01 0.01 0.00 0.00 0.00 0.00 0.00 0.00 0.00 0.00 0.00 0.00 0.00 0.00 0.00 0.00 0.01 0.00 0.00 0.00 0.00 0.00 0.00 0.00 0.00 0.00 0.00 0.00 0.00 0.00 0.00 0.00 0.00 0.00 0.00 0.00 0.00 0.00
1.57 1.09 0.75 0.14 0.10 0.00 0.00 0.00 0.00 0.00 0.00 0.00 0.00 0.00 0.00 0.00 0.00 0.00 0.00 0.02 0.01 0.01 0.00 0.00 0.00 0.00 0.00 0.00 0.00 0.00 0.00 0.00 0.00 0.00 0.00 0.00 0.00 0.00 0.00 0.00 0.00 0.00 0.00 0.00
1.28 0.47 0.16 0.03 0.00 0.00 0.00 0.00 0.00 0.00 0.00 0.00 0.00 0.00 0.00 0.00 0.00 0.00 0.01 0.03 0.01 0.00 0.00 0.00 0.00 0.00 0.00 0.00 0.00 0.00 0.00 0.00 0.00 0.00 0.00 0.00 0.00 0.00 0.00 0.00 0.00 0.00 0.00 0.00
1.09 0.44 0.12 0.02 0.00 0.00 0.00 0.00 0.00 0.00 0.00 0.00 0.00 0.00 0.00 0.00 0.00 0.00 0.00 0.00 0.00 0.00 0.00 0.00 0.00 0.00 0.00 0.00 0.00 0.00 0.00 0.00 0.00 0.00 0.00 0.00 0.00 0.00 0.00 0.00 0.00 0.00 0.00 0.00
0.96 0.26 0.01 0.00 0.00 0.00 0.00 0.00 0.00 0.00 0.00 0.00 0.00 0.00 0.00 0.00 0.00 0.00 0.00 0.00 0.00 0.00 0.00 0.00 0.00 0.00 0.00 0.00 0.00 0.00 0.00 0.00 0.00 0.00 0.00 0.00 0.00 0.00 0.00 0.00 0.00 0.00 0.00 0.00

GFSNW_prec_precacc24_036.txt.gz
Total_Precipitation_Accumulation
0.54 0.62 0.86 0.67 0.56 0.73 0.81 0.73 0.80 0.52 0.59 1.31 0.99 0.74 0.75 0.74 0.78 0.99 0.83 0.47 0.27 0.18 0.16 0.19 0.15 0.04 0.01 0.00 0.00 0.03 0.12 0.34 0.52 0.44 0.16 0.17 0.34 0.37 0.42 0.45 0.16 0.10 0.00 0.00
0.45 0.62 0.78 0.68 0.85 1.04 1.06 0.68 0.55 0.87 0.50 0.50 0.45 0.58 0.83 0.93 0.83 1.06 0.89 0.52 0.27 0.17 0.15 0.20 0.07 0.00 0.00 0.00 0.00 0.01 0.05 0.30 0.47 0.52 0.28 0.21 0.47 0.40 0.39 0.32 0.15 0.03 0.00 0.00
0.37 0.53 0.61 0.69 0.87 1.03 0.76 0.54 0.42 0.95 1.04 0.28 0.25 0.62 0.82 0.86 0.71 0.93 0.72 0.57 0.34 0.24 0.15 0.05 0.02 0.01 0.00 0.00 0.00 0.01 0.09 0.20 0.50 0.52 0.41 0.22 0.25 0.19 0.18 0.17 0.05 0.03 0.01 0.00
0.39 0.47 0.38 0.49 0.65 0.81 0.47 0.31 0.19 0.18 0.26 0.16 0.06 0.38 0.58 0.74 0.96 0.77 0.76 0.65 0.28 0.17 0.11 0.04 0.01 0.00 0.00 0.00 0.00 0.01 0.17 0.20 0.53 0.52 0.23 0.07 0.14 0.08 0.08 0.03 0.03 0.03 0.01 0.00
0.34 0.41 0.35 0.38 0.54 0.97 0.51 0.22 0.07 0.04 0.01 0.01 0.04 0.29 0.45 0.65 0.63 0.58 0.57 0.47 0.22 0.16 0.06 0.01 0.00 0.00 0.00 0.00 0.01 0.01 0.02 0.12 0.26 0.40 0.13 0.04 0.04 0.02 0.04 0.02 0.01 0.01 0.01 0.00
0.44 0.43 0.59 0.70 0.96 1.26 0.69 0.18 0.03 0.04 0.04 0.02 0.08 0.09 0.27 0.45 0.47 0.41 0.27 0.32 0.23 0.10 0.03 0.00 0.00 0.00 0.00 0.00 0.00 0.00 0.00 0.02 0.13 0.26 0.12 0.01 0.00 0.00 0.00 0.00 0.00 0.01 0.01 0.00
0.42 0.35 0.46 0.49 0.48 0.63 0.54 0.16 0.04 0.08 0.05 0.03 0.05 0.05 0.20 0.36 0.45 0.49 0.35 0.23 0.15 0.05 0.01 0.02 0.03 0.01 0.01 0.01 0.00 0.00 0.02 0.01 0.04 0.06 0.02 0.01 0.00 0.00 0.00 0.00 0.00 0.00 0.00 0.00
0.34 0.28 0.37 0.57 0.58 0.60 0.30 0.10 0.03 0.07 0.09 0.03 0.05 0.05 0.14 0.34 0.45 0.43 0.31 0.17 0.10 0.01 0.06 0.09 0.12 0.15 0.15 0.08 0.02 0.01 0.01 0.02 0.03 0.01 0.00 0.00 0.00 0.00 0.00 0.00 0.00 0.00 0.00 0.00
0.29 0.19 0.16 0.23 0.24 0.25 0.25 0.20 0.13 0.11 0.08 0.06 0.04 0.03 0.06 0.33 0.55 0.56 0.31 0.17 0.03 0.03 0.15 0.15 0.13 0.22 0.15 0.09 0.03 0.01 0.01 0.02 0.05 0.05 0.01 0.00 0.00 0.00 0.00 0.00 0.00 0.00 0.00 0.00
0.29 0.30 0.23 0.23 0.26 0.29 0.24 0.16 0.13 0.20 0.11 0.02 0.04 0.05 0.07 0.16 0.51 0.72 0.37 0.13 0.07 0.06 0.17 0.15 0.04 0.05 0.03 0.04 0.01 0.02 0.08 0.05 0.04 0.05 0.06 0.00 0.00 0.00 0.00 0.00 0.00 0.00 0.00 0.00
0.32 0.38 0.27 0.18 0.16 0.28 0.25 0.06 0.09 0.15 0.13 0.03 0.02 0.02 0.05 0.05 0.27 0.74 0.44 0.14 0.11 0.12 0.21 0.16 0.03 0.00 0.00 0.01 0.00 0.00 0.04 0.04 0.02 0.02 0.02 0.00 0.00 0.00 0.00 0.00 0.00 0.00 0.00 0.00
0.23 0.31 0.23 0.18 0.16 0.26 0.33 0.10 0.10 0.17 0.14 0.06 0.04 0.03 0.01 0.02 0.12 0.52 0.45 0.12 0.04 0.06 0.14 0.07 0.03 0.00 0.00 0.00 0.00 0.00 0.00 0.00 0.00 0.00 0.00 0.00 0.00 0.00 0.00 0.00 0.00 0.00 0.00 0.00
0.20 0.23 0.21 0.16 0.17 0.30 0.33 0.12 0.16 0.21 0.14 0.07 0.03 0.02 0.00 0.00 0.06 0.17 0.42 0.32 0.13 0.07 0.05 0.11 0.03 0.00 0.00 0.00 0.00 0.00 0.00 0.00 0.00 0.00 0.00 0.00 0.00 0.00 0.00 0.00 0.00 0.00 0.00 0.00
0.16 0.16 0.18 0.14 0.16 0.26 0.33 0.10 0.21 0.20 0.17 0.07 0.01 0.00 0.00 0.00 0.02 0.04 0.19 0.35 0.18 0.14 0.13 0.16 0.11 0.02 0.00 0.00 0.00 0.00 0.00 0.00 0.00 0.00 0.00 0.00 0.00 0.00 0.00 0.00 0.00 0.00 0.00 0.00
0.11 0.12 0.15 0.13 0.15 0.25 0.22 0.07 0.35 0.25 0.21 0.17 0.02 0.00 0.00 0.00 0.00 0.01 0.11 0.39 0.25 0.18 0.15 0.10 0.07 0.05 0.02 0.01 0.00 0.00 0.00 0.00 0.00 0.00 0.00 0.00 0.00 0.00 0.00 0.00 0.00 0.00 0.00 0.00
0.08 0.10 0.10 0.10 0.16 0.32 0.28 0.25 0.31 0.38 0.20 0.19 0.03 0.00 0.00 0.00 0.00 0.02 0.13 0.19 0.15 0.15 0.07 0.05 0.03 0.00 0.00 0.01 0.01 0.00 0.00 0.00 0.00 0.00 0.00 0.00 0.00 0.00 0.00 0.00 0.00 0.00 0.00 0.00
0.10 0.10 0.09 0.10 0.19 0.26 0.27 0.10 0.06 0.25 0.30 0.17 0.01 0.00 0.00 0.00 0.00 0.01 0.05 0.02 0.05 0.09 0.06 0.02 0.01 0.00 0.00 0.00 0.00 0.00 0.00 0.00 0.00 0.00 0.00 0.00 0.00 0.00 0.00 0.00 0.00 0.00 0.00 0.00
0.17 0.16 0.17 0.24 0.31 0.31 0.18 0.03 0.08 0.24 0.46 0.25 0.11 0.01 0.00 0.00 0.00 0.01 0.01 0.01 0.02 0.03 0.03 0.01 0.00 0.00 0.00 0.00 0.00 0.00 0.00 0.00 0.00 0.00 0.00 0.00 0.00 0.00 0.00 0.00 0.00 0.00 0.00 0.00
0.34 0.33 0.38 0.50 0.30 0.11 0.05 0.06 0.16 0.17 0.31 0.38 0.13 0.01 0.00 0.00 0.02 0.02 0.02 0.02 0.02 0.01 0.01 0.01 0.00 0.00 0.00 0.00 0.00 0.00 0.00 0.00 0.00 0.00 0.00 0.00 0.00 0.00 0.00 0.00 0.00 0.00 0.00 0.00
0.59 0.73 0.63 0.45 0.19 0.08 0.06 0.07 0.15 0.32 0.20 0.13 0.12 0.01 0.00 0.01 0.01 0.02 0.02 0.01 0.01 0.01 0.00 0.00 0.00 0.00 0.00 0.00 0.00 0.00 0.00 0.00 0.00 0.00 0.00 0.00 0.00 0.00 0.00 0.00 0.00 0.00 0.00 0.00
1.04 0.93 0.35 0.26 0.10 0.02 0.04 0.12 0.09 0.14 0.15 0.04 0.01 0.01 0.01 0.00 0.01 0.01 0.00 0.00 0.00 0.00 0.00 0.00 0.00 0.00 0.00 0.00 0.00 0.00 0.00 0.00 0.00 0.00 0.00 0.00 0.00 0.00 0.00 0.00 0.00 0.00 0.00 0.00
0.67 0.25 0.31 0.16 0.10 0.07 0.03 0.04 0.03 0.01 0.01 0.00 0.00 0.00 0.00 0.01 0.01 0.01 0.00 0.00 0.00 0.00 0.00 0.00 0.00 0.00 0.00 0.00 0.00 0.00 0.00 0.00 0.00 0.00 0.00 0.00 0.00 0.00 0.00 0.00 0.00 0.00 0.00 0.00
0.83 0.80 0.77 0.26 0.20 0.05 0.01 0.01 0.01 0.00 0.00 0.00 0.00 0.00 0.00 0.01 0.00 0.00 0.00 0.00 0.00 0.00 0.00 0.00 0.00 0.00 0.00 0.00 0.00 0.00 0.00 0.00 0.00 0.00 0.00 0.00 0.00 0.00 0.00 0.00 0.00 0.00 0.00 0.00
1.89 1.31 0.84 0.15 0.10 0.00 0.00 0.00 0.00 0.00 0.00 0.00 0.00 0.00 0.00 0.00 0.00 0.00 0.00 0.01 0.00 0.00 0.00 0.00 0.00 0.00 0.00 0.00 0.00 0.00 0.00 0.00 0.00 0.00 0.00 0.00 0.00 0.00 0.00 0.00 0.00 0.00 0.00 0.00
1.49 0.59 0.19 0.03 0.00 0.00 0.00 0.00 0.00 0.00 0.00 0.00 0.00 0.00 0.00 0.00 0.00 0.00 0.01 0.03 0.01 0.00 0.00 0.00 0.00 0.00 0.00 0.00 0.00 0.00 0.00 0.00 0.00 0.00 0.00 0.00 0.00 0.00 0.00 0.00 0.00 0.00 0.00 0.00
1.21 0.53 0.14 0.02 0.00 0.00 0.00 0.00 0.00 0.00 0.00 0.00 0.00 0.00 0.00 0.00 0.00 0.00 0.00 0.00 0.00 0.00 0.00 0.00 0.00 0.00 0.00 0.00 0.00 0.00 0.00 0.00 0.00 0.00 0.00 0.00 0.00 0.00 0.00 0.00 0.00 0.00 0.00 0.00
1.00 0.32 0.02 0.00 0.00 0.00 0.00 0.00 0.00 0.00 0.00 0.00 0.00 0.00 0.00 0.00 0.00 0.00 0.00 0.00 0.00 0.00 0.00 0.00 0.00 0.00 0.00 0.00 0.00 0.00 0.00 0.00 0.00 0.00 0.00 0.00 0.00 0.00 0.00 0.00 0.00 0.00 0.00 0.00

GFSNW_prec_precacc24_039.txt.gz
Total_Precipitation_Accumulation
0.54 0.63 0.91 0.81 0.81 0.96 0.99 0.97 1.25 1.06 0.98 2.07 1.32 0.62 0.64 0.63 0.66 0.88 0.81 0.47 0.27 0.18 0.17 0.16 0.12 0.04 0.01 0.00 0.00 0.03 0.12 0.35 0.53 0.44 0.16 0.17 0.35 0.41 0.51 0.68 0.37 0.28 0.17 0.07
0.45 0.62 0.81 0.80 1.10 1.37 1.28 1.13 0.92 1.53 0.78 0.77 0.55 0.52 0.67 0.77 0.75 1.05 0.88 0.51 0.27 0.17 0.17 0.22 0.07 0.00 0.00 0.00 0.00 0.01 0.05 0.33 0.49 0.53 0.36 0.28 0.52 0.45 0.51 0.45 0.45 0.31 0.21 0.04
0.37 0.53 0.62 0.77 1.04 1.27 0.94 0.98 0.92 1.73 1.56 0.39 0.25 0.61 0.71 0.76 0.69 0.93 0.70 0.54 0.32 0.27 0.18 0.08 0.03 0.01 0.00 0.00 0.00 0.01 0.09 0.20 0.50 0.53 0.49 0.48 0.61 0.46 0.43 0.53 0.42 0.14 0.05 0.01
0.40 0.47 0.38 0.52 0.69 0.95 0.64 0.61 0.38 0.39 0.48 0.21 0.07 0.38 0.57 0.72 0.94 0.75 0.73 0.58 0.25 0.22 0.18 0.06 0.03 0.00 0.00 0.00 0.00 0.01 0.18 0.21 0.54 0.58 0.33 0.25 0.56 0.46 0.42 0.33 0.16 0.12 0.02 0.01
0.34 0.40 0.35 0.40 0.56 1.05 0.78 0.36 0.12 0.04 0.01 0.01 0.05 0.30 0.45 0.65 0.63 0.58 0.52 0.39 0.23 0.23 0.13 0.03 0.00 0.00 0.00 0.00 0.01 0.01 0.02 0.13 0.32 0.45 0.35 0.37 0.23 0.22 0.27 0.14 0.07 0.05 0.01 0.00
0.43 0.42 0.59 0.72 1.03 1.43 1.04 0.37 0.06 0.04 0.05 0.02 0.09 0.10 0.27 0.45 0.50 0.44 0.28 0.35 0.31 0.17 0.08 0.02 0.00 0.00 0.00 0.00 0.00 0.00 0.00 0.04 0.19 0.46 0.33 0.19 0.10 0.19 0.11 0.05 0.06 0.02 0.01 0.00
0.41 0.35 0.45 0.50 0.59 0.80 0.73 0.33 0.18 0.10 0.07 0.03 0.05 0.05 0.20 0.36 0.47 0.54 0.40 0.31 0.23 0.11 0.05 0.02 0.02 0.01 0.01 0.01 0.00 0.00 0.02 0.01 0.09 0.19 0.04 0.04 0.01 0.00 0.01 0.05 0.03 0.00 0.01 0.00
0.33 0.27 0.37 0.58 0.64 0.70 0.40 0.21 0.13 0.07 0.09 0.03 0.06 0.05 0.16 0.34 0.46 0.48 0.38 0.25 0.17 0.07 0.09 0.09 0.12 0.15 0.15 0.08 0.02 0.01 0.01 0.02 0.06 0.10 0.01 0.01 0.00 0.00 0.00 0.00 0.00 0.00 0.00 0.00
0.29 0.19 0.16 0.24 0.26 0.28 0.35 0.27 0.19 0.11 0.08 0.07 0.04 0.04 0.06 0.33 0.58 0.61 0.40 0.28 0.09 0.07 0.16 0.15 0.14 0.25 0.15 0.09 0.03 0.01 0.01 0.02 0.07 0.05 0.01 0.00 0.00 0.00 0.00 0.00 0.00 0.00 0.00 0.00
0.29 0.30 0.23 0.24 0.27 0.31 0.29 0.27 0.23 0.21 0.11 0.02 0.04 0.05 0.09 0.20 0.58 0.78 0.49 0.24 0.09 0.07 0.19 0.15 0.04 0.06 0.03 0.04 0.01 0.03 0.08 0.05 0.05 0.05 0.06 0.00 0.00 0.00 0.00 0.00 0.00 0.00 0.00 0.00
0.32 0.38 0.27 0.19 0.17 0.32 0.29 0.16 0.24 0.18 0.13 0.03 0.02 0.03 0.06 0.09 0.34 0.85 0.64 0.22 0.13 0.13 0.22 0.16 0.03 0.00 0.00 0.01 0.00 0.00 0.04 0.04 0.02 0.02 0.02 0.00 0.00 0.00 0.00 0.00 0.00 0.00 0.00 0.00
0.23 0.31 0.23 0.20 0.16 0.32 0.38 0.16 0.16 0.20 0.14 0.06 0.04 0.03 0.03 0.06 0.17 0.58 0.62 0.17 0.05 0.07 0.14 0.07 0.03 0.00 0.00 0.00 0.00 0.00 0.00 0.00 0.00 0.00 0.00 0.00 0.00 0.00 0.00 0.00 0.00 0.00 0.00 0.00
0.20 0.22 0.21 0.16 0.17 0.33 0.40 0.18 0.19 0.23 0.16 0.08 0.03 0.02 0.01 0.01 0.06 0.20 0.55 0.40 0.14 0.08 0.06 0.12 0.06 0.01 0.00 0.00 0.00 0.00 0.00 0.00 0.00 0.00 0.00 0.00 0.00 0.00 0.00 0.00 0.00 0.00 0.00 0.00
0.16 0.16 0.19 0.14 0.16 0.30 0.38 0.16 0.22 0.21 0.17 0.07 0.01 0.01 0.01 0.00 0.05 0.09 0.27 0.44 0.20 0.14 0.13 0.20 0.18 0.04 0.00 0.00 0.00 0.00 0.00 0.00 0.00 0.00 0.00 0.00 0.00 0.00 0.00 0.00 0.00 0.00 0.00 0.00
0.12 0.12 0.14 0.13 0.16 0.27 0.24 0.11 0.35 0.26 0.22 0.19 0.03 0.01 0.01 0.00 0.03 0.06 0.17 0.46 0.32 0.21 0.16 0.13 0.14 0.06 0.02 0.01 0.00 0.00 0.00 0.00 0.00 0.00 0.00 0.00 0.00 0.00 0.00 0.00 0.00 0.00 0.00 0.00
0.10 0.10 0.10 0.10 0.16 0.35 0.37 0.30 0.31 0.38 0.20 0.22 0.04 0.00 0.00 0.00 0.00 0.03 0.16 0.24 0.21 0.22 0.12 0.08 0.04 0.00 0.00 0.01 0.01 0.00 0.00 0.00 0.00 0.00 0.00 0.00 0.00 0.00 0.00 0.00 0.00 0.00 0.00 0.00
0.10 0.10 0.09 0.10 0.21 0.33 0.35 0.12 0.06 0.25 0.30 0.18 0.01 0.00 0.00 0.00 0.00 0.02 0.10 0.06 0.08 0.14 0.11 0.05 0.02 0.00 0.00 0.00 0.00 0.00 0.00 0.00 0.00 0.00 0.00 0.00 0.00 0.00 0.00 0.00 0.00 0.00 0.00 0.00
0.18 0.16 0.17 0.24 0.32 0.39 0.23 0.03 0.08 0.24 0.46 0.26 0.12 0.01 0.00 0.00 0.00 0.02 0.02 0.02 0.04 0.06 0.04 0.01 0.00 0.00 0.00 0.00 0.00 0.00 0.00 0.00 0.00 0.00 0.00 0.00 0.00 0.00 0.00 0.00 0.00 0.00 0.00 0.00
0.35 0.34 0.39 0.51 0.31 0.15 0.09 0.07 0.16 0.17 0.31 0.38 0.13 0.01 0.00 0.00 0.02 0.01 0.01 0.00 0.01 0.01 0.00 0.00 0.00 0.00 0.00 0.00 0.00 0.00 0.00 0.00 0.00 0.00 0.00 0.00 0.00 0.00 0.00 0.00 0.00 0.00 0.00 0.00
0.59 0.74 0.68 0.50 0.20 0.11 0.12 0.09 0.16 0.41 0.22 0.14 0.12 0.01 0.00 0.01 0.01 0.01 0.01 0.01 0.00 0.01 0.00 0.00 0.00 0.00 0.00 0.00 0.00 0.00 0.00 0.00 0.00 0.00 0.00 0.00 0.00 0.00 0.00 0.00 0.00 0.00 0.00 0.00
1.05 0.99 0.43 0.31 0.14 0.07 0.08 0.15 0.14 0.21 0.19 0.06 0.01 0.01 0.01 0.00 0.01 0.01 0.00 0.00 0.00 0.00 0.00 0.00 0.00 0.00 0.00 0.00 0.00 0.00 0.00 0.00 0.00 0.00 0.00 0.00 0.00 0.00 0.00 0.00 0.00 0.00 0.00 0.00
0.74 0.39 0.42 0.23 0.18 0.16 0.08 0.07 0.06 0.02 0.01 0.00 0.00 0.00 0.00 0.03 0.04 0.01 0.00 0.00 0.00 0.00 0.00 0.00 0.00 0.00 0.00 0.00 0.00 0.00 0.00 0.00 0.00 0.00 0.00 0.00 0.00 0.00 0.00 0.00 0.00 0.00 0.00 0.00
0.93 0.96 0.85 0.29 0.24 0.09 0.02 0.01 0.02 0.00 0.00 0.00 0.00 0.00 0.00 0.04 0.06 0.02 0.00 0.00 0.00 0.00 0.00 0.00 0.00 0.00 0.00 0.00 0.00 0.00 0.00 0.00 0.00 0.00 0.00 0.00 0.00 0.00 0.00 0.00 0.00 0.00 0.00 0.00
1.90 1.50 0.90 0.14 0.11 0.00 0.00 0.00 0.00 0.00 0.00 0.00 0.00 0.00 0.00 0.01 0.04 0.02 0.00 0.00 0.00 0.00 0.00 0.00 0.00 0.00 0.00 0.00 0.00 0.00 0.00 0.00 0.00 0.00 0.00 0.00 0.00 0.00 0.00 0.00 0.00 0.00 0.00 0.00
1.56 0.73 0.24 0.03 0.00 0.00 0.00 0.00 0.00 0.00 0.00 0.00 0.00 0.00 0.00 0.00 0.00 0.00 0.00 0.02 0.00 0.00 0.00 0.00 0.00 0.00 0.00 0.00 0.00 0.00 0.00 0.00 0.00 0.00 0.00 0.00 0.00 0.00 0.00 0.00 0.00 0.00 0.00 0.00
1.19 0.59 0.17 0.03 0.00 0.00 0.00 0.00 0.00 0.00 0.00 0.00 0.00 0.00 0.00 0.00 0.00 0.00 0.00 0.00 0.00 0.00 0.00 0.00 0.00 0.00 0.00 0.00 0.00 0.00 0.00 0.00 0.00 0.00 0.00 0.00 0.00 0.00 0.00 0.00 0.00 0.00 0.00 0.00
0.90 0.31 0.03 0.01 0.00 0.00 0.00 0.00 0.00 0.00 0.00 0.00 0.00 0.00 0.00 0.00 0.00 0.00 0.00 0.00 0.00 0.00 0.00 0.00 0.00 0.00 0.00 0.00 0.00 0.00 0.00 0.00 0.00 0.00 0.00 0.00 0.00 0.00 0.00 0.00 0.00 0.00 0.00 0.00

GFSNW_prec_precacc24_045.txt.gz
Total_Precipitation_Accumulation
0.54 0.63 0.90 0.82 0.94 1.22 1.33 1.11 1.36 1.36 1.52 2.88 1.73 0.67 0.24 0.29 0.32 0.48 0.50 0.38 0.26 0.18 0.12 0.10 0.05 0.00 0.00 0.00 0.00 0.03 0.12 0.38 0.55 0.44 0.16 0.16 0.35 0.41 0.51 0.78 0.41 0.45 0.42 0.20
0.45 0.62 0.81 0.81 1.23 1.58 1.77 1.34 1.18 2.14 1.09 1.17 0.56 0.28 0.29 0.47 0.41 0.57 0.59 0.41 0.25 0.17 0.17 0.17 0.02 0.00 0.00 0.00 0.00 0.01 0.05 0.36 0.51 0.51 0.34 0.31 0.57 0.46 0.56 0.59 0.75 0.67 0.52 0.13
0.38 0.53 0.61 0.76 1.06 1.41 1.36 1.28 1.34 2.72 2.14 0.57 0.20 0.39 0.46 0.54 0.49 0.69 0.63 0.51 0.31 0.27 0.18 0.07 0.03 0.01 0.00 0.00 0.00 0.01 0.09 0.21 0.50 0.53 0.48 0.51 0.68 0.49 0.49 0.80 0.83 0.33 0.23 0.04
0.42 0.47 0.37 0.51 0.68 1.01 0.87 0.83 0.54 0.68 0.73 0.38 0.11 0.32 0.44 0.60 0.78 0.63 0.71 0.56 0.24 0.22 0.18 0.07 0.05 0.01 0.00 0.00 0.00 0.01 0.19 0.22 0.54 0.58 0.34 0.35 0.77 0.60 0.52 0.73 0.35 0.25 0.06 0.04
0.37 0.40 0.34 0.40 0.56 1.15 1.06 0.71 0.29 0.10 0.05 0.04 0.08 0.26 0.38 0.53 0.60 0.57 0.51 0.38 0.23 0.25 0.15 0.03 0.01 0.00 0.01 0.00 0.01 0.01 0.02 0.14 0.32 0.46 0.45 0.69 0.54 0.32 0.36 0.24 0.15 0.13 0.02 0.01
0.45 0.42 0.58 0.72 1.03 1.63 1.37 0.66 0.35 0.15 0.12 0.08 0.14 0.12 0.21 0.38 0.48 0.41 0.24 0.31 0.33 0.18 0.10 0.08 0.04 0.06 0.02 0.00 0.00 0.00 0.00 0.04 0.21 0.50 0.50 0.54 0.45 0.34 0.17 0.10 0.08 0.03 0.03 0.01
0.43 0.35 0.44 0.49 0.58 0.95 1.09 0.63 0.51 0.26 0.16 0.05 0.06 0.05 0.18 0.37 0.44 0.49 0.37 0.32 0.28 0.13 0.14 0.12 0.05 0.04 0.04 0.02 0.00 0.00 0.01 0.02 0.15 0.28 0.17 0.29 0.18 0.19 0.36 0.21 0.04 0.00 0.01 0.00
0.34 0.28 0.37 0.57 0.63 0.74 0.59 0.45 0.42 0.18 0.16 0.06 0.07 0.07 0.16 0.36 0.46 0.45 0.34 0.26 0.26 0.23 0.34 0.22 0.11 0.17 0.16 0.09 0.01 0.00 0.00 0.03 0.12 0.21 0.13 0.06 0.00 0.04 0.12 0.11 0.04 0.00 0.00 0.00
0.29 0.19 0.16 0.23 0.26 0.30 0.40 0.49 0.41 0.18 0.10 0.07 0.05 0.06 0.07 0.36 0.61 0.61 0.35 0.28 0.17 0.28 0.41 0.24 0.14 0.23 0.11 0.08 0.03 0.01 0.01 0.02 0.13 0.15 0.06 0.00 0.00 0.00 0.00 0.04 0.10 0.03 0.01 0.00
0.29 0.30 0.23 0.23 0.28 0.32 0.31 0.44 0.37 0.27 0.12 0.02 0.04 0.06 0.09 0.21 0.60 0.80 0.55 0.40 0.31 0.34 0.44 0.20 0.04 0.06 0.02 0.02 0.02 0.03 0.08 0.05 0.10 0.11 0.10 0.00 0.00 0.00 0.00 0.00 0.00 0.01 0.00 0.00
0.32 0.38 0.26 0.19 0.19 0.32 0.30 0.26 0.38 0.27 0.15 0.04 0.02 0.03 0.07 0.09 0.36 0.92 0.77 0.47 0.35 0.38 0.44 0.20 0.03 0.00 0.00 0.01 0.00 0.00 0.04 0.04 0.03 0.03 0.03 0.00 0.00 0.00 0.00 0.00 0.00 0.00 0.00 0.00
0.23 0.30 0.23 0.20 0.17 0.30 0.38 0.22 0.26 0.39 0.18 0.06 0.04 0.03 0.03 0.06 0.19 0.67 0.77 0.41 0.15 0.10 0.22 0.08 0.03 0.00 0.00 0.00 0.00 0.00 0.00 0.00 0.00 0.00 0.00 0.00 0.00 0.00 0.00 0.00 0.00 0.00 0.00 0.00
0.20 0.21 0.21 0.18 0.17 0.29 0.41 0.22 0.26 0.37 0.21 0.08 0.03 0.02 0.01 0.01 0.11 0.29 0.73 0.57 0.25 0.11 0.07 0.12 0.06 0.01 0.00 0.00 0.00 0.00 0.00 0.00 0.00 0.00 0.00 0.00 0.00 0.00 0.00 0.00 0.00 0.00 0.00 0.00
0.15 0.16 0.20 0.16 0.16 0.27 0.37 0.19 0.26 0.30 0.19 0.07 0.01 0.01 0.03 0.03 0.14 0.26 0.43 0.60 0.31 0.16 0.14 0.22 0.18 0.05 0.01 0.00 0.00 0.00 0.00 0.00 0.00 0.00 0.00 0.00 0.00 0.00 0.00 0.00 0.00 0.00 0.00 0.00
0.12 0.14 0.15 0.12 0.16 0.25 0.24 0.12 0.36 0.27 0.25 0.24 0.04 0.02 0.03 0.02 0.13 0.24 0.33 0.56 0.38 0.24 0.20 0.15 0.15 0.11 0.03 0.01 0.00 0.00 0.00 0.00 0.00 0.00 0.00 0.00 0.00 0.00 0.00 0.00 0.00 0.00 0.00 0.00
0.12 0.10 0.09 0.09 0.16 0.35 0.39 0.35 0.37 0.39 0.22 0.27 0.07 0.01 0.02 0.01 0.13 0.25 0.32 0.34 0.28 0.26 0.16 0.09 0.05 0.02 0.02 0.02 0.01 0.00 0.00 0.00 0.00 0.00 0.00 0.00 0.00 0.00 0.00 0.00 0.00 0.00 0.00 0.00
0.12 0.11 0.10 0.09 0.19 0.35 0.39 0.16 0.11 0.27 0.37 0.21 0.02 0.01 0.00 0.00 0.05 0.13 0.21 0.13 0.15 0.17 0.14 0.07 0.02 0.00 0.00 0.00 0.00 0.00 0.00 0.00 0.00 0.00 0.00 0.00 0.00 0.00 0.00 0.00 0.00 0.00 0.00 0.00
0.20 0.16 0.16 0.20 0.30 0.42 0.26 0.03 0.09 0.25 0.49 0.26 0.13 0.01 0.00 0.00 0.04 0.09 0.14 0.14 0.13 0.14 0.11 0.04 0.01 0.01 0.00 0.00 0.00 0.00 0.00 0.00 0.00 0.00 0.00 0.00 0.00 0.00 0.00 0.00 0.00 0.00 0.00 0.00
0.38 0.35 0.38 0.50 0.32 0.19 0.15 0.09 0.17 0.18 0.32 0.38 0.13 0.01 0.00 0.00 0.01 0.03 0.05 0.07 0.06 0.06 0.03 0.02 0.01 0.00 0.00 0.00 0.00 0.00 0.00 0.00 0.00 0.00 0.00 0.00 0.00 0.00 0.00 0.00 0.00 0.00 0.00 0.00
0.59 0.74 0.70 0.53 0.22 0.27 0.32 0.16 0.20 0.43 0.23 0.14 0.12 0.01 0.00 0.01 0.00 0.01 0.01 0.01 0.00 0.00 0.00 0.00 0.00 0.00 0.00 0.00 0.00 0.00 0.00 0.00 0.00 0.00 0.00 0.00 0.00 0.00 0.00 0.00 0.00 0.00 0.00 0.00
1.07 1.04 0.54 0.40 0.31 0.40 0.26 0.21 0.17 0.24 0.22 0.06 0.01 0.01 0.01 0.00 0.01 0.01 0.00 0.00 0.00 0.00 0.00 0.00 0.00 0.00 0.00 0.00 0.00 0.00 0.00 0.00 0.00 0.00 0.00 0.00 0.00 0.00 0.00 0.00 0.00 0.00 0.00 0.00
0.81 0.55 0.62 0.41 0.36 0.32 0.19 0.12 0.06 0.02 0.01 0.00 0.00 0.00 0.00 0.03 0.05 0.01 0.00 0.00 0.00 0.00 0.00 0.00 0.00 0.00 0.00 0.00 0.00 0.00 0.00 0.00 0.00 0.00 0.00 0.00 0.00 0.00 0.00 0.00 0.00 0.00 0.00 0.00
0.92 1.09 0.91 0.40 0.30 0.12 0.04 0.03 0.02 0.00 0.00 0.00 0.00 0.00 0.00 0.05 0.10 0.03 0.00 0.00 0.00 0.00 0.00 0.00 0.00 0.00 0.00 0.00 0.00 0.00 0.00 0.00 0.00 0.00 0.00 0.00 0.00 0.00 0.00 0.00 0.00 0.00 0.00 0.00
1.77 1.55 0.87 0.13 0.13 0.00 0.00 0.00 0.00 0.00 0.00 0.00 0.00 0.00 0.00 0.01 0.05 0.07 0.01 0.00 0.00 0.00 0.00 0.00 0.00 0.00 0.00 0.00 0.00 0.00 0.00 0.00 0.00 0.00 0.00 0.00 0.00 0.00 0.00 0.00 0.00 0.00 0.00 0.00
1.44 0.77 0.29 0.03 0.01 0.00 0.00 0.00 0.00 0.00 0.00 0.00 0.00 0.00 0.00 0.00 0.00 0.01 0.00 0.00 0.00 0.00 0.00 0.00 0.00 0.00 0.00 0.00 0.00 0.00 0.00 0.00 0.00 0.00 0.00 0.00 0.00 0.00 0.00 0.00 0.00 0.00 0.00 0.00
0.97 0.55 0.17 0.03 0.00 0.00 0.00 0.00 0.00 0.00 0.00 0.00 0.00 0.00 0.00 0.00 0.00 0.00 0.00 0.00 0.00 0.00 0.00 0.00 0.00 0.00 0.00 0.00 0.00 0.00 0.00 0.00 0.00 0.00 0.00 0.00 0.00 0.00 0.00 0.00 0.00 0.00 0.00 0.00
0.68 0.28 0.03 0.01 0.00 0.00 0.00 0.00 0.00 0.00 0.00 0.00 0.00 0.00 0.00 0.00 0.00 0.00 0.00 0.00 0.00 0.00 0.00 0.00 0.00 0.00 0.00 0.00 0.00 0.00 0.00 0.00 0.00 0.00 0.00 0.00 0.00 0.00 0.00 0.00 0.00 0.00 0.00 0.00

GFSNW_prec_precacc24_048.txt.gz
Total_Precipitation_Accumulation
0.55 0.63 0.90 0.80 0.92 1.21 1.37 1.17 1.62 1.45 1.57 2.99 1.71 0.69 0.34 0.19 0.18 0.32 0.36 0.33 0.26 0.18 0.12 0.10 0.04 0.00 0.00 0.00 0.00 0.03 0.12 0.39 0.56 0.43 0.16 0.16 0.34 0.41 0.52 0.79 0.41 0.45 0.43 0.21
0.45 0.62 0.80 0.78 1.20 1.58 1.82 1.40 1.44 2.22 1.13 1.29 0.53 0.26 0.28 0.23 0.21 0.37 0.44 0.31 0.25 0.17 0.17 0.17 0.01 0.00 0.00 0.00 0.00 0.01 0.06 0.38 0.51 0.51 0.34 0.31 0.57 0.46 0.56 0.59 0.77 0.69 0.54 0.14
0.38 0.53 0.61 0.74 1.04 1.39 1.45 1.45 1.76 2.82 2.28 0.59 0.08 0.12 0.20 0.24 0.26 0.41 0.45 0.33 0.29 0.27 0.18 0.07 0.03 0.01 0.00 0.00 0.00 0.01 0.09 0.22 0.50 0.52 0.48 0.51 0.68 0.49 0.49 0.84 0.93 0.35 0.24 0.04
0.42 0.47 0.36 0.49 0.66 0.98 0.89 1.00 0.86 0.76 0.85 0.39 0.10 0.12 0.17 0.31 0.48 0.43 0.50 0.45 0.22 0.22 0.18 0.06 0.04 0.01 0.00 0.00 0.00 0.01 0.19 0.23 0.54 0.58 0.34 0.35 0.77 0.60 0.53 0.85 0.41 0.32 0.07 0.04
0.36 0.40 0.34 0.39 0.54 1.10 1.08 0.81 0.44 0.13 0.06 0.04 0.08 0.13 0.20 0.36 0.48 0.54 0.45 0.37 0.22 0.25 0.15 0.03 0.01 0.00 0.01 0.00 0.01 0.01 0.02 0.14 0.32 0.46 0.45 0.69 0.55 0.33 0.40 0.30 0.22 0.18 0.03 0.02
0.44 0.42 0.57 0.72 1.01 1.62 1.51 0.75 0.40 0.18 0.13 0.09 0.12 0.08 0.14 0.29 0.47 0.40 0.24 0.31 0.33 0.18 0.10 0.08 0.04 0.06 0.03 0.00 0.00 0.00 0.01 0.04 0.21 0.50 0.50 0.55 0.49 0.39 0.22 0.15 0.10 0.06 0.03 0.01
0.38 0.35 0.44 0.49 0.56 0.94 1.19 0.69 0.58 0.32 0.18 0.06 0.04 0.04 0.13 0.31 0.40 0.48 0.36 0.32 0.28 0.13 0.14 0.12 0.05 0.05 0.05 0.04 0.00 0.00 0.02 0.02 0.15 0.28 0.18 0.33 0.23 0.28 0.40 0.21 0.04 0.01 0.01 0.00
0.31 0.28 0.37 0.57 0.61 0.72 0.64 0.52 0.58 0.29 0.21 0.07 0.06 0.07 0.14 0.33 0.40 0.39 0.29 0.25 0.25 0.23 0.35 0.24 0.11 0.14 0.11 0.06 0.02 0.00 0.00 0.03 0.14 0.22 0.16 0.07 0.03 0.11 0.15 0.12 0.04 0.00 0.00 0.00
0.27 0.19 0.16 0.23 0.25 0.25 0.41 0.54 0.54 0.32 0.20 0.10 0.04 0.05 0.07 0.36 0.57 0.52 0.24 0.23 0.16 0.27 0.44 0.29 0.14 0.20 0.08 0.06 0.02 0.01 0.01 0.01 0.13 0.15 0.09 0.00 0.00 0.00 0.00 0.11 0.16 0.03 0.01 0.01
0.28 0.30 0.23 0.23 0.27 0.27 0.32 0.50 0.48 0.35 0.17 0.03 0.04 0.05 0.09 0.21 0.59 0.71 0.48 0.33 0.28 0.35 0.51 0.25 0.05 0.06 0.01 0.02 0.02 0.02 0.07 0.06 0.11 0.12 0.13 0.00 0.00 0.00 0.00 0.00 0.04 0.04 0.01 0.00
0.29 0.38 0.26 0.19 0.19 0.27 0.28 0.27 0.44 0.32 0.16 0.04 0.02 0.03 0.07 0.09 0.35 0.81 0.74 0.45 0.30 0.35 0.46 0.23 0.04 0.00 0.00 0.00 0.00 0.00 0.03 0.04 0.03 0.03 0.03 0.00 0.00 0.00 0.00 0.00 0.00 0.00 0.00 0.00
0.20 0.29 0.22 0.20 0.18 0.28 0.35 0.21 0.27 0.40 0.19 0.06 0.04 0.03 0.03 0.06 0.19 0.65 0.79 0.47 0.18 0.10 0.23 0.09 0.02 0.00 0.00 0.00 0.00 0.00 0.00 0.00 0.00 0.00 0.00 0.00 0.00 0.00 0.00 0.00 0.00 0.00 0.00 0.00
0.16 0.21 0.21 0.18 0.18 0.26 0.37 0.21 0.26 0.38 0.22 0.08 0.03 0.02 0.01 0.01 0.11 0.29 0.77 0.63 0.34 0.18 0.08 0.13 0.06 0.01 0.00 0.00 0.00 0.00 0.00 0.00 0.00 0.00 0.00 0.00 0.00 0.00 0.00 0.00 0.00 0.00 0.00 0.00
0.14 0.16 0.20 0.16 0.16 0.22 0.30 0.17 0.24 0.31 0.21 0.08 0.01 0.01 0.03 0.03 0.15 0.29 0.49 0.67 0.42 0.30 0.16 0.24 0.19 0.05 0.01 0.00 0.00 0.00 0.00 0.00 0.00 0.00 0.00 0.00 0.00 0.00 0.00 0.00 0.00 0.00 0.00 0.00
0.11 0.14 0.15 0.12 0.15 0.20 0.18 0.11 0.31 0.26 0.27 0.27 0.05 0.02 0.04 0.02 0.14 0.31 0.43 0.66 0.45 0.31 0.23 0.17 0.16 0.11 0.03 0.01 0.00 0.00 0.00 0.00 0.00 0.00 0.00 0.00 0.00 0.00 0.00 0.00 0.00 0.00 0.00 0.00
0.12 0.10 0.10 0.09 0.16 0.30 0.33 0.32 0.34 0.32 0.23 0.31 0.08 0.02 0.02 0.01 0.18 0.36 0.42 0.40 0.31 0.31 0.19 0.12 0.06 0.03 0.02 0.02 0.01 0.00 0.00 0.00 0.00 0.00 0.00 0.00 0.00 0.00 0.00 0.00 0.00 0.00 0.00 0.00
0.13 0.12 0.10 0.08 0.19 0.33 0.37 0.16 0.13 0.25 0.37 0.23 0.04 0.04 0.03 0.00 0.10 0.26 0.34 0.17 0.17 0.21 0.17 0.10 0.03 0.00 0.00 0.00 0.00 0.00 0.00 0.00 0.00 0.00 0.00 0.00 0.00 0.00 0.00 0.00 0.00 0.00 0.00 0.00
0.22 0.17 0.15 0.18 0.28 0.41 0.26 0.03 0.09 0.25 0.51 0.27 0.13 0.01 0.00 0.00 0.07 0.18 0.23 0.20 0.16 0.17 0.11 0.04 0.02 0.01 0.00 0.00 0.00 0.00 0.00 0.00 0.00 0.00 0.00 0.00 0.00 0.00 0.00 0.00 0.00 0.00 0.00 0.00
0.39 0.34 0.37 0.48 0.30 0.18 0.16 0.10 0.18 0.18 0.36 0.39 0.13 0.01 0.00 0.00 0.02 0.08 0.11 0.11 0.09 0.07 0.03 0.03 0.02 0.01 0.00 0.00 0.00 0.00 0.00 0.00 0.00 0.00 0.00 0.00 0.00 0.00 0.00 0.00 0.00 0.00 0.00 0.00
0.60 0.74 0.70 0.52 0.21 0.31 0.41 0.23 0.22 0.44 0.25 0.14 0.12 0.01 0.00 0.00 0.00 0.01 0.03 0.03 0.03 0.01 0.00 0.00 0.00 0.00 0.00 0.00 0.00 0.00 0.00 0.00 0.00 0.00 0.00 0.00 0.00 0.00 0.00 0.00 0.00 0.00 0.00 0.00
1.06 1.06 0.56 0.40 0.41 0.48 0.30 0.23 0.18 0.25 0.22 0.06 0.01 0.01 0.01 0.00 0.01 0.01 0.00 0.00 0.00 0.00 0.00 0.00 0.00 0.00 0.00 0.00 0.00 0.00 0.00 0.00 0.00 0.00 0.00 0.00 0.00 0.00 0.00 0.00 0.00 0.00 0.00 0.00
0.78 0.58 0.65 0.49 0.41 0.34 0.20 0.12 0.06 0.02 0.01 0.00 0.00 0.00 0.00 0.03 0.05 0.01 0.00 0.00 0.00 0.00 0.00 0.00 0.00 0.00 0.00 0.00 0.00 0.00 0.00 0.00 0.00 0.00 0.00 0.00 0.00 0.00 0.00 0.00 0.00 0.00 0.00 0.00
0.89 1.04 0.91 0.42 0.31 0.13 0.04 0.03 0.02 0.00 0.00 0.00 0.00 0.00 0.00 0.05 0.10 0.03 0.00 0.00 0.00 0.00 0.00 0.00 0.00 0.00 0.00 0.00 0.00 0.00 0.00 0.00 0.00 0.00 0.00 0.00 0.00 0.00 0.00 0.00 0.00 0.00 0.00 0.00
1.61 1.41 0.84 0.14 0.15 0.00 0.00 0.00 0.00 0.00 0.00 0.00 0.00 0.01 0.01 0.02 0.05 0.07 0.01 0.00 0.00 0.00 0.00 0.00 0.00 0.00 0.00 0.00 0.00 0.00 0.00 0.00 0.00 0.00 0.00 0.00 0.00 0.00 0.00 0.00 0.00 0.00 0.00 0.00
1.33 0.73 0.28 0.03 0.02 0.00 0.00 0.00 0.00 0.00 0.00 0.00 0.00 0.00 0.00 0.00 0.01 0.01 0.00 0.00 0.00 0.00 0.00 0.00 0.00 0.00 0.00 0.00 0.00 0.00 0.00 0.00 0.00 0.00 0.00 0.00 0.00 0.00 0.00 0.00 0.00 0.00 0.00 0.00
0.84 0.48 0.14 0.02 0.00 0.00 0.00 0.00 0.00 0.00 0.00 0.00 0.00 0.00 0.00 0.00 0.00 0.00 0.00 0.00 0.00 0.00 0.00 0.00 0.00 0.00 0.00 0.00 0.00 0.00 0.00 0.00 0.00 0.00 0.00 0.00 0.00 0.00 0.00 0.00 0.00 0.00 0.00 0.00
0.58 0.24 0.03 0.01 0.00 0.00 0.00 0.00 0.00 0.00 0.00 0.00 0.00 0.00 0.00 0.00 0.00 0.00 0.00 0.00 0.00 0.00 0.00 0.00 0.00 0.00 0.00 0.00 0.00 0.00 0.00 0.00 0.00 0.00 0.00 0.00 0.00 0.00 0.00 0.00 0.00 0.00 0.00 0.00

GFSNW_prec_precacc24_051.txt.gz
Total_Precipitation_Accumulation
0.50 0.61 0.88 0.79 0.88 1.15 1.34 1.22 1.77 1.62 1.57 2.93 1.67 0.68 0.30 0.16 0.10 0.20 0.24 0.24 0.22 0.16 0.12 0.10 0.04 0.00 0.00 0.00 0.00 0.02 0.10 0.36 0.43 0.33 0.14 0.15 0.34 0.41 0.52 0.80 0.41 0.45 0.43 0.21
0.38 0.58 0.78 0.76 1.16 1.55 1.90 1.51 1.56 2.23 1.18 1.35 0.54 0.27 0.28 0.18 0.12 0.24 0.29 0.22 0.22 0.17 0.17 0.17 0.01 0.00 0.00 0.00 0.00 0.00 0.06 0.38 0.47 0.45 0.32 0.29 0.57 0.46 0.56 0.60 0.78 0.70 0.56 0.14
0.31 0.48 0.59 0.72 1.01 1.37 1.51 1.61 1.92 2.90 2.29 0.61 0.08 0.08 0.21 0.18 0.15 0.31 0.37 0.28 0.27 0.27 0.18 0.07 0.03 0.00 0.00 0.00 0.00 0.01 0.09 0.22 0.50 0.52 0.47 0.51 0.68 0.49 0.49 0.84 0.95 0.36 0.24 0.04
0.31 0.34 0.33 0.49 0.63 0.96 0.90 1.10 0.95 0.78 0.92 0.40 0.11 0.07 0.11 0.16 0.27 0.30 0.35 0.35 0.20 0.22 0.18 0.06 0.04 0.01 0.00 0.00 0.00 0.01 0.19 0.24 0.54 0.58 0.34 0.35 0.77 0.60 0.53 0.86 0.42 0.36 0.08 0.04
0.25 0.26 0.32 0.39 0.52 1.06 1.03 0.84 0.53 0.17 0.09 0.05 0.08 0.10 0.09 0.18 0.29 0.40 0.32 0.29 0.21 0.25 0.15 0.03 0.01 0.00 0.01 0.00 0.01 0.02 0.03 0.15 0.33 0.46 0.45 0.69 0.55 0.33 0.41 0.31 0.24 0.24 0.05 0.03
0.21 0.29 0.55 0.72 0.98 1.60 1.51 0.76 0.44 0.21 0.15 0.10 0.12 0.06 0.03 0.13 0.34 0.35 0.22 0.29 0.32 0.18 0.10 0.07 0.04 0.06 0.03 0.00 0.00 0.01 0.02 0.05 0.22 0.50 0.50 0.55 0.49 0.39 0.23 0.16 0.13 0.10 0.06 0.02
0.18 0.22 0.39 0.49 0.55 0.94 1.23 0.70 0.60 0.33 0.20 0.06 0.04 0.03 0.06 0.16 0.30 0.42 0.33 0.32 0.28 0.13 0.14 0.10 0.04 0.04 0.05 0.03 0.01 0.01 0.03 0.03 0.16 0.28 0.18 0.34 0.24 0.29 0.42 0.22 0.05 0.02 0.02 0.00
0.15 0.18 0.31 0.56 0.61 0.72 0.66 0.53 0.62 0.32 0.23 0.08 0.06 0.05 0.07 0.19 0.29 0.37 0.30 0.25 0.25 0.23 0.33 0.22 0.10 0.12 0.10 0.05 0.03 0.01 0.01 0.05 0.15 0.23 0.16 0.07 0.05 0.12 0.17 0.12 0.04 0.01 0.01 0.00
0.16 0.16 0.16 0.22 0.24 0.24 0.41 0.58 0.57 0.36 0.24 0.11 0.04 0.05 0.07 0.27 0.45 0.45 0.24 0.24 0.17 0.28 0.43 0.25 0.12 0.16 0.04 0.01 0.01 0.01 0.01 0.02 0.16 0.17 0.10 0.01 0.01 0.00 0.00 0.12 0.21 0.04 0.01 0.01
0.13 0.21 0.22 0.23 0.27 0.25 0.31 0.51 0.50 0.42 0.25 0.04 0.04 0.05 0.08 0.20 0.50 0.59 0.43 0.31 0.30 0.36 0.51 0.24 0.04 0.06 0.00 0.01 0.01 0.03 0.05 0.06 0.12 0.12 0.14 0.00 0.00 0.00 0.00 0.01 0.07 0.06 0.03 0.00
0.11 0.25 0.21 0.18 0.19 0.27 0.26 0.26 0.43 0.34 0.19 0.04 0.03 0.03 0.07 0.10 0.34 0.72 0.68 0.36 0.27 0.36 0.46 0.25 0.05 0.01 0.00 0.00 0.00 0.00 0.03 0.02 0.02 0.03 0.03 0.00 0.00 0.00 0.00 0.00 0.00 0.00 0.00 0.01
0.08 0.21 0.18 0.19 0.18 0.28 0.31 0.17 0.24 0.41 0.23 0.07 0.04 0.03 0.03 0.06 0.19 0.48 0.73 0.42 0.16 0.07 0.21 0.08 0.03 0.01 0.00 0.00 0.00 0.00 0.00 0.00 0.00 0.00 0.00 0.00 0.00 0.00 0.00 0.00 0.00 0.00 0.00 0.00
0.06 0.16 0.19 0.17 0.17 0.25 0.33 0.16 0.19 0.38 0.23 0.09 0.03 0.02 0.01 0.01 0.11 0.24 0.68 0.57 0.30 0.14 0.07 0.11 0.06 0.04 0.01 0.01 0.00 0.00 0.00 0.00 0.00 0.00 0.00 0.00 0.00 0.00 0.00 0.00 0.00 0.00 0.00 0.00
0.09 0.12 0.18 0.15 0.16 0.22 0.27 0.13 0.16 0.31 0.21 0.08 0.02 0.01 0.03 0.03 0.15 0.29 0.49 0.67 0.45 0.34 0.19 0.24 0.19 0.09 0.01 0.01 0.00 0.00 0.00 0.00 0.00 0.00 0.00 0.00 0.00 0.00 0.00 0.00 0.00 0.00 0.00 0.00
0.09 0.12 0.14 0.12 0.15 0.19 0.14 0.06 0.15 0.24 0.28 0.29 0.05 0.02 0.04 0.02 0.14 0.33 0.50 0.75 0.51 0.38 0.33 0.20 0.19 0.15 0.05 0.02 0.00 0.00 0.00 0.00 0.00 0.00 0.00 0.00 0.00 0.00 0.00 0.00 0.00 0.00 0.00 0.00
0.09 0.09 0.09 0.09 0.16 0.29 0.28 0.21 0.19 0.23 0.23 0.32 0.09 0.02 0.03 0.01 0.20 0.42 0.48 0.48 0.40 0.37 0.25 0.15 0.09 0.05 0.04 0.04 0.01 0.00 0.00 0.00 0.00 0.00 0.00 0.00 0.00 0.00 0.00 0.00 0.00 0.00 0.00 0.00
0.10 0.12 0.10 0.08 0.19 0.31 0.30 0.12 0.11 0.15 0.29 0.20 0.04 0.04 0.04 0.01 0.14 0.36 0.44 0.22 0.20 0.24 0.20 0.12 0.05 0.03 0.02 0.01 0.00 0.00 0.00 0.00 0.00 0.00 0.00 0.00 0.00 0.00 0.00 0.00 0.00 0.00 0.00 0.00
0.18 0.18 0.16 0.18 0.28 0.35 0.19 0.03 0.09 0.17 0.41 0.20 0.08 0.01 0.01 0.02 0.15 0.31 0.33 0.27 0.19 0.21 0.15 0.05 0.02 0.01 0.01 0.00 0.00 0.00 0.00 0.00 0.00 0.00 0.00 0.00 0.00 0.00 0.00 0.00 0.00 0.00 0.01 0.00
0.34 0.34 0.37 0.46 0.29 0.18 0.14 0.10 0.19 0.17 0.34 0.37 0.11 0.01 0.01 0.00 0.04 0.16 0.22 0.20 0.15 0.11 0.05 0.03 0.02 0.01 0.00 0.00 0.00 0.00 0.00 0.00 0.00 0.00 0.00 0.00 0.00 0.00 0.00 0.00 0.00 0.00 0.00 0.00
0.51 0.72 0.67 0.51 0.20 0.31 0.43 0.27 0.24 0.45 0.26 0.15 0.12 0.01 0.01 0.00 0.00 0.03 0.08 0.10 0.10 0.04 0.01 0.01 0.01 0.00 0.00 0.00 0.00 0.00 0.00 0.00 0.00 0.00 0.00 0.00 0.00 0.00 0.00 0.00 0.00 0.00 0.00 0.00
0.96 1.03 0.57 0.42 0.47 0.55 0.35 0.25 0.18 0.25 0.22 0.07 0.01 0.01 0.01 0.00 0.01 0.01 0.01 0.02 0.02 0.02 0.00 0.00 0.00 0.00 0.00 0.00 0.00 0.00 0.00 0.00 0.00 0.00 0.00 0.00 0.00 0.00 0.00 0.00 0.00 0.00 0.00 0.00
0.73 0.60 0.66 0.52 0.45 0.34 0.20 0.12 0.06 0.02 0.01 0.00 0.00 0.00 0.00 0.03 0.05 0.01 0.00 0.00 0.00 0.00 0.00 0.00 0.00 0.00 0.00 0.00 0.00 0.00 0.00 0.00 0.00 0.00 0.00 0.00 0.00 0.00 0.00 0.00 0.00 0.00 0.00 0.00
0.84 1.01 0.87 0.43 0.30 0.14 0.04 0.03 0.02 0.00 0.00 0.00 0.00 0.00 0.00 0.05 0.10 0.03 0.00 0.00 0.00 0.00 0.00 0.00 0.00 0.00 0.00 0.00 0.00 0.00 0.00 0.00 0.00 0.00 0.00 0.00 0.00 0.00 0.00 0.00 0.00 0.00 0.00 0.00
1.34 1.24 0.76 0.13 0.14 0.00 0.00 0.00 0.00 0.00 0.00 0.00 0.01 0.01 0.01 0.02 0.05 0.07 0.01 0.00 0.00 0.00 0.00 0.00 0.00 0.00 0.00 0.00 0.00 0.00 0.00 0.00 0.00 0.00 0.00 0.00 0.00 0.00 0.00 0.00 0.00 0.00 0.00 0.00
1.17 0.68 0.26 0.03 0.02 0.00 0.00 0.00 0.00 0.00 0.00 0.00 0.00 0.00 0.00 0.00 0.01 0.01 0.00 0.00 0.00 0.00 0.00 0.00 0.00 0.00 0.00 0.00 0.00 0.00 0.00 0.00 0.00 0.00 0.00 0.00 0.00 0.00 0.00 0.00 0.00 0.00 0.00 0.00
0.73 0.44 0.13 0.02 0.00 0.00 0.00 0.00 0.00 0.00 0.00 0.00 0.00 0.00 0.00 0.00 0.00 0.00 0.00 0.00 0.00 0.00 0.00 0.00 0.00 0.00 0.00 0.00 0.00 0.00 0.00 0.00 0.00 0.00 0.00 0.00 0.00 0.00 0.00 0.00 0.00 0.00 0.00 0.00
0.50 0.21 0.02 0.01 0.00 0.00 0.00 0.00 0.00 0.00 0.00 0.00 0.00 0.00 0.00 0.00 0.00 0.00 0.00 0.00 0.00 0.00 0.00 0.00 0.00 0.00 0.00 0.00 0.00 0.00 0.00 0.00 0.00 0.00 0.00 0.00 0.00 0.00 0.00 0.00 0.00 0.00 0.00 0.00

GFSNW_prec_precacc24_054.txt.gz
Total_Precipitation_Accumulation
0.28 0.44 0.77 0.72 0.83 1.08 1.29 1.22 1.81 1.74 1.59 2.78 1.62 0.68 0.32 0.17 0.17 0.09 0.10 0.11 0.11 0.11 0.10 0.10 0.03 0.00 0.00 0.00 0.00 0.00 0.00 0.16 0.17 0.06 0.04 0.13 0.30 0.40 0.51 0.80 0.41 0.45 0.43 0.21
0.26 0.47 0.66 0.63 1.06 1.53 1.89 1.50 1.52 2.12 1.20 1.31 0.54 0.30 0.31 0.20 0.18 0.10 0.13 0.11 0.14 0.14 0.16 0.17 0.01 0.00 0.00 0.00 0.00 0.00 0.01 0.23 0.20 0.17 0.22 0.28 0.51 0.45 0.56 0.60 0.78 0.70 0.56 0.14
0.21 0.32 0.36 0.42 0.82 1.36 1.52 1.56 1.92 2.76 2.27 0.62 0.11 0.08 0.25 0.19 0.14 0.12 0.17 0.16 0.20 0.25 0.18 0.07 0.03 0.00 0.00 0.00 0.00 0.00 0.02 0.14 0.30 0.37 0.41 0.50 0.67 0.48 0.49 0.84 0.96 0.36 0.24 0.04
0.18 0.18 0.14 0.21 0.54 0.94 0.87 1.06 0.97 0.82 0.89 0.39 0.13 0.08 0.14 0.13 0.12 0.12 0.20 0.23 0.17 0.21 0.18 0.06 0.04 0.01 0.00 0.00 0.00 0.01 0.12 0.22 0.50 0.57 0.34 0.35 0.77 0.60 0.53 0.86 0.42 0.36 0.08 0.04
0.16 0.12 0.16 0.25 0.48 1.03 0.95 0.79 0.53 0.19 0.11 0.06 0.09 0.11 0.12 0.21 0.09 0.19 0.24 0.25 0.21 0.25 0.15 0.03 0.01 0.00 0.01 0.00 0.01 0.02 0.02 0.14 0.32 0.46 0.45 0.69 0.55 0.33 0.41 0.31 0.24 0.24 0.05 0.03
0.12 0.07 0.16 0.43 0.90 1.57 1.47 0.74 0.45 0.22 0.16 0.10 0.12 0.06 0.03 0.09 0.16 0.21 0.21 0.26 0.30 0.18 0.10 0.07 0.04 0.06 0.03 0.00 0.00 0.01 0.02 0.05 0.22 0.50 0.50 0.55 0.49 0.39 0.23 0.17 0.13 0.11 0.08 0.02
0.08 0.08 0.17 0.34 0.47 0.94 1.25 0.71 0.60 0.31 0.19 0.06 0.04 0.03 0.05 0.06 0.12 0.26 0.25 0.30 0.27 0.13 0.13 0.10 0.04 0.04 0.05 0.03 0.01 0.01 0.04 0.03 0.16 0.28 0.19 0.35 0.24 0.29 0.42 0.23 0.05 0.03 0.05 0.01
0.06 0.06 0.10 0.34 0.45 0.69 0.67 0.55 0.62 0.31 0.22 0.07 0.06 0.05 0.04 0.05 0.10 0.24 0.26 0.24 0.25 0.23 0.28 0.19 0.06 0.09 0.08 0.05 0.03 0.01 0.01 0.07 0.16 0.24 0.16 0.07 0.05 0.12 0.17 0.12 0.04 0.03 0.03 0.00
0.05 0.05 0.10 0.21 0.23 0.22 0.40 0.58 0.55 0.31 0.21 0.09 0.04 0.05 0.04 0.09 0.23 0.32 0.24 0.25 0.17 0.27 0.31 0.17 0.06 0.14 0.02 0.01 0.01 0.01 0.02 0.02 0.19 0.17 0.11 0.01 0.01 0.00 0.00 0.13 0.23 0.04 0.02 0.01
0.04 0.04 0.11 0.16 0.24 0.24 0.30 0.52 0.49 0.32 0.22 0.03 0.05 0.06 0.06 0.13 0.32 0.46 0.43 0.32 0.31 0.36 0.39 0.19 0.03 0.05 0.00 0.00 0.01 0.03 0.07 0.08 0.13 0.12 0.15 0.00 0.00 0.00 0.00 0.01 0.08 0.06 0.03 0.00
0.04 0.05 0.12 0.15 0.17 0.23 0.24 0.26 0.41 0.30 0.18 0.04 0.03 0.04 0.05 0.09 0.26 0.61 0.64 0.36 0.27 0.37 0.42 0.22 0.04 0.01 0.00 0.00 0.00 0.00 0.02 0.02 0.03 0.03 0.03 0.00 0.00 0.00 0.00 0.00 0.00 0.00 0.00 0.01
0.03 0.08 0.13 0.16 0.13 0.23 0.28 0.18 0.20 0.33 0.24 0.08 0.04 0.04 0.04 0.08 0.20 0.43 0.66 0.39 0.16 0.07 0.21 0.08 0.03 0.01 0.01 0.00 0.01 0.00 0.00 0.00 0.00 0.00 0.00 0.00 0.00 0.00 0.00 0.00 0.00 0.00 0.00 0.00
0.03 0.08 0.15 0.16 0.12 0.22 0.31 0.16 0.12 0.29 0.23 0.09 0.05 0.02 0.01 0.01 0.11 0.21 0.56 0.47 0.22 0.12 0.07 0.11 0.06 0.04 0.02 0.01 0.00 0.00 0.00 0.00 0.00 0.00 0.00 0.00 0.00 0.00 0.00 0.00 0.00 0.00 0.00 0.00
0.05 0.07 0.16 0.13 0.11 0.18 0.25 0.13 0.08 0.22 0.17 0.07 0.03 0.01 0.03 0.03 0.15 0.28 0.37 0.50 0.40 0.26 0.12 0.18 0.14 0.08 0.02 0.02 0.01 0.00 0.00 0.00 0.00 0.00 0.00 0.00 0.00 0.00 0.00 0.00 0.00 0.00 0.00 0.00
0.07 0.08 0.13 0.09 0.11 0.15 0.13 0.06 0.04 0.13 0.25 0.28 0.06 0.02 0.04 0.02 0.14 0.33 0.47 0.68 0.54 0.40 0.29 0.15 0.14 0.13 0.06 0.02 0.00 0.00 0.00 0.00 0.00 0.00 0.00 0.00 0.00 0.00 0.00 0.00 0.00 0.00 0.00 0.00
0.08 0.06 0.08 0.06 0.13 0.25 0.26 0.18 0.10 0.11 0.21 0.33 0.09 0.03 0.03 0.02 0.20 0.42 0.51 0.53 0.47 0.43 0.29 0.18 0.10 0.09 0.08 0.06 0.01 0.00 0.00 0.00 0.00 0.00 0.00 0.00 0.00 0.00 0.00 0.00 0.00 0.00 0.00 0.00
0.10 0.10 0.09 0.06 0.16 0.30 0.26 0.10 0.11 0.07 0.24 0.20 0.04 0.04 0.04 0.03 0.19 0.44 0.52 0.28 0.26 0.30 0.25 0.17 0.09 0.07 0.04 0.02 0.00 0.00 0.00 0.00 0.00 0.00 0.00 0.00 0.00 0.00 0.00 0.00 0.00 0.00 0.00 0.00
0.11 0.12 0.10 0.15 0.25 0.33 0.16 0.02 0.06 0.05 0.24 0.15 0.06 0.01 0.01 0.04 0.22 0.41 0.43 0.33 0.22 0.24 0.19 0.08 0.04 0.03 0.02 0.00 0.00 0.00 0.00 0.00 0.00 0.00 0.00 0.00 0.00 0.00 0.00 0.00 0.00 0.00 0.01 0.00
0.16 0.18 0.27 0.39 0.27 0.17 0.12 0.09 0.15 0.13 0.21 0.28 0.05 0.01 0.00 0.00 0.06 0.23 0.33 0.29 0.23 0.19 0.09 0.07 0.04 0.02 0.00 0.00 0.00 0.00 0.00 0.00 0.00 0.00 0.00 0.00 0.00 0.00 0.00 0.00 0.00 0.00 0.00 0.00
0.15 0.52 0.59 0.45 0.18 0.29 0.41 0.28 0.23 0.43 0.23 0.10 0.08 0.00 0.01 0.00 0.01 0.05 0.16 0.21 0.21 0.14 0.07 0.05 0.03 0.00 0.00 0.00 0.00 0.00 0.00 0.00 0.00 0.00 0.00 0.00 0.00 0.00 0.00 0.00 0.00 0.00 0.00 0.00
0.58 0.78 0.51 0.39 0.49 0.58 0.37 0.27 0.19 0.25 0.23 0.07 0.01 0.01 0.02 0.01 0.02 0.02 0.05 0.09 0.11 0.11 0.06 0.03 0.01 0.00 0.00 0.00 0.00 0.00 0.00 0.00 0.00 0.00 0.00 0.00 0.00 0.00 0.00 0.00 0.00 0.00 0.00 0.00
0.53 0.57 0.70 0.56 0.48 0.35 0.20 0.13 0.07 0.03 0.01 0.00 0.00 0.00 0.00 0.04 0.05 0.01 0.03 0.03 0.03 0.04 0.02 0.00 0.00 0.00 0.00 0.00 0.00 0.00 0.00 0.00 0.00 0.00 0.00 0.00 0.00 0.00 0.00 0.01 0.00 0.00 0.00 0.00
0.68 0.95 0.79 0.40 0.24 0.11 0.04 0.03 0.02 0.00 0.00 0.00 0.00 0.00 0.00 0.05 0.10 0.04 0.03 0.03 0.02 0.00 0.00 0.00 0.00 0.00 0.00 0.00 0.00 0.00 0.00 0.00 0.00 0.00 0.00 0.00 0.00 0.00 0.00 0.00 0.00 0.00 0.00 0.00
1.06 1.11 0.63 0.10 0.12 0.00 0.00 0.00 0.00 0.00 0.00 0.00 0.01 0.01 0.01 0.02 0.06 0.07 0.01 0.00 0.01 0.00 0.00 0.00 0.00 0.00 0.00 0.00 0.00 0.00 0.00 0.00 0.00 0.00 0.00 0.00 0.00 0.00 0.00 0.00 0.00 0.00 0.00 0.00
0.96 0.62 0.26 0.03 0.02 0.00 0.00 0.00 0.00 0.00 0.00 0.00 0.00 0.00 0.00 0.00 0.01 0.01 0.00 0.00 0.00 0.00 0.00 0.00 0.00 0.00 0.00 0.00 0.00 0.00 0.00 0.00 0.00 0.00 0.00 0.00 0.00 0.00 0.00 0.00 0.00 0.00 0.00 0.00
0.59 0.37 0.12 0.02 0.00 0.00 0.00 0.00 0.00 0.00 0.00 0.00 0.00 0.00 0.00 0.00 0.00 0.00 0.00 0.00 0.00 0.00 0.00 0.00 0.00 0.00 0.00 0.00 0.00 0.00 0.00 0.00 0.00 0.00 0.00 0.00 0.00 0.00 0.00 0.00 0.00 0.00 0.00 0.00
0.39 0.16 0.02 0.01 0.00 0.00 0.00 0.00 0.00 0.00 0.00 0.00 0.00 0.00 0.00 0.00 0.00 0.00 0.00 0.00 0.00 0.00 0.00 0.00 0.00 0.00 0.00 0.00 0.00 0.00 0.00 0.00 0.00 0.00 0.00 0.00 0.00 0.00 0.00 0.00 0.00 0.00 0.00 0.00

GFSNW_prec_precacc24_057.txt.gz
Total_Precipitation_Accumulation
0.08 0.17 0.42 0.48 0.65 0.74 1.06 1.16 1.65 1.56 1.50 2.54 1.52 0.66 0.33 0.19 0.29 0.33 0.10 0.01 0.02 0.05 0.08 0.08 0.03 0.00 0.00 0.00 0.00 0.00 0.00 0.06 0.05 0.01 0.02 0.03 0.09 0.27 0.47 0.78 0.40 0.43 0.43 0.21
0.07 0.20 0.31 0.36 0.62 1.00 1.68 1.43 1.41 1.87 1.13 1.23 0.50 0.32 0.34 0.23 0.40 0.14 0.02 0.02 0.04 0.06 0.11 0.15 0.02 0.00 0.00 0.00 0.00 0.00 0.00 0.11 0.10 0.10 0.16 0.16 0.26 0.40 0.53 0.56 0.76 0.68 0.56 0.14
0.09 0.16 0.16 0.23 0.40 0.71 1.46 1.51 1.82 2.49 2.06 0.58 0.10 0.09 0.26 0.26 0.32 0.04 0.01 0.04 0.09 0.16 0.13 0.07 0.03 0.00 0.00 0.00 0.00 0.00 0.00 0.05 0.10 0.15 0.26 0.46 0.61 0.48 0.49 0.82 0.94 0.35 0.24 0.04
0.09 0.11 0.07 0.11 0.20 0.49 0.84 1.02 0.90 0.79 0.84 0.37 0.14 0.16 0.19 0.26 0.18 0.03 0.04 0.09 0.09 0.17 0.16 0.06 0.04 0.01 0.00 0.00 0.00 0.00 0.02 0.08 0.25 0.33 0.22 0.34 0.77 0.60 0.52 0.86 0.40 0.35 0.08 0.04
0.08 0.07 0.07 0.09 0.21 0.64 0.88 0.76 0.49 0.18 0.11 0.06 0.08 0.10 0.19 0.38 0.10 0.05 0.06 0.12 0.18 0.22 0.14 0.03 0.01 0.00 0.01 0.00 0.01 0.01 0.01 0.06 0.26 0.39 0.38 0.68 0.55 0.33 0.41 0.31 0.24 0.24 0.05 0.03
0.05 0.04 0.06 0.15 0.32 0.97 1.32 0.71 0.43 0.20 0.14 0.09 0.11 0.07 0.16 0.17 0.15 0.10 0.10 0.19 0.25 0.16 0.10 0.07 0.04 0.06 0.03 0.00 0.00 0.01 0.02 0.03 0.18 0.49 0.47 0.55 0.49 0.39 0.23 0.17 0.13 0.11 0.08 0.02
0.04 0.04 0.04 0.11 0.27 0.69 1.15 0.72 0.59 0.28 0.18 0.05 0.03 0.02 0.05 0.09 0.11 0.12 0.14 0.22 0.24 0.12 0.13 0.10 0.03 0.03 0.05 0.03 0.01 0.01 0.04 0.03 0.16 0.28 0.19 0.35 0.24 0.29 0.42 0.23 0.05 0.03 0.05 0.01
0.02 0.02 0.04 0.09 0.21 0.39 0.55 0.55 0.62 0.29 0.21 0.07 0.04 0.03 0.04 0.05 0.06 0.13 0.16 0.22 0.25 0.23 0.28 0.19 0.05 0.06 0.07 0.03 0.02 0.01 0.01 0.07 0.16 0.24 0.16 0.07 0.05 0.12 0.17 0.12 0.04 0.03 0.04 0.00
0.02 0.02 0.03 0.07 0.16 0.19 0.34 0.58 0.54 0.29 0.18 0.07 0.02 0.04 0.04 0.07 0.10 0.16 0.20 0.25 0.17 0.27 0.31 0.17 0.04 0.09 0.01 0.00 0.01 0.01 0.02 0.03 0.21 0.17 0.11 0.01 0.01 0.00 0.00 0.13 0.24 0.04 0.02 0.02
0.02 0.02 0.03 0.03 0.13 0.18 0.25 0.52 0.48 0.28 0.18 0.02 0.02 0.04 0.07 0.10 0.13 0.24 0.34 0.32 0.31 0.36 0.36 0.14 0.01 0.02 0.00 0.00 0.00 0.02 0.06 0.10 0.14 0.11 0.13 0.00 0.00 0.00 0.00 0.01 0.08 0.06 0.03 0.01
0.02 0.02 0.02 0.03 0.13 0.20 0.17 0.26 0.41 0.28 0.14 0.03 0.01 0.04 0.07 0.08 0.14 0.40 0.51 0.36 0.28 0.36 0.31 0.13 0.03 0.00 0.00 0.00 0.00 0.00 0.01 0.02 0.04 0.03 0.03 0.00 0.00 0.00 0.00 0.00 0.00 0.00 0.00 0.01
0.02 0.01 0.03 0.06 0.09 0.18 0.21 0.17 0.20 0.31 0.19 0.04 0.01 0.03 0.04 0.07 0.15 0.31 0.53 0.38 0.16 0.07 0.14 0.07 0.03 0.02 0.01 0.00 0.01 0.00 0.00 0.00 0.00 0.00 0.00 0.00 0.00 0.00 0.00 0.00 0.00 0.00 0.00 0.00
0.02 0.03 0.05 0.09 0.09 0.14 0.25 0.15 0.11 0.21 0.19 0.05 0.02 0.02 0.01 0.01 0.10 0.20 0.48 0.41 0.22 0.12 0.06 0.12 0.06 0.04 0.02 0.01 0.00 0.00 0.00 0.00 0.00 0.00 0.00 0.00 0.00 0.00 0.00 0.00 0.00 0.00 0.00 0.00
0.03 0.05 0.07 0.09 0.09 0.12 0.19 0.12 0.07 0.14 0.08 0.04 0.03 0.01 0.03 0.03 0.15 0.28 0.34 0.39 0.31 0.24 0.12 0.21 0.16 0.09 0.02 0.02 0.01 0.00 0.00 0.00 0.00 0.00 0.00 0.00 0.00 0.00 0.00 0.00 0.00 0.00 0.00 0.00
0.07 0.08 0.06 0.07 0.09 0.11 0.10 0.06 0.02 0.04 0.12 0.21 0.06 0.03 0.04 0.02 0.14 0.32 0.42 0.48 0.39 0.32 0.26 0.15 0.14 0.13 0.06 0.01 0.00 0.00 0.00 0.00 0.00 0.00 0.00 0.00 0.00 0.00 0.00 0.00 0.00 0.00 0.00 0.00
0.08 0.06 0.05 0.07 0.10 0.20 0.21 0.13 0.08 0.03 0.11 0.26 0.09 0.03 0.03 0.02 0.20 0.42 0.45 0.43 0.45 0.43 0.30 0.16 0.08 0.09 0.10 0.06 0.01 0.00 0.00 0.00 0.00 0.00 0.00 0.00 0.00 0.00 0.00 0.00 0.00 0.00 0.00 0.00
0.09 0.09 0.08 0.05 0.12 0.25 0.21 0.09 0.13 0.05 0.16 0.17 0.05 0.04 0.04 0.03 0.19 0.45 0.54 0.31 0.30 0.36 0.31 0.19 0.10 0.08 0.07 0.03 0.00 0.00 0.00 0.00 0.00 0.00 0.00 0.00 0.00 0.00 0.00 0.00 0.00 0.00 0.00 0.00
0.10 0.11 0.06 0.09 0.16 0.27 0.13 0.01 0.03 0.02 0.09 0.09 0.06 0.01 0.01 0.04 0.23 0.43 0.47 0.38 0.25 0.29 0.23 0.11 0.06 0.04 0.03 0.01 0.00 0.00 0.00 0.00 0.00 0.00 0.00 0.00 0.00 0.00 0.00 0.00 0.00 0.00 0.01 0.00
0.16 0.14 0.08 0.20 0.20 0.15 0.12 0.08 0.09 0.05 0.11 0.18 0.04 0.01 0.00 0.00 0.07 0.26 0.37 0.36 0.29 0.26 0.12 0.11 0.10 0.06 0.01 0.00 0.00 0.00 0.00 0.00 0.00 0.00 0.00 0.00 0.00 0.00 0.00 0.00 0.00 0.00 0.00 0.00
0.07 0.13 0.31 0.33 0.14 0.29 0.42 0.29 0.19 0.26 0.18 0.06 0.05 0.00 0.01 0.00 0.02 0.07 0.18 0.29 0.31 0.24 0.16 0.15 0.13 0.04 0.02 0.00 0.00 0.00 0.00 0.00 0.00 0.00 0.00 0.00 0.00 0.00 0.00 0.00 0.00 0.00 0.00 0.00
0.22 0.38 0.41 0.33 0.49 0.61 0.41 0.28 0.18 0.19 0.19 0.07 0.01 0.00 0.01 0.00 0.00 0.02 0.07 0.16 0.22 0.24 0.19 0.19 0.13 0.05 0.00 0.00 0.00 0.00 0.00 0.00 0.00 0.00 0.00 0.00 0.00 0.00 0.00 0.00 0.00 0.00 0.00 0.00
0.38 0.54 0.62 0.55 0.51 0.41 0.23 0.14 0.07 0.03 0.01 0.00 0.00 0.00 0.00 0.04 0.05 0.01 0.07 0.12 0.12 0.15 0.10 0.11 0.08 0.02 0.00 0.00 0.00 0.00 0.00 0.00 0.00 0.00 0.00 0.00 0.00 0.00 0.00 0.01 0.00 0.00 0.00 0.00
0.53 0.88 0.69 0.41 0.25 0.13 0.04 0.04 0.02 0.00 0.00 0.00 0.00 0.00 0.00 0.05 0.10 0.04 0.06 0.10 0.10 0.03 0.03 0.02 0.00 0.00 0.00 0.00 0.00 0.00 0.00 0.00 0.00 0.00 0.00 0.00 0.00 0.00 0.00 0.02 0.01 0.00 0.00 0.00
0.67 0.88 0.49 0.09 0.12 0.00 0.00 0.00 0.00 0.00 0.00 0.00 0.01 0.01 0.01 0.02 0.06 0.07 0.02 0.01 0.05 0.01 0.00 0.00 0.00 0.00 0.00 0.00 0.00 0.00 0.00 0.00 0.00 0.00 0.00 0.00 0.00 0.00 0.00 0.00 0.01 0.00 0.00 0.00
0.65 0.53 0.24 0.03 0.02 0.00 0.00 0.00 0.00 0.00 0.00 0.00 0.00 0.00 0.00 0.00 0.01 0.01 0.01 0.00 0.02 0.00 0.00 0.00 0.00 0.00 0.00 0.00 0.00 0.00 0.00 0.00 0.00 0.00 0.00 0.00 0.00 0.00 0.00 0.00 0.00 0.00 0.00 0.00
0.43 0.31 0.11 0.02 0.00 0.00 0.00 0.00 0.00 0.00 0.00 0.00 0.00 0.00 0.00 0.00 0.00 0.00 0.00 0.00 0.00 0.00 0.00 0.00 0.00 0.00 0.00 0.00 0.00 0.00 0.00 0.00 0.00 0.00 0.00 0.00 0.00 0.00 0.00 0.00 0.00 0.00 0.00 0.00
0.26 0.12 0.02 0.01 0.00 0.00 0.00 0.00 0.00 0.00 0.00 0.00 0.00 0.00 0.00 0.00 0.00 0.00 0.00 0.00 0.00 0.00 0.00 0.00 0.00 0.00 0.00 0.00 0.00 0.00 0.00 0.00 0.00 0.00 0.00 0.00 0.00 0.00 0.00 0.00 0.00 0.00 0.00 0.00

GFSNW_prec_precacc24_060.txt.gz
Total_Precipitation_Accumulation
0.07 0.09 0.10 0.19 0.41 0.51 0.63 0.59 1.09 1.29 1.25 2.25 1.32 0.60 0.34 0.22 0.37 0.47 0.18 0.01 0.00 0.00 0.02 0.03 0.02 0.00 0.00 0.00 0.00 0.00 0.00 0.05 0.04 0.01 0.00 0.00 0.01 0.04 0.10 0.36 0.26 0.35 0.43 0.21
0.07 0.08 0.06 0.15 0.40 0.59 0.92 0.91 1.09 1.61 0.88 1.06 0.46 0.31 0.36 0.30 0.50 0.26 0.05 0.01 0.00 0.00 0.03 0.07 0.01 0.00 0.00 0.00 0.00 0.00 0.00 0.09 0.04 0.01 0.09 0.11 0.11 0.06 0.17 0.28 0.64 0.67 0.56 0.14
0.07 0.05 0.03 0.08 0.21 0.43 0.86 1.12 1.60 2.19 1.59 0.41 0.10 0.11 0.30 0.30 0.42 0.10 0.00 0.00 0.01 0.04 0.05 0.03 0.03 0.00 0.00 0.00 0.00 0.00 0.00 0.02 0.00 0.02 0.09 0.29 0.43 0.30 0.31 0.68 0.92 0.33 0.23 0.04
0.08 0.03 0.01 0.04 0.05 0.25 0.53 0.84 0.82 0.71 0.72 0.26 0.12 0.21 0.27 0.35 0.27 0.04 0.00 0.02 0.01 0.06 0.10 0.04 0.04 0.01 0.00 0.00 0.00 0.00 0.02 0.04 0.02 0.06 0.11 0.28 0.63 0.52 0.45 0.82 0.39 0.33 0.08 0.04
0.08 0.02 0.02 0.03 0.04 0.23 0.60 0.66 0.48 0.18 0.11 0.06 0.08 0.09 0.28 0.48 0.13 0.05 0.04 0.04 0.06 0.11 0.10 0.03 0.01 0.00 0.01 0.00 0.00 0.01 0.01 0.03 0.07 0.06 0.32 0.65 0.51 0.31 0.36 0.29 0.23 0.22 0.04 0.03
0.05 0.02 0.02 0.03 0.10 0.45 0.89 0.61 0.43 0.20 0.12 0.09 0.11 0.09 0.23 0.21 0.16 0.08 0.03 0.04 0.11 0.10 0.08 0.07 0.04 0.06 0.03 0.00 0.00 0.01 0.02 0.03 0.10 0.24 0.39 0.54 0.49 0.39 0.23 0.17 0.13 0.10 0.07 0.02
0.03 0.03 0.02 0.02 0.12 0.38 0.75 0.58 0.58 0.28 0.15 0.04 0.03 0.02 0.08 0.16 0.14 0.09 0.06 0.12 0.14 0.08 0.13 0.10 0.03 0.03 0.05 0.03 0.01 0.01 0.04 0.03 0.13 0.22 0.17 0.34 0.24 0.29 0.42 0.23 0.05 0.03 0.05 0.01
0.02 0.02 0.01 0.02 0.07 0.19 0.40 0.47 0.62 0.28 0.16 0.06 0.03 0.03 0.03 0.05 0.04 0.08 0.10 0.14 0.18 0.23 0.28 0.19 0.05 0.06 0.06 0.03 0.02 0.01 0.01 0.07 0.15 0.23 0.16 0.07 0.05 0.12 0.17 0.12 0.04 0.03 0.04 0.01
0.02 0.01 0.01 0.01 0.03 0.10 0.21 0.40 0.51 0.29 0.17 0.05 0.02 0.04 0.03 0.05 0.07 0.08 0.13 0.19 0.16 0.26 0.30 0.17 0.04 0.04 0.01 0.00 0.01 0.01 0.03 0.03 0.21 0.17 0.11 0.01 0.01 0.00 0.00 0.13 0.24 0.04 0.02 0.02
0.02 0.01 0.01 0.01 0.04 0.07 0.13 0.39 0.44 0.29 0.16 0.02 0.01 0.04 0.05 0.07 0.11 0.12 0.21 0.28 0.31 0.35 0.36 0.14 0.01 0.01 0.00 0.00 0.00 0.02 0.07 0.10 0.15 0.12 0.12 0.00 0.00 0.00 0.00 0.01 0.08 0.06 0.03 0.01
0.03 0.02 0.00 0.02 0.05 0.07 0.09 0.23 0.41 0.28 0.12 0.02 0.01 0.03 0.08 0.07 0.10 0.21 0.35 0.36 0.27 0.34 0.31 0.13 0.02 0.00 0.00 0.00 0.00 0.00 0.01 0.03 0.04 0.03 0.03 0.00 0.00 0.00 0.00 0.00 0.00 0.00 0.00 0.01
0.03 0.01 0.01 0.03 0.04 0.08 0.10 0.15 0.20 0.30 0.18 0.03 0.00 0.01 0.05 0.07 0.13 0.18 0.36 0.36 0.16 0.07 0.13 0.03 0.01 0.01 0.01 0.00 0.01 0.00 0.00 0.00 0.00 0.00 0.00 0.00 0.00 0.00 0.00 0.00 0.00 0.00 0.00 0.00
0.02 0.02 0.03 0.05 0.03 0.06 0.13 0.13 0.11 0.21 0.19 0.04 0.02 0.01 0.02 0.01 0.05 0.12 0.35 0.31 0.21 0.12 0.04 0.05 0.05 0.04 0.02 0.01 0.00 0.00 0.00 0.00 0.00 0.00 0.00 0.00 0.00 0.00 0.00 0.00 0.00 0.00 0.00 0.00
0.04 0.05 0.07 0.05 0.03 0.06 0.08 0.11 0.07 0.13 0.06 0.03 0.03 0.01 0.03 0.03 0.13 0.25 0.31 0.34 0.27 0.24 0.11 0.17 0.16 0.09 0.02 0.02 0.01 0.00 0.00 0.00 0.00 0.00 0.00 0.00 0.00 0.00 0.00 0.00 0.00 0.00 0.00 0.00
0.07 0.10 0.07 0.05 0.04 0.04 0.03 0.05 0.02 0.04 0.08 0.14 0.05 0.02 0.04 0.02 0.14 0.32 0.40 0.38 0.29 0.24 0.25 0.16 0.15 0.13 0.06 0.01 0.00 0.00 0.00 0.00 0.00 0.00 0.00 0.00 0.00 0.00 0.00 0.00 0.00 0.00 0.00 0.00
0.08 0.05 0.06 0.07 0.07 0.08 0.12 0.12 0.07 0.02 0.08 0.15 0.06 0.03 0.03 0.02 0.20 0.40 0.38 0.34 0.34 0.32 0.28 0.16 0.09 0.10 0.11 0.09 0.02 0.00 0.00 0.00 0.00 0.00 0.00 0.00 0.00 0.00 0.00 0.00 0.00 0.00 0.00 0.00
0.08 0.09 0.09 0.07 0.10 0.12 0.14 0.10 0.16 0.07 0.13 0.10 0.04 0.04 0.04 0.03 0.19 0.44 0.48 0.31 0.31 0.36 0.34 0.20 0.10 0.10 0.14 0.05 0.00 0.00 0.00 0.00 0.00 0.00 0.00 0.00 0.00 0.00 0.00 0.00 0.00 0.00 0.00 0.00
0.09 0.11 0.09 0.10 0.09 0.13 0.08 0.01 0.03 0.04 0.09 0.04 0.04 0.01 0.01 0.04 0.24 0.43 0.47 0.39 0.27 0.33 0.28 0.15 0.07 0.05 0.08 0.05 0.00 0.00 0.00 0.00 0.00 0.00 0.00 0.00 0.00 0.00 0.00 0.00 0.00 0.00 0.01 0.00
0.15 0.15 0.08 0.06 0.06 0.09 0.12 0.08 0.06 0.01 0.14 0.14 0.03 0.00 0.00 0.00 0.08 0.27 0.38 0.39 0.36 0.28 0.15 0.14 0.17 0.08 0.04 0.00 0.00 0.00 0.00 0.00 0.00 0.00 0.00 0.00 0.00 0.00 0.00 0.00 0.00 0.00 0.00 0.00
0.06 0.05 0.10 0.10 0.04 0.30 0.46 0.32 0.16 0.17 0.09 0.05 0.03 0.00 0.01 0.00 0.03 0.09 0.20 0.34 0.38 0.28 0.20 0.19 0.18 0.08 0.06 0.02 0.00 0.00 0.00 0.00 0.00 0.00 0.00 0.00 0.00 0.00 0.00 0.00 0.00 0.00 0.00 0.00
0.13 0.22 0.29 0.23 0.49 0.68 0.47 0.29 0.18 0.17 0.11 0.04 0.01 0.00 0.01 0.00 0.01 0.04 0.12 0.22 0.30 0.31 0.28 0.33 0.28 0.20 0.04 0.00 0.00 0.00 0.00 0.00 0.00 0.00 0.00 0.00 0.00 0.00 0.00 0.00 0.00 0.00 0.00 0.00
0.23 0.47 0.52 0.54 0.52 0.44 0.26 0.17 0.08 0.04 0.01 0.00 0.00 0.00 0.00 0.03 0.04 0.02 0.10 0.19 0.20 0.24 0.21 0.25 0.20 0.06 0.00 0.00 0.00 0.00 0.00 0.00 0.00 0.00 0.00 0.00 0.00 0.00 0.00 0.01 0.00 0.00 0.00 0.00
0.29 0.68 0.60 0.41 0.28 0.18 0.06 0.05 0.02 0.00 0.00 0.00 0.00 0.00 0.00 0.04 0.10 0.04 0.08 0.17 0.18 0.11 0.09 0.06 0.01 0.00 0.00 0.00 0.00 0.01 0.02 0.00 0.00 0.00 0.00 0.00 0.01 0.02 0.02 0.03 0.01 0.01 0.01 0.02
0.34 0.69 0.45 0.11 0.15 0.01 0.00 0.00 0.00 0.00 0.00 0.00 0.01 0.01 0.01 0.02 0.06 0.07 0.03 0.03 0.12 0.04 0.00 0.00 0.00 0.00 0.00 0.00 0.00 0.00 0.04 0.02 0.00 0.00 0.00 0.00 0.00 0.01 0.01 0.03 0.03 0.01 0.01 0.01
0.39 0.44 0.22 0.04 0.02 0.00 0.00 0.00 0.00 0.00 0.00 0.00 0.00 0.00 0.00 0.01 0.01 0.01 0.01 0.01 0.04 0.00 0.00 0.00 0.00 0.00 0.00 0.00 0.00 0.00 0.00 0.02 0.00 0.00 0.00 0.00 0.00 0.00 0.00 0.00 0.01 0.02 0.00 0.00
0.22 0.23 0.09 0.02 0.01 0.00 0.00 0.00 0.00 0.00 0.00 0.00 0.00 0.00 0.00 0.00 0.00 0.00 0.00 0.00 0.01 0.00 0.00 0.00 0.00 0.00 0.00 0.00 0.00 0.00 0.00 0.00 0.00 0.00 0.00 0.00 0.00 0.00 0.00 0.00 0.00 0.00 0.00 0.00
0.09 0.06 0.01 0.01 0.00 0.00 0.00 0.00 0.00 0.00 0.00 0.00 0.00 0.00 0.00 0.00 0.00 0.00 0.00 0.00 0.00 0.00 0.00 0.00 0.00 0.00 0.00 0.00 0.00 0.00 0.00 0.00 0.00 0.00 0.00 0.00 0.00 0.00 0.00 0.00 0.00 0.00 0.00 0.00

GFSNW_prec_precacc24_063.txt.gz
Total_Precipitation_Accumulation
0.07 0.09 0.06 0.05 0.16 0.29 0.45 0.34 0.64 0.75 0.85 1.49 0.97 0.57 0.34 0.25 0.43 0.49 0.19 0.01 0.00 0.00 0.00 0.00 0.00 0.00 0.00 0.00 0.00 0.00 0.00 0.04 0.03 0.01 0.00 0.00 0.00 0.00 0.01 0.12 0.05 0.17 0.26 0.14
0.07 0.08 0.04 0.02 0.15 0.27 0.70 0.46 0.72 0.95 0.61 0.79 0.36 0.30 0.40 0.36 0.54 0.27 0.06 0.01 0.00 0.00 0.00 0.01 0.01 0.00 0.00 0.00 0.00 0.00 0.00 0.05 0.02 0.01 0.01 0.04 0.06 0.01 0.05 0.15 0.34 0.39 0.36 0.10
0.07 0.05 0.02 0.01 0.05 0.18 0.69 0.67 1.09 1.41 1.07 0.30 0.10 0.12 0.34 0.35 0.43 0.10 0.00 0.00 0.00 0.01 0.01 0.00 0.02 0.00 0.00 0.00 0.00 0.00 0.00 0.01 0.00 0.00 0.01 0.03 0.07 0.03 0.07 0.31 0.55 0.23 0.19 0.03
0.07 0.03 0.01 0.01 0.02 0.11 0.36 0.54 0.64 0.50 0.51 0.20 0.12 0.23 0.39 0.46 0.30 0.05 0.00 0.01 0.00 0.01 0.02 0.01 0.02 0.00 0.00 0.00 0.00 0.00 0.01 0.03 0.00 0.00 0.00 0.10 0.21 0.14 0.11 0.53 0.25 0.25 0.06 0.03
0.07 0.02 0.01 0.01 0.03 0.15 0.33 0.51 0.43 0.17 0.11 0.05 0.07 0.11 0.38 0.52 0.14 0.05 0.03 0.03 0.02 0.02 0.02 0.01 0.00 0.00 0.01 0.00 0.00 0.01 0.01 0.02 0.01 0.01 0.10 0.32 0.32 0.11 0.14 0.18 0.17 0.19 0.04 0.02
0.05 0.02 0.02 0.02 0.03 0.28 0.54 0.43 0.40 0.20 0.11 0.08 0.10 0.09 0.24 0.23 0.16 0.10 0.03 0.01 0.02 0.02 0.02 0.05 0.03 0.06 0.03 0.00 0.00 0.01 0.02 0.01 0.03 0.04 0.17 0.36 0.39 0.20 0.11 0.11 0.07 0.09 0.07 0.02
0.03 0.03 0.02 0.01 0.01 0.22 0.56 0.42 0.44 0.26 0.14 0.04 0.03 0.03 0.10 0.18 0.13 0.07 0.02 0.04 0.07 0.03 0.10 0.10 0.03 0.03 0.05 0.03 0.01 0.01 0.04 0.03 0.09 0.10 0.15 0.31 0.23 0.28 0.41 0.18 0.02 0.02 0.03 0.01
0.02 0.02 0.01 0.01 0.01 0.09 0.30 0.36 0.52 0.28 0.15 0.05 0.03 0.02 0.04 0.06 0.03 0.03 0.02 0.06 0.10 0.18 0.25 0.19 0.04 0.05 0.06 0.02 0.02 0.01 0.01 0.07 0.12 0.15 0.16 0.07 0.05 0.12 0.17 0.12 0.04 0.03 0.04 0.01
0.02 0.01 0.01 0.00 0.01 0.06 0.11 0.33 0.45 0.29 0.17 0.05 0.01 0.03 0.03 0.04 0.04 0.03 0.05 0.09 0.11 0.23 0.29 0.17 0.03 0.02 0.01 0.00 0.01 0.01 0.03 0.03 0.20 0.17 0.12 0.01 0.01 0.00 0.00 0.13 0.24 0.04 0.02 0.02
0.02 0.02 0.01 0.00 0.02 0.05 0.08 0.28 0.34 0.29 0.17 0.02 0.01 0.03 0.03 0.03 0.03 0.06 0.09 0.17 0.28 0.34 0.34 0.14 0.01 0.01 0.00 0.00 0.00 0.02 0.07 0.11 0.16 0.13 0.13 0.00 0.00 0.00 0.00 0.02 0.09 0.06 0.03 0.01
0.03 0.02 0.00 0.00 0.03 0.03 0.05 0.14 0.26 0.27 0.13 0.02 0.01 0.03 0.06 0.03 0.04 0.11 0.15 0.27 0.25 0.33 0.29 0.13 0.02 0.00 0.00 0.00 0.00 0.00 0.01 0.03 0.04 0.03 0.03 0.00 0.00 0.00 0.00 0.00 0.00 0.00 0.00 0.01
0.03 0.02 0.01 0.02 0.03 0.03 0.05 0.09 0.15 0.27 0.19 0.03 0.00 0.01 0.03 0.04 0.08 0.11 0.18 0.31 0.15 0.07 0.12 0.03 0.01 0.01 0.01 0.00 0.01 0.00 0.00 0.00 0.00 0.00 0.00 0.00 0.00 0.00 0.00 0.00 0.00 0.00 0.00 0.00
0.03 0.03 0.03 0.04 0.03 0.03 0.06 0.06 0.08 0.19 0.18 0.04 0.02 0.01 0.01 0.01 0.05 0.10 0.22 0.24 0.21 0.11 0.03 0.05 0.02 0.03 0.02 0.01 0.00 0.00 0.00 0.00 0.00 0.00 0.00 0.00 0.00 0.00 0.00 0.00 0.00 0.00 0.00 0.00
0.04 0.05 0.07 0.07 0.04 0.03 0.04 0.05 0.06 0.12 0.09 0.04 0.03 0.01 0.03 0.03 0.10 0.19 0.23 0.25 0.25 0.23 0.11 0.13 0.08 0.08 0.02 0.02 0.01 0.00 0.00 0.00 0.00 0.00 0.00 0.00 0.00 0.00 0.00 0.00 0.00 0.00 0.00 0.00
0.06 0.10 0.07 0.06 0.05 0.05 0.02 0.01 0.02 0.03 0.09 0.14 0.04 0.02 0.03 0.02 0.11 0.27 0.33 0.31 0.23 0.21 0.24 0.14 0.08 0.11 0.06 0.01 0.00 0.00 0.00 0.00 0.00 0.00 0.00 0.00 0.00 0.00 0.00 0.00 0.00 0.00 0.00 0.00
0.06 0.05 0.06 0.09 0.09 0.09 0.04 0.07 0.07 0.02 0.08 0.15 0.06 0.02 0.02 0.02 0.20 0.39 0.34 0.29 0.28 0.25 0.23 0.15 0.09 0.10 0.11 0.10 0.02 0.00 0.00 0.00 0.00 0.00 0.00 0.00 0.00 0.00 0.00 0.00 0.00 0.00 0.00 0.00
0.07 0.08 0.09 0.10 0.14 0.07 0.05 0.11 0.23 0.08 0.14 0.10 0.04 0.04 0.04 0.03 0.19 0.43 0.44 0.27 0.29 0.34 0.36 0.22 0.11 0.11 0.16 0.08 0.01 0.00 0.00 0.00 0.00 0.00 0.00 0.00 0.00 0.00 0.00 0.00 0.00 0.00 0.00 0.00
0.07 0.13 0.14 0.13 0.11 0.05 0.04 0.02 0.04 0.08 0.11 0.06 0.04 0.01 0.01 0.04 0.25 0.43 0.45 0.37 0.25 0.31 0.31 0.19 0.09 0.07 0.12 0.09 0.00 0.00 0.00 0.00 0.00 0.00 0.00 0.00 0.00 0.00 0.00 0.00 0.00 0.00 0.01 0.00
0.13 0.15 0.11 0.06 0.04 0.04 0.11 0.14 0.11 0.04 0.21 0.17 0.04 0.01 0.00 0.00 0.08 0.28 0.39 0.40 0.39 0.32 0.17 0.16 0.25 0.13 0.08 0.01 0.00 0.00 0.00 0.00 0.00 0.00 0.00 0.00 0.00 0.00 0.00 0.00 0.00 0.00 0.00 0.00
0.06 0.04 0.05 0.05 0.04 0.33 0.54 0.46 0.21 0.11 0.11 0.06 0.04 0.00 0.01 0.00 0.03 0.12 0.23 0.37 0.44 0.32 0.22 0.21 0.22 0.16 0.07 0.02 0.00 0.00 0.00 0.00 0.00 0.00 0.00 0.00 0.00 0.00 0.00 0.00 0.00 0.00 0.00 0.00
0.13 0.21 0.26 0.22 0.51 0.78 0.59 0.36 0.17 0.12 0.08 0.02 0.01 0.00 0.01 0.00 0.01 0.07 0.17 0.25 0.37 0.36 0.32 0.41 0.34 0.25 0.07 0.00 0.00 0.00 0.00 0.00 0.00 0.00 0.00 0.00 0.00 0.00 0.00 0.00 0.00 0.00 0.00 0.00
0.16 0.33 0.44 0.53 0.52 0.45 0.30 0.21 0.08 0.04 0.01 0.01 0.01 0.00 0.00 0.01 0.01 0.03 0.13 0.25 0.27 0.30 0.27 0.35 0.28 0.10 0.00 0.00 0.00 0.00 0.00 0.00 0.00 0.00 0.00 0.00 0.00 0.00 0.00 0.01 0.00 0.00 0.00 0.00
0.13 0.47 0.46 0.39 0.26 0.19 0.07 0.05 0.02 0.00 0.00 0.00 0.00 0.00 0.00 0.01 0.04 0.05 0.11 0.24 0.23 0.16 0.14 0.10 0.03 0.00 0.00 0.00 0.00 0.01 0.04 0.00 0.00 0.00 0.00 0.00 0.01 0.02 0.02 0.03 0.01 0.01 0.01 0.02
0.21 0.45 0.31 0.13 0.17 0.01 0.00 0.00 0.00 0.00 0.00 0.00 0.01 0.01 0.01 0.01 0.02 0.05 0.04 0.06 0.16 0.08 0.03 0.02 0.01 0.00 0.00 0.00 0.00 0.00 0.07 0.12 0.08 0.03 0.00 0.00 0.01 0.03 0.03 0.04 0.04 0.01 0.01 0.02
0.17 0.26 0.16 0.05 0.02 0.00 0.00 0.00 0.00 0.00 0.00 0.00 0.00 0.00 0.00 0.01 0.02 0.01 0.02 0.01 0.06 0.01 0.00 0.00 0.00 0.00 0.00 0.00 0.00 0.00 0.01 0.08 0.12 0.09 0.02 0.02 0.01 0.02 0.02 0.01 0.02 0.04 0.00 0.00
0.05 0.12 0.06 0.02 0.01 0.00 0.00 0.00 0.00 0.00 0.00 0.00 0.00 0.00 0.00 0.00 0.00 0.00 0.00 0.01 0.01 0.00 0.00 0.00 0.00 0.00 0.00 0.00 0.00 0.00 0.00 0.00 0.00 0.02 0.01 0.00 0.00 0.00 0.00 0.01 0.01 0.03 0.02 0.01
0.03 0.03 0.00 0.00 0.00 0.00 0.00 0.00 0.00 0.00 0.00 0.00 0.00 0.01 0.00 0.00 0.00 0.00 0.00 0.00 0.00 0.00 0.00 0.00 0.00 0.00 0.00 0.00 0.00 0.00 0.00 0.00 0.00 0.00 0.00 0.00 0.00 0.00 0.00 0.00 0.00 0.00 0.01 0.03

GFSNW_prec_precacc24_066.txt.gz
Total_Precipitation_Accumulation
0.07 0.08 0.06 0.04 0.03 0.10 0.30 0.28 0.62 0.57 0.43 0.79 0.40 0.34 0.35 0.30 0.47 0.50 0.19 0.01 0.00 0.00 0.00 0.00 0.00 0.00 0.00 0.00 0.00 0.00 0.00 0.02 0.02 0.01 0.00 0.00 0.00 0.00 0.00 0.04 0.01 0.06 0.09 0.05
0.06 0.07 0.03 0.02 0.01 0.11 0.39 0.37 0.67 0.67 0.39 0.45 0.15 0.22 0.40 0.37 0.54 0.27 0.06 0.01 0.00 0.00 0.00 0.00 0.01 0.00 0.00 0.00 0.00 0.00 0.00 0.03 0.01 0.01 0.01 0.00 0.00 0.00 0.00 0.05 0.16 0.16 0.15 0.05
0.07 0.05 0.02 0.01 0.01 0.08 0.47 0.61 1.01 0.79 0.60 0.16 0.08 0.12 0.35 0.35 0.43 0.10 0.00 0.00 0.00 0.00 0.01 0.00 0.01 0.00 0.00 0.00 0.00 0.00 0.00 0.01 0.00 0.00 0.00 0.00 0.00 0.00 0.01 0.16 0.35 0.10 0.03 0.00
0.06 0.02 0.01 0.01 0.00 0.08 0.24 0.37 0.56 0.35 0.32 0.07 0.10 0.27 0.43 0.47 0.30 0.05 0.00 0.01 0.00 0.00 0.01 0.00 0.00 0.00 0.00 0.00 0.00 0.00 0.01 0.03 0.00 0.00 0.00 0.01 0.02 0.01 0.04 0.37 0.19 0.19 0.04 0.00
0.06 0.02 0.01 0.01 0.00 0.12 0.22 0.27 0.31 0.14 0.10 0.04 0.05 0.14 0.42 0.54 0.15 0.05 0.03 0.03 0.02 0.01 0.00 0.00 0.00 0.00 0.00 0.00 0.00 0.01 0.01 0.02 0.00 0.00 0.01 0.05 0.05 0.02 0.09 0.14 0.14 0.16 0.03 0.02
0.04 0.02 0.02 0.01 0.00 0.17 0.37 0.22 0.20 0.14 0.06 0.06 0.07 0.09 0.27 0.24 0.16 0.11 0.03 0.01 0.00 0.00 0.00 0.00 0.00 0.03 0.02 0.00 0.00 0.01 0.01 0.01 0.02 0.01 0.04 0.09 0.11 0.09 0.10 0.10 0.06 0.08 0.06 0.01
0.03 0.03 0.02 0.01 0.00 0.11 0.32 0.26 0.32 0.20 0.09 0.03 0.03 0.03 0.12 0.18 0.14 0.07 0.01 0.00 0.01 0.00 0.01 0.04 0.01 0.02 0.04 0.03 0.01 0.01 0.03 0.02 0.06 0.04 0.06 0.19 0.15 0.21 0.20 0.03 0.01 0.02 0.03 0.01
0.02 0.01 0.02 0.01 0.00 0.05 0.19 0.27 0.38 0.26 0.15 0.05 0.02 0.01 0.04 0.06 0.03 0.03 0.02 0.01 0.01 0.06 0.10 0.11 0.03 0.04 0.05 0.02 0.02 0.01 0.01 0.06 0.10 0.10 0.10 0.03 0.05 0.12 0.11 0.02 0.00 0.02 0.03 0.01
0.01 0.01 0.02 0.00 0.00 0.04 0.10 0.26 0.40 0.28 0.18 0.04 0.01 0.02 0.02 0.03 0.03 0.02 0.03 0.04 0.03 0.09 0.16 0.13 0.03 0.01 0.00 0.00 0.01 0.01 0.03 0.03 0.18 0.15 0.10 0.01 0.01 0.00 0.00 0.12 0.20 0.03 0.02 0.02
0.02 0.01 0.01 0.00 0.00 0.04 0.07 0.21 0.27 0.26 0.17 0.02 0.01 0.03 0.03 0.02 0.03 0.03 0.02 0.04 0.11 0.19 0.27 0.13 0.01 0.00 0.00 0.00 0.00 0.02 0.07 0.11 0.15 0.12 0.12 0.00 0.00 0.00 0.00 0.02 0.09 0.06 0.03 0.01
0.03 0.02 0.00 0.01 0.02 0.02 0.04 0.10 0.21 0.25 0.13 0.02 0.01 0.03 0.06 0.03 0.02 0.04 0.03 0.11 0.14 0.24 0.25 0.13 0.02 0.00 0.00 0.00 0.00 0.00 0.01 0.03 0.05 0.03 0.03 0.00 0.00 0.00 0.00 0.00 0.00 0.00 0.00 0.01
0.02 0.02 0.01 0.02 0.03 0.03 0.04 0.05 0.07 0.15 0.18 0.03 0.00 0.01 0.03 0.03 0.07 0.05 0.08 0.15 0.13 0.06 0.12 0.03 0.01 0.01 0.01 0.00 0.01 0.00 0.00 0.00 0.00 0.00 0.00 0.00 0.00 0.00 0.00 0.00 0.00 0.00 0.00 0.00
0.03 0.03 0.03 0.04 0.03 0.03 0.05 0.04 0.06 0.14 0.17 0.04 0.02 0.01 0.01 0.00 0.01 0.05 0.12 0.16 0.18 0.10 0.02 0.04 0.02 0.03 0.02 0.01 0.00 0.00 0.00 0.00 0.00 0.00 0.00 0.00 0.00 0.00 0.00 0.00 0.00 0.00 0.00 0.00
0.04 0.05 0.07 0.08 0.05 0.03 0.05 0.02 0.04 0.10 0.09 0.05 0.03 0.01 0.01 0.02 0.03 0.10 0.17 0.18 0.22 0.22 0.10 0.13 0.08 0.07 0.01 0.02 0.01 0.00 0.00 0.00 0.00 0.00 0.00 0.00 0.00 0.00 0.00 0.00 0.00 0.00 0.00 0.00
0.06 0.08 0.06 0.05 0.06 0.07 0.04 0.01 0.01 0.03 0.09 0.14 0.04 0.01 0.00 0.01 0.04 0.16 0.26 0.25 0.21 0.20 0.24 0.13 0.07 0.07 0.05 0.01 0.00 0.00 0.00 0.00 0.00 0.00 0.00 0.00 0.00 0.00 0.00 0.00 0.00 0.00 0.00 0.00
0.05 0.04 0.05 0.09 0.10 0.15 0.04 0.03 0.05 0.02 0.08 0.16 0.08 0.02 0.00 0.01 0.14 0.30 0.29 0.24 0.24 0.24 0.24 0.15 0.09 0.08 0.10 0.09 0.02 0.00 0.00 0.00 0.00 0.00 0.00 0.00 0.00 0.00 0.00 0.00 0.00 0.00 0.00 0.00
0.07 0.08 0.08 0.10 0.16 0.13 0.04 0.10 0.29 0.08 0.12 0.11 0.06 0.04 0.04 0.03 0.18 0.39 0.41 0.24 0.26 0.34 0.37 0.22 0.11 0.12 0.19 0.11 0.01 0.00 0.00 0.00 0.00 0.00 0.00 0.00 0.00 0.00 0.00 0.00 0.00 0.00 0.00 0.00
0.06 0.12 0.21 0.17 0.16 0.06 0.02 0.02 0.09 0.13 0.12 0.11 0.06 0.02 0.01 0.04 0.23 0.41 0.42 0.33 0.20 0.27 0.28 0.20 0.10 0.07 0.16 0.13 0.00 0.00 0.00 0.00 0.00 0.00 0.00 0.00 0.00 0.00 0.00 0.00 0.00 0.00 0.01 0.00
0.10 0.13 0.12 0.06 0.02 0.01 0.09 0.18 0.21 0.12 0.31 0.23 0.05 0.01 0.00 0.00 0.08 0.28 0.39 0.38 0.37 0.31 0.17 0.16 0.28 0.19 0.11 0.01 0.00 0.00 0.00 0.00 0.00 0.00 0.00 0.00 0.00 0.00 0.00 0.00 0.00 0.00 0.00 0.00
0.06 0.04 0.04 0.03 0.04 0.22 0.57 0.62 0.34 0.22 0.18 0.08 0.04 0.00 0.02 0.01 0.04 0.12 0.25 0.39 0.45 0.34 0.23 0.24 0.25 0.19 0.08 0.02 0.00 0.00 0.00 0.00 0.00 0.00 0.00 0.00 0.00 0.00 0.00 0.00 0.00 0.00 0.00 0.00
0.13 0.25 0.31 0.27 0.51 0.72 0.66 0.47 0.25 0.14 0.07 0.03 0.01 0.00 0.02 0.02 0.03 0.09 0.23 0.29 0.40 0.39 0.33 0.47 0.37 0.26 0.07 0.00 0.00 0.00 0.00 0.00 0.00 0.00 0.00 0.00 0.00 0.00 0.00 0.00 0.00 0.00 0.00 0.00
0.10 0.24 0.34 0.49 0.50 0.51 0.35 0.29 0.12 0.07 0.02 0.01 0.01 0.01 0.01 0.01 0.01 0.07 0.18 0.30 0.31 0.31 0.29 0.39 0.31 0.11 0.00 0.00 0.00 0.00 0.00 0.00 0.00 0.00 0.00 0.00 0.00 0.00 0.00 0.01 0.00 0.00 0.00 0.00
0.07 0.33 0.38 0.38 0.27 0.22 0.10 0.09 0.05 0.01 0.00 0.00 0.01 0.02 0.01 0.01 0.05 0.10 0.16 0.27 0.26 0.19 0.17 0.11 0.04 0.01 0.00 0.00 0.00 0.01 0.04 0.01 0.00 0.00 0.00 0.00 0.01 0.02 0.02 0.03 0.01 0.01 0.01 0.02
0.10 0.32 0.26 0.15 0.20 0.02 0.01 0.00 0.01 0.00 0.00 0.00 0.01 0.01 0.01 0.02 0.04 0.03 0.07 0.10 0.19 0.10 0.04 0.03 0.03 0.01 0.00 0.00 0.00 0.00 0.08 0.16 0.15 0.09 0.02 0.01 0.01 0.03 0.04 0.04 0.04 0.01 0.01 0.03
0.06 0.17 0.11 0.07 0.03 0.00 0.00 0.01 0.01 0.00 0.00 0.00 0.00 0.00 0.00 0.01 0.03 0.02 0.02 0.03 0.06 0.01 0.00 0.00 0.00 0.00 0.00 0.01 0.00 0.00 0.01 0.10 0.22 0.30 0.23 0.15 0.07 0.06 0.04 0.01 0.02 0.04 0.01 0.01
0.02 0.06 0.05 0.02 0.01 0.01 0.01 0.01 0.00 0.01 0.01 0.00 0.00 0.00 0.00 0.00 0.00 0.01 0.01 0.01 0.01 0.00 0.00 0.00 0.00 0.00 0.00 0.00 0.00 0.00 0.00 0.00 0.01 0.02 0.04 0.05 0.05 0.07 0.06 0.06 0.03 0.05 0.04 0.01
0.01 0.01 0.00 0.01 0.01 0.01 0.01 0.01 0.00 0.00 0.01 0.00 0.00 0.01 0.00 0.01 0.01 0.00 0.00 0.00 0.00 0.00 0.00 0.00 0.00 0.00 0.00 0.00 0.00 0.00 0.00 0.00 0.00 0.00 0.00 0.00 0.00 0.00 0.01 0.01 0.02 0.02 0.04 0.07

GFSNW_prec_precacc24_072.txt.gz
Total_Precipitation_Accumulation
0.04 0.05 0.03 0.02 0.02 0.03 0.07 0.15 0.28 0.34 0.15 0.15 0.13 0.05 0.10 0.27 0.47 0.50 0.20 0.01 0.00 0.00 0.00 0.00 0.00 0.00 0.01 0.00 0.00 0.00 0.00 0.00 0.01 0.01 0.00 0.00 0.00 0.00 0.00 0.01 0.00 0.00 0.00 0.00
0.04 0.04 0.01 0.01 0.01 0.05 0.16 0.18 0.17 0.11 0.17 0.14 0.05 0.08 0.18 0.34 0.54 0.27 0.06 0.01 0.00 0.00 0.00 0.00 0.01 0.00 0.00 0.00 0.00 0.00 0.00 0.00 0.01 0.01 0.01 0.00 0.00 0.00 0.00 0.00 0.01 0.01 0.02 0.00
0.04 0.03 0.01 0.01 0.00 0.02 0.16 0.20 0.25 0.22 0.29 0.09 0.08 0.08 0.23 0.32 0.42 0.10 0.00 0.00 0.00 0.00 0.01 0.00 0.01 0.00 0.00 0.00 0.00 0.00 0.00 0.00 0.00 0.00 0.00 0.00 0.00 0.00 0.00 0.01 0.04 0.01 0.00 0.00
0.04 0.01 0.00 0.01 0.00 0.00 0.09 0.15 0.16 0.13 0.13 0.03 0.10 0.30 0.41 0.45 0.30 0.05 0.00 0.01 0.00 0.00 0.01 0.00 0.00 0.00 0.00 0.00 0.00 0.00 0.00 0.01 0.00 0.00 0.00 0.00 0.00 0.00 0.00 0.01 0.00 0.04 0.01 0.00
0.03 0.01 0.01 0.01 0.00 0.00 0.02 0.06 0.13 0.10 0.06 0.02 0.02 0.13 0.42 0.53 0.14 0.04 0.03 0.03 0.02 0.01 0.00 0.00 0.00 0.00 0.00 0.00 0.00 0.01 0.00 0.01 0.00 0.00 0.00 0.00 0.00 0.00 0.00 0.01 0.02 0.06 0.02 0.01
0.03 0.01 0.01 0.01 0.00 0.02 0.07 0.05 0.07 0.08 0.03 0.02 0.06 0.14 0.33 0.26 0.15 0.11 0.03 0.01 0.00 0.00 0.00 0.00 0.00 0.00 0.00 0.00 0.00 0.01 0.01 0.01 0.01 0.00 0.00 0.00 0.00 0.00 0.01 0.02 0.03 0.05 0.05 0.01
0.03 0.02 0.01 0.01 0.00 0.03 0.10 0.06 0.05 0.05 0.03 0.02 0.06 0.10 0.14 0.19 0.14 0.08 0.01 0.00 0.01 0.00 0.00 0.00 0.00 0.00 0.00 0.00 0.00 0.00 0.01 0.01 0.02 0.01 0.00 0.02 0.01 0.01 0.02 0.01 0.01 0.02 0.03 0.01
0.02 0.02 0.01 0.01 0.00 0.02 0.05 0.04 0.08 0.08 0.04 0.02 0.02 0.04 0.04 0.04 0.02 0.03 0.02 0.00 0.00 0.00 0.00 0.00 0.00 0.00 0.00 0.00 0.01 0.01 0.01 0.05 0.04 0.02 0.01 0.00 0.02 0.01 0.02 0.00 0.00 0.02 0.03 0.01
0.01 0.02 0.02 0.01 0.00 0.01 0.03 0.07 0.10 0.09 0.08 0.01 0.01 0.02 0.02 0.02 0.01 0.01 0.02 0.03 0.01 0.00 0.00 0.00 0.00 0.00 0.00 0.00 0.01 0.01 0.02 0.03 0.11 0.05 0.03 0.00 0.00 0.00 0.00 0.01 0.09 0.01 0.01 0.01
0.01 0.01 0.02 0.01 0.01 0.02 0.03 0.04 0.08 0.15 0.13 0.01 0.01 0.03 0.03 0.03 0.02 0.02 0.02 0.01 0.03 0.02 0.01 0.02 0.00 0.00 0.00 0.00 0.00 0.02 0.07 0.10 0.09 0.04 0.04 0.00 0.00 0.00 0.00 0.02 0.05 0.02 0.02 0.01
0.02 0.02 0.01 0.01 0.02 0.03 0.02 0.02 0.06 0.15 0.11 0.02 0.01 0.03 0.07 0.03 0.02 0.04 0.01 0.01 0.01 0.03 0.02 0.02 0.01 0.00 0.00 0.00 0.00 0.00 0.01 0.02 0.03 0.02 0.02 0.00 0.00 0.00 0.00 0.00 0.00 0.00 0.00 0.01
0.02 0.02 0.02 0.02 0.03 0.05 0.04 0.02 0.04 0.08 0.14 0.03 0.00 0.01 0.03 0.03 0.06 0.03 0.00 0.01 0.00 0.01 0.01 0.01 0.01 0.01 0.01 0.00 0.01 0.00 0.00 0.00 0.00 0.00 0.00 0.00 0.00 0.00 0.00 0.00 0.00 0.00 0.00 0.00
0.03 0.03 0.03 0.04 0.04 0.04 0.09 0.03 0.01 0.05 0.13 0.04 0.02 0.01 0.01 0.00 0.00 0.01 0.01 0.01 0.01 0.01 0.01 0.04 0.02 0.03 0.02 0.01 0.00 0.00 0.00 0.00 0.00 0.00 0.00 0.00 0.00 0.00 0.00 0.00 0.00 0.00 0.00 0.00
0.04 0.04 0.06 0.07 0.05 0.03 0.08 0.03 0.01 0.03 0.06 0.06 0.03 0.01 0.01 0.01 0.00 0.01 0.01 0.02 0.03 0.08 0.08 0.10 0.07 0.06 0.01 0.02 0.01 0.00 0.00 0.00 0.00 0.00 0.00 0.00 0.00 0.00 0.00 0.00 0.00 0.00 0.00 0.00
0.06 0.08 0.06 0.05 0.07 0.09 0.07 0.01 0.00 0.01 0.06 0.10 0.03 0.01 0.00 0.00 0.02 0.03 0.08 0.12 0.11 0.13 0.19 0.12 0.06 0.07 0.05 0.01 0.00 0.00 0.00 0.00 0.00 0.00 0.00 0.00 0.00 0.00 0.00 0.00 0.00 0.00 0.00 0.00
0.04 0.04 0.05 0.09 0.11 0.19 0.09 0.03 0.01 0.01 0.05 0.12 0.06 0.01 0.00 0.00 0.02 0.09 0.11 0.14 0.18 0.18 0.22 0.15 0.08 0.07 0.10 0.08 0.02 0.00 0.00 0.00 0.00 0.00 0.00 0.00 0.00 0.00 0.00 0.00 0.00 0.00 0.00 0.00
0.05 0.06 0.07 0.11 0.17 0.20 0.21 0.12 0.26 0.07 0.07 0.12 0.10 0.04 0.02 0.04 0.14 0.23 0.27 0.20 0.25 0.34 0.38 0.23 0.12 0.11 0.20 0.13 0.02 0.00 0.00 0.00 0.00 0.00 0.00 0.00 0.00 0.00 0.00 0.00 0.00 0.00 0.00 0.00
0.03 0.11 0.21 0.18 0.20 0.14 0.07 0.04 0.12 0.18 0.17 0.21 0.17 0.09 0.05 0.09 0.29 0.34 0.28 0.25 0.16 0.23 0.27 0.19 0.11 0.11 0.24 0.19 0.01 0.00 0.00 0.00 0.00 0.00 0.00 0.00 0.00 0.00 0.00 0.00 0.00 0.00 0.00 0.00
0.07 0.12 0.11 0.06 0.02 0.05 0.09 0.17 0.27 0.26 0.44 0.40 0.17 0.10 0.05 0.05 0.16 0.23 0.32 0.31 0.34 0.28 0.17 0.15 0.29 0.21 0.13 0.02 0.00 0.00 0.00 0.00 0.00 0.00 0.00 0.00 0.00 0.00 0.00 0.00 0.00 0.00 0.00 0.00
0.04 0.04 0.04 0.07 0.06 0.17 0.41 0.65 0.60 0.46 0.29 0.14 0.08 0.03 0.07 0.08 0.11 0.15 0.24 0.39 0.44 0.36 0.23 0.26 0.29 0.20 0.08 0.02 0.00 0.00 0.00 0.00 0.00 0.00 0.00 0.00 0.00 0.00 0.00 0.00 0.00 0.00 0.00 0.00
0.11 0.21 0.32 0.34 0.49 0.69 0.80 0.69 0.43 0.24 0.14 0.04 0.01 0.01 0.06 0.08 0.18 0.15 0.27 0.33 0.45 0.41 0.34 0.52 0.40 0.27 0.07 0.00 0.00 0.00 0.00 0.00 0.00 0.00 0.00 0.00 0.00 0.00 0.00 0.00 0.00 0.00 0.00 0.00
0.07 0.15 0.25 0.39 0.47 0.62 0.55 0.44 0.24 0.14 0.05 0.05 0.04 0.02 0.01 0.05 0.06 0.15 0.26 0.34 0.38 0.32 0.31 0.45 0.33 0.11 0.00 0.00 0.00 0.00 0.00 0.00 0.00 0.00 0.00 0.00 0.00 0.00 0.00 0.01 0.00 0.00 0.00 0.00
0.04 0.23 0.31 0.39 0.34 0.29 0.19 0.21 0.19 0.18 0.08 0.09 0.14 0.15 0.07 0.10 0.16 0.20 0.26 0.35 0.29 0.22 0.20 0.13 0.04 0.01 0.00 0.00 0.00 0.02 0.04 0.01 0.01 0.01 0.01 0.00 0.01 0.02 0.03 0.03 0.01 0.01 0.01 0.02
0.06 0.21 0.27 0.22 0.25 0.04 0.06 0.10 0.18 0.23 0.17 0.13 0.12 0.12 0.09 0.11 0.16 0.11 0.11 0.16 0.25 0.15 0.06 0.04 0.03 0.01 0.00 0.02 0.04 0.04 0.11 0.20 0.19 0.12 0.06 0.03 0.03 0.04 0.05 0.05 0.04 0.02 0.02 0.03
0.04 0.14 0.11 0.11 0.05 0.03 0.09 0.16 0.14 0.16 0.14 0.05 0.03 0.03 0.02 0.07 0.10 0.06 0.05 0.08 0.09 0.02 0.02 0.05 0.00 0.00 0.03 0.07 0.11 0.12 0.12 0.23 0.35 0.42 0.38 0.36 0.30 0.28 0.21 0.11 0.08 0.09 0.05 0.03
0.02 0.05 0.04 0.02 0.03 0.05 0.11 0.16 0.18 0.18 0.15 0.04 0.01 0.00 0.01 0.02 0.02 0.04 0.02 0.02 0.02 0.01 0.03 0.06 0.04 0.04 0.05 0.02 0.01 0.00 0.01 0.02 0.05 0.09 0.12 0.14 0.15 0.18 0.20 0.19 0.17 0.19 0.17 0.12
0.01 0.01 0.00 0.01 0.02 0.06 0.12 0.17 0.17 0.11 0.11 0.11 0.05 0.01 0.01 0.03 0.03 0.00 0.00 0.00 0.00 0.00 0.00 0.02 0.03 0.01 0.00 0.00 0.00 0.00 0.00 0.00 0.00 0.00 0.00 0.00 0.00 0.00 0.01 0.02 0.05 0.10 0.18 0.22

GFSNW_prec_precacc24_075.txt.gz
Total_Precipitation_Accumulation
0.03 0.04 0.02 0.01 0.01 0.03 0.05 0.08 0.11 0.16 0.09 0.09 0.11 0.05 0.09 0.18 0.45 0.50 0.20 0.01 0.00 0.00 0.00 0.00 0.00 0.00 0.01 0.00 0.00 0.00 0.00 0.00 0.02 0.02 0.00 0.02 0.01 0.01 0.00 0.00 0.00 0.00 0.00 0.00
0.03 0.03 0.01 0.01 0.01 0.04 0.08 0.07 0.03 0.02 0.09 0.04 0.03 0.07 0.13 0.24 0.52 0.26 0.06 0.01 0.00 0.00 0.00 0.00 0.01 0.00 0.00 0.00 0.00 0.00 0.00 0.00 0.01 0.01 0.00 0.00 0.00 0.00 0.00 0.00 0.00 0.00 0.01 0.00
0.03 0.02 0.01 0.00 0.00 0.02 0.08 0.03 0.07 0.03 0.15 0.05 0.07 0.07 0.16 0.25 0.41 0.10 0.00 0.00 0.00 0.00 0.01 0.00 0.01 0.00 0.00 0.00 0.00 0.00 0.00 0.00 0.00 0.00 0.00 0.00 0.00 0.00 0.00 0.00 0.01 0.00 0.00 0.00
0.03 0.01 0.00 0.00 0.00 0.00 0.04 0.02 0.06 0.10 0.03 0.02 0.09 0.30 0.39 0.43 0.30 0.05 0.00 0.01 0.00 0.00 0.01 0.00 0.00 0.00 0.00 0.00 0.00 0.00 0.00 0.00 0.00 0.00 0.00 0.00 0.00 0.00 0.00 0.00 0.00 0.00 0.00 0.00
0.03 0.01 0.01 0.00 0.00 0.00 0.01 0.02 0.04 0.05 0.03 0.02 0.02 0.13 0.41 0.49 0.14 0.04 0.03 0.03 0.02 0.01 0.00 0.00 0.00 0.00 0.00 0.00 0.00 0.00 0.00 0.00 0.00 0.00 0.00 0.00 0.00 0.00 0.00 0.00 0.00 0.00 0.00 0.00
0.03 0.01 0.01 0.01 0.00 0.01 0.04 0.03 0.03 0.05 0.01 0.01 0.06 0.16 0.36 0.24 0.16 0.11 0.02 0.01 0.00 0.00 0.00 0.00 0.00 0.00 0.00 0.00 0.00 0.00 0.00 0.00 0.00 0.00 0.00 0.00 0.00 0.00 0.00 0.00 0.00 0.01 0.02 0.00
0.03 0.02 0.02 0.01 0.00 0.03 0.06 0.05 0.04 0.04 0.01 0.02 0.06 0.11 0.15 0.19 0.14 0.08 0.01 0.00 0.01 0.00 0.00 0.00 0.00 0.00 0.00 0.00 0.00 0.00 0.00 0.00 0.01 0.00 0.00 0.01 0.00 0.00 0.00 0.00 0.00 0.01 0.03 0.00
0.02 0.02 0.01 0.01 0.00 0.01 0.03 0.03 0.04 0.05 0.03 0.01 0.02 0.04 0.04 0.04 0.02 0.03 0.01 0.00 0.00 0.00 0.00 0.00 0.00 0.00 0.00 0.00 0.00 0.00 0.00 0.02 0.02 0.01 0.01 0.00 0.00 0.00 0.00 0.00 0.00 0.01 0.03 0.01
0.01 0.02 0.01 0.01 0.00 0.01 0.01 0.02 0.02 0.04 0.04 0.01 0.01 0.02 0.03 0.02 0.01 0.01 0.02 0.02 0.00 0.00 0.00 0.00 0.00 0.00 0.00 0.00 0.01 0.01 0.01 0.01 0.08 0.03 0.02 0.00 0.00 0.00 0.00 0.00 0.04 0.01 0.01 0.01
0.01 0.01 0.02 0.01 0.00 0.02 0.01 0.02 0.03 0.05 0.05 0.00 0.01 0.03 0.04 0.06 0.02 0.02 0.01 0.01 0.01 0.01 0.00 0.01 0.00 0.00 0.00 0.00 0.00 0.01 0.04 0.06 0.06 0.03 0.02 0.00 0.00 0.00 0.00 0.02 0.03 0.00 0.00 0.01
0.02 0.02 0.01 0.01 0.02 0.03 0.01 0.01 0.04 0.11 0.08 0.02 0.00 0.02 0.06 0.03 0.02 0.04 0.01 0.01 0.01 0.01 0.01 0.01 0.00 0.00 0.00 0.00 0.00 0.00 0.00 0.02 0.03 0.02 0.01 0.00 0.00 0.00 0.00 0.00 0.00 0.00 0.00 0.00
0.02 0.02 0.02 0.02 0.03 0.05 0.04 0.02 0.03 0.07 0.12 0.02 0.00 0.00 0.03 0.03 0.06 0.03 0.00 0.01 0.01 0.00 0.01 0.01 0.00 0.01 0.00 0.00 0.00 0.00 0.00 0.00 0.00 0.00 0.00 0.00 0.00 0.00 0.00 0.00 0.00 0.00 0.00 0.00
0.03 0.03 0.03 0.04 0.04 0.04 0.09 0.04 0.01 0.05 0.13 0.03 0.01 0.01 0.01 0.00 0.00 0.01 0.01 0.01 0.00 0.01 0.00 0.02 0.01 0.00 0.01 0.01 0.00 0.00 0.00 0.00 0.00 0.00 0.00 0.00 0.00 0.00 0.00 0.00 0.00 0.00 0.00 0.00
0.03 0.04 0.06 0.07 0.06 0.04 0.08 0.04 0.03 0.05 0.07 0.06 0.02 0.01 0.01 0.01 0.00 0.01 0.01 0.00 0.01 0.02 0.03 0.06 0.04 0.02 0.01 0.01 0.01 0.00 0.00 0.00 0.00 0.00 0.00 0.00 0.00 0.00 0.00 0.00 0.00 0.00 0.00 0.00
0.05 0.07 0.05 0.05 0.07 0.10 0.09 0.02 0.01 0.02 0.07 0.10 0.02 0.01 0.00 0.00 0.02 0.01 0.01 0.02 0.06 0.09 0.12 0.11 0.05 0.03 0.03 0.01 0.00 0.00 0.00 0.00 0.00 0.00 0.00 0.00 0.00 0.00 0.00 0.00 0.00 0.00 0.00 0.00
0.03 0.03 0.05 0.09 0.11 0.20 0.12 0.06 0.01 0.01 0.04 0.14 0.06 0.01 0.00 0.00 0.00 0.03 0.05 0.06 0.10 0.16 0.19 0.15 0.07 0.05 0.08 0.08 0.03 0.00 0.00 0.00 0.00 0.00 0.00 0.00 0.00 0.00 0.00 0.00 0.00 0.00 0.00 0.00
0.04 0.04 0.07 0.11 0.17 0.21 0.24 0.16 0.27 0.07 0.08 0.15 0.10 0.04 0.01 0.04 0.11 0.14 0.19 0.20 0.25 0.35 0.39 0.23 0.10 0.09 0.19 0.13 0.02 0.00 0.00 0.00 0.00 0.00 0.00 0.00 0.00 0.00 0.00 0.00 0.00 0.00 0.00 0.00
0.02 0.09 0.20 0.17 0.20 0.16 0.09 0.05 0.14 0.19 0.20 0.21 0.19 0.11 0.06 0.09 0.25 0.26 0.23 0.29 0.24 0.29 0.27 0.20 0.10 0.11 0.24 0.19 0.01 0.00 0.00 0.00 0.00 0.00 0.00 0.00 0.00 0.00 0.00 0.00 0.00 0.00 0.00 0.00
0.04 0.11 0.10 0.05 0.02 0.06 0.09 0.20 0.30 0.27 0.46 0.42 0.21 0.16 0.13 0.07 0.21 0.22 0.27 0.24 0.31 0.27 0.17 0.16 0.29 0.22 0.14 0.02 0.00 0.00 0.00 0.00 0.00 0.00 0.00 0.00 0.00 0.00 0.00 0.00 0.00 0.00 0.00 0.00
0.03 0.04 0.04 0.07 0.06 0.18 0.40 0.63 0.65 0.54 0.31 0.14 0.09 0.05 0.20 0.14 0.19 0.20 0.22 0.33 0.38 0.33 0.23 0.26 0.29 0.21 0.08 0.02 0.00 0.00 0.00 0.00 0.00 0.00 0.00 0.00 0.00 0.00 0.00 0.00 0.00 0.00 0.00 0.00
0.09 0.19 0.30 0.32 0.42 0.64 0.80 0.72 0.46 0.26 0.15 0.04 0.02 0.01 0.15 0.15 0.23 0.19 0.27 0.34 0.43 0.40 0.34 0.53 0.41 0.28 0.07 0.00 0.00 0.00 0.00 0.00 0.00 0.00 0.00 0.00 0.00 0.00 0.00 0.00 0.00 0.00 0.00 0.00
0.04 0.13 0.23 0.35 0.44 0.65 0.60 0.47 0.27 0.16 0.05 0.09 0.06 0.03 0.05 0.14 0.16 0.22 0.33 0.35 0.39 0.33 0.32 0.47 0.34 0.11 0.00 0.00 0.00 0.00 0.00 0.00 0.00 0.00 0.00 0.00 0.00 0.00 0.00 0.01 0.00 0.00 0.00 0.00
0.03 0.23 0.31 0.39 0.38 0.33 0.25 0.31 0.36 0.36 0.20 0.20 0.21 0.20 0.08 0.15 0.21 0.24 0.29 0.37 0.30 0.23 0.22 0.14 0.04 0.02 0.00 0.00 0.00 0.02 0.04 0.01 0.01 0.01 0.01 0.00 0.01 0.02 0.03 0.03 0.01 0.01 0.01 0.02
0.06 0.22 0.27 0.24 0.30 0.11 0.19 0.26 0.32 0.38 0.36 0.32 0.27 0.30 0.18 0.16 0.23 0.16 0.12 0.17 0.26 0.17 0.07 0.04 0.06 0.01 0.00 0.02 0.05 0.05 0.12 0.21 0.20 0.13 0.06 0.04 0.04 0.05 0.06 0.06 0.05 0.02 0.02 0.03
0.04 0.14 0.11 0.11 0.07 0.06 0.16 0.23 0.23 0.29 0.31 0.25 0.21 0.20 0.14 0.17 0.18 0.09 0.07 0.11 0.11 0.02 0.03 0.11 0.04 0.01 0.03 0.07 0.11 0.13 0.14 0.27 0.41 0.47 0.44 0.42 0.35 0.32 0.25 0.14 0.10 0.10 0.06 0.04
0.02 0.05 0.04 0.02 0.03 0.05 0.12 0.18 0.23 0.28 0.31 0.19 0.10 0.07 0.07 0.09 0.05 0.05 0.04 0.05 0.05 0.05 0.10 0.15 0.08 0.07 0.05 0.03 0.01 0.00 0.01 0.02 0.06 0.09 0.14 0.16 0.17 0.21 0.23 0.22 0.19 0.21 0.19 0.15
0.01 0.01 0.00 0.01 0.02 0.06 0.12 0.17 0.18 0.14 0.18 0.21 0.14 0.05 0.05 0.07 0.05 0.00 0.00 0.01 0.00 0.00 0.00 0.09 0.11 0.07 0.02 0.00 0.00 0.00 0.00 0.00 0.00 0.00 0.00 0.00 0.00 0.00 0.01 0.02 0.06 0.10 0.21 0.27

GFSNW_prec_precacc24_078.txt.gz
Total_Precipitation_Accumulation
0.02 0.02 0.01 0.01 0.01 0.03 0.02 0.01 0.01 0.01 0.03 0.05 0.06 0.04 0.07 0.15 0.31 0.45 0.19 0.01 0.00 0.00 0.00 0.00 0.00 0.00 0.01 0.00 0.00 0.00 0.03 0.03 0.11 0.12 0.02 0.02 0.01 0.03 0.02 0.03 0.02 0.00 0.00 0.00
0.02 0.02 0.01 0.00 0.00 0.04 0.04 0.00 0.00 0.01 0.02 0.02 0.02 0.03 0.10 0.17 0.37 0.24 0.06 0.01 0.00 0.00 0.00 0.00 0.00 0.00 0.00 0.00 0.00 0.00 0.00 0.01 0.05 0.09 0.06 0.02 0.00 0.00 0.01 0.00 0.01 0.00 0.00 0.00
0.02 0.02 0.00 0.00 0.00 0.01 0.02 0.01 0.02 0.00 0.00 0.01 0.03 0.06 0.11 0.17 0.31 0.09 0.00 0.00 0.00 0.00 0.00 0.00 0.01 0.00 0.00 0.00 0.00 0.00 0.00 0.00 0.00 0.01 0.01 0.00 0.00 0.00 0.00 0.01 0.01 0.00 0.00 0.00
0.02 0.01 0.00 0.00 0.00 0.00 0.01 0.00 0.02 0.04 0.02 0.01 0.07 0.28 0.34 0.36 0.24 0.04 0.00 0.01 0.00 0.00 0.01 0.00 0.00 0.00 0.00 0.00 0.00 0.00 0.00 0.00 0.00 0.00 0.00 0.00 0.00 0.00 0.00 0.00 0.00 0.00 0.00 0.00
0.02 0.01 0.00 0.00 0.00 0.00 0.01 0.01 0.03 0.03 0.01 0.00 0.01 0.12 0.35 0.35 0.12 0.04 0.03 0.02 0.02 0.00 0.00 0.00 0.00 0.00 0.00 0.00 0.00 0.00 0.00 0.00 0.00 0.00 0.00 0.00 0.00 0.00 0.00 0.00 0.00 0.00 0.00 0.00
0.02 0.01 0.01 0.00 0.00 0.01 0.02 0.02 0.02 0.05 0.00 0.01 0.05 0.16 0.37 0.20 0.14 0.12 0.02 0.01 0.00 0.00 0.00 0.00 0.00 0.00 0.00 0.00 0.00 0.00 0.00 0.00 0.00 0.00 0.00 0.00 0.00 0.00 0.00 0.00 0.00 0.00 0.00 0.00
0.02 0.01 0.01 0.01 0.00 0.02 0.03 0.03 0.04 0.03 0.01 0.01 0.07 0.11 0.16 0.19 0.13 0.09 0.02 0.00 0.00 0.00 0.00 0.00 0.00 0.00 0.00 0.00 0.00 0.00 0.00 0.00 0.00 0.00 0.00 0.00 0.00 0.00 0.00 0.00 0.00 0.00 0.00 0.00
0.01 0.01 0.01 0.01 0.00 0.01 0.01 0.02 0.03 0.05 0.02 0.00 0.02 0.04 0.05 0.04 0.01 0.03 0.02 0.00 0.00 0.00 0.00 0.01 0.01 0.00 0.00 0.00 0.00 0.00 0.00 0.00 0.01 0.00 0.00 0.00 0.00 0.00 0.00 0.00 0.00 0.00 0.01 0.00
0.01 0.01 0.01 0.01 0.00 0.01 0.01 0.01 0.01 0.02 0.03 0.00 0.01 0.01 0.04 0.05 0.01 0.02 0.02 0.01 0.00 0.00 0.00 0.00 0.01 0.01 0.00 0.00 0.00 0.00 0.00 0.00 0.03 0.02 0.01 0.00 0.00 0.00 0.00 0.00 0.02 0.00 0.00 0.01
0.01 0.01 0.02 0.01 0.00 0.02 0.01 0.01 0.00 0.03 0.03 0.00 0.00 0.01 0.04 0.12 0.06 0.01 0.01 0.00 0.00 0.00 0.00 0.01 0.00 0.00 0.00 0.00 0.00 0.01 0.02 0.03 0.05 0.02 0.02 0.00 0.00 0.00 0.00 0.02 0.02 0.00 0.00 0.01
0.02 0.02 0.01 0.01 0.02 0.03 0.01 0.01 0.02 0.06 0.05 0.00 0.00 0.01 0.04 0.03 0.05 0.06 0.01 0.02 0.02 0.01 0.01 0.01 0.00 0.00 0.00 0.00 0.00 0.00 0.00 0.01 0.02 0.01 0.01 0.00 0.00 0.00 0.01 0.00 0.00 0.00 0.00 0.00
0.02 0.02 0.02 0.02 0.03 0.06 0.04 0.02 0.03 0.05 0.08 0.01 0.00 0.00 0.02 0.02 0.05 0.02 0.00 0.01 0.02 0.00 0.00 0.01 0.00 0.00 0.00 0.00 0.00 0.00 0.00 0.00 0.00 0.00 0.00 0.00 0.00 0.00 0.00 0.00 0.00 0.00 0.00 0.00
0.02 0.02 0.03 0.04 0.05 0.05 0.09 0.03 0.02 0.05 0.11 0.01 0.00 0.00 0.01 0.00 0.00 0.01 0.01 0.02 0.02 0.01 0.00 0.01 0.00 0.00 0.00 0.00 0.00 0.00 0.00 0.00 0.00 0.00 0.00 0.00 0.00 0.00 0.00 0.00 0.00 0.00 0.00 0.00
0.03 0.04 0.05 0.06 0.06 0.04 0.08 0.04 0.03 0.07 0.10 0.07 0.01 0.01 0.01 0.01 0.00 0.01 0.01 0.01 0.01 0.00 0.01 0.06 0.03 0.02 0.00 0.00 0.00 0.00 0.00 0.00 0.00 0.00 0.00 0.00 0.00 0.00 0.00 0.00 0.00 0.00 0.00 0.00
0.05 0.07 0.05 0.05 0.07 0.10 0.09 0.02 0.01 0.03 0.10 0.11 0.01 0.01 0.00 0.00 0.02 0.01 0.00 0.00 0.03 0.06 0.10 0.10 0.04 0.02 0.01 0.00 0.00 0.00 0.00 0.00 0.00 0.00 0.00 0.00 0.00 0.00 0.00 0.00 0.00 0.00 0.00 0.00
0.03 0.02 0.04 0.09 0.12 0.22 0.13 0.06 0.01 0.01 0.05 0.19 0.08 0.01 0.00 0.00 0.00 0.02 0.02 0.01 0.03 0.11 0.22 0.15 0.06 0.02 0.04 0.06 0.02 0.00 0.00 0.00 0.00 0.00 0.00 0.00 0.00 0.00 0.00 0.00 0.00 0.00 0.00 0.00
0.02 0.02 0.05 0.11 0.19 0.23 0.25 0.16 0.28 0.07 0.09 0.19 0.12 0.04 0.01 0.03 0.07 0.08 0.12 0.14 0.19 0.30 0.37 0.19 0.07 0.07 0.17 0.13 0.02 0.00 0.00 0.00 0.00 0.00 0.00 0.00 0.00 0.00 0.00 0.00 0.00 0.00 0.00 0.00
0.00 0.07 0.19 0.16 0.19 0.17 0.10 0.06 0.15 0.22 0.23 0.23 0.20 0.10 0.07 0.09 0.20 0.19 0.16 0.25 0.24 0.31 0.28 0.19 0.09 0.10 0.23 0.19 0.01 0.00 0.00 0.00 0.00 0.00 0.00 0.00 0.00 0.00 0.00 0.00 0.00 0.00 0.00 0.00
0.01 0.08 0.10 0.05 0.02 0.07 0.10 0.20 0.31 0.30 0.49 0.44 0.22 0.18 0.21 0.16 0.24 0.17 0.19 0.22 0.35 0.26 0.16 0.13 0.27 0.21 0.14 0.02 0.00 0.00 0.00 0.00 0.00 0.00 0.00 0.00 0.00 0.00 0.00 0.00 0.00 0.00 0.00 0.00
0.02 0.03 0.04 0.07 0.06 0.17 0.39 0.62 0.67 0.60 0.33 0.15 0.09 0.05 0.23 0.25 0.30 0.26 0.24 0.27 0.30 0.24 0.17 0.23 0.28 0.21 0.08 0.02 0.00 0.00 0.00 0.00 0.00 0.00 0.00 0.00 0.00 0.00 0.00 0.00 0.00 0.00 0.00 0.00
0.07 0.19 0.29 0.32 0.39 0.61 0.78 0.70 0.47 0.27 0.16 0.04 0.02 0.02 0.18 0.23 0.42 0.33 0.30 0.30 0.34 0.31 0.29 0.51 0.41 0.28 0.07 0.00 0.00 0.00 0.00 0.00 0.00 0.00 0.00 0.00 0.00 0.00 0.00 0.00 0.00 0.00 0.00 0.00
0.02 0.09 0.16 0.30 0.39 0.64 0.62 0.49 0.31 0.21 0.08 0.13 0.12 0.11 0.15 0.22 0.25 0.31 0.39 0.32 0.37 0.29 0.31 0.47 0.34 0.11 0.00 0.00 0.00 0.00 0.00 0.00 0.00 0.00 0.00 0.00 0.00 0.00 0.00 0.00 0.00 0.00 0.00 0.00
0.02 0.18 0.27 0.37 0.38 0.36 0.30 0.39 0.49 0.48 0.34 0.38 0.38 0.35 0.21 0.26 0.34 0.29 0.31 0.36 0.29 0.23 0.23 0.14 0.04 0.02 0.00 0.00 0.00 0.02 0.04 0.01 0.01 0.01 0.01 0.00 0.01 0.02 0.03 0.03 0.01 0.01 0.01 0.02
0.05 0.19 0.26 0.24 0.32 0.16 0.31 0.32 0.36 0.44 0.46 0.44 0.41 0.47 0.36 0.26 0.31 0.23 0.14 0.18 0.27 0.18 0.07 0.05 0.06 0.04 0.01 0.02 0.05 0.05 0.12 0.21 0.20 0.14 0.07 0.05 0.04 0.06 0.07 0.07 0.06 0.03 0.02 0.03
0.04 0.14 0.11 0.11 0.07 0.07 0.18 0.23 0.24 0.31 0.36 0.37 0.38 0.37 0.28 0.33 0.33 0.17 0.08 0.12 0.11 0.03 0.05 0.16 0.11 0.06 0.03 0.07 0.11 0.13 0.14 0.27 0.41 0.47 0.45 0.43 0.36 0.33 0.26 0.16 0.12 0.12 0.07 0.05
0.01 0.05 0.04 0.02 0.03 0.05 0.12 0.18 0.23 0.29 0.32 0.28 0.25 0.18 0.18 0.23 0.15 0.09 0.06 0.06 0.07 0.11 0.18 0.22 0.15 0.15 0.07 0.03 0.01 0.00 0.01 0.02 0.06 0.09 0.14 0.16 0.17 0.22 0.24 0.22 0.19 0.21 0.20 0.16
0.01 0.01 0.00 0.01 0.02 0.06 0.12 0.17 0.18 0.14 0.19 0.28 0.26 0.13 0.11 0.13 0.11 0.02 0.01 0.03 0.05 0.01 0.01 0.15 0.17 0.16 0.07 0.02 0.00 0.00 0.00 0.00 0.00 0.00 0.00 0.00 0.00 0.00 0.01 0.02 0.06 0.10 0.21 0.28

GFSNW_prec_precacc24_081.txt.gz
Total_Precipitation_Accumulation
0.02 0.02 0.01 0.01 0.00 0.02 0.01 0.00 0.01 0.01 0.00 0.01 0.01 0.04 0.06 0.13 0.19 0.18 0.10 0.00 0.00 0.00 0.00 0.00 0.00 0.00 0.02 0.02 0.03 0.04 0.04 0.04 0.14 0.15 0.03 0.02 0.01 0.03 0.02 0.03 0.03 0.00 0.01 0.00
0.01 0.01 0.00 0.00 0.00 0.03 0.03 0.00 0.00 0.00 0.00 0.01 0.01 0.01 0.07 0.14 0.15 0.14 0.04 0.00 0.00 0.00 0.00 0.00 0.00 0.00 0.00 0.00 0.00 0.01 0.02 0.03 0.07 0.11 0.08 0.03 0.00 0.00 0.01 0.00 0.01 0.00 0.00 0.00
0.01 0.01 0.00 0.00 0.00 0.01 0.01 0.00 0.00 0.00 0.00 0.01 0.03 0.04 0.09 0.10 0.13 0.07 0.00 0.00 0.00 0.00 0.00 0.00 0.00 0.00 0.00 0.00 0.00 0.00 0.00 0.01 0.02 0.01 0.01 0.01 0.00 0.00 0.00 0.01 0.01 0.00 0.00 0.00
0.01 0.01 0.00 0.00 0.00 0.00 0.00 0.00 0.01 0.02 0.01 0.01 0.05 0.18 0.26 0.23 0.14 0.03 0.00 0.01 0.00 0.00 0.00 0.00 0.00 0.00 0.00 0.00 0.00 0.00 0.00 0.00 0.01 0.00 0.00 0.00 0.00 0.00 0.00 0.00 0.00 0.00 0.00 0.00
0.01 0.00 0.00 0.00 0.00 0.00 0.00 0.01 0.03 0.02 0.01 0.00 0.01 0.11 0.27 0.18 0.07 0.03 0.03 0.02 0.01 0.00 0.00 0.00 0.00 0.00 0.00 0.00 0.00 0.00 0.00 0.00 0.00 0.00 0.00 0.00 0.00 0.00 0.00 0.00 0.00 0.00 0.00 0.00
0.02 0.00 0.00 0.00 0.00 0.00 0.00 0.01 0.01 0.05 0.00 0.01 0.04 0.14 0.25 0.13 0.07 0.15 0.03 0.00 0.00 0.00 0.00 0.00 0.00 0.00 0.00 0.00 0.00 0.00 0.00 0.00 0.00 0.00 0.00 0.00 0.00 0.00 0.00 0.00 0.00 0.00 0.00 0.00
0.02 0.00 0.01 0.01 0.00 0.01 0.01 0.01 0.03 0.03 0.01 0.01 0.06 0.11 0.15 0.16 0.07 0.10 0.03 0.00 0.00 0.00 0.00 0.00 0.00 0.00 0.00 0.00 0.00 0.00 0.00 0.00 0.00 0.00 0.00 0.00 0.00 0.00 0.00 0.00 0.00 0.00 0.00 0.00
0.01 0.01 0.01 0.01 0.00 0.01 0.00 0.00 0.02 0.04 0.02 0.00 0.02 0.04 0.05 0.04 0.01 0.05 0.04 0.00 0.00 0.00 0.00 0.01 0.01 0.00 0.00 0.00 0.00 0.00 0.00 0.00 0.00 0.00 0.00 0.00 0.00 0.00 0.00 0.00 0.00 0.00 0.00 0.00
0.01 0.01 0.01 0.01 0.00 0.00 0.00 0.01 0.01 0.02 0.03 0.00 0.01 0.01 0.04 0.07 0.02 0.06 0.04 0.00 0.00 0.00 0.00 0.00 0.01 0.01 0.00 0.00 0.00 0.00 0.00 0.00 0.01 0.01 0.01 0.00 0.00 0.00 0.00 0.00 0.02 0.00 0.00 0.00
0.01 0.01 0.02 0.01 0.00 0.02 0.00 0.01 0.00 0.03 0.03 0.00 0.00 0.01 0.03 0.13 0.08 0.03 0.01 0.00 0.00 0.00 0.00 0.01 0.00 0.00 0.00 0.00 0.00 0.01 0.01 0.01 0.03 0.02 0.01 0.00 0.00 0.00 0.00 0.02 0.03 0.00 0.00 0.00
0.02 0.02 0.01 0.01 0.02 0.03 0.01 0.01 0.02 0.05 0.05 0.00 0.00 0.00 0.02 0.02 0.05 0.09 0.04 0.03 0.04 0.00 0.01 0.01 0.00 0.00 0.00 0.00 0.00 0.00 0.00 0.00 0.01 0.01 0.01 0.00 0.00 0.00 0.01 0.00 0.00 0.00 0.00 0.00
0.01 0.02 0.02 0.03 0.04 0.06 0.05 0.01 0.03 0.05 0.07 0.00 0.00 0.00 0.01 0.01 0.03 0.02 0.02 0.05 0.07 0.01 0.00 0.00 0.00 0.00 0.00 0.00 0.00 0.00 0.00 0.00 0.00 0.00 0.00 0.00 0.00 0.00 0.00 0.00 0.00 0.00 0.00 0.00
0.02 0.02 0.03 0.04 0.04 0.05 0.10 0.03 0.02 0.04 0.07 0.01 0.00 0.00 0.01 0.00 0.00 0.01 0.01 0.04 0.06 0.04 0.00 0.00 0.00 0.00 0.00 0.00 0.00 0.00 0.00 0.00 0.00 0.00 0.00 0.00 0.00 0.00 0.00 0.00 0.00 0.00 0.00 0.00
0.02 0.03 0.06 0.07 0.06 0.04 0.09 0.04 0.03 0.08 0.11 0.08 0.00 0.01 0.01 0.01 0.00 0.01 0.01 0.03 0.02 0.00 0.00 0.03 0.01 0.01 0.00 0.00 0.00 0.00 0.00 0.00 0.00 0.00 0.00 0.00 0.00 0.00 0.00 0.00 0.00 0.00 0.00 0.00
0.03 0.06 0.05 0.05 0.06 0.11 0.10 0.02 0.01 0.04 0.12 0.13 0.01 0.00 0.00 0.00 0.02 0.01 0.00 0.00 0.03 0.06 0.08 0.08 0.04 0.01 0.00 0.00 0.00 0.00 0.00 0.00 0.00 0.00 0.00 0.00 0.00 0.00 0.00 0.00 0.00 0.00 0.00 0.00
0.02 0.02 0.03 0.07 0.11 0.24 0.13 0.06 0.01 0.01 0.07 0.24 0.09 0.01 0.00 0.00 0.00 0.02 0.02 0.01 0.02 0.08 0.19 0.15 0.06 0.01 0.02 0.04 0.02 0.00 0.00 0.00 0.00 0.00 0.00 0.00 0.00 0.00 0.00 0.00 0.00 0.00 0.00 0.00
0.01 0.01 0.04 0.10 0.19 0.23 0.25 0.15 0.26 0.06 0.09 0.21 0.12 0.04 0.01 0.03 0.06 0.07 0.11 0.11 0.15 0.24 0.32 0.19 0.06 0.06 0.15 0.12 0.02 0.00 0.00 0.00 0.00 0.00 0.00 0.00 0.00 0.00 0.00 0.00 0.00 0.00 0.00 0.00
0.00 0.06 0.18 0.13 0.18 0.17 0.10 0.06 0.16 0.22 0.24 0.24 0.20 0.10 0.08 0.11 0.24 0.19 0.13 0.21 0.22 0.28 0.26 0.17 0.08 0.10 0.22 0.18 0.01 0.00 0.00 0.00 0.00 0.00 0.00 0.00 0.00 0.00 0.00 0.00 0.00 0.00 0.00 0.00
0.00 0.04 0.09 0.05 0.02 0.07 0.10 0.19 0.31 0.30 0.49 0.44 0.21 0.18 0.24 0.21 0.42 0.18 0.17 0.18 0.33 0.22 0.15 0.09 0.22 0.18 0.13 0.02 0.00 0.00 0.00 0.00 0.00 0.00 0.00 0.00 0.00 0.00 0.00 0.00 0.00 0.00 0.00 0.00
0.01 0.02 0.04 0.07 0.06 0.16 0.37 0.59 0.67 0.61 0.36 0.16 0.08 0.05 0.24 0.25 0.40 0.38 0.24 0.21 0.23 0.18 0.09 0.13 0.18 0.17 0.07 0.02 0.00 0.00 0.00 0.00 0.00 0.00 0.00 0.00 0.00 0.00 0.00 0.00 0.00 0.00 0.00 0.00
0.04 0.17 0.28 0.30 0.36 0.57 0.73 0.64 0.44 0.26 0.16 0.08 0.08 0.09 0.25 0.25 0.50 0.57 0.34 0.30 0.25 0.19 0.16 0.36 0.29 0.23 0.07 0.00 0.00 0.00 0.00 0.00 0.00 0.00 0.00 0.00 0.00 0.00 0.00 0.00 0.00 0.00 0.00 0.00
0.01 0.04 0.13 0.26 0.33 0.56 0.59 0.46 0.32 0.24 0.13 0.21 0.27 0.24 0.26 0.29 0.34 0.52 0.52 0.28 0.29 0.19 0.22 0.37 0.25 0.09 0.00 0.00 0.00 0.00 0.00 0.00 0.00 0.00 0.00 0.00 0.00 0.00 0.00 0.00 0.00 0.00 0.00 0.00
0.01 0.09 0.20 0.30 0.32 0.34 0.31 0.40 0.52 0.50 0.38 0.43 0.44 0.39 0.27 0.35 0.43 0.37 0.40 0.34 0.21 0.20 0.20 0.12 0.04 0.02 0.00 0.00 0.00 0.02 0.04 0.01 0.01 0.01 0.01 0.00 0.00 0.02 0.02 0.01 0.00 0.01 0.01 0.02
0.05 0.14 0.22 0.22 0.30 0.18 0.34 0.35 0.37 0.44 0.47 0.45 0.47 0.56 0.42 0.35 0.45 0.33 0.17 0.19 0.23 0.17 0.08 0.05 0.06 0.04 0.01 0.02 0.05 0.05 0.12 0.21 0.21 0.14 0.07 0.05 0.05 0.07 0.07 0.07 0.05 0.03 0.03 0.03
0.03 0.12 0.10 0.11 0.07 0.07 0.18 0.23 0.24 0.31 0.36 0.38 0.43 0.48 0.37 0.45 0.47 0.25 0.12 0.14 0.10 0.02 0.05 0.19 0.15 0.11 0.08 0.10 0.12 0.13 0.14 0.27 0.41 0.47 0.45 0.43 0.36 0.33 0.26 0.16 0.12 0.12 0.07 0.05
0.01 0.04 0.03 0.02 0.03 0.05 0.12 0.18 0.23 0.29 0.32 0.29 0.34 0.30 0.32 0.37 0.25 0.17 0.12 0.08 0.09 0.15 0.24 0.28 0.18 0.20 0.15 0.08 0.01 0.00 0.01 0.02 0.06 0.09 0.14 0.16 0.17 0.22 0.24 0.22 0.19 0.21 0.20 0.16
0.00 0.00 0.00 0.01 0.02 0.06 0.12 0.17 0.18 0.14 0.19 0.29 0.30 0.23 0.22 0.23 0.20 0.07 0.08 0.13 0.11 0.03 0.02 0.18 0.20 0.23 0.18 0.11 0.02 0.01 0.00 0.00 0.00 0.00 0.00 0.00 0.00 0.00 0.01 0.02 0.06 0.10 0.21 0.28

GFSNW_prec_precacc24_084.txt.gz
Total_Precipitation_Accumulation
0.01 0.01 0.01 0.01 0.00 0.02 0.00 0.00 0.00 0.00 0.00 0.00 0.00 0.03 0.05 0.10 0.11 0.03 0.01 0.00 0.00 0.00 0.01 0.02 0.02 0.05 0.16 0.25 0.24 0.17 0.18 0.15 0.21 0.16 0.04 0.02 0.03 0.05 0.02 0.03 0.03 0.00 0.01 0.00
0.01 0.01 0.00 0.00 0.00 0.02 0.02 0.00 0.00 0.00 0.00 0.01 0.02 0.01 0.04 0.07 0.05 0.02 0.01 0.00 0.00 0.00 0.00 0.00 0.00 0.00 0.00 0.01 0.06 0.02 0.05 0.06 0.10 0.14 0.10 0.04 0.03 0.01 0.01 0.00 0.01 0.00 0.00 0.00
0.01 0.01 0.00 0.00 0.00 0.00 0.00 0.00 0.00 0.00 0.00 0.01 0.03 0.03 0.05 0.06 0.03 0.01 0.00 0.00 0.00 0.00 0.00 0.00 0.00 0.00 0.00 0.00 0.01 0.01 0.00 0.01 0.02 0.02 0.02 0.01 0.00 0.00 0.00 0.01 0.01 0.00 0.00 0.00
0.01 0.00 0.00 0.00 0.00 0.00 0.00 0.00 0.01 0.02 0.01 0.01 0.05 0.13 0.18 0.13 0.05 0.01 0.00 0.01 0.00 0.00 0.00 0.00 0.00 0.00 0.00 0.00 0.00 0.00 0.00 0.00 0.01 0.00 0.00 0.00 0.00 0.00 0.00 0.00 0.00 0.00 0.00 0.00
0.01 0.00 0.00 0.00 0.00 0.00 0.00 0.01 0.02 0.02 0.00 0.00 0.01 0.10 0.17 0.08 0.03 0.03 0.04 0.00 0.00 0.00 0.00 0.00 0.00 0.00 0.00 0.00 0.00 0.00 0.00 0.00 0.00 0.00 0.00 0.00 0.00 0.00 0.00 0.00 0.00 0.00 0.00 0.00
0.01 0.00 0.00 0.00 0.00 0.00 0.00 0.00 0.01 0.04 0.00 0.01 0.05 0.13 0.18 0.09 0.08 0.14 0.03 0.00 0.00 0.00 0.00 0.00 0.00 0.00 0.00 0.00 0.00 0.00 0.00 0.00 0.00 0.00 0.00 0.00 0.00 0.00 0.00 0.00 0.00 0.00 0.00 0.00
0.02 0.00 0.01 0.01 0.00 0.01 0.00 0.01 0.03 0.03 0.01 0.01 0.06 0.10 0.10 0.08 0.05 0.10 0.03 0.00 0.00 0.00 0.00 0.00 0.00 0.00 0.00 0.00 0.00 0.00 0.00 0.00 0.00 0.00 0.00 0.00 0.00 0.00 0.00 0.00 0.00 0.00 0.00 0.00
0.01 0.01 0.01 0.01 0.00 0.01 0.00 0.00 0.02 0.03 0.02 0.00 0.02 0.04 0.05 0.04 0.01 0.07 0.07 0.00 0.00 0.00 0.00 0.01 0.01 0.00 0.00 0.00 0.00 0.00 0.00 0.00 0.00 0.00 0.00 0.00 0.00 0.00 0.00 0.00 0.00 0.00 0.00 0.00
0.01 0.01 0.01 0.01 0.00 0.00 0.00 0.00 0.01 0.01 0.03 0.00 0.01 0.01 0.04 0.07 0.02 0.08 0.07 0.00 0.00 0.00 0.00 0.00 0.01 0.01 0.00 0.00 0.00 0.00 0.00 0.00 0.00 0.00 0.00 0.00 0.00 0.00 0.00 0.00 0.02 0.00 0.00 0.00
0.01 0.01 0.02 0.01 0.00 0.02 0.00 0.01 0.00 0.02 0.03 0.00 0.00 0.01 0.03 0.13 0.08 0.03 0.02 0.00 0.00 0.00 0.00 0.01 0.00 0.00 0.00 0.00 0.00 0.00 0.01 0.01 0.01 0.01 0.01 0.00 0.00 0.00 0.00 0.02 0.03 0.00 0.00 0.00
0.01 0.01 0.01 0.01 0.02 0.04 0.01 0.01 0.01 0.05 0.05 0.00 0.00 0.00 0.01 0.02 0.05 0.09 0.04 0.05 0.07 0.00 0.01 0.00 0.00 0.00 0.00 0.00 0.00 0.00 0.00 0.00 0.00 0.00 0.00 0.00 0.00 0.00 0.01 0.00 0.00 0.00 0.00 0.00
0.01 0.01 0.01 0.02 0.03 0.06 0.04 0.01 0.02 0.04 0.06 0.00 0.00 0.00 0.00 0.00 0.02 0.02 0.02 0.08 0.18 0.04 0.01 0.01 0.00 0.00 0.00 0.00 0.00 0.00 0.00 0.00 0.00 0.00 0.00 0.00 0.00 0.00 0.00 0.00 0.00 0.00 0.00 0.00
0.01 0.01 0.02 0.04 0.04 0.05 0.09 0.03 0.02 0.03 0.05 0.01 0.00 0.00 0.00 0.00 0.00 0.00 0.01 0.05 0.11 0.10 0.00 0.00 0.00 0.00 0.00 0.00 0.00 0.00 0.00 0.00 0.00 0.00 0.00 0.00 0.00 0.00 0.00 0.00 0.00 0.00 0.00 0.00
0.01 0.02 0.04 0.06 0.05 0.04 0.09 0.04 0.03 0.07 0.10 0.09 0.00 0.00 0.01 0.01 0.00 0.01 0.01 0.04 0.06 0.02 0.01 0.03 0.01 0.01 0.00 0.00 0.00 0.00 0.00 0.00 0.00 0.00 0.00 0.00 0.00 0.00 0.00 0.00 0.00 0.00 0.00 0.00
0.02 0.03 0.04 0.03 0.05 0.10 0.11 0.02 0.01 0.03 0.13 0.16 0.02 0.00 0.00 0.00 0.02 0.01 0.00 0.00 0.03 0.08 0.08 0.07 0.04 0.01 0.00 0.00 0.00 0.00 0.00 0.00 0.00 0.00 0.00 0.00 0.00 0.00 0.00 0.00 0.00 0.00 0.00 0.00
0.02 0.02 0.02 0.05 0.10 0.24 0.13 0.06 0.01 0.02 0.08 0.29 0.10 0.01 0.00 0.00 0.00 0.02 0.02 0.01 0.01 0.07 0.19 0.14 0.05 0.01 0.00 0.01 0.01 0.00 0.00 0.00 0.00 0.00 0.00 0.00 0.00 0.00 0.00 0.00 0.00 0.00 0.00 0.00
0.01 0.01 0.02 0.08 0.16 0.23 0.25 0.13 0.22 0.05 0.10 0.25 0.14 0.04 0.01 0.03 0.07 0.07 0.11 0.10 0.11 0.18 0.25 0.17 0.06 0.04 0.09 0.10 0.01 0.00 0.00 0.00 0.00 0.00 0.00 0.00 0.00 0.00 0.00 0.00 0.00 0.00 0.00 0.00
0.00 0.04 0.15 0.11 0.16 0.16 0.10 0.06 0.16 0.20 0.23 0.24 0.20 0.10 0.08 0.12 0.28 0.20 0.14 0.21 0.21 0.27 0.22 0.15 0.07 0.10 0.19 0.15 0.00 0.00 0.00 0.00 0.00 0.00 0.00 0.00 0.00 0.00 0.00 0.00 0.00 0.00 0.00 0.00
0.00 0.01 0.06 0.05 0.03 0.07 0.09 0.18 0.31 0.31 0.47 0.41 0.22 0.20 0.26 0.22 0.46 0.24 0.23 0.19 0.31 0.21 0.14 0.07 0.16 0.16 0.10 0.02 0.00 0.00 0.00 0.00 0.00 0.00 0.00 0.00 0.00 0.00 0.00 0.00 0.00 0.00 0.00 0.00
0.01 0.02 0.03 0.07 0.06 0.13 0.33 0.55 0.65 0.60 0.36 0.17 0.12 0.10 0.28 0.27 0.44 0.40 0.39 0.20 0.17 0.15 0.06 0.10 0.14 0.13 0.03 0.00 0.00 0.00 0.00 0.00 0.00 0.00 0.00 0.00 0.00 0.00 0.00 0.00 0.00 0.00 0.00 0.00
0.03 0.13 0.24 0.27 0.31 0.49 0.67 0.58 0.41 0.23 0.15 0.08 0.09 0.12 0.28 0.26 0.55 0.61 0.38 0.37 0.17 0.11 0.07 0.22 0.14 0.07 0.03 0.00 0.00 0.00 0.00 0.00 0.00 0.00 0.00 0.00 0.00 0.00 0.00 0.00 0.00 0.00 0.00 0.00
0.00 0.02 0.09 0.19 0.27 0.51 0.54 0.41 0.30 0.23 0.13 0.22 0.29 0.25 0.27 0.29 0.39 0.65 0.61 0.28 0.27 0.10 0.12 0.23 0.14 0.05 0.00 0.00 0.00 0.00 0.00 0.00 0.00 0.00 0.00 0.00 0.00 0.00 0.00 0.00 0.00 0.00 0.00 0.00
0.01 0.05 0.16 0.26 0.27 0.28 0.30 0.39 0.51 0.50 0.38 0.43 0.44 0.40 0.27 0.36 0.48 0.45 0.50 0.34 0.15 0.13 0.14 0.08 0.03 0.02 0.00 0.00 0.00 0.00 0.02 0.01 0.01 0.01 0.01 0.01 0.00 0.01 0.01 0.01 0.00 0.00 0.00 0.00
0.03 0.10 0.16 0.20 0.27 0.18 0.34 0.35 0.37 0.44 0.47 0.45 0.47 0.56 0.44 0.37 0.52 0.38 0.22 0.23 0.18 0.15 0.07 0.04 0.06 0.04 0.01 0.02 0.05 0.04 0.08 0.19 0.21 0.15 0.08 0.06 0.05 0.06 0.06 0.04 0.03 0.03 0.02 0.03
0.01 0.08 0.08 0.10 0.07 0.07 0.18 0.23 0.24 0.31 0.36 0.38 0.44 0.50 0.42 0.51 0.55 0.32 0.18 0.18 0.10 0.03 0.06 0.20 0.16 0.11 0.09 0.12 0.14 0.13 0.14 0.25 0.41 0.48 0.45 0.43 0.36 0.33 0.26 0.16 0.11 0.10 0.07 0.05
0.00 0.02 0.03 0.02 0.02 0.05 0.12 0.18 0.23 0.29 0.32 0.29 0.34 0.32 0.40 0.49 0.34 0.26 0.17 0.13 0.12 0.18 0.26 0.31 0.22 0.22 0.18 0.14 0.05 0.01 0.01 0.02 0.06 0.09 0.14 0.16 0.17 0.22 0.24 0.22 0.19 0.21 0.19 0.15
0.00 0.00 0.00 0.01 0.02 0.06 0.12 0.17 0.18 0.14 0.19 0.29 0.30 0.24 0.28 0.32 0.31 0.19 0.22 0.27 0.18 0.07 0.04 0.19 0.21 0.26 0.27 0.23 0.08 0.04 0.00 0.00 0.00 0.00 0.00 0.00 0.00 0.00 0.01 0.02 0.06 0.10 0.21 0.28

GFSNW_prec_precacc24_087.txt.gz
Total_Precipitation_Accumulation
0.01 0.01 0.00 0.00 0.00 0.01 0.00 0.00 0.00 0.00 0.00 0.00 0.00 0.03 0.05 0.07 0.05 0.01 0.01 0.00 0.00 0.00 0.03 0.06 0.13 0.20 0.39 0.42 0.28 0.20 0.19 0.30 0.23 0.18 0.05 0.02 0.03 0.06 0.03 0.04 0.03 0.00 0.01 0.00
0.00 0.00 0.00 0.00 0.00 0.01 0.01 0.00 0.00 0.00 0.00 0.01 0.02 0.00 0.01 0.01 0.01 0.02 0.02 0.00 0.00 0.00 0.00 0.00 0.01 0.00 0.05 0.16 0.15 0.06 0.15 0.22 0.16 0.21 0.15 0.05 0.04 0.01 0.01 0.00 0.01 0.00 0.00 0.00
0.00 0.00 0.00 0.00 0.00 0.00 0.00 0.00 0.00 0.00 0.00 0.01 0.03 0.02 0.01 0.01 0.01 0.02 0.00 0.00 0.00 0.00 0.00 0.00 0.00 0.01 0.01 0.10 0.19 0.09 0.06 0.05 0.02 0.02 0.02 0.01 0.00 0.00 0.00 0.01 0.01 0.00 0.00 0.00
0.01 0.00 0.00 0.00 0.00 0.00 0.00 0.00 0.01 0.01 0.01 0.01 0.05 0.11 0.06 0.03 0.02 0.00 0.00 0.01 0.00 0.00 0.00 0.00 0.00 0.00 0.00 0.00 0.04 0.12 0.04 0.01 0.01 0.00 0.00 0.00 0.00 0.00 0.00 0.00 0.00 0.00 0.00 0.00
0.01 0.00 0.00 0.00 0.00 0.00 0.00 0.01 0.02 0.01 0.00 0.00 0.01 0.07 0.07 0.03 0.02 0.04 0.07 0.01 0.00 0.00 0.00 0.00 0.00 0.00 0.00 0.00 0.00 0.00 0.00 0.00 0.00 0.00 0.00 0.00 0.00 0.00 0.00 0.00 0.00 0.00 0.00 0.00
0.01 0.00 0.00 0.00 0.00 0.00 0.00 0.00 0.01 0.04 0.00 0.01 0.05 0.12 0.17 0.07 0.06 0.10 0.03 0.01 0.00 0.00 0.00 0.00 0.00 0.00 0.00 0.00 0.00 0.00 0.00 0.00 0.00 0.00 0.00 0.00 0.00 0.00 0.00 0.00 0.00 0.00 0.00 0.00
0.02 0.00 0.00 0.01 0.00 0.00 0.00 0.00 0.03 0.02 0.01 0.01 0.06 0.10 0.08 0.06 0.04 0.08 0.02 0.01 0.02 0.00 0.00 0.00 0.00 0.00 0.00 0.00 0.00 0.00 0.00 0.00 0.00 0.00 0.00 0.00 0.00 0.00 0.00 0.00 0.00 0.00 0.00 0.00
0.01 0.01 0.01 0.00 0.00 0.00 0.00 0.00 0.02 0.03 0.02 0.00 0.02 0.04 0.03 0.02 0.00 0.08 0.10 0.01 0.00 0.00 0.00 0.01 0.01 0.00 0.00 0.00 0.00 0.00 0.00 0.00 0.00 0.00 0.00 0.00 0.00 0.00 0.00 0.00 0.00 0.00 0.00 0.00
0.01 0.01 0.01 0.01 0.00 0.00 0.00 0.00 0.01 0.01 0.02 0.00 0.01 0.01 0.04 0.07 0.02 0.08 0.09 0.01 0.00 0.00 0.00 0.00 0.01 0.01 0.00 0.00 0.00 0.00 0.00 0.00 0.00 0.00 0.00 0.00 0.00 0.00 0.00 0.00 0.02 0.00 0.00 0.00
0.01 0.01 0.01 0.01 0.00 0.01 0.00 0.01 0.00 0.01 0.02 0.00 0.00 0.01 0.03 0.13 0.08 0.03 0.03 0.00 0.00 0.00 0.00 0.01 0.00 0.00 0.00 0.00 0.00 0.00 0.00 0.00 0.00 0.00 0.00 0.00 0.00 0.00 0.00 0.02 0.02 0.00 0.00 0.00
0.00 0.01 0.01 0.01 0.02 0.03 0.01 0.01 0.01 0.04 0.04 0.00 0.00 0.00 0.00 0.02 0.05 0.09 0.04 0.06 0.09 0.01 0.01 0.00 0.00 0.00 0.00 0.00 0.00 0.00 0.00 0.00 0.00 0.00 0.00 0.00 0.00 0.00 0.01 0.00 0.00 0.00 0.00 0.00
0.00 0.00 0.01 0.02 0.03 0.06 0.04 0.01 0.01 0.03 0.05 0.00 0.00 0.00 0.00 0.00 0.01 0.01 0.02 0.10 0.24 0.11 0.03 0.01 0.00 0.00 0.00 0.00 0.00 0.00 0.00 0.00 0.00 0.00 0.00 0.00 0.00 0.00 0.00 0.00 0.00 0.00 0.00 0.00
0.00 0.00 0.01 0.03 0.04 0.05 0.09 0.03 0.02 0.03 0.05 0.00 0.00 0.00 0.00 0.00 0.00 0.00 0.00 0.05 0.19 0.21 0.04 0.02 0.00 0.00 0.00 0.00 0.00 0.00 0.00 0.00 0.00 0.00 0.00 0.00 0.00 0.00 0.00 0.00 0.00 0.00 0.00 0.00
0.00 0.01 0.03 0.03 0.03 0.03 0.08 0.04 0.03 0.07 0.08 0.08 0.00 0.00 0.00 0.00 0.00 0.01 0.01 0.04 0.07 0.08 0.03 0.04 0.01 0.01 0.00 0.00 0.00 0.00 0.00 0.00 0.00 0.00 0.00 0.00 0.00 0.00 0.00 0.00 0.00 0.00 0.00 0.00
0.01 0.02 0.03 0.02 0.03 0.08 0.10 0.02 0.01 0.03 0.11 0.15 0.02 0.00 0.00 0.00 0.02 0.01 0.00 0.00 0.03 0.08 0.08 0.07 0.04 0.01 0.00 0.00 0.00 0.00 0.00 0.00 0.00 0.00 0.00 0.00 0.00 0.00 0.00 0.00 0.00 0.00 0.00 0.00
0.01 0.01 0.02 0.02 0.06 0.19 0.13 0.06 0.01 0.02 0.09 0.33 0.10 0.01 0.00 0.00 0.00 0.02 0.02 0.01 0.01 0.07 0.18 0.13 0.05 0.01 0.01 0.01 0.00 0.00 0.00 0.00 0.00 0.00 0.00 0.00 0.00 0.00 0.00 0.00 0.00 0.00 0.00 0.00
0.01 0.01 0.02 0.04 0.09 0.21 0.25 0.10 0.16 0.04 0.11 0.28 0.14 0.04 0.01 0.03 0.07 0.07 0.11 0.10 0.08 0.13 0.19 0.13 0.04 0.03 0.07 0.07 0.01 0.00 0.00 0.00 0.00 0.00 0.00 0.00 0.00 0.00 0.00 0.00 0.00 0.00 0.00 0.00
0.00 0.01 0.10 0.07 0.12 0.16 0.10 0.05 0.15 0.16 0.22 0.22 0.19 0.10 0.08 0.12 0.28 0.20 0.14 0.21 0.21 0.26 0.18 0.11 0.07 0.09 0.16 0.12 0.00 0.00 0.00 0.00 0.00 0.00 0.00 0.00 0.00 0.00 0.00 0.00 0.00 0.00 0.00 0.00
0.00 0.00 0.02 0.04 0.03 0.07 0.06 0.11 0.26 0.28 0.41 0.39 0.21 0.20 0.26 0.22 0.46 0.26 0.27 0.20 0.29 0.17 0.12 0.06 0.07 0.11 0.06 0.01 0.00 0.00 0.00 0.00 0.00 0.00 0.00 0.00 0.00 0.00 0.00 0.00 0.00 0.00 0.00 0.00
0.01 0.01 0.02 0.06 0.05 0.07 0.19 0.40 0.59 0.57 0.34 0.16 0.12 0.10 0.28 0.27 0.44 0.38 0.45 0.24 0.16 0.13 0.04 0.08 0.11 0.05 0.01 0.00 0.00 0.00 0.00 0.00 0.00 0.00 0.00 0.00 0.00 0.00 0.00 0.00 0.00 0.00 0.00 0.00
0.01 0.07 0.18 0.22 0.26 0.35 0.51 0.48 0.36 0.21 0.14 0.08 0.09 0.12 0.28 0.26 0.56 0.59 0.34 0.46 0.14 0.07 0.03 0.15 0.09 0.02 0.00 0.00 0.00 0.00 0.00 0.00 0.00 0.00 0.00 0.00 0.00 0.00 0.00 0.00 0.00 0.00 0.00 0.00
0.00 0.02 0.06 0.13 0.19 0.40 0.46 0.34 0.27 0.21 0.12 0.21 0.29 0.26 0.27 0.30 0.41 0.66 0.60 0.27 0.31 0.07 0.07 0.15 0.06 0.01 0.00 0.00 0.00 0.00 0.00 0.00 0.00 0.00 0.00 0.00 0.00 0.00 0.00 0.00 0.00 0.00 0.00 0.00
0.00 0.03 0.10 0.19 0.23 0.23 0.28 0.38 0.51 0.50 0.38 0.43 0.43 0.40 0.27 0.37 0.51 0.45 0.53 0.36 0.14 0.10 0.14 0.05 0.01 0.01 0.00 0.00 0.00 0.00 0.00 0.00 0.01 0.01 0.01 0.01 0.01 0.01 0.01 0.01 0.00 0.00 0.00 0.00
0.01 0.06 0.13 0.17 0.23 0.17 0.34 0.35 0.37 0.44 0.47 0.45 0.47 0.57 0.44 0.37 0.54 0.40 0.26 0.22 0.16 0.14 0.06 0.02 0.05 0.04 0.01 0.02 0.05 0.04 0.04 0.09 0.13 0.12 0.08 0.06 0.05 0.05 0.05 0.04 0.03 0.02 0.02 0.01
0.01 0.05 0.06 0.08 0.07 0.07 0.18 0.23 0.24 0.31 0.36 0.38 0.44 0.50 0.43 0.53 0.58 0.37 0.22 0.23 0.10 0.03 0.06 0.20 0.16 0.11 0.09 0.12 0.15 0.14 0.14 0.19 0.30 0.39 0.42 0.41 0.35 0.32 0.24 0.15 0.10 0.08 0.07 0.05
0.00 0.01 0.02 0.02 0.02 0.04 0.12 0.18 0.23 0.29 0.32 0.29 0.34 0.33 0.42 0.54 0.45 0.36 0.27 0.20 0.16 0.22 0.29 0.32 0.23 0.25 0.19 0.16 0.08 0.04 0.01 0.02 0.05 0.08 0.12 0.15 0.17 0.21 0.23 0.21 0.18 0.18 0.17 0.15
0.00 0.00 0.00 0.01 0.02 0.06 0.12 0.17 0.18 0.14 0.19 0.29 0.30 0.24 0.29 0.38 0.42 0.35 0.40 0.44 0.28 0.12 0.08 0.20 0.21 0.27 0.29 0.29 0.15 0.09 0.02 0.00 0.00 0.00 0.00 0.00 0.00 0.00 0.01 0.02 0.06 0.10 0.20 0.25

GFSNW_prec_precacc24_090.txt.gz
Total_Precipitation_Accumulation
0.01 0.00 0.00 0.00 0.00 0.01 0.00 0.00 0.00 0.00 0.00 0.00 0.00 0.03 0.03 0.02 0.01 0.01 0.02 0.00 0.00 0.01 0.08 0.16 0.24 0.36 0.61 0.45 0.28 0.20 0.19 0.31 0.25 0.18 0.06 0.02 0.03 0.06 0.03 0.04 0.04 0.00 0.01 0.00
0.00 0.00 0.00 0.00 0.00 0.00 0.00 0.00 0.00 0.00 0.00 0.01 0.01 0.00 0.00 0.01 0.01 0.05 0.03 0.02 0.00 0.00 0.00 0.03 0.09 0.12 0.17 0.21 0.15 0.06 0.15 0.23 0.16 0.24 0.16 0.06 0.04 0.01 0.01 0.00 0.01 0.00 0.00 0.00
0.00 0.00 0.00 0.00 0.00 0.00 0.00 0.00 0.00 0.00 0.00 0.01 0.03 0.02 0.00 0.01 0.01 0.05 0.01 0.02 0.00 0.00 0.00 0.00 0.00 0.02 0.05 0.22 0.33 0.18 0.10 0.07 0.02 0.03 0.02 0.01 0.00 0.00 0.00 0.01 0.01 0.00 0.00 0.00
0.01 0.00 0.00 0.00 0.00 0.00 0.00 0.00 0.00 0.01 0.01 0.01 0.04 0.07 0.02 0.01 0.02 0.00 0.01 0.04 0.00 0.00 0.00 0.00 0.00 0.00 0.01 0.07 0.34 0.44 0.20 0.12 0.01 0.00 0.00 0.00 0.00 0.00 0.00 0.00 0.00 0.00 0.00 0.00
0.01 0.00 0.00 0.00 0.00 0.00 0.00 0.00 0.02 0.01 0.00 0.00 0.01 0.04 0.04 0.01 0.01 0.04 0.08 0.02 0.00 0.00 0.00 0.00 0.00 0.00 0.00 0.02 0.09 0.21 0.15 0.10 0.00 0.00 0.00 0.00 0.00 0.00 0.00 0.00 0.00 0.00 0.00 0.00
0.01 0.00 0.00 0.00 0.00 0.00 0.00 0.00 0.01 0.03 0.00 0.01 0.05 0.11 0.14 0.05 0.05 0.08 0.03 0.01 0.01 0.00 0.00 0.00 0.00 0.00 0.00 0.00 0.00 0.01 0.01 0.01 0.00 0.00 0.00 0.00 0.00 0.00 0.00 0.00 0.00 0.00 0.00 0.00
0.01 0.00 0.00 0.00 0.00 0.00 0.00 0.00 0.02 0.02 0.00 0.01 0.06 0.10 0.05 0.04 0.03 0.07 0.02 0.01 0.04 0.01 0.00 0.00 0.00 0.00 0.00 0.00 0.00 0.00 0.00 0.00 0.00 0.00 0.00 0.00 0.00 0.00 0.00 0.00 0.00 0.00 0.00 0.00
0.01 0.01 0.00 0.00 0.00 0.00 0.00 0.00 0.01 0.02 0.01 0.00 0.02 0.04 0.03 0.02 0.00 0.08 0.09 0.02 0.00 0.00 0.00 0.01 0.01 0.00 0.00 0.00 0.00 0.00 0.00 0.00 0.00 0.00 0.00 0.00 0.00 0.00 0.00 0.00 0.00 0.00 0.00 0.00
0.00 0.01 0.01 0.00 0.00 0.00 0.00 0.00 0.00 0.00 0.02 0.00 0.01 0.01 0.04 0.07 0.02 0.08 0.09 0.01 0.00 0.00 0.00 0.00 0.01 0.01 0.00 0.00 0.00 0.00 0.00 0.00 0.00 0.00 0.00 0.00 0.00 0.00 0.00 0.00 0.02 0.00 0.00 0.00
0.00 0.00 0.01 0.01 0.00 0.01 0.00 0.01 0.00 0.01 0.02 0.00 0.00 0.01 0.03 0.13 0.08 0.03 0.03 0.00 0.00 0.00 0.00 0.01 0.00 0.00 0.00 0.00 0.00 0.00 0.00 0.00 0.00 0.00 0.00 0.00 0.00 0.00 0.00 0.02 0.02 0.00 0.00 0.00
0.00 0.00 0.01 0.01 0.01 0.03 0.01 0.01 0.01 0.03 0.03 0.00 0.00 0.00 0.00 0.02 0.05 0.09 0.04 0.07 0.10 0.01 0.02 0.01 0.00 0.00 0.00 0.00 0.00 0.00 0.00 0.00 0.00 0.00 0.00 0.00 0.00 0.00 0.01 0.00 0.00 0.00 0.00 0.00
0.00 0.00 0.01 0.01 0.02 0.05 0.03 0.01 0.01 0.02 0.05 0.00 0.00 0.00 0.00 0.00 0.00 0.01 0.02 0.10 0.25 0.14 0.05 0.03 0.01 0.00 0.00 0.00 0.00 0.00 0.00 0.00 0.00 0.00 0.00 0.00 0.00 0.00 0.00 0.00 0.00 0.00 0.00 0.00
0.00 0.00 0.01 0.03 0.03 0.04 0.08 0.03 0.02 0.03 0.04 0.00 0.00 0.00 0.00 0.00 0.00 0.00 0.00 0.05 0.20 0.23 0.07 0.04 0.01 0.00 0.00 0.00 0.00 0.00 0.00 0.00 0.00 0.00 0.00 0.00 0.00 0.00 0.00 0.00 0.00 0.00 0.00 0.00
0.00 0.01 0.02 0.03 0.02 0.02 0.06 0.03 0.03 0.07 0.07 0.07 0.00 0.00 0.00 0.00 0.00 0.00 0.00 0.04 0.07 0.08 0.03 0.06 0.03 0.01 0.00 0.00 0.00 0.00 0.00 0.00 0.00 0.00 0.00 0.00 0.00 0.00 0.00 0.00 0.00 0.00 0.00 0.00
0.00 0.01 0.02 0.02 0.02 0.05 0.08 0.02 0.01 0.03 0.10 0.14 0.02 0.00 0.00 0.00 0.01 0.01 0.00 0.00 0.03 0.08 0.08 0.07 0.05 0.01 0.00 0.00 0.00 0.00 0.00 0.00 0.00 0.00 0.00 0.00 0.00 0.00 0.00 0.00 0.00 0.00 0.00 0.00
0.01 0.01 0.01 0.02 0.04 0.13 0.11 0.06 0.01 0.02 0.09 0.32 0.08 0.00 0.00 0.00 0.00 0.02 0.02 0.01 0.01 0.07 0.17 0.13 0.05 0.01 0.01 0.01 0.00 0.00 0.00 0.00 0.00 0.00 0.00 0.00 0.00 0.00 0.00 0.00 0.00 0.00 0.00 0.00
0.00 0.00 0.01 0.04 0.06 0.14 0.24 0.09 0.09 0.04 0.11 0.25 0.12 0.04 0.01 0.03 0.07 0.07 0.10 0.10 0.07 0.11 0.15 0.10 0.04 0.03 0.05 0.04 0.00 0.00 0.00 0.00 0.00 0.00 0.00 0.00 0.00 0.00 0.00 0.00 0.00 0.00 0.00 0.00
0.00 0.01 0.02 0.03 0.06 0.13 0.10 0.05 0.10 0.12 0.20 0.17 0.17 0.10 0.08 0.12 0.28 0.20 0.13 0.21 0.21 0.25 0.16 0.09 0.06 0.09 0.13 0.08 0.00 0.00 0.00 0.00 0.00 0.00 0.00 0.00 0.00 0.00 0.00 0.00 0.00 0.00 0.00 0.00
0.00 0.00 0.00 0.02 0.03 0.07 0.06 0.06 0.16 0.20 0.31 0.33 0.20 0.20 0.26 0.22 0.45 0.25 0.27 0.20 0.29 0.16 0.12 0.05 0.05 0.05 0.03 0.01 0.00 0.00 0.00 0.00 0.00 0.00 0.00 0.00 0.00 0.00 0.00 0.00 0.00 0.00 0.00 0.00
0.00 0.01 0.01 0.05 0.04 0.05 0.07 0.21 0.44 0.45 0.26 0.14 0.11 0.10 0.27 0.27 0.43 0.38 0.45 0.25 0.17 0.13 0.04 0.05 0.08 0.03 0.00 0.00 0.00 0.00 0.00 0.00 0.00 0.00 0.00 0.00 0.00 0.00 0.00 0.00 0.00 0.00 0.00 0.00
0.00 0.01 0.07 0.13 0.19 0.24 0.33 0.33 0.27 0.16 0.12 0.08 0.09 0.12 0.28 0.25 0.54 0.57 0.29 0.46 0.12 0.06 0.02 0.10 0.07 0.01 0.00 0.00 0.00 0.00 0.00 0.00 0.00 0.00 0.00 0.00 0.00 0.00 0.00 0.00 0.00 0.00 0.00 0.00
0.00 0.01 0.01 0.06 0.13 0.28 0.33 0.23 0.21 0.18 0.12 0.21 0.28 0.25 0.27 0.29 0.41 0.65 0.57 0.25 0.32 0.07 0.05 0.13 0.03 0.00 0.00 0.00 0.00 0.00 0.00 0.00 0.00 0.00 0.00 0.00 0.00 0.00 0.00 0.00 0.00 0.00 0.00 0.00
0.00 0.01 0.04 0.13 0.16 0.17 0.24 0.34 0.47 0.49 0.38 0.43 0.42 0.38 0.27 0.36 0.48 0.42 0.52 0.37 0.14 0.08 0.15 0.05 0.00 0.00 0.00 0.00 0.00 0.00 0.00 0.00 0.00 0.00 0.01 0.01 0.01 0.01 0.01 0.01 0.00 0.00 0.00 0.00
0.00 0.02 0.07 0.13 0.18 0.16 0.33 0.35 0.36 0.44 0.47 0.45 0.46 0.56 0.44 0.37 0.52 0.41 0.27 0.21 0.16 0.14 0.05 0.01 0.04 0.03 0.01 0.02 0.05 0.04 0.04 0.05 0.06 0.06 0.06 0.06 0.05 0.04 0.04 0.03 0.03 0.02 0.02 0.01
0.00 0.02 0.03 0.06 0.06 0.07 0.17 0.22 0.23 0.31 0.36 0.38 0.44 0.50 0.44 0.54 0.58 0.38 0.27 0.29 0.13 0.05 0.09 0.22 0.16 0.12 0.09 0.12 0.15 0.14 0.14 0.17 0.19 0.18 0.22 0.28 0.29 0.27 0.22 0.15 0.10 0.08 0.06 0.04
0.00 0.00 0.01 0.01 0.02 0.04 0.11 0.17 0.23 0.27 0.31 0.29 0.34 0.33 0.43 0.54 0.48 0.40 0.38 0.36 0.25 0.27 0.33 0.36 0.27 0.29 0.26 0.23 0.13 0.07 0.03 0.02 0.05 0.07 0.10 0.11 0.12 0.15 0.17 0.16 0.16 0.16 0.16 0.15
0.00 0.00 0.00 0.00 0.02 0.06 0.11 0.16 0.18 0.14 0.18 0.28 0.31 0.24 0.29 0.37 0.45 0.46 0.53 0.59 0.40 0.19 0.11 0.23 0.24 0.30 0.35 0.34 0.19 0.13 0.04 0.00 0.00 0.00 0.00 0.00 0.00 0.00 0.00 0.01 0.03 0.09 0.16 0.21

GFSNW_prec_precacc24_093.txt.gz
Total_Precipitation_Accumulation
0.00 0.00 0.00 0.00 0.00 0.00 0.00 0.00 0.00 0.00 0.00 0.00 0.00 0.01 0.01 0.01 0.01 0.02 0.05 0.09 0.02 0.02 0.12 0.23 0.36 0.52 0.74 0.47 0.28 0.20 0.19 0.31 0.25 0.18 0.06 0.02 0.03 0.06 0.03 0.04 0.04 0.00 0.01 0.00
0.00 0.00 0.00 0.00 0.00 0.00 0.00 0.00 0.00 0.00 0.00 0.00 0.00 0.00 0.00 0.01 0.01 0.07 0.03 0.04 0.00 0.00 0.02 0.06 0.15 0.27 0.28 0.23 0.15 0.06 0.15 0.23 0.17 0.24 0.17 0.07 0.04 0.01 0.01 0.00 0.01 0.00 0.00 0.00
0.00 0.00 0.00 0.00 0.00 0.00 0.00 0.00 0.00 0.00 0.00 0.01 0.02 0.02 0.00 0.01 0.01 0.06 0.02 0.08 0.00 0.00 0.00 0.01 0.01 0.07 0.16 0.29 0.35 0.18 0.10 0.07 0.02 0.03 0.02 0.01 0.00 0.00 0.00 0.01 0.01 0.00 0.00 0.00
0.00 0.00 0.00 0.00 0.00 0.00 0.00 0.00 0.00 0.01 0.01 0.01 0.02 0.02 0.02 0.01 0.01 0.00 0.01 0.07 0.00 0.01 0.00 0.00 0.00 0.01 0.10 0.24 0.48 0.49 0.21 0.13 0.01 0.00 0.00 0.00 0.00 0.00 0.00 0.00 0.00 0.00 0.00 0.00
0.00 0.00 0.00 0.00 0.00 0.00 0.00 0.00 0.01 0.01 0.00 0.00 0.01 0.01 0.01 0.01 0.01 0.04 0.08 0.02 0.00 0.00 0.02 0.02 0.01 0.01 0.03 0.12 0.28 0.42 0.31 0.19 0.02 0.03 0.00 0.00 0.00 0.00 0.00 0.00 0.00 0.00 0.00 0.00
0.00 0.00 0.00 0.00 0.00 0.00 0.00 0.00 0.01 0.03 0.00 0.01 0.03 0.05 0.11 0.03 0.05 0.08 0.03 0.01 0.01 0.01 0.00 0.00 0.00 0.00 0.00 0.00 0.08 0.13 0.16 0.12 0.02 0.04 0.00 0.00 0.00 0.00 0.00 0.00 0.00 0.00 0.00 0.00
0.00 0.00 0.00 0.00 0.00 0.00 0.00 0.00 0.02 0.02 0.00 0.01 0.04 0.04 0.04 0.03 0.02 0.07 0.02 0.01 0.05 0.01 0.00 0.00 0.00 0.00 0.00 0.00 0.00 0.01 0.04 0.02 0.00 0.01 0.01 0.00 0.00 0.00 0.00 0.00 0.00 0.00 0.00 0.00
0.00 0.00 0.00 0.00 0.00 0.00 0.00 0.00 0.01 0.02 0.01 0.00 0.01 0.03 0.02 0.02 0.00 0.08 0.09 0.02 0.00 0.00 0.00 0.01 0.01 0.00 0.00 0.00 0.00 0.00 0.00 0.00 0.00 0.00 0.00 0.00 0.00 0.00 0.00 0.00 0.00 0.00 0.00 0.00
0.00 0.00 0.00 0.00 0.00 0.00 0.00 0.00 0.00 0.00 0.01 0.00 0.00 0.01 0.04 0.07 0.02 0.08 0.09 0.01 0.00 0.00 0.00 0.00 0.01 0.01 0.00 0.00 0.00 0.00 0.00 0.00 0.00 0.00 0.00 0.00 0.00 0.00 0.00 0.00 0.02 0.00 0.00 0.00
0.00 0.00 0.00 0.00 0.00 0.01 0.00 0.01 0.00 0.01 0.01 0.00 0.00 0.00 0.03 0.13 0.08 0.03 0.03 0.00 0.00 0.00 0.00 0.01 0.00 0.00 0.00 0.00 0.00 0.00 0.00 0.00 0.00 0.00 0.00 0.00 0.00 0.00 0.00 0.02 0.02 0.00 0.00 0.00
0.00 0.00 0.00 0.00 0.01 0.02 0.01 0.01 0.01 0.02 0.02 0.00 0.00 0.00 0.00 0.02 0.05 0.09 0.04 0.07 0.10 0.01 0.02 0.01 0.00 0.00 0.00 0.00 0.00 0.00 0.00 0.00 0.00 0.00 0.00 0.00 0.00 0.00 0.01 0.00 0.00 0.00 0.00 0.00
0.00 0.00 0.00 0.01 0.02 0.03 0.02 0.01 0.01 0.02 0.05 0.00 0.00 0.00 0.00 0.00 0.00 0.01 0.02 0.10 0.26 0.16 0.06 0.04 0.01 0.00 0.00 0.00 0.00 0.00 0.00 0.00 0.00 0.00 0.00 0.00 0.00 0.00 0.00 0.00 0.00 0.00 0.00 0.00
0.00 0.00 0.01 0.03 0.03 0.02 0.05 0.03 0.02 0.03 0.04 0.00 0.00 0.00 0.00 0.00 0.00 0.00 0.00 0.05 0.21 0.24 0.08 0.05 0.02 0.01 0.00 0.00 0.00 0.00 0.00 0.00 0.00 0.00 0.00 0.00 0.00 0.00 0.00 0.00 0.00 0.00 0.00 0.00
0.00 0.01 0.02 0.02 0.02 0.02 0.04 0.03 0.03 0.07 0.07 0.06 0.00 0.00 0.00 0.00 0.00 0.00 0.00 0.04 0.07 0.08 0.03 0.07 0.04 0.02 0.00 0.00 0.00 0.00 0.00 0.00 0.00 0.00 0.00 0.00 0.00 0.00 0.00 0.00 0.00 0.00 0.00 0.00
0.00 0.01 0.02 0.01 0.01 0.04 0.06 0.02 0.01 0.03 0.10 0.12 0.02 0.00 0.00 0.00 0.00 0.00 0.00 0.00 0.03 0.08 0.08 0.07 0.05 0.01 0.00 0.00 0.00 0.00 0.00 0.00 0.00 0.00 0.00 0.00 0.00 0.00 0.00 0.00 0.00 0.00 0.00 0.00
0.00 0.01 0.01 0.01 0.03 0.10 0.08 0.04 0.01 0.02 0.08 0.30 0.07 0.00 0.00 0.00 0.00 0.01 0.01 0.00 0.01 0.06 0.15 0.12 0.04 0.01 0.02 0.02 0.00 0.00 0.00 0.00 0.00 0.00 0.00 0.00 0.00 0.00 0.00 0.00 0.00 0.00 0.00 0.00
0.00 0.00 0.01 0.03 0.05 0.10 0.18 0.08 0.06 0.04 0.10 0.23 0.08 0.02 0.01 0.02 0.05 0.06 0.10 0.09 0.07 0.10 0.13 0.08 0.03 0.03 0.04 0.03 0.00 0.00 0.00 0.00 0.00 0.00 0.00 0.00 0.00 0.00 0.00 0.00 0.00 0.00 0.00 0.00
0.00 0.00 0.01 0.01 0.02 0.08 0.07 0.04 0.07 0.07 0.15 0.10 0.10 0.06 0.07 0.11 0.26 0.18 0.12 0.20 0.21 0.25 0.16 0.09 0.05 0.06 0.08 0.05 0.00 0.00 0.00 0.00 0.00 0.00 0.00 0.00 0.00 0.00 0.00 0.00 0.00 0.00 0.00 0.00
0.00 0.00 0.00 0.01 0.02 0.04 0.05 0.05 0.10 0.08 0.18 0.21 0.15 0.17 0.25 0.20 0.44 0.25 0.27 0.20 0.29 0.16 0.12 0.05 0.04 0.04 0.01 0.00 0.00 0.00 0.00 0.00 0.00 0.00 0.00 0.00 0.00 0.00 0.00 0.00 0.00 0.00 0.00 0.00
0.00 0.00 0.01 0.02 0.03 0.05 0.03 0.10 0.24 0.30 0.18 0.09 0.09 0.10 0.26 0.25 0.41 0.36 0.44 0.27 0.19 0.15 0.04 0.04 0.07 0.02 0.00 0.00 0.00 0.00 0.00 0.00 0.00 0.00 0.00 0.00 0.00 0.00 0.00 0.00 0.00 0.00 0.00 0.00
0.00 0.00 0.01 0.04 0.08 0.14 0.18 0.17 0.15 0.10 0.09 0.07 0.09 0.12 0.28 0.24 0.50 0.56 0.28 0.45 0.11 0.08 0.01 0.08 0.07 0.01 0.00 0.00 0.00 0.00 0.00 0.00 0.00 0.00 0.00 0.00 0.00 0.00 0.00 0.00 0.00 0.00 0.00 0.00
0.00 0.01 0.00 0.01 0.06 0.16 0.19 0.13 0.15 0.15 0.10 0.19 0.27 0.24 0.27 0.28 0.39 0.63 0.52 0.23 0.31 0.08 0.05 0.12 0.02 0.00 0.00 0.00 0.00 0.00 0.00 0.00 0.00 0.00 0.00 0.00 0.00 0.00 0.00 0.00 0.00 0.00 0.00 0.00
0.00 0.01 0.02 0.06 0.09 0.12 0.18 0.28 0.43 0.42 0.35 0.39 0.41 0.34 0.23 0.30 0.41 0.36 0.48 0.35 0.13 0.08 0.17 0.06 0.01 0.01 0.00 0.00 0.00 0.00 0.00 0.00 0.00 0.00 0.00 0.00 0.00 0.01 0.01 0.01 0.00 0.00 0.00 0.00
0.00 0.01 0.03 0.08 0.13 0.15 0.33 0.33 0.31 0.36 0.44 0.44 0.44 0.53 0.41 0.33 0.48 0.37 0.26 0.19 0.16 0.16 0.06 0.03 0.06 0.04 0.01 0.02 0.03 0.03 0.03 0.03 0.04 0.03 0.03 0.04 0.04 0.04 0.03 0.03 0.02 0.01 0.01 0.01
0.00 0.01 0.01 0.03 0.04 0.06 0.16 0.17 0.19 0.26 0.34 0.38 0.44 0.50 0.44 0.53 0.57 0.37 0.28 0.30 0.18 0.10 0.12 0.25 0.17 0.12 0.08 0.09 0.12 0.11 0.11 0.12 0.13 0.12 0.12 0.12 0.12 0.13 0.14 0.12 0.08 0.06 0.06 0.04
0.00 0.00 0.00 0.00 0.01 0.03 0.06 0.11 0.18 0.24 0.30 0.28 0.34 0.33 0.43 0.55 0.49 0.40 0.40 0.44 0.33 0.31 0.35 0.37 0.28 0.29 0.26 0.25 0.18 0.14 0.08 0.03 0.02 0.04 0.07 0.08 0.07 0.08 0.07 0.06 0.07 0.11 0.14 0.14
0.00 0.00 0.00 0.00 0.00 0.01 0.04 0.08 0.11 0.11 0.16 0.26 0.30 0.24 0.29 0.37 0.44 0.46 0.54 0.60 0.42 0.22 0.12 0.23 0.25 0.32 0.37 0.40 0.29 0.23 0.11 0.03 0.00 0.00 0.01 0.00 0.00 0.00 0.00 0.00 0.01 0.03 0.11 0.16

GFSNW_prec_precacc24_096.txt.gz
Total_Precipitation_Accumulation
0.00 0.00 0.00 0.00 0.00 0.00 0.00 0.00 0.00 0.00 0.00 0.00 0.00 0.01 0.01 0.00 0.01 0.02 0.05 0.12 0.03 0.03 0.14 0.29 0.43 0.64 0.83 0.49 0.28 0.20 0.19 0.31 0.24 0.17 0.06 0.04 0.04 0.06 0.03 0.05 0.04 0.00 0.01 0.00
0.00 0.00 0.00 0.00 0.00 0.00 0.00 0.00 0.00 0.00 0.00 0.00 0.00 0.00 0.00 0.00 0.01 0.07 0.04 0.05 0.01 0.01 0.02 0.08 0.19 0.37 0.34 0.23 0.15 0.06 0.15 0.23 0.16 0.24 0.17 0.07 0.04 0.01 0.01 0.00 0.01 0.00 0.00 0.00
0.00 0.00 0.00 0.00 0.00 0.00 0.00 0.00 0.00 0.00 0.00 0.00 0.01 0.01 0.00 0.01 0.01 0.06 0.02 0.09 0.00 0.00 0.00 0.01 0.01 0.10 0.21 0.30 0.35 0.18 0.10 0.07 0.02 0.03 0.02 0.01 0.01 0.00 0.00 0.01 0.01 0.00 0.00 0.00
0.00 0.00 0.00 0.00 0.00 0.00 0.00 0.00 0.00 0.01 0.00 0.00 0.00 0.02 0.01 0.01 0.01 0.00 0.01 0.07 0.00 0.02 0.02 0.00 0.00 0.03 0.16 0.27 0.48 0.49 0.21 0.13 0.01 0.00 0.00 0.00 0.00 0.00 0.00 0.00 0.00 0.00 0.00 0.00
0.00 0.00 0.00 0.00 0.00 0.00 0.00 0.00 0.01 0.01 0.00 0.00 0.01 0.01 0.01 0.01 0.01 0.04 0.08 0.02 0.00 0.00 0.03 0.03 0.03 0.04 0.08 0.19 0.33 0.43 0.32 0.20 0.02 0.03 0.00 0.00 0.00 0.00 0.00 0.00 0.00 0.00 0.00 0.00
0.00 0.00 0.00 0.00 0.00 0.00 0.00 0.00 0.00 0.02 0.00 0.00 0.01 0.03 0.07 0.02 0.04 0.08 0.03 0.01 0.01 0.01 0.00 0.00 0.00 0.01 0.00 0.02 0.15 0.16 0.18 0.12 0.03 0.07 0.00 0.00 0.00 0.00 0.00 0.00 0.00 0.00 0.00 0.00
0.00 0.00 0.00 0.00 0.00 0.00 0.00 0.00 0.01 0.01 0.00 0.00 0.01 0.02 0.03 0.02 0.02 0.07 0.02 0.01 0.05 0.01 0.00 0.00 0.00 0.00 0.00 0.00 0.02 0.06 0.10 0.05 0.00 0.02 0.01 0.01 0.00 0.00 0.00 0.00 0.00 0.00 0.00 0.00
0.00 0.00 0.00 0.00 0.00 0.00 0.00 0.00 0.00 0.01 0.00 0.00 0.00 0.01 0.02 0.02 0.00 0.08 0.09 0.02 0.00 0.00 0.00 0.01 0.01 0.00 0.00 0.00 0.00 0.00 0.01 0.00 0.00 0.00 0.00 0.00 0.00 0.00 0.00 0.00 0.00 0.00 0.00 0.00
0.00 0.00 0.00 0.00 0.00 0.00 0.00 0.00 0.00 0.00 0.00 0.00 0.00 0.00 0.03 0.06 0.02 0.08 0.09 0.01 0.00 0.00 0.00 0.00 0.01 0.01 0.00 0.00 0.00 0.00 0.00 0.00 0.00 0.00 0.00 0.00 0.00 0.00 0.00 0.00 0.01 0.00 0.00 0.00
0.00 0.00 0.00 0.00 0.00 0.01 0.00 0.01 0.00 0.01 0.00 0.00 0.00 0.00 0.03 0.12 0.08 0.03 0.03 0.00 0.00 0.00 0.00 0.01 0.00 0.00 0.00 0.00 0.00 0.00 0.00 0.00 0.00 0.00 0.00 0.00 0.00 0.00 0.00 0.01 0.01 0.00 0.00 0.00
0.00 0.00 0.00 0.00 0.00 0.01 0.01 0.01 0.01 0.02 0.02 0.00 0.00 0.00 0.00 0.01 0.05 0.09 0.04 0.07 0.10 0.02 0.02 0.01 0.00 0.00 0.00 0.00 0.00 0.00 0.00 0.00 0.00 0.00 0.00 0.00 0.00 0.00 0.01 0.00 0.00 0.00 0.00 0.00
0.00 0.00 0.00 0.01 0.01 0.03 0.01 0.01 0.01 0.02 0.05 0.00 0.00 0.00 0.00 0.00 0.00 0.01 0.02 0.10 0.26 0.16 0.07 0.04 0.02 0.00 0.00 0.00 0.00 0.00 0.00 0.00 0.00 0.00 0.00 0.00 0.00 0.00 0.00 0.00 0.00 0.00 0.00 0.00
0.00 0.00 0.01 0.02 0.02 0.02 0.02 0.02 0.02 0.03 0.04 0.00 0.00 0.00 0.00 0.00 0.00 0.00 0.00 0.05 0.22 0.24 0.08 0.06 0.02 0.01 0.00 0.00 0.00 0.00 0.00 0.00 0.00 0.00 0.00 0.00 0.00 0.00 0.00 0.00 0.00 0.00 0.00 0.00
0.00 0.00 0.01 0.02 0.02 0.02 0.03 0.02 0.02 0.06 0.07 0.06 0.00 0.00 0.00 0.00 0.00 0.00 0.00 0.04 0.07 0.08 0.03 0.07 0.05 0.03 0.00 0.00 0.00 0.00 0.00 0.00 0.00 0.00 0.00 0.00 0.00 0.00 0.00 0.00 0.00 0.00 0.00 0.00
0.00 0.01 0.02 0.01 0.01 0.03 0.05 0.01 0.01 0.03 0.09 0.12 0.01 0.00 0.00 0.00 0.00 0.00 0.00 0.00 0.02 0.08 0.06 0.06 0.05 0.02 0.01 0.00 0.00 0.00 0.00 0.00 0.00 0.00 0.00 0.00 0.00 0.00 0.00 0.00 0.00 0.00 0.00 0.00
0.00 0.00 0.01 0.01 0.03 0.08 0.05 0.04 0.01 0.01 0.07 0.29 0.07 0.00 0.00 0.00 0.00 0.00 0.00 0.00 0.00 0.05 0.13 0.10 0.04 0.01 0.03 0.03 0.00 0.00 0.00 0.00 0.00 0.00 0.00 0.00 0.00 0.00 0.00 0.00 0.00 0.00 0.00 0.00
0.00 0.00 0.01 0.03 0.05 0.05 0.05 0.05 0.06 0.03 0.09 0.21 0.07 0.00 0.00 0.01 0.02 0.03 0.04 0.05 0.04 0.06 0.10 0.06 0.03 0.03 0.04 0.03 0.00 0.00 0.00 0.00 0.00 0.00 0.00 0.00 0.00 0.00 0.00 0.00 0.00 0.00 0.00 0.00
0.00 0.00 0.02 0.01 0.01 0.03 0.04 0.03 0.06 0.06 0.10 0.07 0.05 0.01 0.04 0.07 0.17 0.13 0.10 0.15 0.17 0.24 0.15 0.08 0.05 0.05 0.05 0.03 0.00 0.00 0.00 0.00 0.00 0.00 0.00 0.00 0.00 0.00 0.00 0.00 0.00 0.00 0.00 0.00
0.00 0.00 0.00 0.01 0.01 0.03 0.01 0.04 0.08 0.06 0.13 0.14 0.08 0.11 0.21 0.17 0.36 0.23 0.26 0.19 0.27 0.16 0.12 0.04 0.04 0.03 0.01 0.00 0.00 0.00 0.00 0.00 0.00 0.00 0.00 0.00 0.00 0.00 0.00 0.00 0.00 0.00 0.00 0.00
0.00 0.00 0.00 0.01 0.01 0.02 0.02 0.07 0.14 0.19 0.12 0.08 0.07 0.08 0.22 0.19 0.36 0.34 0.43 0.27 0.19 0.15 0.04 0.04 0.06 0.02 0.00 0.00 0.00 0.00 0.00 0.00 0.00 0.00 0.00 0.00 0.00 0.00 0.00 0.00 0.00 0.00 0.00 0.00
0.00 0.00 0.00 0.00 0.01 0.03 0.08 0.07 0.07 0.05 0.05 0.06 0.09 0.12 0.25 0.18 0.39 0.51 0.26 0.44 0.11 0.08 0.01 0.07 0.07 0.03 0.01 0.00 0.00 0.00 0.00 0.00 0.00 0.00 0.00 0.00 0.00 0.00 0.00 0.00 0.00 0.00 0.00 0.00
0.00 0.01 0.00 0.00 0.01 0.05 0.08 0.07 0.10 0.12 0.09 0.17 0.25 0.24 0.26 0.25 0.37 0.59 0.50 0.23 0.30 0.08 0.06 0.13 0.03 0.02 0.02 0.01 0.00 0.00 0.00 0.00 0.00 0.00 0.00 0.00 0.00 0.00 0.00 0.00 0.00 0.00 0.00 0.00
0.00 0.01 0.01 0.03 0.05 0.07 0.13 0.21 0.33 0.32 0.30 0.34 0.30 0.25 0.21 0.27 0.38 0.33 0.46 0.33 0.12 0.08 0.17 0.08 0.03 0.02 0.01 0.02 0.02 0.01 0.00 0.00 0.00 0.00 0.00 0.00 0.00 0.00 0.01 0.01 0.00 0.00 0.00 0.00
0.00 0.01 0.01 0.03 0.08 0.14 0.28 0.26 0.19 0.21 0.29 0.33 0.35 0.45 0.36 0.27 0.40 0.33 0.25 0.17 0.16 0.17 0.07 0.06 0.06 0.05 0.01 0.01 0.02 0.03 0.02 0.03 0.03 0.02 0.02 0.03 0.03 0.03 0.03 0.03 0.02 0.01 0.01 0.01
0.00 0.00 0.01 0.01 0.02 0.05 0.09 0.07 0.09 0.16 0.22 0.33 0.41 0.47 0.41 0.48 0.51 0.34 0.26 0.28 0.20 0.12 0.12 0.20 0.17 0.12 0.07 0.07 0.07 0.07 0.07 0.09 0.08 0.06 0.06 0.07 0.06 0.06 0.05 0.04 0.04 0.03 0.02 0.02
0.00 0.00 0.00 0.00 0.00 0.00 0.01 0.02 0.05 0.11 0.17 0.24 0.33 0.33 0.42 0.53 0.48 0.39 0.39 0.43 0.33 0.30 0.31 0.31 0.24 0.26 0.24 0.24 0.18 0.16 0.12 0.08 0.04 0.01 0.01 0.02 0.02 0.03 0.04 0.03 0.02 0.02 0.02 0.04
0.00 0.00 0.00 0.00 0.00 0.00 0.00 0.00 0.01 0.03 0.09 0.18 0.26 0.23 0.29 0.36 0.44 0.46 0.54 0.60 0.42 0.22 0.12 0.21 0.22 0.31 0.37 0.40 0.30 0.27 0.20 0.13 0.07 0.04 0.04 0.04 0.03 0.01 0.00 0.00 0.00 0.01 0.03 0.06

GFSNW_prec_precacc24_099.txt.gz
Total_Precipitation_Accumulation
0.00 0.00 0.00 0.00 0.00 0.00 0.00 0.00 0.00 0.00 0.00 0.00 0.00 0.00 0.01 0.00 0.01 0.02 0.06 0.13 0.04 0.04 0.15 0.31 0.50 0.73 0.87 0.50 0.28 0.20 0.19 0.31 0.24 0.17 0.06 0.02 0.07 0.06 0.03 0.07 0.05 0.00 0.01 0.00
0.00 0.00 0.00 0.00 0.00 0.00 0.00 0.00 0.00 0.00 0.00 0.00 0.00 0.00 0.00 0.00 0.01 0.07 0.04 0.05 0.01 0.01 0.03 0.11 0.24 0.39 0.35 0.24 0.15 0.06 0.15 0.23 0.16 0.24 0.17 0.08 0.05 0.01 0.01 0.00 0.01 0.00 0.02 0.00
0.00 0.00 0.00 0.00 0.00 0.00 0.00 0.00 0.00 0.00 0.00 0.00 0.01 0.01 0.00 0.00 0.01 0.06 0.02 0.09 0.00 0.00 0.01 0.02 0.03 0.13 0.22 0.30 0.35 0.18 0.10 0.07 0.02 0.03 0.03 0.01 0.01 0.00 0.00 0.01 0.01 0.00 0.00 0.00
0.00 0.00 0.00 0.00 0.00 0.00 0.00 0.00 0.00 0.00 0.00 0.00 0.00 0.01 0.01 0.01 0.01 0.00 0.01 0.07 0.00 0.02 0.02 0.00 0.01 0.06 0.18 0.28 0.48 0.49 0.21 0.13 0.01 0.00 0.00 0.00 0.00 0.00 0.00 0.00 0.00 0.00 0.00 0.00
0.00 0.00 0.00 0.00 0.00 0.00 0.00 0.00 0.01 0.00 0.00 0.00 0.01 0.01 0.01 0.00 0.01 0.04 0.08 0.02 0.00 0.00 0.03 0.04 0.04 0.07 0.12 0.24 0.35 0.43 0.32 0.20 0.02 0.03 0.00 0.00 0.00 0.00 0.00 0.00 0.00 0.00 0.00 0.00
0.00 0.00 0.00 0.00 0.00 0.00 0.00 0.00 0.00 0.01 0.00 0.00 0.01 0.02 0.04 0.02 0.03 0.07 0.03 0.01 0.01 0.01 0.00 0.00 0.00 0.01 0.01 0.06 0.18 0.16 0.18 0.12 0.04 0.13 0.02 0.01 0.01 0.00 0.00 0.00 0.00 0.00 0.00 0.00
0.00 0.00 0.00 0.00 0.00 0.00 0.00 0.00 0.00 0.00 0.00 0.00 0.01 0.01 0.02 0.02 0.02 0.06 0.02 0.01 0.05 0.01 0.00 0.00 0.00 0.00 0.00 0.00 0.04 0.08 0.10 0.05 0.01 0.06 0.03 0.03 0.00 0.00 0.00 0.00 0.00 0.00 0.00 0.00
0.00 0.00 0.00 0.00 0.00 0.00 0.00 0.00 0.00 0.00 0.00 0.00 0.00 0.00 0.02 0.01 0.00 0.07 0.09 0.02 0.00 0.00 0.00 0.01 0.01 0.01 0.00 0.00 0.00 0.03 0.03 0.01 0.01 0.02 0.02 0.01 0.00 0.00 0.00 0.00 0.00 0.00 0.00 0.00
0.00 0.00 0.00 0.00 0.00 0.00 0.00 0.00 0.00 0.00 0.00 0.00 0.00 0.00 0.02 0.05 0.02 0.07 0.09 0.01 0.00 0.00 0.00 0.00 0.02 0.02 0.01 0.00 0.00 0.00 0.00 0.00 0.00 0.00 0.00 0.00 0.00 0.00 0.00 0.00 0.00 0.00 0.00 0.00
0.00 0.00 0.00 0.00 0.00 0.00 0.00 0.00 0.00 0.01 0.00 0.00 0.00 0.00 0.01 0.08 0.07 0.03 0.02 0.00 0.00 0.00 0.00 0.01 0.01 0.00 0.00 0.00 0.00 0.00 0.00 0.00 0.00 0.00 0.00 0.00 0.00 0.00 0.00 0.01 0.01 0.00 0.00 0.00
0.00 0.00 0.00 0.00 0.00 0.01 0.00 0.00 0.01 0.02 0.02 0.00 0.00 0.00 0.00 0.01 0.04 0.08 0.04 0.07 0.10 0.02 0.02 0.01 0.00 0.00 0.00 0.00 0.00 0.00 0.00 0.00 0.00 0.00 0.00 0.00 0.00 0.00 0.01 0.01 0.00 0.00 0.00 0.00
0.00 0.00 0.00 0.00 0.01 0.02 0.01 0.00 0.01 0.01 0.03 0.00 0.00 0.00 0.00 0.00 0.00 0.01 0.02 0.10 0.26 0.16 0.06 0.04 0.02 0.00 0.00 0.00 0.00 0.00 0.00 0.00 0.00 0.00 0.00 0.00 0.00 0.00 0.00 0.00 0.00 0.00 0.00 0.00
0.00 0.00 0.00 0.02 0.01 0.02 0.01 0.00 0.01 0.02 0.03 0.00 0.00 0.00 0.00 0.00 0.00 0.00 0.00 0.05 0.21 0.23 0.08 0.06 0.02 0.02 0.00 0.00 0.00 0.00 0.00 0.00 0.00 0.00 0.00 0.00 0.00 0.00 0.00 0.00 0.00 0.00 0.00 0.00
0.00 0.00 0.01 0.02 0.01 0.02 0.02 0.01 0.01 0.04 0.05 0.05 0.00 0.00 0.00 0.00 0.00 0.00 0.00 0.03 0.06 0.08 0.03 0.06 0.04 0.03 0.00 0.00 0.00 0.00 0.00 0.00 0.00 0.00 0.00 0.00 0.00 0.00 0.00 0.01 0.00 0.00 0.00 0.00
0.00 0.00 0.01 0.01 0.01 0.03 0.03 0.00 0.00 0.02 0.07 0.11 0.01 0.00 0.00 0.00 0.00 0.00 0.00 0.00 0.01 0.03 0.04 0.04 0.03 0.01 0.01 0.00 0.00 0.00 0.00 0.00 0.00 0.00 0.00 0.00 0.00 0.00 0.00 0.00 0.00 0.00 0.00 0.00
0.00 0.00 0.01 0.01 0.03 0.08 0.02 0.00 0.01 0.01 0.06 0.25 0.06 0.00 0.00 0.00 0.00 0.00 0.00 0.00 0.00 0.01 0.08 0.06 0.02 0.00 0.03 0.03 0.00 0.00 0.00 0.00 0.00 0.00 0.00 0.00 0.00 0.00 0.00 0.00 0.00 0.00 0.00 0.00
0.00 0.00 0.01 0.02 0.05 0.03 0.01 0.01 0.04 0.03 0.07 0.17 0.06 0.00 0.00 0.00 0.02 0.02 0.01 0.01 0.01 0.03 0.07 0.05 0.02 0.02 0.04 0.03 0.00 0.00 0.00 0.00 0.00 0.00 0.00 0.00 0.00 0.00 0.00 0.00 0.00 0.00 0.00 0.00
0.00 0.00 0.02 0.01 0.00 0.01 0.01 0.01 0.04 0.05 0.07 0.06 0.03 0.00 0.02 0.05 0.13 0.08 0.04 0.03 0.06 0.14 0.11 0.07 0.04 0.05 0.05 0.03 0.00 0.00 0.00 0.00 0.00 0.00 0.00 0.00 0.00 0.00 0.00 0.00 0.00 0.00 0.00 0.00
0.00 0.01 0.00 0.00 0.01 0.01 0.01 0.01 0.04 0.05 0.07 0.09 0.03 0.04 0.13 0.16 0.29 0.16 0.20 0.17 0.23 0.13 0.10 0.03 0.04 0.03 0.01 0.00 0.00 0.00 0.00 0.00 0.00 0.00 0.00 0.00 0.00 0.00 0.00 0.00 0.00 0.00 0.00 0.00
0.00 0.00 0.00 0.00 0.00 0.00 0.01 0.04 0.07 0.11 0.09 0.06 0.06 0.06 0.08 0.14 0.27 0.27 0.39 0.26 0.20 0.15 0.04 0.04 0.06 0.02 0.00 0.00 0.00 0.00 0.00 0.00 0.00 0.00 0.00 0.00 0.00 0.00 0.00 0.00 0.00 0.00 0.00 0.00
0.00 0.00 0.00 0.00 0.01 0.00 0.03 0.02 0.03 0.03 0.04 0.06 0.08 0.11 0.15 0.11 0.34 0.47 0.24 0.41 0.11 0.08 0.01 0.07 0.07 0.03 0.01 0.00 0.00 0.00 0.00 0.00 0.00 0.00 0.00 0.00 0.00 0.00 0.00 0.00 0.00 0.00 0.00 0.00
0.00 0.00 0.00 0.00 0.00 0.01 0.03 0.03 0.07 0.09 0.08 0.13 0.23 0.22 0.23 0.16 0.27 0.53 0.44 0.21 0.29 0.07 0.05 0.12 0.03 0.02 0.02 0.01 0.01 0.00 0.00 0.00 0.00 0.00 0.00 0.00 0.00 0.00 0.00 0.00 0.00 0.00 0.00 0.00
0.00 0.00 0.00 0.01 0.02 0.03 0.08 0.12 0.17 0.15 0.18 0.23 0.22 0.20 0.20 0.22 0.33 0.29 0.43 0.31 0.11 0.07 0.17 0.09 0.04 0.02 0.01 0.02 0.03 0.02 0.01 0.00 0.00 0.00 0.00 0.00 0.00 0.00 0.01 0.01 0.00 0.00 0.00 0.00
0.00 0.00 0.01 0.01 0.03 0.08 0.16 0.09 0.05 0.07 0.11 0.13 0.20 0.27 0.26 0.22 0.33 0.29 0.23 0.16 0.15 0.17 0.08 0.06 0.04 0.04 0.01 0.01 0.02 0.02 0.01 0.02 0.03 0.02 0.02 0.02 0.02 0.02 0.02 0.02 0.02 0.01 0.01 0.01
0.00 0.00 0.00 0.01 0.01 0.02 0.02 0.00 0.00 0.02 0.06 0.13 0.22 0.31 0.30 0.37 0.43 0.32 0.25 0.25 0.18 0.12 0.11 0.15 0.14 0.12 0.07 0.07 0.07 0.06 0.06 0.07 0.05 0.02 0.01 0.01 0.01 0.01 0.01 0.02 0.02 0.02 0.02 0.01
0.00 0.00 0.00 0.01 0.01 0.01 0.00 0.00 0.00 0.00 0.01 0.09 0.24 0.27 0.36 0.46 0.45 0.38 0.37 0.41 0.31 0.26 0.25 0.22 0.20 0.23 0.23 0.23 0.18 0.16 0.12 0.09 0.06 0.03 0.00 0.00 0.00 0.00 0.00 0.00 0.00 0.00 0.01 0.01
0.00 0.00 0.00 0.00 0.00 0.00 0.00 0.00 0.00 0.00 0.01 0.08 0.16 0.20 0.24 0.32 0.41 0.46 0.53 0.59 0.42 0.22 0.12 0.14 0.14 0.25 0.35 0.40 0.30 0.27 0.20 0.14 0.09 0.07 0.06 0.05 0.05 0.06 0.05 0.03 0.01 0.00 0.00 0.00

GFSNW_prec_precacc24_102.txt.gz
Total_Precipitation_Accumulation
0.00 0.00 0.00 0.00 0.00 0.00 0.00 0.00 0.00 0.00 0.00 0.00 0.00 0.00 0.00 0.00 0.00 0.02 0.07 0.14 0.05 0.05 0.15 0.39 0.56 0.75 0.88 0.50 0.28 0.20 0.16 0.29 0.15 0.07 0.04 0.02 0.08 0.05 0.02 0.14 0.06 0.01 0.03 0.02
0.00 0.00 0.00 0.00 0.00 0.00 0.00 0.00 0.00 0.00 0.00 0.00 0.00 0.00 0.00 0.00 0.01 0.06 0.04 0.06 0.02 0.01 0.03 0.18 0.25 0.40 0.35 0.24 0.15 0.06 0.15 0.22 0.12 0.16 0.11 0.06 0.05 0.01 0.01 0.01 0.01 0.01 0.07 0.01
0.00 0.00 0.00 0.00 0.00 0.00 0.00 0.00 0.00 0.00 0.00 0.00 0.00 0.01 0.00 0.00 0.01 0.06 0.02 0.09 0.00 0.00 0.01 0.03 0.04 0.14 0.23 0.30 0.35 0.18 0.10 0.07 0.02 0.04 0.03 0.01 0.01 0.00 0.00 0.00 0.03 0.06 0.03 0.00
0.00 0.00 0.00 0.00 0.00 0.00 0.00 0.00 0.00 0.00 0.00 0.00 0.00 0.01 0.01 0.00 0.00 0.00 0.01 0.07 0.00 0.02 0.03 0.01 0.02 0.08 0.19 0.28 0.48 0.49 0.21 0.13 0.01 0.00 0.00 0.00 0.00 0.00 0.00 0.00 0.05 0.09 0.01 0.00
0.00 0.00 0.00 0.00 0.00 0.00 0.00 0.00 0.00 0.00 0.00 0.00 0.00 0.00 0.00 0.00 0.00 0.04 0.08 0.02 0.00 0.00 0.04 0.04 0.04 0.09 0.14 0.26 0.35 0.43 0.32 0.20 0.02 0.03 0.00 0.00 0.00 0.00 0.00 0.00 0.02 0.00 0.00 0.00
0.00 0.00 0.00 0.00 0.00 0.00 0.00 0.00 0.00 0.00 0.00 0.00 0.00 0.01 0.02 0.01 0.03 0.05 0.03 0.01 0.01 0.01 0.00 0.00 0.00 0.01 0.02 0.11 0.19 0.16 0.18 0.12 0.06 0.20 0.02 0.01 0.01 0.00 0.00 0.00 0.00 0.00 0.00 0.00
0.00 0.00 0.00 0.00 0.00 0.00 0.00 0.00 0.00 0.00 0.00 0.00 0.00 0.00 0.01 0.01 0.02 0.04 0.01 0.01 0.05 0.01 0.00 0.00 0.00 0.00 0.00 0.00 0.05 0.09 0.10 0.05 0.02 0.15 0.06 0.07 0.01 0.00 0.00 0.00 0.00 0.00 0.00 0.00
0.00 0.00 0.00 0.00 0.00 0.00 0.00 0.00 0.00 0.00 0.00 0.00 0.00 0.00 0.00 0.01 0.00 0.06 0.08 0.02 0.00 0.00 0.00 0.00 0.01 0.01 0.01 0.00 0.00 0.03 0.03 0.02 0.03 0.06 0.14 0.05 0.00 0.00 0.00 0.00 0.00 0.00 0.00 0.00
0.00 0.00 0.00 0.00 0.00 0.00 0.00 0.00 0.00 0.00 0.00 0.00 0.00 0.00 0.00 0.02 0.01 0.06 0.07 0.01 0.00 0.00 0.00 0.00 0.02 0.03 0.01 0.01 0.00 0.00 0.00 0.00 0.01 0.00 0.03 0.02 0.00 0.00 0.00 0.00 0.00 0.00 0.00 0.00
0.00 0.00 0.00 0.00 0.00 0.00 0.00 0.00 0.00 0.00 0.00 0.00 0.00 0.00 0.00 0.01 0.02 0.02 0.02 0.00 0.00 0.00 0.00 0.00 0.00 0.00 0.00 0.00 0.01 0.00 0.00 0.00 0.00 0.02 0.02 0.01 0.00 0.00 0.00 0.01 0.01 0.00 0.00 0.00
0.00 0.00 0.00 0.00 0.00 0.00 0.00 0.00 0.00 0.01 0.01 0.00 0.00 0.00 0.00 0.00 0.00 0.04 0.03 0.05 0.08 0.01 0.01 0.01 0.00 0.00 0.00 0.00 0.00 0.00 0.00 0.01 0.01 0.00 0.01 0.00 0.00 0.00 0.01 0.01 0.00 0.00 0.00 0.00
0.00 0.00 0.00 0.00 0.01 0.01 0.00 0.00 0.00 0.00 0.02 0.00 0.00 0.00 0.00 0.00 0.00 0.01 0.02 0.09 0.25 0.16 0.06 0.04 0.01 0.00 0.00 0.00 0.01 0.00 0.01 0.00 0.00 0.00 0.01 0.00 0.00 0.00 0.00 0.00 0.00 0.00 0.00 0.00
0.00 0.00 0.00 0.01 0.01 0.01 0.01 0.00 0.00 0.01 0.02 0.00 0.00 0.00 0.00 0.00 0.00 0.00 0.00 0.04 0.20 0.22 0.08 0.06 0.02 0.01 0.00 0.00 0.00 0.00 0.00 0.00 0.00 0.00 0.00 0.00 0.00 0.00 0.00 0.00 0.00 0.00 0.00 0.00
0.00 0.00 0.01 0.01 0.01 0.02 0.02 0.00 0.00 0.01 0.02 0.04 0.00 0.00 0.00 0.00 0.00 0.00 0.00 0.03 0.05 0.08 0.03 0.04 0.03 0.03 0.00 0.00 0.00 0.00 0.00 0.00 0.00 0.00 0.00 0.00 0.00 0.00 0.00 0.03 0.01 0.00 0.00 0.00
0.00 0.00 0.01 0.01 0.01 0.02 0.03 0.00 0.00 0.00 0.04 0.09 0.01 0.00 0.00 0.00 0.00 0.00 0.00 0.00 0.00 0.02 0.02 0.02 0.02 0.01 0.01 0.00 0.00 0.00 0.00 0.00 0.00 0.03 0.00 0.00 0.00 0.00 0.05 0.03 0.01 0.00 0.00 0.00
0.00 0.00 0.00 0.01 0.01 0.05 0.01 0.00 0.00 0.00 0.04 0.18 0.04 0.00 0.00 0.00 0.00 0.00 0.00 0.00 0.00 0.00 0.02 0.03 0.01 0.00 0.02 0.04 0.00 0.00 0.00 0.00 0.00 0.00 0.00 0.00 0.00 0.00 0.00 0.01 0.00 0.00 0.00 0.00
0.00 0.00 0.01 0.02 0.02 0.01 0.00 0.00 0.01 0.01 0.03 0.12 0.04 0.00 0.00 0.00 0.01 0.00 0.01 0.01 0.01 0.02 0.04 0.03 0.01 0.01 0.04 0.03 0.00 0.00 0.00 0.00 0.00 0.00 0.00 0.00 0.00 0.00 0.00 0.00 0.00 0.00 0.00 0.00
0.00 0.01 0.01 0.00 0.00 0.00 0.00 0.01 0.02 0.02 0.05 0.03 0.02 0.00 0.01 0.04 0.11 0.05 0.02 0.02 0.03 0.09 0.06 0.05 0.04 0.05 0.05 0.03 0.00 0.00 0.00 0.00 0.00 0.00 0.00 0.00 0.00 0.00 0.00 0.00 0.00 0.00 0.00 0.00
0.01 0.01 0.00 0.00 0.00 0.00 0.00 0.01 0.02 0.02 0.04 0.02 0.02 0.02 0.04 0.05 0.23 0.13 0.16 0.11 0.13 0.07 0.07 0.03 0.04 0.02 0.01 0.00 0.00 0.00 0.00 0.00 0.00 0.00 0.00 0.00 0.00 0.00 0.00 0.00 0.00 0.00 0.00 0.00
0.01 0.00 0.00 0.00 0.00 0.00 0.00 0.02 0.03 0.03 0.06 0.04 0.05 0.06 0.05 0.03 0.16 0.19 0.30 0.22 0.17 0.14 0.03 0.03 0.06 0.02 0.00 0.00 0.00 0.00 0.00 0.00 0.00 0.00 0.00 0.00 0.00 0.00 0.00 0.00 0.00 0.00 0.00 0.00
0.00 0.00 0.00 0.00 0.00 0.00 0.01 0.00 0.01 0.01 0.02 0.05 0.07 0.11 0.11 0.03 0.15 0.32 0.18 0.38 0.11 0.08 0.02 0.07 0.06 0.04 0.01 0.00 0.00 0.00 0.00 0.00 0.00 0.00 0.00 0.00 0.00 0.00 0.00 0.00 0.00 0.00 0.00 0.00
0.00 0.00 0.00 0.00 0.00 0.00 0.00 0.01 0.02 0.04 0.05 0.09 0.17 0.14 0.13 0.08 0.17 0.43 0.35 0.21 0.28 0.07 0.05 0.12 0.03 0.03 0.02 0.01 0.01 0.00 0.00 0.00 0.00 0.00 0.00 0.00 0.00 0.00 0.00 0.00 0.00 0.00 0.00 0.00
0.00 0.00 0.00 0.00 0.01 0.01 0.02 0.03 0.04 0.02 0.04 0.05 0.06 0.05 0.06 0.11 0.20 0.24 0.39 0.30 0.11 0.07 0.17 0.09 0.04 0.02 0.01 0.02 0.03 0.02 0.01 0.01 0.01 0.00 0.00 0.00 0.00 0.00 0.00 0.00 0.00 0.00 0.00 0.00
0.01 0.00 0.01 0.01 0.01 0.02 0.04 0.03 0.01 0.00 0.00 0.01 0.06 0.09 0.08 0.12 0.25 0.21 0.22 0.14 0.14 0.16 0.08 0.06 0.03 0.01 0.01 0.01 0.02 0.02 0.01 0.02 0.03 0.02 0.01 0.02 0.01 0.01 0.01 0.01 0.01 0.01 0.01 0.01
0.00 0.00 0.00 0.00 0.00 0.01 0.00 0.00 0.00 0.00 0.00 0.00 0.06 0.14 0.16 0.21 0.28 0.24 0.23 0.23 0.17 0.12 0.09 0.09 0.07 0.06 0.07 0.07 0.07 0.06 0.06 0.07 0.05 0.02 0.00 0.00 0.00 0.00 0.00 0.00 0.00 0.00 0.00 0.00
0.00 0.00 0.00 0.01 0.01 0.01 0.01 0.00 0.00 0.00 0.00 0.00 0.10 0.15 0.25 0.32 0.35 0.34 0.36 0.40 0.29 0.20 0.17 0.16 0.14 0.16 0.21 0.23 0.18 0.16 0.12 0.09 0.06 0.03 0.00 0.00 0.00 0.00 0.00 0.00 0.00 0.00 0.00 0.00
0.00 0.00 0.00 0.00 0.00 0.00 0.00 0.00 0.00 0.00 0.00 0.00 0.05 0.12 0.18 0.26 0.36 0.44 0.53 0.57 0.38 0.20 0.11 0.08 0.08 0.16 0.30 0.38 0.30 0.27 0.20 0.14 0.09 0.07 0.06 0.05 0.05 0.06 0.06 0.05 0.02 0.01 0.00 0.00

GFSNW_prec_precacc24_105.txt.gz
Total_Precipitation_Accumulation
0.05 0.00 0.00 0.00 0.00 0.00 0.00 0.00 0.00 0.00 0.00 0.00 0.00 0.00 0.00 0.00 0.00 0.02 0.08 0.14 0.05 0.05 0.16 0.48 0.56 0.76 0.87 0.48 0.25 0.16 0.15 0.28 0.12 0.04 0.03 0.02 0.07 0.05 0.02 0.17 0.24 0.33 0.09 0.02
0.08 0.00 0.00 0.00 0.00 0.00 0.00 0.00 0.00 0.00 0.00 0.00 0.00 0.00 0.00 0.00 0.00 0.06 0.03 0.06 0.02 0.01 0.04 0.22 0.25 0.40 0.35 0.24 0.15 0.06 0.13 0.20 0.11 0.13 0.09 0.05 0.05 0.01 0.01 0.01 0.09 0.12 0.10 0.01
0.13 0.00 0.00 0.00 0.00 0.00 0.00 0.00 0.00 0.00 0.00 0.00 0.00 0.01 0.00 0.00 0.00 0.05 0.02 0.09 0.00 0.00 0.01 0.03 0.05 0.14 0.23 0.30 0.35 0.18 0.09 0.06 0.01 0.04 0.02 0.00 0.01 0.00 0.00 0.01 0.07 0.09 0.04 0.00
0.11 0.00 0.00 0.00 0.00 0.00 0.00 0.00 0.00 0.00 0.00 0.00 0.00 0.00 0.01 0.00 0.00 0.00 0.01 0.07 0.00 0.02 0.03 0.02 0.02 0.08 0.19 0.28 0.48 0.49 0.21 0.13 0.00 0.00 0.00 0.00 0.00 0.00 0.00 0.00 0.09 0.14 0.03 0.00
0.04 0.00 0.00 0.00 0.00 0.00 0.00 0.00 0.00 0.00 0.00 0.00 0.00 0.00 0.00 0.00 0.00 0.03 0.07 0.02 0.00 0.00 0.04 0.04 0.04 0.09 0.14 0.27 0.35 0.43 0.32 0.20 0.02 0.03 0.00 0.00 0.00 0.00 0.00 0.00 0.07 0.00 0.00 0.00
0.01 0.00 0.00 0.00 0.00 0.00 0.00 0.00 0.00 0.00 0.00 0.00 0.00 0.00 0.01 0.00 0.02 0.01 0.01 0.01 0.01 0.01 0.00 0.00 0.00 0.01 0.03 0.11 0.19 0.16 0.18 0.12 0.06 0.22 0.02 0.01 0.01 0.00 0.00 0.01 0.06 0.00 0.00 0.00
0.00 0.00 0.00 0.00 0.00 0.00 0.00 0.00 0.00 0.00 0.00 0.00 0.00 0.00 0.00 0.00 0.01 0.03 0.00 0.01 0.05 0.01 0.00 0.00 0.00 0.00 0.00 0.00 0.05 0.09 0.10 0.05 0.03 0.19 0.07 0.09 0.01 0.00 0.00 0.00 0.04 0.01 0.00 0.00
0.00 0.00 0.00 0.00 0.00 0.00 0.00 0.00 0.00 0.00 0.00 0.00 0.00 0.00 0.00 0.00 0.00 0.03 0.06 0.02 0.00 0.00 0.00 0.00 0.04 0.03 0.02 0.00 0.00 0.03 0.03 0.02 0.04 0.10 0.24 0.08 0.00 0.00 0.00 0.00 0.00 0.00 0.00 0.00
0.00 0.00 0.00 0.00 0.00 0.00 0.00 0.00 0.00 0.00 0.00 0.00 0.00 0.00 0.00 0.00 0.00 0.02 0.05 0.00 0.00 0.00 0.00 0.00 0.05 0.05 0.02 0.01 0.01 0.00 0.00 0.00 0.01 0.01 0.08 0.05 0.01 0.00 0.00 0.00 0.00 0.00 0.00 0.00
0.00 0.00 0.00 0.00 0.00 0.00 0.00 0.00 0.00 0.00 0.00 0.00 0.00 0.00 0.00 0.00 0.00 0.01 0.02 0.00 0.00 0.00 0.00 0.00 0.00 0.00 0.00 0.00 0.02 0.00 0.01 0.00 0.00 0.02 0.05 0.01 0.00 0.00 0.00 0.02 0.01 0.00 0.00 0.00
0.00 0.00 0.00 0.00 0.00 0.00 0.00 0.00 0.00 0.01 0.00 0.00 0.00 0.00 0.00 0.00 0.00 0.00 0.00 0.04 0.05 0.01 0.01 0.01 0.00 0.00 0.00 0.00 0.00 0.00 0.00 0.01 0.03 0.00 0.01 0.00 0.00 0.00 0.01 0.02 0.00 0.00 0.00 0.00
0.00 0.00 0.00 0.00 0.00 0.00 0.00 0.00 0.00 0.00 0.01 0.00 0.00 0.00 0.00 0.00 0.00 0.00 0.00 0.05 0.20 0.16 0.06 0.04 0.01 0.00 0.00 0.00 0.01 0.00 0.01 0.00 0.00 0.00 0.01 0.00 0.00 0.00 0.00 0.00 0.00 0.00 0.00 0.00
0.00 0.00 0.00 0.00 0.00 0.00 0.00 0.00 0.00 0.00 0.01 0.00 0.00 0.00 0.00 0.00 0.00 0.00 0.00 0.01 0.16 0.20 0.08 0.05 0.02 0.01 0.00 0.00 0.00 0.00 0.00 0.00 0.00 0.00 0.00 0.00 0.00 0.00 0.00 0.00 0.00 0.00 0.00 0.00
0.00 0.00 0.00 0.00 0.00 0.01 0.01 0.00 0.00 0.00 0.01 0.02 0.00 0.00 0.00 0.00 0.00 0.00 0.00 0.01 0.05 0.08 0.03 0.04 0.03 0.02 0.00 0.00 0.00 0.00 0.00 0.00 0.00 0.00 0.00 0.00 0.00 0.00 0.00 0.03 0.02 0.00 0.00 0.00
0.01 0.00 0.00 0.00 0.01 0.01 0.02 0.00 0.00 0.00 0.01 0.06 0.01 0.00 0.00 0.00 0.00 0.00 0.00 0.00 0.00 0.02 0.01 0.02 0.02 0.01 0.01 0.00 0.00 0.01 0.00 0.00 0.00 0.03 0.00 0.00 0.00 0.00 0.05 0.04 0.02 0.00 0.00 0.01
0.01 0.00 0.00 0.00 0.01 0.03 0.00 0.00 0.00 0.00 0.02 0.13 0.03 0.00 0.00 0.00 0.00 0.00 0.00 0.00 0.00 0.00 0.01 0.01 0.00 0.00 0.02 0.04 0.01 0.01 0.00 0.00 0.00 0.00 0.00 0.00 0.00 0.00 0.00 0.03 0.02 0.00 0.00 0.00
0.04 0.01 0.00 0.01 0.01 0.00 0.00 0.00 0.00 0.01 0.02 0.09 0.03 0.00 0.00 0.00 0.00 0.00 0.00 0.00 0.01 0.02 0.03 0.01 0.00 0.00 0.04 0.03 0.01 0.01 0.00 0.00 0.00 0.00 0.00 0.00 0.00 0.00 0.00 0.00 0.00 0.00 0.00 0.00
0.05 0.03 0.01 0.00 0.00 0.00 0.00 0.01 0.01 0.01 0.03 0.02 0.01 0.00 0.00 0.01 0.06 0.03 0.01 0.01 0.03 0.07 0.04 0.04 0.03 0.04 0.05 0.03 0.00 0.00 0.00 0.00 0.00 0.00 0.00 0.00 0.00 0.00 0.00 0.00 0.00 0.00 0.00 0.00
0.05 0.02 0.01 0.00 0.00 0.00 0.00 0.00 0.01 0.01 0.03 0.00 0.01 0.02 0.01 0.00 0.05 0.10 0.14 0.08 0.08 0.03 0.05 0.02 0.03 0.02 0.01 0.00 0.00 0.00 0.00 0.00 0.00 0.00 0.00 0.00 0.00 0.00 0.00 0.00 0.00 0.00 0.00 0.00
0.02 0.00 0.00 0.00 0.00 0.00 0.00 0.00 0.01 0.01 0.02 0.02 0.04 0.05 0.04 0.02 0.04 0.04 0.28 0.20 0.14 0.11 0.02 0.03 0.05 0.02 0.00 0.00 0.00 0.00 0.00 0.00 0.00 0.00 0.00 0.00 0.00 0.00 0.00 0.00 0.00 0.00 0.00 0.00
0.01 0.00 0.00 0.00 0.00 0.00 0.00 0.00 0.00 0.00 0.00 0.01 0.02 0.04 0.04 0.01 0.07 0.08 0.11 0.31 0.10 0.08 0.02 0.06 0.06 0.04 0.01 0.00 0.00 0.00 0.00 0.00 0.00 0.00 0.00 0.00 0.00 0.00 0.00 0.00 0.00 0.00 0.00 0.00
0.00 0.00 0.00 0.00 0.00 0.00 0.00 0.00 0.00 0.00 0.00 0.00 0.02 0.01 0.02 0.01 0.08 0.22 0.18 0.18 0.27 0.07 0.05 0.12 0.03 0.03 0.02 0.01 0.01 0.00 0.00 0.00 0.00 0.00 0.00 0.00 0.00 0.00 0.00 0.00 0.00 0.00 0.00 0.00
0.01 0.01 0.01 0.00 0.01 0.00 0.00 0.01 0.01 0.00 0.00 0.00 0.00 0.00 0.01 0.01 0.11 0.15 0.26 0.24 0.10 0.07 0.17 0.09 0.04 0.02 0.01 0.02 0.03 0.02 0.01 0.01 0.01 0.00 0.00 0.00 0.00 0.00 0.00 0.00 0.00 0.00 0.00 0.00
0.02 0.01 0.01 0.01 0.01 0.00 0.00 0.01 0.01 0.00 0.00 0.00 0.00 0.01 0.02 0.03 0.11 0.11 0.18 0.13 0.13 0.16 0.07 0.06 0.03 0.01 0.01 0.01 0.02 0.02 0.01 0.02 0.02 0.02 0.01 0.01 0.01 0.01 0.01 0.00 0.00 0.00 0.00 0.00
0.01 0.00 0.00 0.00 0.00 0.01 0.00 0.00 0.00 0.00 0.00 0.00 0.00 0.02 0.07 0.09 0.14 0.16 0.19 0.22 0.17 0.12 0.09 0.06 0.03 0.01 0.02 0.04 0.06 0.06 0.06 0.07 0.05 0.02 0.00 0.00 0.00 0.00 0.00 0.00 0.00 0.00 0.00 0.00
0.01 0.00 0.00 0.01 0.01 0.01 0.01 0.01 0.00 0.00 0.00 0.00 0.00 0.03 0.11 0.18 0.25 0.26 0.30 0.38 0.26 0.16 0.11 0.10 0.11 0.10 0.13 0.18 0.18 0.16 0.12 0.09 0.06 0.03 0.00 0.00 0.00 0.00 0.00 0.00 0.00 0.00 0.00 0.00
0.00 0.00 0.00 0.00 0.00 0.00 0.00 0.00 0.00 0.00 0.00 0.00 0.00 0.01 0.07 0.16 0.26 0.39 0.46 0.47 0.31 0.18 0.10 0.05 0.05 0.09 0.19 0.29 0.27 0.26 0.19 0.14 0.09 0.07 0.06 0.06 0.05 0.06 0.06 0.05 0.03 0.01 0.01 0.02

GFSNW_prec_precacc24_108.txt.gz
Total_Precipitation_Accumulation
0.40 0.25 0.04 0.00 0.00 0.00 0.00 0.00 0.00 0.00 0.00 0.00 0.00 0.00 0.00 0.00 0.00 0.02 0.08 0.15 0.06 0.05 0.18 0.49 0.55 0.71 0.73 0.25 0.03 0.03 0.02 0.17 0.04 0.02 0.02 0.02 0.05 0.02 0.02 0.17 0.24 0.34 0.10 0.02
0.40 0.27 0.02 0.00 0.00 0.00 0.00 0.00 0.00 0.00 0.00 0.00 0.00 0.00 0.00 0.00 0.00 0.06 0.03 0.07 0.02 0.01 0.04 0.24 0.26 0.40 0.35 0.22 0.10 0.04 0.10 0.17 0.08 0.10 0.07 0.03 0.02 0.00 0.01 0.01 0.11 0.30 0.27 0.01
0.50 0.25 0.01 0.00 0.00 0.00 0.00 0.00 0.00 0.00 0.00 0.00 0.00 0.00 0.00 0.00 0.00 0.05 0.01 0.09 0.00 0.00 0.02 0.03 0.05 0.14 0.23 0.30 0.34 0.17 0.09 0.06 0.01 0.03 0.02 0.00 0.00 0.00 0.00 0.01 0.16 0.20 0.12 0.01
0.51 0.16 0.00 0.00 0.00 0.00 0.00 0.00 0.00 0.00 0.00 0.00 0.00 0.00 0.00 0.00 0.00 0.00 0.01 0.07 0.00 0.02 0.03 0.02 0.02 0.08 0.19 0.28 0.48 0.49 0.21 0.13 0.00 0.00 0.00 0.00 0.00 0.00 0.00 0.00 0.13 0.15 0.04 0.00
0.45 0.08 0.00 0.00 0.00 0.00 0.00 0.00 0.00 0.00 0.00 0.00 0.00 0.00 0.00 0.00 0.00 0.01 0.03 0.02 0.00 0.00 0.04 0.04 0.04 0.09 0.15 0.27 0.35 0.43 0.32 0.20 0.02 0.03 0.00 0.00 0.00 0.00 0.00 0.00 0.08 0.01 0.00 0.00
0.32 0.03 0.00 0.00 0.00 0.00 0.00 0.00 0.00 0.00 0.00 0.00 0.00 0.00 0.00 0.00 0.00 0.00 0.00 0.01 0.01 0.01 0.00 0.00 0.00 0.01 0.03 0.11 0.19 0.16 0.18 0.12 0.06 0.22 0.02 0.01 0.01 0.00 0.00 0.01 0.10 0.01 0.01 0.00
0.20 0.02 0.00 0.00 0.00 0.00 0.00 0.00 0.00 0.00 0.00 0.00 0.00 0.00 0.00 0.00 0.00 0.01 0.00 0.01 0.05 0.01 0.00 0.00 0.00 0.00 0.00 0.00 0.05 0.09 0.10 0.05 0.03 0.19 0.08 0.10 0.03 0.00 0.00 0.01 0.13 0.02 0.00 0.00
0.15 0.01 0.00 0.00 0.00 0.00 0.00 0.00 0.00 0.00 0.00 0.00 0.00 0.00 0.00 0.00 0.00 0.00 0.02 0.02 0.00 0.00 0.00 0.00 0.06 0.04 0.02 0.00 0.00 0.03 0.03 0.02 0.04 0.12 0.26 0.09 0.00 0.00 0.00 0.00 0.01 0.02 0.01 0.00
0.06 0.01 0.00 0.00 0.00 0.00 0.00 0.00 0.00 0.00 0.00 0.00 0.00 0.00 0.00 0.00 0.00 0.00 0.01 0.00 0.00 0.00 0.00 0.00 0.08 0.06 0.02 0.01 0.01 0.00 0.00 0.00 0.01 0.01 0.10 0.07 0.01 0.00 0.00 0.00 0.00 0.00 0.00 0.00
0.04 0.02 0.00 0.00 0.00 0.00 0.00 0.00 0.00 0.00 0.00 0.00 0.00 0.00 0.00 0.00 0.00 0.00 0.00 0.00 0.00 0.00 0.00 0.00 0.00 0.00 0.00 0.00 0.02 0.00 0.01 0.00 0.01 0.02 0.05 0.01 0.00 0.00 0.00 0.01 0.02 0.00 0.00 0.00
0.06 0.03 0.00 0.00 0.00 0.00 0.00 0.00 0.00 0.00 0.00 0.00 0.00 0.00 0.00 0.00 0.00 0.00 0.00 0.02 0.03 0.01 0.01 0.01 0.00 0.00 0.00 0.00 0.00 0.00 0.00 0.01 0.04 0.00 0.01 0.01 0.00 0.00 0.01 0.02 0.00 0.00 0.00 0.00
0.02 0.02 0.00 0.00 0.01 0.00 0.00 0.00 0.00 0.00 0.00 0.00 0.00 0.00 0.00 0.00 0.00 0.00 0.00 0.02 0.09 0.12 0.06 0.03 0.01 0.00 0.00 0.00 0.01 0.00 0.01 0.00 0.00 0.00 0.01 0.00 0.00 0.00 0.00 0.00 0.00 0.00 0.00 0.00
0.05 0.03 0.00 0.00 0.00 0.00 0.00 0.00 0.00 0.00 0.00 0.00 0.00 0.00 0.00 0.00 0.00 0.00 0.00 0.00 0.11 0.14 0.08 0.05 0.02 0.01 0.00 0.00 0.00 0.00 0.00 0.00 0.00 0.00 0.00 0.00 0.00 0.00 0.00 0.00 0.02 0.01 0.00 0.00
0.08 0.03 0.00 0.00 0.00 0.01 0.00 0.00 0.00 0.00 0.00 0.00 0.00 0.00 0.00 0.00 0.00 0.00 0.00 0.00 0.01 0.06 0.02 0.04 0.03 0.02 0.00 0.00 0.00 0.00 0.00 0.00 0.00 0.00 0.00 0.00 0.00 0.00 0.00 0.07 0.04 0.00 0.00 0.00
0.04 0.01 0.00 0.00 0.01 0.01 0.00 0.00 0.00 0.00 0.00 0.02 0.00 0.00 0.00 0.00 0.00 0.00 0.00 0.00 0.00 0.01 0.01 0.01 0.02 0.01 0.01 0.00 0.00 0.01 0.00 0.00 0.00 0.03 0.00 0.00 0.00 0.00 0.05 0.04 0.03 0.02 0.00 0.02
0.02 0.01 0.00 0.00 0.01 0.01 0.00 0.00 0.00 0.00 0.01 0.07 0.01 0.00 0.00 0.00 0.00 0.00 0.00 0.00 0.00 0.00 0.01 0.01 0.00 0.00 0.02 0.04 0.01 0.01 0.00 0.00 0.00 0.00 0.00 0.00 0.00 0.00 0.00 0.03 0.02 0.02 0.01 0.01
0.05 0.03 0.01 0.00 0.00 0.00 0.00 0.00 0.00 0.00 0.01 0.04 0.01 0.00 0.00 0.00 0.00 0.00 0.00 0.00 0.00 0.01 0.02 0.01 0.00 0.00 0.03 0.03 0.01 0.01 0.00 0.00 0.00 0.00 0.00 0.00 0.00 0.00 0.00 0.00 0.00 0.00 0.00 0.00
0.08 0.05 0.01 0.00 0.00 0.00 0.00 0.00 0.00 0.01 0.01 0.00 0.00 0.00 0.00 0.00 0.00 0.02 0.00 0.00 0.01 0.04 0.02 0.03 0.02 0.03 0.04 0.03 0.00 0.00 0.00 0.00 0.00 0.00 0.00 0.00 0.00 0.00 0.00 0.00 0.00 0.00 0.00 0.00
0.10 0.04 0.01 0.00 0.01 0.00 0.00 0.00 0.00 0.00 0.01 0.00 0.00 0.00 0.00 0.00 0.00 0.03 0.07 0.04 0.03 0.02 0.04 0.01 0.03 0.02 0.01 0.00 0.00 0.00 0.00 0.00 0.00 0.00 0.00 0.00 0.00 0.00 0.00 0.00 0.00 0.00 0.00 0.00
0.09 0.03 0.01 0.01 0.01 0.00 0.00 0.00 0.00 0.00 0.01 0.00 0.00 0.00 0.00 0.00 0.00 0.01 0.12 0.16 0.12 0.09 0.02 0.02 0.04 0.01 0.00 0.00 0.00 0.00 0.00 0.00 0.00 0.00 0.00 0.00 0.00 0.00 0.00 0.00 0.00 0.00 0.00 0.00
0.10 0.03 0.00 0.01 0.01 0.00 0.00 0.00 0.00 0.00 0.00 0.00 0.00 0.00 0.01 0.00 0.01 0.02 0.03 0.19 0.09 0.07 0.02 0.06 0.06 0.04 0.01 0.00 0.00 0.00 0.00 0.00 0.00 0.00 0.00 0.00 0.00 0.00 0.00 0.00 0.00 0.00 0.00 0.00
0.03 0.00 0.00 0.01 0.01 0.00 0.00 0.00 0.00 0.00 0.00 0.00 0.00 0.00 0.00 0.00 0.03 0.08 0.06 0.09 0.21 0.06 0.05 0.12 0.03 0.03 0.02 0.01 0.01 0.00 0.00 0.00 0.00 0.00 0.00 0.00 0.00 0.00 0.00 0.00 0.00 0.00 0.00 0.00
0.02 0.03 0.03 0.01 0.02 0.00 0.00 0.01 0.01 0.00 0.00 0.00 0.00 0.00 0.00 0.01 0.05 0.08 0.14 0.17 0.08 0.07 0.16 0.09 0.04 0.02 0.01 0.02 0.03 0.02 0.01 0.01 0.01 0.00 0.00 0.00 0.00 0.00 0.00 0.00 0.00 0.00 0.00 0.00
0.04 0.03 0.02 0.01 0.01 0.00 0.00 0.01 0.01 0.00 0.00 0.00 0.00 0.00 0.00 0.01 0.03 0.05 0.12 0.07 0.11 0.15 0.07 0.06 0.03 0.01 0.01 0.01 0.02 0.02 0.01 0.02 0.02 0.01 0.00 0.00 0.00 0.00 0.00 0.00 0.00 0.00 0.00 0.00
0.04 0.01 0.01 0.00 0.00 0.01 0.00 0.00 0.00 0.00 0.00 0.00 0.00 0.00 0.02 0.03 0.05 0.09 0.13 0.17 0.15 0.11 0.08 0.05 0.02 0.01 0.01 0.02 0.04 0.05 0.05 0.06 0.05 0.02 0.00 0.00 0.00 0.00 0.00 0.00 0.00 0.00 0.00 0.00
0.02 0.00 0.00 0.01 0.01 0.01 0.01 0.01 0.00 0.00 0.00 0.00 0.00 0.01 0.03 0.06 0.16 0.17 0.24 0.33 0.23 0.14 0.09 0.06 0.07 0.08 0.11 0.12 0.15 0.15 0.12 0.09 0.06 0.03 0.00 0.00 0.00 0.00 0.00 0.00 0.00 0.00 0.00 0.00
0.01 0.00 0.00 0.00 0.00 0.00 0.01 0.01 0.00 0.00 0.00 0.00 0.00 0.00 0.02 0.06 0.15 0.27 0.32 0.33 0.24 0.15 0.08 0.04 0.04 0.06 0.10 0.17 0.22 0.23 0.19 0.14 0.09 0.07 0.06 0.06 0.05 0.06 0.06 0.05 0.03 0.01 0.02 0.03

GFSNW_prec_precacc24_114.txt.gz
Total_Precipitation_Accumulation
0.90 0.97 0.86 0.44 0.23 0.05 0.01 0.03 0.01 0.00 0.00 0.00 0.00 0.00 0.00 0.00 0.00 0.01 0.07 0.15 0.05 0.04 0.11 0.35 0.32 0.40 0.29 0.04 0.00 0.00 0.00 0.01 0.00 0.01 0.00 0.02 0.06 0.03 0.02 0.16 0.23 0.34 0.10 0.02
0.83 0.91 0.70 0.31 0.14 0.04 0.03 0.02 0.00 0.00 0.00 0.00 0.00 0.00 0.00 0.00 0.00 0.01 0.01 0.05 0.02 0.01 0.05 0.21 0.16 0.29 0.18 0.02 0.00 0.00 0.00 0.00 0.01 0.00 0.01 0.01 0.01 0.00 0.00 0.01 0.11 0.30 0.27 0.01
0.92 0.76 0.46 0.28 0.11 0.03 0.00 0.00 0.00 0.00 0.01 0.00 0.00 0.00 0.00 0.00 0.00 0.01 0.01 0.07 0.00 0.00 0.02 0.03 0.04 0.12 0.18 0.08 0.02 0.00 0.00 0.00 0.01 0.02 0.01 0.00 0.00 0.00 0.00 0.01 0.16 0.21 0.16 0.03
1.29 0.69 0.38 0.21 0.04 0.01 0.00 0.00 0.00 0.00 0.00 0.00 0.00 0.00 0.00 0.00 0.00 0.00 0.00 0.04 0.00 0.02 0.03 0.02 0.03 0.08 0.18 0.20 0.14 0.05 0.02 0.01 0.00 0.00 0.00 0.00 0.00 0.00 0.00 0.00 0.13 0.16 0.07 0.03
1.52 0.78 0.30 0.11 0.04 0.01 0.00 0.00 0.00 0.00 0.00 0.00 0.00 0.00 0.00 0.00 0.00 0.00 0.00 0.00 0.00 0.00 0.04 0.04 0.04 0.10 0.15 0.25 0.26 0.22 0.17 0.10 0.02 0.03 0.00 0.00 0.00 0.00 0.00 0.00 0.08 0.01 0.00 0.02
1.09 0.54 0.21 0.05 0.01 0.00 0.00 0.00 0.00 0.00 0.00 0.00 0.00 0.00 0.00 0.00 0.00 0.00 0.00 0.00 0.00 0.01 0.00 0.00 0.00 0.01 0.03 0.12 0.19 0.15 0.17 0.12 0.06 0.22 0.02 0.01 0.02 0.00 0.00 0.01 0.10 0.01 0.01 0.01
0.86 0.31 0.16 0.06 0.01 0.00 0.00 0.00 0.00 0.00 0.00 0.00 0.00 0.00 0.00 0.00 0.00 0.00 0.00 0.00 0.01 0.00 0.00 0.00 0.00 0.00 0.00 0.00 0.05 0.09 0.10 0.05 0.03 0.22 0.09 0.12 0.07 0.00 0.00 0.01 0.13 0.03 0.00 0.00
0.45 0.18 0.15 0.06 0.00 0.00 0.00 0.00 0.00 0.00 0.00 0.00 0.00 0.00 0.00 0.00 0.00 0.00 0.00 0.00 0.00 0.00 0.00 0.00 0.06 0.04 0.02 0.00 0.00 0.03 0.03 0.02 0.04 0.12 0.27 0.11 0.00 0.00 0.00 0.00 0.01 0.02 0.02 0.00
0.21 0.13 0.11 0.06 0.02 0.00 0.00 0.00 0.00 0.00 0.00 0.00 0.00 0.00 0.00 0.00 0.00 0.00 0.00 0.00 0.00 0.00 0.00 0.00 0.09 0.06 0.02 0.01 0.01 0.01 0.00 0.00 0.01 0.01 0.11 0.07 0.01 0.00 0.00 0.00 0.00 0.00 0.00 0.00
0.18 0.15 0.12 0.08 0.02 0.00 0.00 0.00 0.00 0.00 0.00 0.00 0.00 0.00 0.00 0.00 0.00 0.00 0.00 0.00 0.00 0.00 0.00 0.00 0.00 0.00 0.00 0.00 0.02 0.00 0.01 0.00 0.01 0.02 0.06 0.02 0.00 0.00 0.00 0.01 0.02 0.00 0.00 0.00
0.17 0.15 0.09 0.04 0.01 0.00 0.00 0.00 0.00 0.00 0.00 0.00 0.00 0.00 0.00 0.00 0.00 0.00 0.00 0.00 0.00 0.00 0.00 0.00 0.00 0.00 0.00 0.00 0.00 0.00 0.00 0.01 0.04 0.00 0.01 0.01 0.00 0.00 0.01 0.02 0.00 0.00 0.00 0.00
0.08 0.10 0.04 0.01 0.01 0.00 0.00 0.00 0.00 0.00 0.00 0.00 0.00 0.00 0.00 0.00 0.00 0.00 0.00 0.00 0.01 0.02 0.01 0.01 0.01 0.00 0.00 0.00 0.01 0.00 0.01 0.00 0.00 0.00 0.01 0.00 0.00 0.00 0.00 0.00 0.00 0.00 0.00 0.00
0.15 0.11 0.04 0.01 0.01 0.00 0.00 0.00 0.00 0.00 0.00 0.00 0.00 0.00 0.00 0.00 0.00 0.00 0.00 0.00 0.01 0.01 0.01 0.01 0.01 0.01 0.00 0.00 0.00 0.00 0.00 0.00 0.00 0.00 0.00 0.00 0.00 0.00 0.00 0.01 0.04 0.01 0.00 0.00
0.17 0.15 0.06 0.00 0.01 0.01 0.00 0.00 0.00 0.00 0.00 0.00 0.00 0.00 0.00 0.00 0.00 0.00 0.00 0.00 0.00 0.00 0.00 0.01 0.02 0.02 0.00 0.00 0.00 0.00 0.00 0.00 0.00 0.00 0.00 0.00 0.00 0.00 0.00 0.07 0.06 0.00 0.00 0.00
0.16 0.11 0.06 0.00 0.01 0.00 0.00 0.00 0.00 0.00 0.00 0.00 0.00 0.00 0.00 0.00 0.00 0.00 0.00 0.00 0.00 0.00 0.00 0.00 0.01 0.01 0.01 0.00 0.00 0.01 0.00 0.00 0.00 0.03 0.00 0.00 0.00 0.00 0.05 0.04 0.03 0.02 0.00 0.02
0.13 0.11 0.07 0.02 0.00 0.00 0.00 0.00 0.00 0.00 0.00 0.00 0.00 0.00 0.00 0.00 0.00 0.00 0.00 0.00 0.00 0.00 0.00 0.00 0.00 0.00 0.02 0.03 0.01 0.01 0.00 0.00 0.00 0.00 0.00 0.00 0.00 0.00 0.00 0.03 0.02 0.02 0.01 0.01
0.17 0.16 0.10 0.03 0.00 0.00 0.00 0.00 0.00 0.00 0.00 0.00 0.00 0.00 0.00 0.00 0.00 0.00 0.00 0.00 0.00 0.00 0.00 0.00 0.00 0.00 0.02 0.02 0.01 0.01 0.00 0.00 0.00 0.00 0.00 0.00 0.00 0.00 0.00 0.00 0.00 0.00 0.00 0.00
0.22 0.24 0.12 0.05 0.00 0.00 0.00 0.00 0.00 0.00 0.00 0.00 0.00 0.00 0.00 0.00 0.00 0.00 0.00 0.00 0.00 0.00 0.00 0.01 0.01 0.01 0.02 0.02 0.00 0.00 0.00 0.00 0.00 0.00 0.00 0.00 0.00 0.00 0.00 0.00 0.00 0.00 0.00 0.00
0.25 0.21 0.11 0.07 0.02 0.01 0.00 0.00 0.00 0.00 0.00 0.00 0.00 0.00 0.00 0.00 0.00 0.00 0.01 0.01 0.01 0.01 0.01 0.00 0.02 0.02 0.01 0.00 0.00 0.00 0.00 0.00 0.00 0.00 0.00 0.00 0.00 0.00 0.00 0.00 0.00 0.00 0.00 0.00
0.26 0.21 0.19 0.16 0.03 0.01 0.00 0.00 0.00 0.00 0.00 0.00 0.00 0.00 0.00 0.00 0.00 0.00 0.01 0.06 0.06 0.05 0.01 0.01 0.03 0.01 0.00 0.00 0.00 0.00 0.00 0.00 0.00 0.00 0.00 0.00 0.00 0.00 0.00 0.00 0.00 0.00 0.00 0.00
0.37 0.31 0.13 0.05 0.02 0.02 0.02 0.00 0.00 0.00 0.00 0.00 0.00 0.00 0.00 0.00 0.00 0.00 0.00 0.03 0.04 0.05 0.02 0.03 0.04 0.04 0.01 0.00 0.00 0.00 0.00 0.00 0.00 0.00 0.00 0.00 0.00 0.00 0.00 0.00 0.00 0.00 0.00 0.00
0.21 0.06 0.03 0.05 0.10 0.05 0.02 0.01 0.00 0.00 0.00 0.00 0.00 0.00 0.00 0.00 0.00 0.02 0.01 0.02 0.05 0.03 0.04 0.09 0.02 0.03 0.02 0.01 0.01 0.00 0.00 0.00 0.00 0.00 0.00 0.00 0.00 0.00 0.00 0.00 0.00 0.00 0.00 0.00
0.19 0.23 0.19 0.12 0.09 0.02 0.01 0.01 0.01 0.00 0.00 0.00 0.00 0.00 0.00 0.00 0.01 0.01 0.03 0.04 0.02 0.04 0.08 0.07 0.04 0.02 0.01 0.02 0.03 0.02 0.01 0.01 0.01 0.00 0.00 0.00 0.00 0.00 0.00 0.00 0.00 0.00 0.00 0.00
0.38 0.22 0.15 0.08 0.04 0.00 0.00 0.01 0.01 0.00 0.00 0.00 0.00 0.00 0.00 0.00 0.00 0.01 0.02 0.01 0.06 0.10 0.06 0.06 0.03 0.01 0.01 0.01 0.02 0.02 0.01 0.02 0.02 0.01 0.00 0.00 0.00 0.00 0.00 0.00 0.00 0.00 0.00 0.00
0.31 0.11 0.05 0.01 0.01 0.01 0.00 0.00 0.00 0.00 0.00 0.00 0.00 0.00 0.00 0.00 0.00 0.01 0.02 0.04 0.11 0.09 0.05 0.03 0.01 0.01 0.01 0.01 0.03 0.04 0.05 0.06 0.05 0.02 0.00 0.00 0.00 0.00 0.00 0.00 0.00 0.00 0.00 0.00
0.19 0.04 0.01 0.01 0.01 0.01 0.01 0.01 0.00 0.00 0.00 0.00 0.00 0.00 0.00 0.00 0.01 0.02 0.03 0.09 0.10 0.04 0.02 0.01 0.01 0.01 0.02 0.03 0.07 0.10 0.10 0.09 0.06 0.03 0.00 0.00 0.00 0.00 0.00 0.00 0.00 0.00 0.00 0.00
0.20 0.02 0.00 0.00 0.00 0.00 0.01 0.01 0.00 0.00 0.00 0.00 0.00 0.00 0.00 0.00 0.01 0.00 0.01 0.01 0.02 0.03 0.01 0.00 0.01 0.02 0.02 0.06 0.11 0.14 0.16 0.14 0.09 0.07 0.06 0.06 0.05 0.06 0.06 0.05 0.03 0.02 0.02 0.04

GFSNW_prec_precacc24_117.txt.gz
Total_Precipitation_Accumulation
1.02 1.00 0.97 0.66 0.23 0.07 0.02 0.07 0.05 0.02 0.00 0.00 0.00 0.00 0.00 0.00 0.00 0.00 0.04 0.07 0.04 0.03 0.07 0.28 0.20 0.24 0.16 0.02 0.00 0.00 0.00 0.01 0.00 0.01 0.00 0.02 0.08 0.05 0.02 0.16 0.23 0.34 0.11 0.12
0.87 0.92 0.76 0.32 0.15 0.06 0.07 0.08 0.02 0.01 0.01 0.00 0.00 0.00 0.00 0.00 0.00 0.00 0.01 0.03 0.01 0.01 0.04 0.19 0.11 0.13 0.07 0.01 0.00 0.00 0.00 0.00 0.00 0.00 0.00 0.01 0.01 0.00 0.00 0.01 0.11 0.31 0.28 0.06
0.94 0.77 0.47 0.30 0.15 0.06 0.01 0.01 0.00 0.02 0.03 0.00 0.00 0.00 0.00 0.00 0.00 0.00 0.00 0.01 0.00 0.00 0.02 0.02 0.04 0.07 0.06 0.01 0.00 0.00 0.00 0.00 0.01 0.02 0.02 0.00 0.00 0.00 0.00 0.01 0.16 0.21 0.17 0.04
1.33 0.73 0.43 0.25 0.07 0.02 0.00 0.00 0.00 0.00 0.00 0.00 0.00 0.00 0.00 0.00 0.00 0.00 0.00 0.01 0.00 0.01 0.03 0.02 0.03 0.07 0.08 0.04 0.00 0.00 0.00 0.00 0.00 0.00 0.00 0.00 0.00 0.00 0.00 0.00 0.13 0.17 0.08 0.03
1.58 0.90 0.41 0.15 0.05 0.01 0.00 0.00 0.00 0.00 0.00 0.00 0.00 0.00 0.00 0.00 0.00 0.00 0.00 0.00 0.00 0.00 0.03 0.02 0.03 0.09 0.12 0.15 0.07 0.01 0.00 0.00 0.01 0.00 0.00 0.00 0.00 0.00 0.00 0.00 0.08 0.01 0.01 0.02
1.14 0.60 0.28 0.12 0.03 0.00 0.00 0.00 0.00 0.00 0.00 0.00 0.00 0.00 0.00 0.00 0.00 0.00 0.00 0.00 0.00 0.00 0.00 0.00 0.00 0.01 0.03 0.11 0.12 0.03 0.02 0.00 0.05 0.19 0.02 0.01 0.02 0.00 0.00 0.01 0.10 0.01 0.01 0.01
0.90 0.32 0.18 0.07 0.01 0.00 0.00 0.00 0.00 0.00 0.00 0.00 0.00 0.00 0.00 0.00 0.00 0.00 0.00 0.00 0.00 0.00 0.00 0.00 0.00 0.00 0.00 0.00 0.05 0.08 0.06 0.03 0.03 0.21 0.08 0.12 0.08 0.00 0.00 0.01 0.13 0.03 0.00 0.00
0.46 0.18 0.16 0.07 0.00 0.01 0.00 0.00 0.00 0.00 0.00 0.00 0.00 0.00 0.00 0.00 0.00 0.00 0.00 0.00 0.00 0.00 0.00 0.00 0.06 0.04 0.02 0.00 0.00 0.03 0.03 0.02 0.04 0.12 0.27 0.12 0.00 0.00 0.00 0.00 0.01 0.02 0.02 0.00
0.23 0.14 0.12 0.07 0.02 0.00 0.00 0.00 0.00 0.00 0.00 0.00 0.00 0.00 0.00 0.00 0.00 0.00 0.00 0.00 0.00 0.00 0.00 0.00 0.09 0.06 0.02 0.01 0.01 0.01 0.00 0.00 0.01 0.01 0.11 0.07 0.01 0.00 0.00 0.00 0.00 0.00 0.00 0.00
0.24 0.16 0.13 0.09 0.02 0.00 0.00 0.00 0.00 0.00 0.00 0.00 0.00 0.00 0.00 0.00 0.00 0.00 0.00 0.00 0.00 0.00 0.00 0.00 0.00 0.00 0.00 0.00 0.02 0.00 0.01 0.00 0.01 0.02 0.06 0.02 0.00 0.00 0.00 0.01 0.02 0.00 0.00 0.00
0.19 0.16 0.10 0.04 0.01 0.00 0.00 0.00 0.00 0.00 0.00 0.00 0.00 0.00 0.00 0.00 0.00 0.00 0.00 0.00 0.00 0.00 0.00 0.00 0.00 0.00 0.00 0.00 0.00 0.00 0.00 0.01 0.04 0.00 0.01 0.01 0.00 0.00 0.01 0.02 0.00 0.00 0.00 0.00
0.11 0.10 0.04 0.01 0.01 0.00 0.00 0.00 0.00 0.00 0.00 0.00 0.00 0.00 0.00 0.00 0.00 0.00 0.00 0.00 0.01 0.01 0.00 0.00 0.00 0.00 0.00 0.00 0.01 0.00 0.01 0.00 0.00 0.00 0.01 0.00 0.00 0.00 0.00 0.00 0.00 0.00 0.00 0.00
0.18 0.12 0.05 0.02 0.01 0.00 0.00 0.00 0.00 0.00 0.00 0.00 0.00 0.00 0.00 0.00 0.00 0.00 0.00 0.00 0.01 0.00 0.00 0.00 0.00 0.01 0.00 0.00 0.00 0.00 0.00 0.00 0.00 0.00 0.00 0.00 0.00 0.00 0.00 0.01 0.04 0.01 0.00 0.00
0.17 0.16 0.07 0.01 0.01 0.00 0.00 0.00 0.00 0.00 0.00 0.00 0.00 0.00 0.00 0.00 0.00 0.00 0.00 0.00 0.00 0.00 0.00 0.00 0.00 0.02 0.00 0.00 0.00 0.00 0.00 0.00 0.00 0.00 0.00 0.00 0.00 0.00 0.00 0.07 0.06 0.00 0.00 0.00
0.20 0.14 0.09 0.01 0.01 0.00 0.00 0.00 0.00 0.00 0.00 0.00 0.00 0.00 0.00 0.00 0.00 0.00 0.00 0.00 0.00 0.00 0.00 0.00 0.00 0.01 0.01 0.00 0.00 0.01 0.00 0.00 0.00 0.03 0.00 0.00 0.00 0.00 0.05 0.04 0.03 0.02 0.00 0.02
0.15 0.15 0.13 0.03 0.00 0.00 0.00 0.00 0.00 0.00 0.00 0.00 0.00 0.00 0.00 0.00 0.00 0.00 0.00 0.00 0.00 0.00 0.00 0.00 0.00 0.00 0.01 0.03 0.01 0.01 0.00 0.00 0.00 0.00 0.00 0.00 0.00 0.00 0.00 0.03 0.02 0.02 0.01 0.01
0.19 0.19 0.18 0.08 0.01 0.00 0.00 0.00 0.00 0.00 0.00 0.00 0.00 0.00 0.00 0.00 0.00 0.00 0.00 0.00 0.00 0.00 0.00 0.00 0.00 0.00 0.01 0.02 0.01 0.01 0.00 0.00 0.00 0.00 0.00 0.00 0.00 0.00 0.00 0.00 0.00 0.00 0.00 0.00
0.26 0.33 0.25 0.15 0.02 0.00 0.00 0.00 0.00 0.00 0.00 0.00 0.00 0.00 0.00 0.00 0.00 0.00 0.00 0.00 0.00 0.00 0.00 0.00 0.00 0.01 0.01 0.01 0.00 0.00 0.00 0.00 0.00 0.00 0.00 0.00 0.00 0.00 0.00 0.00 0.00 0.00 0.00 0.00
0.35 0.40 0.25 0.18 0.06 0.01 0.00 0.00 0.00 0.00 0.00 0.00 0.00 0.00 0.00 0.00 0.00 0.00 0.01 0.01 0.01 0.01 0.00 0.00 0.01 0.01 0.01 0.00 0.00 0.00 0.00 0.00 0.00 0.00 0.00 0.00 0.00 0.00 0.00 0.00 0.00 0.00 0.00 0.00
0.39 0.30 0.36 0.34 0.09 0.01 0.00 0.00 0.00 0.00 0.00 0.00 0.00 0.00 0.00 0.00 0.00 0.00 0.00 0.02 0.03 0.03 0.00 0.01 0.02 0.01 0.00 0.00 0.00 0.00 0.00 0.00 0.00 0.00 0.00 0.00 0.00 0.00 0.00 0.00 0.00 0.00 0.00 0.00
0.42 0.45 0.31 0.14 0.05 0.08 0.03 0.01 0.00 0.00 0.00 0.00 0.00 0.00 0.00 0.00 0.00 0.00 0.00 0.01 0.02 0.03 0.02 0.02 0.02 0.04 0.01 0.00 0.00 0.00 0.00 0.00 0.00 0.00 0.00 0.00 0.00 0.00 0.00 0.00 0.00 0.00 0.00 0.00
0.24 0.13 0.12 0.14 0.25 0.21 0.08 0.01 0.00 0.00 0.00 0.00 0.00 0.00 0.00 0.00 0.00 0.01 0.01 0.01 0.01 0.01 0.02 0.06 0.02 0.03 0.02 0.01 0.01 0.00 0.00 0.00 0.00 0.00 0.00 0.00 0.00 0.00 0.00 0.00 0.00 0.00 0.00 0.00
0.27 0.40 0.41 0.31 0.30 0.16 0.03 0.01 0.01 0.00 0.00 0.00 0.00 0.00 0.00 0.00 0.00 0.00 0.01 0.02 0.00 0.02 0.05 0.05 0.03 0.02 0.01 0.02 0.03 0.02 0.01 0.01 0.01 0.00 0.00 0.00 0.00 0.00 0.00 0.00 0.00 0.00 0.00 0.00
0.48 0.43 0.38 0.26 0.18 0.02 0.00 0.01 0.01 0.00 0.00 0.00 0.00 0.00 0.00 0.00 0.00 0.00 0.01 0.00 0.02 0.06 0.05 0.04 0.01 0.00 0.00 0.00 0.01 0.02 0.01 0.02 0.02 0.01 0.00 0.00 0.00 0.00 0.00 0.00 0.00 0.00 0.00 0.00
0.49 0.27 0.18 0.08 0.02 0.01 0.00 0.00 0.00 0.00 0.00 0.00 0.00 0.00 0.00 0.00 0.00 0.00 0.00 0.01 0.04 0.04 0.01 0.00 0.00 0.00 0.00 0.00 0.01 0.02 0.04 0.06 0.05 0.02 0.00 0.00 0.00 0.00 0.00 0.00 0.00 0.00 0.00 0.00
0.32 0.14 0.05 0.01 0.01 0.01 0.01 0.01 0.00 0.00 0.00 0.00 0.00 0.00 0.00 0.00 0.00 0.00 0.00 0.01 0.01 0.00 0.00 0.00 0.00 0.00 0.00 0.00 0.01 0.02 0.04 0.06 0.06 0.03 0.00 0.00 0.00 0.00 0.00 0.00 0.00 0.00 0.00 0.00
0.34 0.08 0.00 0.00 0.00 0.00 0.01 0.01 0.00 0.00 0.00 0.00 0.00 0.00 0.00 0.00 0.00 0.00 0.00 0.00 0.00 0.00 0.00 0.00 0.00 0.00 0.00 0.00 0.01 0.04 0.09 0.10 0.09 0.07 0.06 0.05 0.05 0.06 0.06 0.05 0.03 0.02 0.02 0.04

GFSNW_prec_precacc24_120.txt.gz
Total_Precipitation_Accumulation
1.02 1.00 1.03 0.67 0.24 0.07 0.03 0.11 0.10 0.05 0.00 0.00 0.00 0.00 0.00 0.00 0.00 0.00 0.03 0.03 0.03 0.02 0.06 0.22 0.14 0.12 0.05 0.00 0.00 0.00 0.00 0.01 0.00 0.01 0.00 0.02 0.11 0.07 0.03 0.17 0.25 0.35 0.16 0.40
0.87 0.92 0.76 0.32 0.15 0.06 0.09 0.12 0.05 0.03 0.01 0.00 0.00 0.00 0.00 0.00 0.00 0.00 0.01 0.02 0.01 0.01 0.03 0.16 0.06 0.04 0.01 0.00 0.00 0.00 0.00 0.00 0.00 0.00 0.01 0.01 0.01 0.00 0.00 0.02 0.12 0.31 0.32 0.26
0.94 0.77 0.47 0.30 0.16 0.06 0.01 0.01 0.01 0.03 0.04 0.00 0.00 0.00 0.00 0.00 0.00 0.00 0.00 0.00 0.00 0.00 0.02 0.02 0.03 0.04 0.01 0.00 0.00 0.00 0.00 0.00 0.01 0.02 0.02 0.01 0.01 0.00 0.00 0.01 0.17 0.23 0.22 0.08
1.33 0.73 0.43 0.26 0.08 0.02 0.00 0.00 0.00 0.00 0.01 0.00 0.00 0.00 0.00 0.00 0.00 0.00 0.00 0.01 0.00 0.00 0.02 0.02 0.03 0.05 0.02 0.00 0.00 0.00 0.00 0.00 0.00 0.00 0.00 0.00 0.00 0.00 0.00 0.00 0.13 0.18 0.11 0.03
1.58 0.90 0.41 0.15 0.05 0.01 0.00 0.00 0.00 0.00 0.00 0.00 0.00 0.00 0.00 0.00 0.00 0.00 0.00 0.00 0.00 0.00 0.02 0.01 0.01 0.06 0.07 0.08 0.01 0.00 0.00 0.00 0.00 0.00 0.00 0.00 0.00 0.00 0.00 0.01 0.09 0.02 0.01 0.02
1.16 0.60 0.28 0.12 0.03 0.00 0.00 0.00 0.00 0.00 0.00 0.00 0.00 0.00 0.00 0.00 0.00 0.00 0.00 0.00 0.00 0.00 0.00 0.00 0.00 0.00 0.02 0.10 0.05 0.00 0.00 0.00 0.04 0.16 0.02 0.01 0.02 0.01 0.01 0.02 0.11 0.02 0.02 0.01
0.92 0.34 0.19 0.08 0.01 0.00 0.00 0.00 0.00 0.00 0.00 0.00 0.00 0.00 0.00 0.00 0.00 0.00 0.00 0.00 0.00 0.00 0.00 0.00 0.00 0.00 0.00 0.00 0.03 0.03 0.00 0.00 0.03 0.20 0.07 0.12 0.08 0.00 0.00 0.02 0.14 0.03 0.00 0.00
0.47 0.20 0.16 0.07 0.00 0.01 0.00 0.00 0.00 0.00 0.00 0.00 0.00 0.00 0.00 0.00 0.00 0.00 0.00 0.00 0.00 0.00 0.00 0.00 0.06 0.04 0.02 0.00 0.00 0.03 0.02 0.02 0.04 0.12 0.27 0.12 0.00 0.00 0.00 0.00 0.02 0.02 0.02 0.00
0.26 0.16 0.12 0.07 0.02 0.00 0.00 0.00 0.00 0.00 0.00 0.00 0.00 0.00 0.00 0.00 0.00 0.00 0.00 0.00 0.00 0.00 0.00 0.00 0.09 0.06 0.02 0.01 0.01 0.01 0.00 0.00 0.01 0.01 0.11 0.07 0.01 0.00 0.00 0.00 0.00 0.00 0.00 0.00
0.26 0.19 0.15 0.10 0.02 0.00 0.00 0.00 0.00 0.00 0.00 0.00 0.00 0.00 0.00 0.00 0.00 0.00 0.00 0.00 0.00 0.00 0.00 0.00 0.00 0.00 0.00 0.00 0.02 0.00 0.01 0.00 0.01 0.02 0.06 0.02 0.00 0.00 0.00 0.01 0.02 0.00 0.00 0.00
0.19 0.16 0.12 0.06 0.01 0.00 0.00 0.00 0.00 0.00 0.00 0.00 0.00 0.00 0.00 0.00 0.00 0.00 0.00 0.00 0.00 0.00 0.00 0.00 0.00 0.00 0.00 0.00 0.00 0.00 0.00 0.01 0.04 0.00 0.01 0.01 0.00 0.00 0.01 0.02 0.00 0.00 0.00 0.00
0.11 0.11 0.06 0.04 0.03 0.00 0.00 0.00 0.00 0.00 0.00 0.00 0.00 0.00 0.00 0.00 0.00 0.00 0.00 0.00 0.00 0.00 0.00 0.00 0.00 0.00 0.00 0.00 0.01 0.00 0.01 0.00 0.00 0.00 0.01 0.00 0.00 0.00 0.00 0.00 0.00 0.00 0.00 0.00
0.18 0.13 0.07 0.03 0.03 0.00 0.00 0.00 0.00 0.00 0.00 0.00 0.00 0.00 0.00 0.00 0.00 0.00 0.00 0.00 0.00 0.00 0.00 0.00 0.00 0.00 0.00 0.00 0.00 0.00 0.00 0.00 0.00 0.00 0.00 0.00 0.00 0.00 0.00 0.01 0.04 0.01 0.00 0.00
0.18 0.16 0.08 0.02 0.02 0.00 0.00 0.00 0.00 0.00 0.00 0.00 0.00 0.00 0.00 0.00 0.00 0.00 0.00 0.00 0.00 0.00 0.00 0.00 0.00 0.00 0.00 0.00 0.00 0.00 0.00 0.00 0.00 0.00 0.00 0.00 0.00 0.00 0.00 0.07 0.06 0.00 0.00 0.00
0.20 0.14 0.09 0.02 0.02 0.00 0.00 0.00 0.00 0.00 0.00 0.00 0.00 0.00 0.00 0.00 0.00 0.00 0.00 0.00 0.00 0.00 0.00 0.00 0.00 0.00 0.00 0.00 0.00 0.01 0.00 0.00 0.00 0.03 0.00 0.00 0.00 0.00 0.05 0.04 0.03 0.02 0.00 0.02
0.16 0.18 0.15 0.05 0.02 0.01 0.00 0.00 0.00 0.00 0.00 0.00 0.00 0.00 0.00 0.00 0.00 0.00 0.00 0.00 0.00 0.00 0.00 0.00 0.00 0.00 0.00 0.01 0.01 0.01 0.00 0.00 0.00 0.00 0.00 0.00 0.00 0.00 0.00 0.03 0.02 0.02 0.01 0.01
0.19 0.21 0.22 0.12 0.03 0.01 0.00 0.00 0.00 0.00 0.00 0.00 0.00 0.00 0.00 0.00 0.00 0.00 0.00 0.00 0.00 0.00 0.00 0.00 0.00 0.00 0.01 0.01 0.01 0.01 0.00 0.00 0.00 0.00 0.00 0.00 0.00 0.00 0.00 0.00 0.00 0.00 0.00 0.00
0.27 0.34 0.31 0.26 0.06 0.00 0.00 0.00 0.00 0.00 0.00 0.00 0.00 0.00 0.00 0.00 0.00 0.00 0.00 0.00 0.00 0.00 0.00 0.00 0.00 0.00 0.01 0.01 0.00 0.00 0.00 0.00 0.00 0.00 0.00 0.00 0.00 0.00 0.00 0.00 0.00 0.00 0.00 0.00
0.35 0.44 0.37 0.28 0.11 0.03 0.00 0.00 0.00 0.00 0.00 0.00 0.00 0.00 0.00 0.00 0.00 0.00 0.00 0.01 0.00 0.00 0.00 0.00 0.01 0.00 0.01 0.00 0.00 0.00 0.00 0.00 0.00 0.00 0.00 0.00 0.00 0.00 0.00 0.00 0.00 0.00 0.00 0.00
0.41 0.33 0.41 0.43 0.12 0.02 0.01 0.01 0.00 0.00 0.00 0.00 0.00 0.00 0.00 0.00 0.00 0.00 0.00 0.01 0.01 0.01 0.00 0.00 0.01 0.01 0.00 0.00 0.00 0.00 0.00 0.00 0.00 0.00 0.00 0.00 0.00 0.00 0.00 0.00 0.00 0.00 0.00 0.00
0.45 0.46 0.36 0.20 0.06 0.13 0.11 0.03 0.00 0.00 0.00 0.00 0.00 0.00 0.00 0.00 0.00 0.00 0.00 0.00 0.01 0.01 0.01 0.01 0.01 0.02 0.00 0.00 0.00 0.00 0.00 0.00 0.00 0.00 0.00 0.00 0.00 0.00 0.00 0.00 0.00 0.00 0.00 0.00
0.27 0.14 0.16 0.21 0.34 0.39 0.25 0.05 0.00 0.00 0.00 0.00 0.00 0.00 0.00 0.00 0.00 0.00 0.00 0.00 0.00 0.00 0.01 0.03 0.01 0.01 0.00 0.00 0.00 0.00 0.00 0.00 0.00 0.00 0.00 0.00 0.00 0.00 0.00 0.00 0.00 0.00 0.00 0.00
0.33 0.46 0.48 0.42 0.44 0.32 0.14 0.03 0.01 0.00 0.00 0.00 0.00 0.00 0.00 0.00 0.00 0.00 0.00 0.00 0.00 0.01 0.02 0.02 0.01 0.00 0.00 0.00 0.00 0.01 0.01 0.01 0.01 0.00 0.00 0.00 0.00 0.00 0.00 0.00 0.00 0.00 0.00 0.00
0.59 0.57 0.53 0.36 0.29 0.06 0.01 0.01 0.01 0.00 0.00 0.00 0.00 0.00 0.00 0.00 0.00 0.00 0.00 0.00 0.00 0.02 0.02 0.01 0.00 0.00 0.00 0.00 0.00 0.00 0.00 0.01 0.01 0.01 0.00 0.00 0.00 0.00 0.00 0.00 0.00 0.00 0.00 0.00
0.63 0.36 0.23 0.12 0.03 0.00 0.00 0.00 0.00 0.00 0.00 0.00 0.00 0.00 0.00 0.00 0.00 0.00 0.00 0.00 0.01 0.00 0.00 0.00 0.00 0.00 0.00 0.00 0.00 0.00 0.00 0.02 0.02 0.02 0.00 0.00 0.00 0.00 0.00 0.00 0.00 0.00 0.00 0.00
0.41 0.19 0.07 0.01 0.00 0.01 0.01 0.01 0.00 0.00 0.00 0.00 0.01 0.02 0.00 0.00 0.00 0.00 0.00 0.00 0.00 0.00 0.00 0.00 0.00 0.00 0.00 0.00 0.00 0.00 0.00 0.01 0.02 0.02 0.00 0.00 0.00 0.00 0.00 0.00 0.00 0.00 0.00 0.00
0.50 0.11 0.00 0.00 0.00 0.00 0.01 0.01 0.00 0.00 0.01 0.02 0.01 0.00 0.00 0.00 0.00 0.00 0.00 0.00 0.00 0.00 0.00 0.00 0.00 0.00 0.00 0.00 0.00 0.00 0.00 0.00 0.02 0.03 0.02 0.02 0.03 0.05 0.06 0.05 0.03 0.02 0.02 0.04

GFSNW_prec_precacc24_123.txt.gz
Total_Precipitation_Accumulation
1.02 1.00 1.03 0.67 0.24 0.07 0.03 0.11 0.11 0.05 0.00 0.00 0.00 0.00 0.00 0.00 0.00 0.01 0.03 0.03 0.01 0.01 0.05 0.19 0.06 0.03 0.01 0.00 0.00 0.00 0.00 0.01 0.00 0.01 0.01 0.03 0.12 0.09 0.03 0.17 0.27 0.37 0.26 0.80
0.87 0.92 0.76 0.32 0.15 0.06 0.09 0.12 0.06 0.03 0.01 0.00 0.00 0.00 0.00 0.00 0.00 0.00 0.01 0.02 0.00 0.00 0.02 0.14 0.02 0.01 0.00 0.00 0.00 0.00 0.00 0.00 0.00 0.00 0.01 0.01 0.03 0.01 0.01 0.03 0.15 0.33 0.42 0.64
0.95 0.77 0.47 0.30 0.16 0.06 0.01 0.01 0.01 0.03 0.04 0.00 0.00 0.00 0.00 0.00 0.00 0.00 0.00 0.00 0.00 0.00 0.01 0.01 0.02 0.01 0.00 0.00 0.00 0.00 0.00 0.00 0.01 0.03 0.04 0.05 0.03 0.01 0.01 0.03 0.21 0.27 0.40 0.26
1.34 0.73 0.43 0.26 0.08 0.02 0.00 0.00 0.00 0.00 0.01 0.00 0.00 0.00 0.00 0.00 0.00 0.00 0.00 0.00 0.00 0.00 0.01 0.02 0.02 0.02 0.01 0.00 0.00 0.00 0.00 0.00 0.00 0.00 0.00 0.02 0.01 0.01 0.00 0.01 0.15 0.25 0.22 0.10
1.59 0.91 0.41 0.15 0.05 0.01 0.00 0.00 0.00 0.00 0.00 0.00 0.00 0.00 0.00 0.00 0.00 0.00 0.00 0.00 0.00 0.00 0.01 0.00 0.01 0.03 0.03 0.02 0.00 0.00 0.00 0.00 0.00 0.00 0.00 0.00 0.00 0.00 0.00 0.01 0.09 0.03 0.01 0.03
1.17 0.61 0.28 0.12 0.03 0.00 0.00 0.00 0.00 0.00 0.00 0.00 0.00 0.00 0.00 0.00 0.00 0.00 0.00 0.00 0.00 0.00 0.00 0.00 0.00 0.00 0.01 0.06 0.01 0.00 0.00 0.00 0.02 0.09 0.00 0.00 0.02 0.01 0.02 0.04 0.11 0.02 0.03 0.02
0.92 0.34 0.20 0.08 0.01 0.00 0.00 0.00 0.00 0.00 0.00 0.00 0.00 0.00 0.00 0.00 0.00 0.00 0.00 0.00 0.00 0.00 0.00 0.00 0.00 0.00 0.00 0.00 0.01 0.00 0.00 0.00 0.02 0.16 0.05 0.09 0.08 0.00 0.00 0.02 0.15 0.03 0.01 0.00
0.47 0.20 0.17 0.08 0.00 0.01 0.00 0.00 0.00 0.00 0.00 0.00 0.00 0.00 0.00 0.00 0.00 0.00 0.00 0.00 0.00 0.00 0.00 0.00 0.05 0.03 0.02 0.00 0.00 0.00 0.00 0.01 0.03 0.10 0.25 0.11 0.00 0.00 0.00 0.00 0.02 0.02 0.02 0.00
0.26 0.16 0.12 0.07 0.02 0.00 0.00 0.00 0.00 0.00 0.00 0.00 0.00 0.00 0.00 0.00 0.00 0.00 0.00 0.00 0.00 0.00 0.00 0.00 0.08 0.05 0.01 0.01 0.01 0.01 0.00 0.00 0.01 0.00 0.11 0.07 0.01 0.00 0.00 0.00 0.00 0.00 0.00 0.00
0.26 0.20 0.15 0.10 0.02 0.00 0.00 0.00 0.00 0.00 0.00 0.00 0.00 0.00 0.00 0.00 0.00 0.00 0.00 0.00 0.00 0.00 0.00 0.00 0.00 0.00 0.00 0.00 0.01 0.00 0.00 0.00 0.00 0.02 0.05 0.02 0.00 0.00 0.00 0.01 0.01 0.00 0.00 0.00
0.19 0.17 0.12 0.06 0.01 0.00 0.00 0.00 0.00 0.00 0.00 0.00 0.00 0.00 0.00 0.00 0.00 0.00 0.00 0.00 0.00 0.00 0.00 0.00 0.00 0.00 0.00 0.00 0.00 0.00 0.00 0.01 0.03 0.00 0.01 0.01 0.00 0.00 0.01 0.02 0.00 0.00 0.00 0.00
0.11 0.12 0.07 0.04 0.03 0.00 0.00 0.00 0.00 0.00 0.00 0.00 0.00 0.00 0.00 0.00 0.00 0.00 0.00 0.00 0.00 0.00 0.00 0.00 0.00 0.00 0.00 0.00 0.01 0.00 0.00 0.00 0.00 0.00 0.01 0.00 0.00 0.00 0.00 0.00 0.00 0.00 0.00 0.00
0.18 0.13 0.09 0.05 0.03 0.01 0.00 0.00 0.00 0.00 0.00 0.00 0.00 0.00 0.00 0.00 0.00 0.00 0.00 0.00 0.00 0.00 0.00 0.00 0.00 0.00 0.00 0.00 0.00 0.00 0.00 0.00 0.00 0.00 0.00 0.00 0.00 0.00 0.00 0.01 0.04 0.01 0.00 0.00
0.18 0.16 0.08 0.03 0.02 0.01 0.00 0.00 0.00 0.00 0.00 0.00 0.00 0.00 0.00 0.00 0.00 0.00 0.00 0.00 0.00 0.00 0.00 0.00 0.00 0.00 0.00 0.00 0.00 0.00 0.00 0.00 0.00 0.00 0.00 0.00 0.00 0.00 0.00 0.06 0.06 0.00 0.00 0.00
0.20 0.14 0.09 0.03 0.03 0.01 0.00 0.00 0.00 0.00 0.00 0.00 0.00 0.00 0.00 0.00 0.00 0.00 0.00 0.00 0.00 0.00 0.00 0.00 0.00 0.00 0.00 0.00 0.00 0.01 0.00 0.00 0.00 0.03 0.00 0.00 0.00 0.00 0.04 0.04 0.02 0.02 0.00 0.02
0.16 0.18 0.15 0.05 0.03 0.01 0.00 0.00 0.00 0.00 0.00 0.00 0.00 0.00 0.00 0.00 0.00 0.00 0.00 0.00 0.00 0.00 0.00 0.00 0.00 0.00 0.00 0.00 0.00 0.01 0.00 0.00 0.00 0.00 0.00 0.00 0.00 0.00 0.00 0.03 0.02 0.02 0.01 0.01
0.19 0.22 0.25 0.14 0.04 0.01 0.00 0.00 0.00 0.00 0.00 0.00 0.00 0.00 0.00 0.00 0.00 0.00 0.00 0.00 0.00 0.00 0.00 0.00 0.00 0.00 0.00 0.00 0.01 0.01 0.00 0.00 0.00 0.00 0.00 0.00 0.00 0.00 0.00 0.00 0.00 0.00 0.00 0.00
0.27 0.34 0.35 0.33 0.08 0.00 0.00 0.00 0.00 0.00 0.00 0.00 0.00 0.00 0.00 0.00 0.00 0.00 0.00 0.00 0.00 0.00 0.00 0.00 0.00 0.00 0.00 0.00 0.00 0.00 0.00 0.00 0.00 0.00 0.00 0.00 0.00 0.00 0.00 0.00 0.00 0.00 0.00 0.00
0.35 0.45 0.42 0.34 0.14 0.03 0.00 0.00 0.00 0.00 0.00 0.00 0.00 0.00 0.00 0.00 0.00 0.00 0.00 0.00 0.00 0.00 0.00 0.00 0.00 0.00 0.00 0.00 0.00 0.00 0.00 0.00 0.00 0.00 0.00 0.00 0.00 0.00 0.00 0.00 0.00 0.00 0.00 0.00
0.44 0.33 0.41 0.45 0.15 0.02 0.01 0.03 0.00 0.00 0.00 0.00 0.00 0.00 0.00 0.00 0.00 0.00 0.00 0.00 0.00 0.00 0.00 0.00 0.00 0.00 0.00 0.00 0.00 0.00 0.00 0.00 0.00 0.00 0.00 0.00 0.00 0.00 0.00 0.00 0.00 0.00 0.00 0.00
0.47 0.47 0.37 0.21 0.07 0.14 0.14 0.08 0.02 0.00 0.00 0.00 0.00 0.00 0.00 0.00 0.00 0.00 0.00 0.00 0.00 0.00 0.01 0.00 0.00 0.01 0.00 0.00 0.00 0.00 0.00 0.00 0.00 0.00 0.00 0.00 0.00 0.00 0.00 0.00 0.00 0.00 0.00 0.00
0.29 0.16 0.17 0.22 0.38 0.43 0.30 0.09 0.00 0.00 0.00 0.00 0.00 0.00 0.00 0.00 0.00 0.00 0.00 0.00 0.00 0.00 0.01 0.01 0.00 0.00 0.00 0.00 0.00 0.00 0.00 0.00 0.00 0.00 0.00 0.00 0.00 0.00 0.00 0.00 0.00 0.00 0.00 0.00
0.35 0.52 0.53 0.45 0.47 0.37 0.17 0.04 0.01 0.00 0.00 0.00 0.00 0.00 0.00 0.00 0.00 0.00 0.00 0.00 0.00 0.00 0.01 0.00 0.00 0.00 0.00 0.00 0.00 0.00 0.00 0.00 0.00 0.00 0.00 0.00 0.00 0.00 0.00 0.00 0.00 0.00 0.00 0.00
0.65 0.68 0.63 0.40 0.31 0.06 0.01 0.00 0.01 0.00 0.00 0.00 0.00 0.00 0.00 0.01 0.02 0.01 0.00 0.00 0.00 0.01 0.00 0.00 0.00 0.00 0.00 0.00 0.00 0.00 0.00 0.00 0.00 0.00 0.00 0.00 0.00 0.00 0.00 0.00 0.00 0.00 0.00 0.00
0.72 0.45 0.26 0.14 0.02 0.00 0.00 0.00 0.00 0.00 0.00 0.00 0.00 0.01 0.01 0.02 0.03 0.01 0.01 0.00 0.00 0.00 0.00 0.00 0.00 0.00 0.00 0.00 0.00 0.00 0.00 0.00 0.00 0.00 0.00 0.00 0.00 0.00 0.00 0.00 0.00 0.00 0.00 0.00
0.50 0.26 0.08 0.01 0.00 0.00 0.01 0.01 0.00 0.00 0.00 0.00 0.02 0.03 0.02 0.01 0.01 0.00 0.00 0.00 0.00 0.00 0.00 0.00 0.00 0.00 0.00 0.00 0.00 0.00 0.00 0.00 0.00 0.00 0.00 0.00 0.00 0.00 0.00 0.00 0.00 0.00 0.00 0.00
0.68 0.16 0.00 0.00 0.00 0.00 0.00 0.01 0.00 0.00 0.01 0.02 0.02 0.01 0.00 0.00 0.00 0.00 0.00 0.00 0.00 0.00 0.00 0.00 0.00 0.00 0.00 0.00 0.00 0.00 0.00 0.00 0.00 0.00 0.00 0.00 0.00 0.00 0.00 0.01 0.02 0.02 0.02 0.04

GFSNW_prec_precacc24_126.txt.gz
Total_Precipitation_Accumulation
1.03 1.01 1.04 0.67 0.24 0.07 0.03 0.11 0.11 0.05 0.00 0.00 0.00 0.00 0.00 0.00 0.00 0.00 0.02 0.02 0.01 0.01 0.05 0.12 0.01 0.00 0.00 0.00 0.00 0.00 0.00 0.00 0.00 0.01 0.01 0.04 0.19 0.14 0.02 0.13 0.28 0.40 0.29 1.08
0.88 0.93 0.79 0.36 0.16 0.06 0.09 0.12 0.06 0.03 0.01 0.00 0.00 0.00 0.00 0.00 0.00 0.00 0.01 0.01 0.00 0.00 0.02 0.06 0.00 0.00 0.00 0.00 0.00 0.00 0.00 0.00 0.00 0.00 0.01 0.01 0.08 0.10 0.02 0.04 0.16 0.35 0.47 1.05
0.95 0.77 0.47 0.31 0.16 0.06 0.01 0.01 0.01 0.03 0.04 0.00 0.00 0.00 0.00 0.00 0.00 0.00 0.00 0.00 0.00 0.00 0.01 0.00 0.00 0.00 0.00 0.00 0.00 0.00 0.00 0.00 0.01 0.03 0.07 0.10 0.05 0.04 0.07 0.04 0.25 0.28 0.59 0.48
1.34 0.73 0.43 0.26 0.08 0.02 0.00 0.00 0.00 0.00 0.01 0.00 0.00 0.00 0.00 0.00 0.00 0.00 0.00 0.00 0.00 0.00 0.01 0.01 0.01 0.01 0.00 0.00 0.00 0.00 0.00 0.00 0.00 0.00 0.00 0.02 0.01 0.01 0.02 0.04 0.16 0.30 0.36 0.25
1.59 0.91 0.41 0.15 0.05 0.01 0.00 0.00 0.00 0.00 0.00 0.00 0.00 0.00 0.00 0.00 0.00 0.00 0.00 0.00 0.00 0.00 0.00 0.00 0.00 0.01 0.01 0.00 0.00 0.00 0.00 0.00 0.00 0.00 0.00 0.00 0.00 0.00 0.00 0.01 0.09 0.08 0.05 0.11
1.17 0.61 0.28 0.12 0.03 0.00 0.00 0.00 0.00 0.00 0.00 0.00 0.00 0.00 0.00 0.00 0.00 0.00 0.00 0.00 0.00 0.00 0.00 0.00 0.00 0.00 0.00 0.01 0.00 0.00 0.00 0.00 0.00 0.03 0.00 0.00 0.02 0.01 0.02 0.04 0.11 0.02 0.04 0.03
0.93 0.34 0.20 0.08 0.01 0.00 0.00 0.00 0.00 0.00 0.00 0.00 0.00 0.00 0.00 0.00 0.00 0.00 0.00 0.00 0.00 0.00 0.00 0.00 0.00 0.00 0.00 0.00 0.00 0.00 0.00 0.00 0.01 0.06 0.03 0.06 0.08 0.00 0.00 0.02 0.15 0.03 0.01 0.00
0.47 0.20 0.17 0.08 0.00 0.01 0.00 0.00 0.00 0.00 0.00 0.00 0.00 0.00 0.00 0.00 0.00 0.00 0.00 0.00 0.00 0.00 0.00 0.00 0.04 0.03 0.01 0.00 0.00 0.00 0.00 0.00 0.01 0.06 0.13 0.07 0.00 0.00 0.00 0.00 0.02 0.02 0.02 0.00
0.27 0.16 0.12 0.07 0.02 0.00 0.00 0.00 0.00 0.00 0.00 0.00 0.00 0.00 0.00 0.00 0.00 0.00 0.00 0.00 0.00 0.00 0.00 0.00 0.07 0.03 0.00 0.00 0.01 0.01 0.00 0.00 0.00 0.00 0.08 0.05 0.01 0.00 0.00 0.00 0.00 0.00 0.00 0.00
0.27 0.20 0.15 0.10 0.02 0.00 0.00 0.00 0.00 0.00 0.00 0.00 0.00 0.00 0.00 0.00 0.00 0.00 0.00 0.00 0.00 0.00 0.00 0.00 0.00 0.00 0.00 0.00 0.00 0.00 0.00 0.00 0.00 0.00 0.04 0.01 0.00 0.00 0.00 0.00 0.01 0.00 0.00 0.00
0.19 0.17 0.12 0.06 0.01 0.00 0.00 0.00 0.00 0.00 0.00 0.00 0.00 0.00 0.00 0.00 0.00 0.00 0.00 0.00 0.00 0.00 0.00 0.00 0.00 0.00 0.00 0.00 0.00 0.00 0.00 0.00 0.02 0.00 0.00 0.00 0.00 0.00 0.01 0.01 0.00 0.00 0.00 0.00
0.11 0.12 0.08 0.04 0.03 0.00 0.00 0.00 0.00 0.00 0.00 0.00 0.00 0.00 0.00 0.00 0.00 0.00 0.00 0.00 0.00 0.00 0.00 0.00 0.00 0.00 0.00 0.00 0.00 0.00 0.00 0.00 0.00 0.00 0.00 0.00 0.00 0.00 0.00 0.00 0.00 0.00 0.00 0.00
0.18 0.13 0.09 0.06 0.04 0.01 0.00 0.00 0.00 0.00 0.00 0.00 0.00 0.00 0.00 0.00 0.00 0.00 0.00 0.00 0.00 0.00 0.00 0.00 0.00 0.00 0.00 0.00 0.00 0.00 0.00 0.00 0.00 0.00 0.00 0.00 0.00 0.00 0.00 0.01 0.04 0.01 0.00 0.00
0.18 0.16 0.08 0.03 0.03 0.01 0.00 0.00 0.00 0.00 0.00 0.00 0.00 0.00 0.00 0.00 0.00 0.00 0.00 0.00 0.00 0.00 0.00 0.00 0.00 0.00 0.00 0.00 0.00 0.00 0.00 0.00 0.00 0.00 0.00 0.00 0.00 0.00 0.00 0.05 0.05 0.00 0.00 0.00
0.20 0.14 0.10 0.03 0.03 0.01 0.00 0.00 0.00 0.00 0.00 0.00 0.00 0.00 0.00 0.00 0.00 0.00 0.00 0.00 0.00 0.00 0.00 0.00 0.00 0.00 0.00 0.00 0.00 0.00 0.00 0.00 0.00 0.00 0.00 0.00 0.00 0.00 0.00 0.01 0.02 0.02 0.00 0.02
0.15 0.18 0.15 0.05 0.03 0.01 0.00 0.00 0.00 0.00 0.00 0.00 0.00 0.00 0.00 0.00 0.00 0.00 0.00 0.00 0.00 0.00 0.00 0.00 0.00 0.00 0.00 0.00 0.00 0.01 0.00 0.00 0.00 0.00 0.00 0.00 0.00 0.00 0.00 0.02 0.02 0.02 0.01 0.01
0.19 0.21 0.26 0.16 0.04 0.01 0.00 0.00 0.00 0.00 0.00 0.00 0.00 0.00 0.00 0.00 0.00 0.00 0.00 0.00 0.00 0.00 0.00 0.00 0.00 0.00 0.00 0.00 0.00 0.00 0.00 0.00 0.00 0.00 0.00 0.00 0.00 0.00 0.00 0.00 0.00 0.00 0.00 0.00
0.26 0.34 0.36 0.37 0.11 0.01 0.00 0.00 0.00 0.00 0.00 0.00 0.00 0.00 0.00 0.00 0.00 0.00 0.00 0.00 0.00 0.00 0.00 0.00 0.00 0.00 0.00 0.00 0.00 0.00 0.00 0.00 0.00 0.00 0.00 0.00 0.00 0.00 0.00 0.00 0.00 0.00 0.00 0.00
0.35 0.45 0.43 0.38 0.16 0.04 0.00 0.00 0.00 0.00 0.00 0.00 0.00 0.00 0.00 0.00 0.00 0.00 0.00 0.00 0.00 0.00 0.00 0.00 0.00 0.00 0.00 0.00 0.00 0.00 0.00 0.00 0.00 0.00 0.00 0.00 0.00 0.00 0.00 0.00 0.00 0.00 0.00 0.00
0.45 0.34 0.42 0.47 0.16 0.03 0.01 0.03 0.00 0.00 0.00 0.00 0.00 0.00 0.00 0.00 0.00 0.00 0.00 0.00 0.00 0.00 0.00 0.00 0.00 0.00 0.00 0.00 0.00 0.00 0.00 0.00 0.00 0.00 0.00 0.00 0.00 0.00 0.00 0.00 0.00 0.00 0.00 0.00
0.48 0.47 0.37 0.21 0.08 0.14 0.14 0.09 0.03 0.00 0.00 0.00 0.00 0.00 0.00 0.00 0.00 0.00 0.00 0.00 0.00 0.00 0.00 0.00 0.00 0.00 0.00 0.00 0.00 0.00 0.00 0.00 0.00 0.00 0.00 0.00 0.00 0.00 0.00 0.00 0.00 0.00 0.00 0.00
0.29 0.16 0.18 0.22 0.38 0.44 0.31 0.11 0.01 0.00 0.00 0.00 0.00 0.00 0.00 0.00 0.00 0.01 0.01 0.00 0.00 0.00 0.00 0.00 0.00 0.00 0.00 0.00 0.00 0.00 0.00 0.00 0.00 0.00 0.00 0.00 0.00 0.00 0.00 0.00 0.00 0.00 0.00 0.00
0.35 0.54 0.56 0.47 0.47 0.38 0.20 0.05 0.01 0.00 0.00 0.00 0.00 0.00 0.00 0.00 0.01 0.02 0.02 0.02 0.00 0.00 0.00 0.00 0.00 0.00 0.00 0.00 0.00 0.00 0.00 0.00 0.00 0.00 0.00 0.00 0.00 0.00 0.00 0.00 0.00 0.00 0.00 0.00
0.67 0.71 0.69 0.43 0.32 0.07 0.01 0.00 0.01 0.00 0.00 0.00 0.00 0.00 0.00 0.01 0.02 0.04 0.03 0.01 0.00 0.00 0.00 0.00 0.00 0.00 0.00 0.00 0.00 0.00 0.00 0.00 0.00 0.00 0.00 0.00 0.00 0.00 0.00 0.00 0.00 0.00 0.00 0.00
0.79 0.47 0.27 0.14 0.02 0.00 0.00 0.00 0.00 0.00 0.00 0.00 0.00 0.01 0.01 0.02 0.03 0.03 0.01 0.00 0.01 0.00 0.00 0.00 0.00 0.00 0.00 0.00 0.00 0.00 0.00 0.00 0.00 0.00 0.00 0.00 0.00 0.00 0.00 0.00 0.00 0.00 0.00 0.00
0.58 0.30 0.08 0.02 0.00 0.00 0.00 0.01 0.00 0.00 0.00 0.00 0.02 0.03 0.02 0.01 0.02 0.00 0.00 0.00 0.00 0.00 0.00 0.00 0.00 0.00 0.00 0.00 0.00 0.00 0.00 0.00 0.00 0.00 0.00 0.00 0.00 0.00 0.00 0.00 0.00 0.00 0.00 0.00
0.82 0.20 0.00 0.00 0.00 0.00 0.00 0.01 0.00 0.00 0.01 0.02 0.02 0.01 0.00 0.00 0.00 0.00 0.00 0.00 0.00 0.00 0.00 0.00 0.00 0.00 0.00 0.00 0.00 0.00 0.00 0.00 0.00 0.00 0.00 0.00 0.00 0.00 0.00 0.00 0.00 0.01 0.02 0.04

GFSNW_prec_precacc24_129.txt.gz
Total_Precipitation_Accumulation
0.98 1.01 1.04 0.68 0.24 0.07 0.03 0.11 0.11 0.05 0.00 0.00 0.00 0.00 0.00 0.00 0.00 0.00 0.01 0.02 0.00 0.00 0.03 0.02 0.00 0.00 0.00 0.00 0.00 0.00 0.00 0.00 0.00 0.01 0.01 0.10 0.34 0.22 0.06 0.17 0.18 0.13 0.30 1.39
0.79 0.93 0.80 0.36 0.16 0.06 0.09 0.12 0.06 0.03 0.01 0.00 0.00 0.00 0.00 0.00 0.00 0.00 0.01 0.01 0.00 0.00 0.01 0.03 0.00 0.00 0.00 0.00 0.00 0.00 0.00 0.00 0.00 0.00 0.01 0.01 0.14 0.16 0.04 0.06 0.14 0.28 0.57 1.50
0.82 0.77 0.47 0.31 0.16 0.06 0.01 0.01 0.01 0.03 0.04 0.00 0.00 0.00 0.00 0.00 0.00 0.00 0.00 0.00 0.00 0.00 0.00 0.00 0.00 0.00 0.00 0.00 0.00 0.00 0.00 0.00 0.00 0.03 0.08 0.12 0.05 0.07 0.12 0.04 0.25 0.32 0.80 0.74
1.23 0.73 0.43 0.26 0.08 0.02 0.00 0.00 0.00 0.00 0.01 0.00 0.00 0.00 0.00 0.00 0.00 0.00 0.00 0.00 0.00 0.00 0.01 0.01 0.01 0.00 0.00 0.00 0.00 0.00 0.00 0.00 0.00 0.00 0.00 0.02 0.01 0.02 0.03 0.07 0.15 0.38 0.49 0.43
1.55 0.91 0.41 0.15 0.05 0.01 0.00 0.00 0.00 0.00 0.00 0.00 0.00 0.00 0.00 0.00 0.00 0.00 0.00 0.00 0.00 0.00 0.00 0.00 0.00 0.00 0.00 0.00 0.00 0.00 0.00 0.00 0.00 0.00 0.00 0.00 0.00 0.00 0.00 0.01 0.04 0.13 0.08 0.26
1.16 0.61 0.28 0.12 0.03 0.00 0.00 0.00 0.00 0.00 0.00 0.00 0.00 0.00 0.00 0.00 0.00 0.00 0.00 0.00 0.00 0.00 0.00 0.00 0.00 0.00 0.00 0.00 0.00 0.00 0.00 0.00 0.00 0.00 0.00 0.00 0.02 0.01 0.02 0.03 0.06 0.03 0.06 0.05
0.92 0.34 0.20 0.08 0.01 0.00 0.00 0.00 0.00 0.00 0.00 0.00 0.00 0.00 0.00 0.00 0.00 0.00 0.00 0.00 0.00 0.00 0.00 0.00 0.00 0.00 0.00 0.00 0.00 0.00 0.00 0.00 0.00 0.03 0.02 0.04 0.07 0.00 0.00 0.02 0.11 0.02 0.01 0.00
0.47 0.20 0.17 0.08 0.00 0.01 0.00 0.00 0.00 0.00 0.00 0.00 0.00 0.00 0.00 0.00 0.00 0.00 0.00 0.00 0.00 0.00 0.00 0.00 0.02 0.00 0.00 0.00 0.00 0.00 0.00 0.00 0.00 0.02 0.03 0.04 0.00 0.00 0.00 0.00 0.02 0.02 0.02 0.00
0.27 0.16 0.12 0.07 0.02 0.00 0.00 0.00 0.00 0.00 0.00 0.00 0.00 0.00 0.00 0.00 0.00 0.00 0.00 0.00 0.00 0.00 0.00 0.00 0.04 0.01 0.00 0.00 0.00 0.01 0.00 0.00 0.00 0.00 0.03 0.02 0.00 0.00 0.00 0.00 0.00 0.00 0.00 0.00
0.27 0.19 0.15 0.10 0.02 0.00 0.00 0.00 0.00 0.00 0.00 0.00 0.00 0.00 0.00 0.00 0.00 0.00 0.00 0.00 0.00 0.00 0.00 0.00 0.00 0.00 0.00 0.00 0.00 0.00 0.00 0.00 0.00 0.00 0.01 0.00 0.00 0.00 0.00 0.00 0.00 0.00 0.00 0.00
0.19 0.17 0.12 0.06 0.01 0.00 0.00 0.00 0.00 0.00 0.00 0.00 0.00 0.00 0.00 0.00 0.00 0.00 0.00 0.00 0.00 0.00 0.00 0.00 0.00 0.00 0.00 0.00 0.00 0.00 0.00 0.00 0.00 0.00 0.00 0.00 0.00 0.00 0.00 0.00 0.00 0.00 0.00 0.00
0.11 0.12 0.08 0.04 0.03 0.00 0.00 0.00 0.00 0.00 0.00 0.00 0.00 0.00 0.00 0.00 0.00 0.00 0.00 0.00 0.00 0.00 0.00 0.00 0.00 0.00 0.00 0.00 0.00 0.00 0.00 0.00 0.00 0.00 0.00 0.00 0.00 0.00 0.00 0.00 0.00 0.00 0.00 0.00
0.18 0.13 0.09 0.06 0.04 0.01 0.00 0.00 0.00 0.00 0.00 0.00 0.00 0.00 0.00 0.00 0.00 0.00 0.00 0.00 0.00 0.00 0.00 0.00 0.00 0.00 0.00 0.00 0.00 0.00 0.00 0.00 0.00 0.00 0.00 0.00 0.00 0.00 0.00 0.01 0.03 0.01 0.00 0.00
0.17 0.16 0.08 0.03 0.03 0.01 0.00 0.00 0.00 0.00 0.00 0.00 0.00 0.00 0.00 0.00 0.00 0.00 0.00 0.00 0.00 0.00 0.00 0.00 0.00 0.00 0.00 0.00 0.00 0.00 0.00 0.00 0.00 0.00 0.00 0.00 0.00 0.00 0.00 0.04 0.04 0.00 0.00 0.00
0.20 0.14 0.10 0.03 0.03 0.02 0.00 0.00 0.00 0.00 0.00 0.00 0.00 0.00 0.00 0.00 0.00 0.00 0.00 0.00 0.00 0.00 0.00 0.00 0.00 0.00 0.00 0.00 0.00 0.00 0.00 0.00 0.00 0.00 0.00 0.00 0.00 0.00 0.00 0.00 0.00 0.01 0.00 0.01
0.14 0.17 0.15 0.05 0.03 0.02 0.00 0.00 0.00 0.00 0.00 0.00 0.00 0.00 0.00 0.00 0.00 0.00 0.00 0.00 0.00 0.00 0.00 0.00 0.00 0.00 0.00 0.00 0.00 0.00 0.00 0.00 0.00 0.00 0.00 0.00 0.00 0.00 0.00 0.00 0.01 0.02 0.01 0.01
0.16 0.20 0.26 0.16 0.05 0.01 0.00 0.00 0.00 0.00 0.00 0.00 0.00 0.00 0.00 0.00 0.00 0.00 0.00 0.00 0.00 0.00 0.00 0.00 0.00 0.00 0.00 0.00 0.00 0.00 0.00 0.00 0.00 0.00 0.00 0.00 0.00 0.00 0.00 0.00 0.00 0.00 0.00 0.00
0.21 0.31 0.36 0.39 0.13 0.01 0.00 0.00 0.00 0.00 0.00 0.00 0.00 0.00 0.00 0.00 0.00 0.00 0.00 0.00 0.00 0.00 0.00 0.00 0.00 0.00 0.00 0.00 0.00 0.00 0.00 0.00 0.00 0.00 0.00 0.00 0.00 0.00 0.00 0.00 0.00 0.00 0.00 0.00
0.31 0.44 0.43 0.38 0.17 0.04 0.00 0.00 0.00 0.00 0.00 0.00 0.00 0.00 0.00 0.00 0.00 0.00 0.00 0.00 0.00 0.00 0.00 0.00 0.00 0.00 0.00 0.00 0.00 0.00 0.00 0.00 0.00 0.00 0.00 0.00 0.00 0.00 0.00 0.00 0.00 0.00 0.00 0.00
0.44 0.34 0.42 0.47 0.16 0.03 0.01 0.03 0.00 0.00 0.00 0.00 0.00 0.00 0.00 0.00 0.00 0.00 0.00 0.00 0.00 0.00 0.00 0.00 0.00 0.00 0.00 0.00 0.00 0.00 0.00 0.00 0.00 0.00 0.00 0.00 0.00 0.00 0.00 0.00 0.00 0.00 0.00 0.00
0.48 0.47 0.37 0.21 0.08 0.14 0.14 0.09 0.04 0.01 0.00 0.00 0.00 0.00 0.00 0.00 0.00 0.00 0.00 0.00 0.00 0.00 0.00 0.00 0.00 0.00 0.00 0.00 0.00 0.00 0.00 0.00 0.00 0.00 0.00 0.00 0.00 0.00 0.00 0.00 0.00 0.00 0.00 0.00
0.29 0.16 0.18 0.22 0.38 0.44 0.32 0.13 0.02 0.00 0.00 0.00 0.00 0.00 0.00 0.00 0.00 0.01 0.01 0.01 0.01 0.00 0.00 0.00 0.00 0.00 0.00 0.00 0.00 0.00 0.00 0.00 0.00 0.00 0.00 0.00 0.00 0.00 0.00 0.00 0.00 0.00 0.00 0.00
0.34 0.53 0.55 0.47 0.48 0.39 0.22 0.06 0.01 0.00 0.00 0.00 0.00 0.00 0.00 0.00 0.01 0.02 0.02 0.02 0.01 0.00 0.00 0.00 0.00 0.00 0.00 0.00 0.00 0.00 0.00 0.00 0.00 0.00 0.00 0.00 0.00 0.00 0.00 0.00 0.00 0.00 0.00 0.00
0.67 0.72 0.70 0.44 0.33 0.07 0.01 0.00 0.00 0.00 0.00 0.00 0.00 0.00 0.00 0.01 0.02 0.04 0.03 0.01 0.00 0.00 0.00 0.00 0.00 0.00 0.00 0.00 0.00 0.00 0.00 0.00 0.00 0.00 0.00 0.00 0.00 0.00 0.00 0.00 0.00 0.00 0.00 0.00
0.81 0.48 0.27 0.14 0.02 0.00 0.00 0.00 0.00 0.00 0.00 0.00 0.00 0.01 0.01 0.02 0.03 0.03 0.01 0.00 0.01 0.00 0.00 0.00 0.00 0.00 0.00 0.00 0.00 0.00 0.00 0.00 0.00 0.00 0.00 0.00 0.00 0.00 0.00 0.00 0.00 0.00 0.00 0.00
0.60 0.31 0.08 0.02 0.00 0.00 0.00 0.00 0.00 0.00 0.00 0.00 0.02 0.03 0.02 0.01 0.02 0.00 0.00 0.00 0.00 0.00 0.00 0.00 0.00 0.00 0.00 0.00 0.00 0.00 0.00 0.00 0.00 0.00 0.00 0.00 0.00 0.00 0.00 0.00 0.00 0.00 0.00 0.00
0.88 0.22 0.00 0.00 0.00 0.00 0.00 0.01 0.00 0.00 0.01 0.02 0.02 0.01 0.00 0.00 0.00 0.00 0.00 0.00 0.00 0.00 0.00 0.00 0.00 0.00 0.00 0.00 0.00 0.00 0.00 0.00 0.00 0.00 0.00 0.00 0.00 0.00 0.00 0.00 0.00 0.00 0.01 0.02

GFSNW_prec_precacc24_132.txt.gz
Total_Precipitation_Accumulation
0.63 0.76 1.01 0.68 0.24 0.07 0.03 0.11 0.11 0.05 0.00 0.00 0.00 0.00 0.00 0.00 0.00 0.00 0.01 0.01 0.00 0.00 0.00 0.00 0.00 0.00 0.00 0.00 0.00 0.00 0.00 0.00 0.00 0.01 0.01 0.10 0.38 0.29 0.10 0.24 0.24 0.14 0.32 1.48
0.48 0.67 0.78 0.36 0.16 0.06 0.09 0.12 0.06 0.03 0.01 0.00 0.00 0.00 0.00 0.00 0.00 0.00 0.01 0.00 0.00 0.00 0.01 0.00 0.00 0.00 0.00 0.00 0.00 0.00 0.00 0.00 0.00 0.00 0.01 0.01 0.16 0.26 0.10 0.08 0.16 0.13 0.49 1.70
0.45 0.52 0.46 0.31 0.16 0.06 0.01 0.01 0.01 0.03 0.04 0.00 0.00 0.00 0.00 0.00 0.00 0.00 0.00 0.00 0.00 0.00 0.00 0.00 0.00 0.00 0.00 0.00 0.00 0.00 0.00 0.00 0.00 0.03 0.09 0.12 0.05 0.10 0.17 0.05 0.20 0.26 0.85 0.94
0.84 0.58 0.43 0.26 0.08 0.02 0.00 0.00 0.00 0.00 0.01 0.00 0.00 0.00 0.00 0.00 0.00 0.00 0.00 0.00 0.00 0.00 0.00 0.00 0.00 0.00 0.00 0.00 0.00 0.00 0.00 0.00 0.00 0.00 0.00 0.02 0.01 0.02 0.04 0.12 0.17 0.49 0.62 0.57
1.15 0.83 0.41 0.15 0.05 0.01 0.00 0.00 0.00 0.00 0.00 0.00 0.00 0.00 0.00 0.00 0.00 0.00 0.00 0.00 0.00 0.00 0.00 0.00 0.00 0.00 0.00 0.00 0.00 0.00 0.00 0.00 0.00 0.00 0.00 0.00 0.00 0.00 0.00 0.02 0.06 0.16 0.11 0.38
0.85 0.58 0.28 0.12 0.03 0.00 0.00 0.00 0.00 0.00 0.00 0.00 0.00 0.00 0.00 0.00 0.00 0.00 0.00 0.00 0.00 0.00 0.00 0.00 0.00 0.00 0.00 0.00 0.00 0.00 0.00 0.00 0.00 0.00 0.00 0.00 0.01 0.01 0.02 0.03 0.02 0.05 0.07 0.13
0.72 0.32 0.20 0.08 0.01 0.00 0.00 0.00 0.00 0.00 0.00 0.00 0.00 0.00 0.00 0.00 0.00 0.00 0.00 0.00 0.00 0.00 0.00 0.00 0.00 0.00 0.00 0.00 0.00 0.00 0.00 0.00 0.00 0.02 0.01 0.02 0.05 0.00 0.00 0.01 0.02 0.01 0.01 0.00
0.32 0.19 0.17 0.07 0.00 0.01 0.00 0.00 0.00 0.00 0.00 0.00 0.00 0.00 0.00 0.00 0.00 0.00 0.00 0.00 0.00 0.00 0.00 0.00 0.00 0.00 0.00 0.00 0.00 0.00 0.00 0.00 0.00 0.00 0.01 0.02 0.00 0.00 0.00 0.00 0.01 0.00 0.00 0.00
0.21 0.16 0.12 0.07 0.02 0.00 0.00 0.00 0.00 0.00 0.00 0.00 0.00 0.00 0.00 0.00 0.00 0.00 0.00 0.00 0.00 0.00 0.00 0.00 0.01 0.00 0.00 0.00 0.00 0.00 0.00 0.00 0.00 0.00 0.00 0.00 0.00 0.00 0.00 0.00 0.00 0.00 0.00 0.00
0.23 0.17 0.15 0.10 0.02 0.00 0.00 0.00 0.00 0.00 0.00 0.00 0.00 0.00 0.00 0.00 0.00 0.00 0.00 0.00 0.00 0.00 0.00 0.00 0.00 0.00 0.00 0.00 0.00 0.00 0.00 0.00 0.00 0.00 0.00 0.00 0.00 0.00 0.00 0.00 0.00 0.00 0.00 0.00
0.13 0.15 0.12 0.06 0.01 0.00 0.00 0.00 0.00 0.00 0.00 0.00 0.00 0.00 0.00 0.00 0.00 0.00 0.00 0.00 0.00 0.00 0.00 0.00 0.00 0.00 0.00 0.00 0.00 0.00 0.00 0.00 0.00 0.00 0.00 0.00 0.00 0.00 0.00 0.00 0.00 0.00 0.00 0.00
0.09 0.10 0.08 0.04 0.02 0.00 0.00 0.00 0.00 0.00 0.00 0.00 0.00 0.00 0.00 0.00 0.00 0.00 0.00 0.00 0.00 0.00 0.00 0.00 0.00 0.00 0.00 0.00 0.00 0.00 0.00 0.00 0.00 0.00 0.00 0.00 0.00 0.00 0.00 0.00 0.00 0.00 0.00 0.00
0.14 0.10 0.09 0.06 0.04 0.01 0.00 0.00 0.00 0.00 0.00 0.00 0.00 0.00 0.00 0.00 0.00 0.00 0.00 0.00 0.00 0.00 0.00 0.00 0.00 0.00 0.00 0.00 0.00 0.00 0.00 0.00 0.00 0.00 0.00 0.00 0.00 0.00 0.00 0.00 0.02 0.00 0.00 0.00
0.09 0.13 0.08 0.03 0.03 0.02 0.00 0.00 0.00 0.00 0.00 0.00 0.00 0.00 0.00 0.00 0.00 0.00 0.00 0.00 0.00 0.00 0.00 0.00 0.00 0.00 0.00 0.00 0.00 0.00 0.00 0.00 0.00 0.00 0.00 0.00 0.00 0.00 0.00 0.00 0.02 0.00 0.00 0.00
0.16 0.13 0.09 0.03 0.03 0.02 0.00 0.00 0.00 0.00 0.00 0.00 0.00 0.00 0.00 0.00 0.00 0.00 0.00 0.00 0.00 0.00 0.00 0.00 0.00 0.00 0.00 0.00 0.00 0.00 0.00 0.00 0.00 0.00 0.00 0.00 0.00 0.00 0.00 0.00 0.00 0.00 0.00 0.00
0.13 0.16 0.15 0.05 0.03 0.02 0.00 0.00 0.00 0.00 0.00 0.00 0.00 0.00 0.00 0.00 0.00 0.00 0.00 0.00 0.00 0.00 0.00 0.00 0.00 0.00 0.00 0.00 0.00 0.00 0.00 0.00 0.00 0.00 0.00 0.00 0.00 0.00 0.00 0.00 0.00 0.00 0.00 0.00
0.14 0.18 0.26 0.16 0.05 0.01 0.00 0.00 0.00 0.00 0.00 0.00 0.00 0.00 0.00 0.00 0.00 0.00 0.00 0.00 0.00 0.00 0.00 0.00 0.00 0.00 0.00 0.00 0.00 0.00 0.00 0.00 0.00 0.00 0.00 0.00 0.00 0.00 0.00 0.00 0.00 0.00 0.00 0.00
0.18 0.30 0.36 0.40 0.13 0.02 0.00 0.00 0.00 0.00 0.00 0.00 0.00 0.00 0.00 0.00 0.00 0.00 0.00 0.00 0.00 0.00 0.00 0.00 0.00 0.00 0.00 0.00 0.00 0.00 0.00 0.00 0.00 0.00 0.00 0.00 0.00 0.00 0.00 0.00 0.00 0.00 0.00 0.00
0.27 0.42 0.43 0.38 0.17 0.04 0.00 0.00 0.00 0.00 0.00 0.00 0.00 0.00 0.00 0.00 0.00 0.00 0.00 0.00 0.00 0.00 0.00 0.00 0.00 0.00 0.00 0.00 0.00 0.00 0.00 0.00 0.00 0.00 0.00 0.00 0.00 0.00 0.00 0.00 0.00 0.00 0.00 0.00
0.38 0.31 0.41 0.46 0.15 0.03 0.01 0.03 0.00 0.00 0.00 0.00 0.00 0.00 0.00 0.00 0.00 0.00 0.00 0.00 0.00 0.00 0.00 0.00 0.00 0.00 0.00 0.00 0.00 0.00 0.00 0.00 0.00 0.00 0.00 0.00 0.00 0.00 0.00 0.00 0.00 0.00 0.00 0.00
0.41 0.45 0.37 0.20 0.07 0.13 0.14 0.09 0.04 0.01 0.01 0.00 0.00 0.00 0.00 0.00 0.00 0.00 0.00 0.00 0.00 0.00 0.00 0.00 0.00 0.00 0.00 0.00 0.00 0.00 0.00 0.00 0.00 0.00 0.00 0.00 0.00 0.00 0.00 0.00 0.00 0.00 0.00 0.00
0.29 0.19 0.19 0.22 0.37 0.45 0.32 0.14 0.02 0.01 0.00 0.00 0.00 0.00 0.00 0.00 0.00 0.01 0.01 0.01 0.01 0.00 0.00 0.00 0.00 0.00 0.00 0.00 0.00 0.00 0.00 0.00 0.00 0.00 0.00 0.00 0.00 0.00 0.00 0.00 0.00 0.00 0.00 0.00
0.46 0.59 0.56 0.47 0.48 0.40 0.23 0.06 0.01 0.00 0.00 0.00 0.00 0.00 0.00 0.00 0.01 0.02 0.02 0.02 0.01 0.00 0.00 0.00 0.00 0.00 0.00 0.00 0.00 0.00 0.00 0.00 0.00 0.00 0.00 0.00 0.00 0.00 0.00 0.00 0.00 0.00 0.00 0.00
0.83 0.78 0.73 0.45 0.33 0.07 0.01 0.00 0.00 0.00 0.00 0.00 0.00 0.00 0.00 0.01 0.02 0.04 0.03 0.01 0.00 0.00 0.00 0.00 0.00 0.00 0.00 0.00 0.00 0.00 0.00 0.00 0.00 0.00 0.00 0.00 0.00 0.00 0.00 0.00 0.00 0.00 0.00 0.00
0.91 0.50 0.27 0.14 0.02 0.00 0.00 0.00 0.00 0.00 0.00 0.00 0.00 0.01 0.01 0.02 0.03 0.03 0.01 0.00 0.01 0.00 0.00 0.00 0.00 0.00 0.00 0.00 0.00 0.00 0.00 0.00 0.00 0.00 0.00 0.00 0.00 0.00 0.00 0.00 0.00 0.00 0.00 0.00
0.68 0.34 0.09 0.02 0.00 0.00 0.00 0.00 0.00 0.00 0.00 0.00 0.02 0.03 0.02 0.01 0.02 0.00 0.00 0.00 0.00 0.00 0.00 0.00 0.00 0.00 0.00 0.00 0.00 0.00 0.00 0.00 0.00 0.00 0.00 0.00 0.00 0.00 0.00 0.00 0.00 0.00 0.00 0.00
0.94 0.24 0.01 0.00 0.00 0.00 0.00 0.00 0.00 0.00 0.01 0.02 0.02 0.01 0.00 0.00 0.00 0.00 0.00 0.00 0.00 0.00 0.00 0.00 0.00 0.00 0.00 0.00 0.00 0.00 0.00 0.00 0.00 0.00 0.00 0.00 0.00 0.00 0.00 0.00 0.00 0.00 0.00 0.00

GFSNW_prec_precacc24_138.txt.gz
Total_Precipitation_Accumulation
0.13 0.04 0.18 0.24 0.01 0.02 0.02 0.09 0.10 0.05 0.00 0.00 0.00 0.00 0.00 0.00 0.00 0.00 0.00 0.00 0.00 0.00 0.00 0.00 0.00 0.00 0.00 0.00 0.00 0.00 0.00 0.00 0.00 0.01 0.01 0.10 0.39 0.36 0.17 0.33 0.31 0.22 0.43 1.58
0.05 0.02 0.10 0.05 0.02 0.02 0.06 0.10 0.06 0.03 0.01 0.00 0.00 0.00 0.00 0.00 0.00 0.00 0.01 0.00 0.00 0.00 0.00 0.00 0.00 0.00 0.00 0.00 0.00 0.00 0.00 0.00 0.00 0.00 0.01 0.01 0.16 0.27 0.17 0.14 0.21 0.20 0.68 1.95
0.03 0.01 0.02 0.03 0.04 0.03 0.01 0.01 0.01 0.03 0.02 0.00 0.00 0.00 0.00 0.00 0.00 0.00 0.00 0.00 0.00 0.00 0.00 0.00 0.00 0.00 0.00 0.00 0.00 0.00 0.00 0.00 0.00 0.03 0.09 0.12 0.05 0.10 0.20 0.11 0.30 0.33 1.03 1.16
0.05 0.05 0.05 0.05 0.03 0.01 0.00 0.00 0.00 0.00 0.00 0.00 0.00 0.00 0.00 0.00 0.00 0.00 0.00 0.00 0.00 0.00 0.00 0.00 0.00 0.00 0.00 0.00 0.00 0.00 0.00 0.00 0.00 0.00 0.00 0.02 0.01 0.02 0.04 0.16 0.25 0.62 0.74 0.68
0.07 0.12 0.11 0.04 0.01 0.00 0.00 0.00 0.00 0.00 0.00 0.00 0.00 0.00 0.00 0.00 0.00 0.00 0.00 0.00 0.00 0.00 0.00 0.00 0.00 0.00 0.00 0.00 0.00 0.00 0.00 0.00 0.00 0.00 0.00 0.00 0.00 0.00 0.00 0.03 0.07 0.19 0.15 0.41
0.08 0.07 0.07 0.06 0.02 0.00 0.00 0.00 0.00 0.00 0.00 0.00 0.00 0.00 0.00 0.00 0.00 0.00 0.00 0.00 0.00 0.00 0.00 0.00 0.00 0.00 0.00 0.00 0.00 0.00 0.00 0.00 0.00 0.00 0.00 0.00 0.00 0.01 0.02 0.03 0.03 0.05 0.08 0.17
0.06 0.03 0.04 0.02 0.00 0.00 0.00 0.00 0.00 0.00 0.00 0.00 0.00 0.00 0.00 0.00 0.00 0.00 0.00 0.00 0.00 0.00 0.00 0.00 0.00 0.00 0.00 0.00 0.00 0.00 0.00 0.00 0.00 0.00 0.00 0.00 0.01 0.00 0.00 0.01 0.01 0.00 0.01 0.01
0.02 0.02 0.03 0.02 0.00 0.01 0.00 0.00 0.00 0.00 0.00 0.00 0.00 0.00 0.00 0.00 0.00 0.00 0.00 0.00 0.00 0.00 0.00 0.00 0.00 0.00 0.00 0.00 0.00 0.00 0.00 0.00 0.00 0.00 0.00 0.01 0.00 0.00 0.00 0.00 0.01 0.00 0.00 0.00
0.06 0.04 0.01 0.01 0.00 0.00 0.00 0.00 0.00 0.00 0.00 0.00 0.00 0.00 0.00 0.00 0.00 0.00 0.00 0.00 0.00 0.00 0.00 0.00 0.00 0.00 0.00 0.00 0.00 0.00 0.00 0.00 0.00 0.00 0.00 0.00 0.00 0.00 0.00 0.00 0.00 0.00 0.00 0.00
0.08 0.05 0.03 0.02 0.00 0.00 0.00 0.00 0.00 0.00 0.00 0.00 0.00 0.00 0.00 0.00 0.00 0.00 0.00 0.00 0.00 0.00 0.00 0.00 0.00 0.00 0.00 0.00 0.00 0.00 0.00 0.00 0.00 0.00 0.00 0.00 0.00 0.00 0.00 0.00 0.00 0.00 0.00 0.00
0.02 0.03 0.03 0.02 0.00 0.00 0.00 0.00 0.00 0.00 0.00 0.00 0.00 0.00 0.00 0.00 0.00 0.00 0.00 0.00 0.00 0.00 0.00 0.00 0.00 0.00 0.00 0.00 0.00 0.00 0.00 0.00 0.00 0.00 0.00 0.00 0.00 0.00 0.00 0.00 0.00 0.00 0.00 0.00
0.03 0.02 0.04 0.03 0.02 0.01 0.00 0.00 0.00 0.00 0.00 0.00 0.00 0.00 0.00 0.00 0.00 0.00 0.00 0.00 0.00 0.00 0.00 0.00 0.00 0.00 0.00 0.00 0.00 0.00 0.00 0.00 0.00 0.00 0.00 0.00 0.00 0.00 0.00 0.00 0.00 0.00 0.00 0.00
0.03 0.02 0.05 0.05 0.03 0.03 0.00 0.00 0.00 0.00 0.00 0.00 0.00 0.00 0.00 0.00 0.00 0.00 0.00 0.00 0.00 0.00 0.00 0.00 0.00 0.00 0.00 0.00 0.00 0.00 0.00 0.00 0.00 0.00 0.00 0.00 0.00 0.00 0.00 0.00 0.00 0.00 0.00 0.00
0.01 0.01 0.02 0.03 0.02 0.02 0.01 0.00 0.00 0.00 0.00 0.00 0.00 0.00 0.00 0.00 0.00 0.00 0.00 0.00 0.00 0.00 0.00 0.00 0.00 0.00 0.00 0.00 0.00 0.00 0.00 0.00 0.00 0.00 0.00 0.00 0.00 0.00 0.00 0.00 0.00 0.00 0.00 0.00
0.04 0.03 0.03 0.02 0.03 0.02 0.01 0.00 0.00 0.00 0.00 0.00 0.00 0.00 0.00 0.00 0.00 0.00 0.00 0.00 0.00 0.00 0.00 0.00 0.00 0.00 0.00 0.00 0.00 0.00 0.00 0.00 0.00 0.00 0.00 0.00 0.00 0.00 0.00 0.00 0.00 0.00 0.00 0.00
0.02 0.07 0.08 0.04 0.03 0.02 0.01 0.00 0.00 0.00 0.00 0.00 0.00 0.00 0.00 0.00 0.00 0.00 0.00 0.00 0.00 0.00 0.00 0.00 0.00 0.00 0.00 0.00 0.00 0.00 0.00 0.00 0.00 0.00 0.00 0.00 0.00 0.00 0.00 0.00 0.00 0.00 0.00 0.00
0.04 0.07 0.17 0.14 0.05 0.01 0.00 0.00 0.00 0.00 0.00 0.00 0.00 0.00 0.00 0.00 0.00 0.00 0.00 0.00 0.00 0.00 0.00 0.00 0.00 0.00 0.00 0.00 0.00 0.00 0.00 0.00 0.00 0.00 0.00 0.00 0.00 0.00 0.00 0.00 0.00 0.00 0.00 0.00
0.19 0.21 0.28 0.36 0.13 0.02 0.00 0.00 0.00 0.00 0.00 0.00 0.00 0.00 0.00 0.00 0.00 0.00 0.00 0.00 0.00 0.00 0.00 0.00 0.00 0.00 0.00 0.00 0.00 0.00 0.00 0.00 0.00 0.00 0.00 0.00 0.00 0.00 0.00 0.00 0.00 0.00 0.00 0.00
0.42 0.41 0.39 0.34 0.16 0.04 0.00 0.01 0.00 0.00 0.00 0.00 0.00 0.00 0.00 0.00 0.00 0.00 0.00 0.00 0.00 0.00 0.00 0.00 0.00 0.00 0.00 0.00 0.00 0.00 0.00 0.00 0.00 0.00 0.00 0.00 0.00 0.00 0.00 0.00 0.00 0.00 0.00 0.00
0.55 0.31 0.29 0.33 0.14 0.04 0.05 0.08 0.04 0.01 0.01 0.01 0.01 0.00 0.00 0.00 0.00 0.00 0.00 0.00 0.00 0.00 0.00 0.00 0.00 0.00 0.00 0.00 0.00 0.00 0.00 0.00 0.00 0.00 0.00 0.00 0.00 0.00 0.00 0.00 0.00 0.00 0.00 0.00
0.46 0.29 0.31 0.27 0.14 0.16 0.18 0.16 0.08 0.02 0.02 0.01 0.01 0.00 0.00 0.00 0.00 0.00 0.00 0.00 0.00 0.00 0.00 0.00 0.00 0.00 0.00 0.00 0.00 0.00 0.00 0.00 0.00 0.00 0.00 0.00 0.00 0.00 0.00 0.00 0.00 0.00 0.00 0.00
0.26 0.33 0.47 0.54 0.50 0.52 0.37 0.19 0.03 0.02 0.00 0.00 0.00 0.00 0.00 0.00 0.00 0.01 0.01 0.01 0.01 0.00 0.00 0.00 0.00 0.00 0.00 0.00 0.00 0.00 0.00 0.00 0.00 0.00 0.00 0.00 0.00 0.00 0.00 0.00 0.00 0.00 0.00 0.00
0.74 1.03 0.93 0.68 0.59 0.52 0.28 0.08 0.01 0.00 0.00 0.00 0.00 0.00 0.00 0.00 0.01 0.02 0.02 0.02 0.01 0.00 0.00 0.00 0.00 0.00 0.00 0.00 0.00 0.00 0.00 0.00 0.00 0.00 0.00 0.00 0.00 0.00 0.00 0.00 0.00 0.00 0.00 0.00
1.22 1.29 1.05 0.52 0.33 0.08 0.01 0.00 0.00 0.00 0.00 0.00 0.00 0.00 0.00 0.01 0.02 0.04 0.03 0.01 0.00 0.00 0.00 0.00 0.00 0.00 0.00 0.00 0.00 0.00 0.00 0.00 0.00 0.00 0.00 0.00 0.00 0.00 0.00 0.00 0.00 0.00 0.00 0.00
1.48 0.94 0.39 0.16 0.02 0.00 0.00 0.00 0.00 0.00 0.00 0.00 0.01 0.01 0.01 0.02 0.03 0.03 0.01 0.00 0.01 0.00 0.00 0.00 0.00 0.00 0.00 0.00 0.00 0.00 0.00 0.00 0.00 0.00 0.00 0.00 0.00 0.00 0.00 0.00 0.00 0.00 0.00 0.00
1.34 0.71 0.14 0.02 0.00 0.00 0.00 0.00 0.01 0.01 0.00 0.00 0.02 0.04 0.02 0.01 0.02 0.01 0.00 0.00 0.00 0.00 0.00 0.00 0.00 0.00 0.00 0.00 0.00 0.00 0.00 0.00 0.00 0.00 0.00 0.00 0.00 0.00 0.00 0.00 0.00 0.00 0.00 0.00
1.47 0.45 0.03 0.00 0.00 0.00 0.00 0.00 0.01 0.00 0.02 0.04 0.04 0.04 0.01 0.01 0.00 0.00 0.00 0.00 0.00 0.00 0.00 0.00 0.00 0.00 0.00 0.00 0.00 0.00 0.00 0.00 0.00 0.00 0.00 0.00 0.00 0.00 0.00 0.00 0.00 0.00 0.00 0.00

GFSNW_prec_precacc24_141.txt.gz
Total_Precipitation_Accumulation
0.01 0.01 0.07 0.02 0.00 0.00 0.00 0.04 0.06 0.03 0.00 0.00 0.00 0.00 0.00 0.00 0.00 0.00 0.00 0.00 0.00 0.00 0.00 0.00 0.00 0.00 0.00 0.00 0.00 0.00 0.00 0.00 0.00 0.01 0.01 0.09 0.37 0.35 0.19 0.40 0.35 0.27 0.46 1.49
0.01 0.01 0.04 0.04 0.01 0.00 0.02 0.04 0.04 0.02 0.00 0.00 0.00 0.00 0.00 0.00 0.00 0.00 0.00 0.00 0.00 0.00 0.00 0.00 0.00 0.00 0.00 0.00 0.00 0.00 0.00 0.00 0.00 0.00 0.01 0.01 0.16 0.27 0.17 0.16 0.23 0.21 0.73 1.95
0.01 0.00 0.00 0.01 0.00 0.00 0.00 0.00 0.01 0.01 0.00 0.00 0.00 0.00 0.00 0.00 0.00 0.00 0.00 0.00 0.00 0.00 0.00 0.00 0.00 0.00 0.00 0.00 0.00 0.00 0.00 0.00 0.00 0.03 0.08 0.12 0.05 0.10 0.20 0.11 0.32 0.34 1.09 1.24
0.01 0.01 0.00 0.01 0.00 0.00 0.00 0.00 0.00 0.00 0.00 0.00 0.00 0.00 0.00 0.00 0.00 0.00 0.00 0.00 0.00 0.00 0.00 0.00 0.00 0.00 0.00 0.00 0.00 0.00 0.00 0.00 0.00 0.00 0.00 0.02 0.01 0.02 0.04 0.16 0.25 0.64 0.76 0.73
0.01 0.00 0.00 0.00 0.00 0.00 0.00 0.00 0.00 0.00 0.00 0.00 0.00 0.00 0.00 0.00 0.00 0.00 0.00 0.00 0.00 0.00 0.00 0.00 0.00 0.00 0.00 0.00 0.00 0.00 0.00 0.00 0.00 0.00 0.00 0.00 0.00 0.00 0.00 0.03 0.07 0.18 0.15 0.42
0.03 0.01 0.00 0.00 0.00 0.00 0.00 0.00 0.00 0.00 0.00 0.00 0.00 0.00 0.00 0.00 0.00 0.00 0.00 0.00 0.00 0.00 0.00 0.00 0.00 0.00 0.00 0.00 0.00 0.00 0.00 0.00 0.00 0.00 0.00 0.00 0.00 0.01 0.02 0.03 0.03 0.05 0.08 0.17
0.03 0.02 0.02 0.01 0.00 0.00 0.00 0.00 0.00 0.00 0.00 0.00 0.00 0.00 0.00 0.00 0.00 0.00 0.00 0.00 0.00 0.00 0.00 0.00 0.00 0.00 0.00 0.00 0.00 0.00 0.00 0.00 0.00 0.00 0.00 0.00 0.00 0.00 0.00 0.01 0.01 0.00 0.01 0.01
0.01 0.02 0.02 0.01 0.00 0.00 0.00 0.00 0.00 0.00 0.00 0.00 0.00 0.00 0.00 0.00 0.00 0.00 0.00 0.00 0.00 0.00 0.00 0.00 0.00 0.00 0.00 0.00 0.00 0.00 0.00 0.00 0.00 0.00 0.00 0.00 0.00 0.00 0.00 0.00 0.01 0.00 0.00 0.00
0.04 0.03 0.01 0.00 0.00 0.00 0.00 0.00 0.00 0.00 0.00 0.00 0.00 0.00 0.00 0.00 0.00 0.00 0.00 0.00 0.00 0.00 0.00 0.00 0.00 0.00 0.00 0.00 0.00 0.00 0.00 0.00 0.00 0.00 0.00 0.00 0.00 0.00 0.00 0.00 0.00 0.00 0.00 0.00
0.03 0.03 0.02 0.01 0.00 0.00 0.00 0.00 0.00 0.00 0.00 0.00 0.00 0.00 0.00 0.00 0.00 0.00 0.00 0.00 0.00 0.00 0.00 0.00 0.00 0.00 0.00 0.00 0.00 0.00 0.00 0.00 0.00 0.00 0.00 0.00 0.00 0.00 0.00 0.00 0.00 0.00 0.00 0.00
0.01 0.02 0.02 0.02 0.00 0.00 0.00 0.00 0.00 0.00 0.00 0.00 0.00 0.00 0.00 0.00 0.00 0.00 0.00 0.00 0.00 0.00 0.00 0.00 0.00 0.00 0.00 0.00 0.00 0.00 0.00 0.00 0.00 0.00 0.00 0.00 0.00 0.00 0.00 0.00 0.00 0.00 0.00 0.00
0.00 0.02 0.03 0.03 0.02 0.01 0.00 0.00 0.00 0.00 0.00 0.00 0.00 0.00 0.00 0.00 0.00 0.00 0.00 0.00 0.00 0.00 0.00 0.00 0.00 0.00 0.00 0.00 0.00 0.00 0.00 0.00 0.00 0.00 0.00 0.00 0.00 0.00 0.00 0.00 0.00 0.00 0.00 0.00
0.00 0.01 0.04 0.05 0.03 0.03 0.00 0.00 0.00 0.00 0.00 0.00 0.00 0.00 0.00 0.00 0.00 0.00 0.00 0.00 0.00 0.00 0.00 0.00 0.00 0.00 0.00 0.00 0.00 0.00 0.00 0.00 0.00 0.00 0.00 0.00 0.00 0.00 0.00 0.00 0.00 0.00 0.00 0.00
0.00 0.00 0.01 0.02 0.02 0.03 0.01 0.00 0.00 0.00 0.00 0.00 0.00 0.00 0.00 0.00 0.00 0.00 0.00 0.00 0.00 0.00 0.00 0.00 0.00 0.00 0.00 0.00 0.00 0.00 0.00 0.00 0.00 0.00 0.00 0.00 0.00 0.00 0.00 0.00 0.00 0.00 0.00 0.00
0.01 0.01 0.01 0.01 0.03 0.02 0.01 0.00 0.00 0.00 0.00 0.00 0.00 0.00 0.00 0.00 0.00 0.00 0.00 0.00 0.00 0.00 0.00 0.00 0.00 0.00 0.00 0.00 0.00 0.00 0.00 0.00 0.00 0.00 0.00 0.00 0.00 0.00 0.00 0.00 0.00 0.00 0.00 0.00
0.03 0.04 0.04 0.03 0.02 0.02 0.01 0.00 0.00 0.00 0.00 0.00 0.00 0.00 0.00 0.00 0.00 0.00 0.00 0.00 0.00 0.00 0.00 0.00 0.00 0.00 0.00 0.00 0.00 0.00 0.00 0.00 0.00 0.00 0.00 0.00 0.00 0.00 0.00 0.00 0.00 0.00 0.00 0.00
0.12 0.14 0.16 0.13 0.05 0.01 0.00 0.00 0.00 0.00 0.00 0.00 0.00 0.00 0.00 0.00 0.00 0.00 0.00 0.00 0.00 0.00 0.00 0.00 0.00 0.00 0.00 0.00 0.00 0.00 0.00 0.00 0.00 0.00 0.00 0.00 0.00 0.00 0.00 0.00 0.00 0.00 0.00 0.00
0.34 0.32 0.30 0.35 0.16 0.03 0.00 0.00 0.00 0.00 0.00 0.00 0.00 0.00 0.00 0.00 0.00 0.00 0.00 0.00 0.00 0.00 0.00 0.00 0.00 0.00 0.00 0.00 0.00 0.00 0.00 0.00 0.00 0.00 0.00 0.00 0.00 0.00 0.00 0.00 0.00 0.00 0.00 0.00
0.57 0.48 0.47 0.36 0.18 0.05 0.01 0.02 0.05 0.02 0.00 0.00 0.00 0.00 0.00 0.00 0.00 0.00 0.00 0.00 0.00 0.00 0.00 0.00 0.00 0.00 0.00 0.00 0.00 0.00 0.00 0.00 0.00 0.00 0.00 0.00 0.00 0.00 0.00 0.00 0.00 0.00 0.00 0.00
0.74 0.47 0.29 0.23 0.13 0.05 0.06 0.16 0.15 0.11 0.03 0.02 0.02 0.00 0.00 0.00 0.00 0.00 0.00 0.00 0.00 0.00 0.00 0.00 0.00 0.00 0.00 0.00 0.00 0.00 0.00 0.00 0.00 0.00 0.00 0.00 0.00 0.00 0.00 0.00 0.00 0.00 0.00 0.00
0.67 0.30 0.25 0.32 0.21 0.17 0.28 0.28 0.18 0.06 0.04 0.02 0.01 0.00 0.00 0.00 0.00 0.00 0.00 0.00 0.00 0.00 0.00 0.00 0.00 0.00 0.00 0.00 0.00 0.00 0.00 0.00 0.00 0.00 0.00 0.00 0.00 0.00 0.00 0.00 0.00 0.00 0.00 0.00
0.33 0.38 0.62 0.75 0.62 0.54 0.42 0.25 0.05 0.03 0.00 0.00 0.00 0.00 0.00 0.00 0.00 0.01 0.01 0.01 0.01 0.00 0.00 0.00 0.00 0.00 0.00 0.00 0.00 0.00 0.00 0.00 0.00 0.00 0.00 0.00 0.00 0.00 0.00 0.00 0.00 0.00 0.00 0.00
0.90 1.21 1.14 0.85 0.64 0.53 0.32 0.10 0.02 0.01 0.00 0.00 0.00 0.00 0.00 0.00 0.01 0.03 0.02 0.02 0.01 0.00 0.00 0.00 0.00 0.00 0.00 0.00 0.00 0.00 0.00 0.00 0.00 0.00 0.00 0.00 0.00 0.00 0.00 0.00 0.00 0.00 0.00 0.00
1.51 1.54 1.25 0.57 0.28 0.07 0.01 0.00 0.00 0.00 0.00 0.00 0.00 0.00 0.00 0.01 0.03 0.05 0.03 0.01 0.00 0.00 0.00 0.00 0.00 0.00 0.00 0.00 0.00 0.00 0.00 0.00 0.00 0.00 0.00 0.00 0.00 0.00 0.00 0.00 0.00 0.00 0.00 0.00
1.80 1.25 0.56 0.19 0.01 0.00 0.00 0.00 0.00 0.00 0.00 0.00 0.01 0.01 0.01 0.03 0.06 0.04 0.01 0.00 0.01 0.00 0.00 0.00 0.00 0.00 0.00 0.00 0.00 0.00 0.00 0.00 0.00 0.00 0.00 0.00 0.00 0.00 0.00 0.00 0.00 0.00 0.00 0.00
1.81 1.10 0.31 0.05 0.00 0.00 0.00 0.00 0.01 0.01 0.00 0.00 0.03 0.06 0.07 0.05 0.03 0.01 0.00 0.00 0.00 0.00 0.01 0.00 0.00 0.00 0.00 0.00 0.00 0.00 0.00 0.00 0.00 0.00 0.00 0.00 0.00 0.00 0.00 0.00 0.00 0.00 0.00 0.00
1.88 0.70 0.11 0.00 0.00 0.00 0.00 0.00 0.01 0.00 0.02 0.05 0.08 0.12 0.04 0.03 0.01 0.00 0.00 0.00 0.00 0.01 0.00 0.00 0.00 0.00 0.00 0.00 0.00 0.00 0.00 0.00 0.00 0.00 0.00 0.00 0.00 0.00 0.00 0.00 0.00 0.00 0.00 0.00

GFSNW_prec_precacc24_144.txt.gz
Total_Precipitation_Accumulation
0.01 0.01 0.01 0.01 0.00 0.00 0.00 0.00 0.01 0.00 0.00 0.00 0.00 0.00 0.00 0.00 0.00 0.00 0.00 0.00 0.00 0.00 0.00 0.00 0.00 0.00 0.00 0.00 0.00 0.00 0.00 0.00 0.00 0.00 0.01 0.09 0.33 0.33 0.19 0.40 0.36 0.28 0.44 1.22
0.01 0.01 0.04 0.04 0.01 0.00 0.00 0.00 0.01 0.00 0.00 0.00 0.00 0.00 0.00 0.00 0.00 0.00 0.00 0.00 0.00 0.00 0.00 0.00 0.00 0.00 0.00 0.00 0.00 0.00 0.00 0.00 0.00 0.00 0.01 0.01 0.15 0.27 0.17 0.16 0.25 0.22 0.70 1.76
0.01 0.00 0.00 0.00 0.00 0.00 0.00 0.00 0.00 0.00 0.00 0.00 0.00 0.00 0.00 0.00 0.00 0.00 0.00 0.00 0.00 0.00 0.00 0.00 0.00 0.00 0.00 0.00 0.00 0.00 0.00 0.00 0.00 0.03 0.08 0.11 0.04 0.10 0.20 0.11 0.32 0.33 1.05 1.22
0.01 0.00 0.00 0.00 0.00 0.00 0.00 0.00 0.00 0.00 0.00 0.00 0.00 0.00 0.00 0.00 0.00 0.00 0.00 0.00 0.00 0.00 0.00 0.00 0.00 0.00 0.00 0.00 0.00 0.00 0.00 0.00 0.00 0.00 0.00 0.02 0.01 0.01 0.04 0.15 0.25 0.62 0.73 0.73
0.01 0.00 0.00 0.00 0.00 0.00 0.00 0.00 0.00 0.00 0.00 0.00 0.00 0.00 0.00 0.00 0.00 0.00 0.00 0.00 0.00 0.00 0.00 0.00 0.00 0.00 0.00 0.00 0.00 0.00 0.00 0.00 0.00 0.00 0.00 0.00 0.00 0.00 0.00 0.02 0.06 0.17 0.15 0.42
0.01 0.01 0.00 0.00 0.00 0.00 0.00 0.00 0.00 0.00 0.00 0.00 0.00 0.00 0.00 0.00 0.00 0.00 0.00 0.00 0.00 0.00 0.00 0.00 0.00 0.00 0.00 0.00 0.00 0.00 0.00 0.00 0.00 0.00 0.00 0.00 0.00 0.00 0.01 0.02 0.02 0.05 0.08 0.17
0.00 0.00 0.01 0.00 0.00 0.00 0.00 0.00 0.00 0.00 0.00 0.00 0.00 0.00 0.00 0.00 0.00 0.00 0.00 0.00 0.00 0.00 0.00 0.00 0.00 0.00 0.00 0.00 0.00 0.00 0.00 0.00 0.00 0.00 0.00 0.00 0.00 0.00 0.00 0.00 0.01 0.00 0.01 0.01
0.00 0.01 0.01 0.01 0.00 0.00 0.00 0.00 0.00 0.00 0.00 0.00 0.00 0.00 0.00 0.00 0.00 0.00 0.00 0.00 0.00 0.00 0.00 0.00 0.00 0.00 0.00 0.00 0.00 0.00 0.00 0.00 0.00 0.00 0.00 0.00 0.00 0.00 0.00 0.00 0.00 0.00 0.00 0.00
0.00 0.01 0.00 0.00 0.00 0.00 0.00 0.00 0.00 0.00 0.00 0.00 0.00 0.00 0.00 0.00 0.00 0.00 0.00 0.00 0.00 0.00 0.00 0.00 0.00 0.00 0.00 0.00 0.00 0.00 0.00 0.00 0.00 0.00 0.00 0.00 0.00 0.00 0.00 0.00 0.00 0.00 0.00 0.00
0.01 0.01 0.00 0.00 0.00 0.00 0.00 0.00 0.00 0.00 0.00 0.00 0.00 0.00 0.00 0.00 0.00 0.00 0.00 0.00 0.00 0.00 0.00 0.00 0.00 0.00 0.00 0.00 0.00 0.00 0.00 0.00 0.01 0.00 0.00 0.00 0.00 0.00 0.00 0.00 0.00 0.00 0.00 0.00
0.01 0.01 0.00 0.00 0.00 0.00 0.00 0.00 0.00 0.00 0.00 0.00 0.00 0.00 0.00 0.00 0.00 0.00 0.00 0.00 0.00 0.00 0.00 0.00 0.00 0.00 0.00 0.00 0.00 0.00 0.00 0.00 0.00 0.00 0.00 0.00 0.00 0.00 0.00 0.00 0.00 0.00 0.00 0.00
0.00 0.01 0.01 0.00 0.01 0.01 0.00 0.00 0.00 0.00 0.00 0.00 0.00 0.00 0.00 0.00 0.00 0.00 0.00 0.00 0.00 0.00 0.00 0.00 0.00 0.00 0.00 0.00 0.00 0.00 0.00 0.00 0.00 0.00 0.00 0.00 0.00 0.00 0.00 0.00 0.00 0.00 0.00 0.00
0.00 0.01 0.03 0.03 0.02 0.02 0.00 0.00 0.00 0.00 0.00 0.00 0.00 0.00 0.00 0.00 0.00 0.00 0.00 0.00 0.00 0.00 0.00 0.00 0.00 0.00 0.00 0.00 0.00 0.00 0.00 0.00 0.00 0.00 0.00 0.00 0.00 0.00 0.00 0.00 0.00 0.00 0.00 0.00
0.01 0.01 0.02 0.02 0.01 0.02 0.01 0.00 0.00 0.00 0.00 0.00 0.00 0.00 0.00 0.00 0.00 0.00 0.00 0.00 0.00 0.00 0.00 0.00 0.00 0.00 0.00 0.00 0.00 0.00 0.00 0.00 0.00 0.00 0.00 0.00 0.00 0.00 0.00 0.00 0.00 0.00 0.00 0.00
0.04 0.03 0.03 0.03 0.02 0.01 0.01 0.00 0.00 0.00 0.00 0.00 0.00 0.00 0.00 0.00 0.00 0.00 0.00 0.00 0.00 0.00 0.00 0.00 0.00 0.00 0.00 0.00 0.00 0.00 0.00 0.00 0.00 0.00 0.00 0.00 0.00 0.00 0.00 0.00 0.00 0.00 0.00 0.00
0.10 0.07 0.06 0.06 0.05 0.02 0.01 0.00 0.00 0.00 0.00 0.00 0.00 0.00 0.00 0.00 0.00 0.00 0.00 0.00 0.00 0.00 0.00 0.00 0.00 0.00 0.00 0.00 0.00 0.00 0.00 0.00 0.00 0.00 0.00 0.00 0.00 0.00 0.00 0.00 0.00 0.00 0.00 0.00
0.22 0.20 0.19 0.17 0.10 0.02 0.00 0.00 0.00 0.00 0.00 0.00 0.00 0.00 0.00 0.00 0.00 0.00 0.00 0.00 0.00 0.00 0.00 0.00 0.00 0.00 0.00 0.00 0.00 0.00 0.00 0.00 0.00 0.00 0.00 0.00 0.00 0.00 0.00 0.00 0.00 0.00 0.00 0.00
0.47 0.43 0.34 0.38 0.27 0.08 0.02 0.00 0.02 0.01 0.01 0.01 0.00 0.00 0.00 0.00 0.00 0.00 0.00 0.00 0.00 0.00 0.00 0.00 0.00 0.00 0.00 0.00 0.00 0.00 0.00 0.00 0.00 0.00 0.00 0.00 0.00 0.00 0.00 0.00 0.00 0.00 0.00 0.00
0.75 0.68 0.60 0.48 0.26 0.06 0.01 0.04 0.16 0.10 0.05 0.04 0.00 0.00 0.00 0.00 0.00 0.00 0.00 0.00 0.00 0.00 0.00 0.00 0.00 0.00 0.00 0.00 0.00 0.00 0.00 0.00 0.00 0.00 0.00 0.00 0.00 0.00 0.00 0.00 0.00 0.00 0.00 0.00
1.08 0.68 0.37 0.23 0.16 0.06 0.07 0.23 0.30 0.29 0.15 0.07 0.03 0.00 0.00 0.00 0.00 0.00 0.00 0.00 0.00 0.00 0.00 0.00 0.00 0.00 0.00 0.00 0.00 0.00 0.00 0.00 0.00 0.00 0.00 0.00 0.00 0.00 0.00 0.00 0.00 0.00 0.00 0.00
0.88 0.43 0.30 0.34 0.28 0.15 0.27 0.37 0.30 0.11 0.08 0.04 0.02 0.00 0.00 0.00 0.00 0.00 0.00 0.00 0.00 0.00 0.00 0.00 0.00 0.00 0.00 0.00 0.00 0.00 0.00 0.00 0.00 0.00 0.00 0.00 0.00 0.00 0.00 0.00 0.00 0.00 0.00 0.00
0.40 0.48 0.74 0.91 0.75 0.51 0.33 0.28 0.07 0.04 0.01 0.00 0.00 0.00 0.00 0.00 0.00 0.01 0.01 0.01 0.01 0.00 0.00 0.00 0.00 0.00 0.00 0.00 0.00 0.00 0.00 0.00 0.00 0.00 0.00 0.00 0.00 0.00 0.00 0.00 0.00 0.00 0.00 0.00
1.02 1.45 1.42 1.04 0.75 0.49 0.26 0.09 0.03 0.01 0.00 0.00 0.00 0.00 0.00 0.00 0.01 0.04 0.04 0.03 0.01 0.00 0.00 0.00 0.00 0.00 0.00 0.00 0.00 0.00 0.00 0.00 0.00 0.00 0.00 0.00 0.00 0.00 0.00 0.00 0.00 0.00 0.00 0.00
1.76 1.80 1.50 0.70 0.28 0.04 0.01 0.00 0.00 0.00 0.00 0.00 0.00 0.00 0.00 0.01 0.03 0.07 0.06 0.02 0.00 0.00 0.01 0.00 0.00 0.00 0.00 0.00 0.00 0.00 0.00 0.00 0.00 0.00 0.00 0.00 0.00 0.00 0.00 0.00 0.00 0.00 0.00 0.00
2.00 1.59 0.81 0.28 0.01 0.00 0.00 0.00 0.00 0.00 0.00 0.00 0.00 0.01 0.01 0.03 0.09 0.09 0.04 0.02 0.01 0.00 0.00 0.01 0.00 0.00 0.00 0.00 0.00 0.00 0.00 0.00 0.00 0.00 0.00 0.00 0.00 0.00 0.00 0.00 0.00 0.00 0.00 0.00
2.19 1.45 0.52 0.10 0.00 0.00 0.00 0.00 0.01 0.01 0.00 0.00 0.03 0.07 0.13 0.10 0.07 0.05 0.01 0.00 0.00 0.00 0.02 0.00 0.00 0.00 0.00 0.00 0.00 0.00 0.00 0.00 0.00 0.00 0.00 0.00 0.00 0.00 0.00 0.00 0.00 0.00 0.00 0.00
2.16 0.93 0.19 0.01 0.00 0.00 0.00 0.00 0.01 0.00 0.01 0.05 0.13 0.24 0.11 0.11 0.07 0.01 0.00 0.00 0.00 0.01 0.01 0.00 0.00 0.00 0.00 0.00 0.00 0.00 0.00 0.00 0.00 0.00 0.00 0.00 0.00 0.00 0.00 0.00 0.00 0.00 0.00 0.00

GFSNW_prec_precacc24_150.txt.gz
Total_Precipitation_Accumulation
0.00 0.00 0.00 0.00 0.00 0.00 0.00 0.00 0.00 0.00 0.00 0.00 0.00 0.00 0.00 0.00 0.00 0.00 0.00 0.00 0.00 0.00 0.00 0.00 0.00 0.00 0.00 0.00 0.00 0.00 0.00 0.00 0.00 0.00 0.00 0.06 0.20 0.24 0.19 0.34 0.31 0.23 0.31 0.54
0.00 0.00 0.00 0.00 0.00 0.00 0.00 0.00 0.00 0.00 0.00 0.00 0.00 0.00 0.00 0.00 0.00 0.00 0.00 0.00 0.00 0.00 0.00 0.00 0.00 0.00 0.00 0.00 0.00 0.00 0.00 0.00 0.00 0.00 0.00 0.00 0.07 0.17 0.15 0.13 0.21 0.19 0.52 0.96
0.00 0.00 0.00 0.00 0.00 0.00 0.00 0.00 0.00 0.00 0.00 0.00 0.00 0.00 0.00 0.00 0.00 0.00 0.00 0.00 0.00 0.00 0.00 0.00 0.00 0.00 0.00 0.00 0.00 0.00 0.00 0.00 0.00 0.01 0.02 0.02 0.00 0.06 0.13 0.08 0.21 0.22 0.65 0.82
0.00 0.00 0.00 0.00 0.00 0.00 0.00 0.00 0.00 0.00 0.00 0.00 0.00 0.00 0.00 0.00 0.00 0.00 0.00 0.00 0.00 0.00 0.00 0.00 0.00 0.00 0.00 0.00 0.00 0.00 0.00 0.00 0.00 0.00 0.00 0.00 0.00 0.00 0.03 0.12 0.18 0.41 0.47 0.52
0.00 0.00 0.00 0.00 0.00 0.00 0.00 0.00 0.00 0.00 0.00 0.00 0.00 0.00 0.00 0.00 0.00 0.00 0.00 0.00 0.00 0.00 0.00 0.00 0.00 0.00 0.00 0.00 0.00 0.00 0.00 0.00 0.00 0.00 0.00 0.00 0.00 0.00 0.00 0.02 0.05 0.12 0.11 0.32
0.00 0.00 0.00 0.00 0.00 0.00 0.00 0.00 0.00 0.00 0.00 0.00 0.00 0.00 0.00 0.00 0.00 0.00 0.00 0.00 0.00 0.00 0.00 0.00 0.00 0.00 0.00 0.00 0.00 0.00 0.00 0.00 0.00 0.00 0.00 0.00 0.00 0.00 0.00 0.00 0.01 0.04 0.06 0.15
0.00 0.00 0.00 0.00 0.00 0.00 0.00 0.00 0.00 0.00 0.00 0.00 0.00 0.00 0.00 0.00 0.00 0.00 0.00 0.00 0.00 0.00 0.00 0.00 0.00 0.00 0.00 0.00 0.00 0.00 0.00 0.00 0.00 0.00 0.00 0.00 0.00 0.00 0.00 0.00 0.00 0.00 0.00 0.01
0.00 0.00 0.00 0.00 0.00 0.00 0.00 0.00 0.00 0.00 0.00 0.00 0.00 0.00 0.00 0.00 0.00 0.00 0.00 0.00 0.00 0.00 0.00 0.00 0.00 0.00 0.00 0.00 0.00 0.00 0.00 0.00 0.00 0.00 0.00 0.00 0.00 0.00 0.00 0.00 0.00 0.00 0.00 0.00
0.00 0.00 0.00 0.00 0.00 0.00 0.00 0.00 0.00 0.00 0.00 0.00 0.00 0.00 0.00 0.00 0.00 0.00 0.00 0.00 0.00 0.00 0.00 0.00 0.00 0.00 0.00 0.00 0.00 0.00 0.00 0.00 0.01 0.00 0.00 0.00 0.00 0.00 0.00 0.00 0.00 0.00 0.00 0.00
0.00 0.00 0.00 0.00 0.00 0.00 0.00 0.00 0.00 0.00 0.00 0.00 0.00 0.00 0.00 0.00 0.00 0.00 0.00 0.00 0.00 0.00 0.00 0.00 0.00 0.00 0.00 0.00 0.00 0.00 0.00 0.01 0.02 0.01 0.00 0.00 0.00 0.00 0.00 0.00 0.00 0.00 0.00 0.00
0.01 0.00 0.00 0.00 0.00 0.00 0.00 0.00 0.00 0.00 0.00 0.00 0.00 0.00 0.00 0.00 0.00 0.00 0.00 0.00 0.00 0.00 0.00 0.00 0.00 0.00 0.00 0.00 0.00 0.00 0.00 0.00 0.00 0.00 0.00 0.00 0.00 0.00 0.00 0.00 0.00 0.00 0.00 0.00
0.01 0.01 0.01 0.00 0.01 0.01 0.00 0.00 0.00 0.00 0.00 0.00 0.00 0.00 0.00 0.00 0.00 0.00 0.00 0.00 0.00 0.00 0.00 0.00 0.00 0.00 0.00 0.00 0.00 0.00 0.00 0.00 0.00 0.00 0.00 0.00 0.00 0.00 0.00 0.00 0.00 0.00 0.00 0.00
0.01 0.01 0.01 0.01 0.01 0.02 0.00 0.00 0.00 0.00 0.00 0.00 0.00 0.00 0.00 0.00 0.00 0.00 0.00 0.00 0.00 0.00 0.00 0.00 0.00 0.00 0.00 0.00 0.00 0.00 0.00 0.00 0.00 0.00 0.00 0.00 0.00 0.00 0.00 0.00 0.00 0.00 0.00 0.00
0.03 0.03 0.03 0.03 0.02 0.03 0.02 0.00 0.00 0.00 0.00 0.00 0.00 0.00 0.00 0.00 0.00 0.00 0.00 0.00 0.00 0.00 0.00 0.00 0.00 0.00 0.00 0.00 0.00 0.00 0.00 0.00 0.00 0.00 0.00 0.00 0.00 0.00 0.00 0.00 0.00 0.00 0.00 0.00
0.07 0.07 0.06 0.07 0.06 0.07 0.04 0.01 0.00 0.00 0.00 0.00 0.00 0.00 0.00 0.00 0.00 0.00 0.00 0.00 0.00 0.00 0.00 0.00 0.00 0.00 0.00 0.00 0.00 0.00 0.00 0.00 0.00 0.00 0.00 0.00 0.00 0.00 0.00 0.00 0.00 0.00 0.00 0.00
0.12 0.12 0.11 0.12 0.16 0.16 0.05 0.02 0.00 0.00 0.00 0.02 0.01 0.00 0.00 0.00 0.00 0.00 0.00 0.00 0.00 0.00 0.00 0.00 0.00 0.00 0.00 0.00 0.00 0.00 0.00 0.00 0.00 0.00 0.00 0.00 0.00 0.00 0.00 0.00 0.00 0.00 0.00 0.00
0.27 0.26 0.24 0.27 0.33 0.13 0.03 0.02 0.00 0.00 0.00 0.02 0.05 0.01 0.00 0.00 0.00 0.00 0.00 0.00 0.00 0.00 0.00 0.00 0.00 0.00 0.00 0.00 0.00 0.00 0.00 0.00 0.00 0.00 0.00 0.00 0.00 0.00 0.00 0.00 0.00 0.00 0.00 0.00
0.53 0.52 0.43 0.53 0.69 0.41 0.11 0.01 0.04 0.04 0.04 0.11 0.12 0.02 0.00 0.00 0.00 0.00 0.00 0.00 0.00 0.00 0.00 0.00 0.00 0.00 0.00 0.00 0.00 0.00 0.00 0.00 0.00 0.00 0.00 0.00 0.00 0.00 0.00 0.00 0.00 0.00 0.00 0.00
0.82 0.86 0.90 0.90 0.66 0.14 0.02 0.06 0.30 0.22 0.13 0.16 0.10 0.01 0.00 0.00 0.00 0.00 0.00 0.00 0.00 0.00 0.01 0.00 0.00 0.00 0.00 0.00 0.00 0.00 0.00 0.00 0.00 0.00 0.00 0.00 0.00 0.00 0.00 0.00 0.00 0.00 0.00 0.00
1.29 0.98 0.56 0.34 0.21 0.10 0.08 0.32 0.52 0.58 0.39 0.23 0.13 0.00 0.00 0.00 0.00 0.00 0.01 0.03 0.01 0.01 0.00 0.00 0.01 0.00 0.00 0.00 0.00 0.00 0.00 0.00 0.00 0.00 0.00 0.00 0.00 0.00 0.00 0.00 0.00 0.00 0.00 0.00
1.11 0.54 0.44 0.48 0.43 0.23 0.34 0.49 0.46 0.20 0.18 0.13 0.05 0.00 0.00 0.00 0.00 0.00 0.03 0.05 0.01 0.01 0.00 0.00 0.00 0.00 0.00 0.00 0.00 0.00 0.00 0.00 0.00 0.00 0.00 0.00 0.00 0.00 0.00 0.00 0.00 0.00 0.00 0.00
0.57 0.61 0.92 1.17 0.99 0.68 0.45 0.36 0.12 0.11 0.02 0.00 0.00 0.00 0.00 0.00 0.00 0.00 0.02 0.03 0.03 0.01 0.00 0.00 0.00 0.00 0.00 0.00 0.00 0.00 0.00 0.00 0.00 0.00 0.00 0.00 0.00 0.00 0.00 0.00 0.00 0.00 0.00 0.00
1.31 1.78 1.85 1.44 1.14 0.71 0.34 0.11 0.05 0.02 0.00 0.00 0.00 0.00 0.00 0.00 0.00 0.03 0.07 0.09 0.03 0.00 0.01 0.01 0.00 0.00 0.00 0.00 0.00 0.00 0.00 0.00 0.00 0.00 0.00 0.00 0.00 0.00 0.00 0.00 0.00 0.00 0.00 0.00
2.17 2.18 1.90 1.01 0.45 0.06 0.01 0.00 0.00 0.00 0.00 0.00 0.00 0.00 0.00 0.00 0.01 0.09 0.14 0.10 0.04 0.02 0.01 0.00 0.00 0.00 0.00 0.00 0.00 0.00 0.00 0.00 0.00 0.00 0.00 0.00 0.00 0.00 0.00 0.00 0.00 0.00 0.00 0.00
2.32 2.07 1.13 0.41 0.02 0.00 0.00 0.00 0.00 0.00 0.00 0.00 0.00 0.01 0.02 0.05 0.18 0.19 0.14 0.14 0.04 0.00 0.00 0.01 0.00 0.00 0.00 0.00 0.00 0.00 0.00 0.00 0.00 0.00 0.00 0.00 0.00 0.00 0.00 0.00 0.00 0.00 0.00 0.00
2.35 1.81 0.73 0.12 0.00 0.00 0.00 0.00 0.01 0.01 0.01 0.02 0.06 0.16 0.32 0.26 0.17 0.17 0.04 0.00 0.00 0.00 0.02 0.00 0.00 0.00 0.00 0.00 0.00 0.00 0.00 0.00 0.00 0.00 0.00 0.00 0.00 0.00 0.00 0.00 0.00 0.00 0.00 0.00
2.00 0.95 0.21 0.01 0.00 0.00 0.00 0.00 0.01 0.00 0.05 0.11 0.25 0.50 0.26 0.26 0.35 0.14 0.01 0.00 0.00 0.01 0.01 0.00 0.00 0.00 0.00 0.00 0.00 0.00 0.00 0.00 0.00 0.00 0.00 0.00 0.00 0.00 0.00 0.00 0.00 0.00 0.00 0.00

GFSNW_prec_precacc24_153.txt.gz
Total_Precipitation_Accumulation
0.00 0.00 0.00 0.00 0.00 0.00 0.00 0.00 0.00 0.00 0.00 0.00 0.00 0.00 0.00 0.00 0.00 0.00 0.00 0.00 0.00 0.00 0.00 0.00 0.00 0.00 0.00 0.00 0.00 0.00 0.00 0.00 0.00 0.00 0.00 0.00 0.05 0.16 0.15 0.27 0.22 0.19 0.24 0.22
0.00 0.00 0.00 0.00 0.00 0.00 0.00 0.00 0.00 0.00 0.00 0.00 0.00 0.00 0.00 0.00 0.00 0.00 0.00 0.00 0.00 0.00 0.00 0.00 0.00 0.00 0.00 0.00 0.00 0.00 0.00 0.00 0.00 0.00 0.00 0.00 0.02 0.11 0.13 0.10 0.16 0.15 0.38 0.52
0.00 0.00 0.00 0.00 0.00 0.00 0.00 0.00 0.00 0.00 0.00 0.00 0.00 0.00 0.00 0.00 0.00 0.00 0.00 0.00 0.00 0.00 0.00 0.00 0.00 0.00 0.00 0.00 0.00 0.00 0.00 0.00 0.00 0.00 0.01 0.00 0.00 0.03 0.08 0.07 0.17 0.16 0.43 0.57
0.00 0.00 0.00 0.00 0.00 0.00 0.00 0.00 0.00 0.00 0.00 0.00 0.00 0.00 0.00 0.00 0.00 0.00 0.00 0.00 0.00 0.00 0.00 0.00 0.00 0.00 0.00 0.00 0.00 0.00 0.00 0.00 0.00 0.00 0.00 0.00 0.00 0.00 0.01 0.09 0.13 0.28 0.32 0.33
0.00 0.00 0.00 0.00 0.00 0.00 0.00 0.00 0.00 0.00 0.00 0.00 0.00 0.00 0.00 0.00 0.00 0.00 0.00 0.00 0.00 0.00 0.00 0.00 0.00 0.00 0.00 0.00 0.00 0.00 0.00 0.00 0.00 0.00 0.00 0.00 0.00 0.00 0.00 0.02 0.04 0.06 0.07 0.17
0.00 0.00 0.00 0.00 0.00 0.00 0.00 0.00 0.00 0.00 0.00 0.00 0.00 0.00 0.00 0.00 0.00 0.00 0.00 0.00 0.00 0.00 0.00 0.00 0.00 0.00 0.00 0.00 0.00 0.00 0.00 0.00 0.00 0.00 0.00 0.00 0.00 0.00 0.00 0.00 0.01 0.03 0.04 0.13
0.00 0.00 0.00 0.00 0.00 0.00 0.00 0.00 0.00 0.00 0.00 0.00 0.00 0.00 0.00 0.00 0.00 0.00 0.00 0.00 0.00 0.00 0.00 0.00 0.00 0.00 0.00 0.00 0.00 0.00 0.00 0.00 0.00 0.00 0.00 0.00 0.00 0.00 0.00 0.00 0.00 0.00 0.00 0.01
0.00 0.00 0.00 0.00 0.00 0.00 0.00 0.00 0.00 0.00 0.00 0.00 0.00 0.00 0.00 0.00 0.00 0.00 0.00 0.00 0.00 0.00 0.00 0.00 0.00 0.00 0.00 0.00 0.00 0.00 0.00 0.00 0.00 0.00 0.00 0.00 0.00 0.00 0.00 0.00 0.00 0.00 0.00 0.00
0.00 0.00 0.00 0.00 0.00 0.00 0.00 0.00 0.00 0.00 0.00 0.00 0.00 0.00 0.00 0.00 0.00 0.00 0.00 0.00 0.00 0.00 0.00 0.00 0.00 0.00 0.00 0.00 0.00 0.00 0.00 0.00 0.01 0.00 0.00 0.00 0.00 0.00 0.00 0.00 0.00 0.00 0.00 0.00
0.00 0.00 0.00 0.00 0.00 0.00 0.00 0.00 0.00 0.00 0.00 0.00 0.00 0.00 0.00 0.00 0.00 0.00 0.00 0.00 0.00 0.00 0.00 0.00 0.00 0.00 0.00 0.00 0.00 0.00 0.00 0.01 0.02 0.01 0.00 0.00 0.00 0.00 0.00 0.00 0.00 0.00 0.00 0.00
0.01 0.01 0.00 0.00 0.00 0.00 0.00 0.00 0.00 0.00 0.00 0.00 0.00 0.00 0.00 0.00 0.00 0.00 0.00 0.00 0.00 0.00 0.00 0.00 0.00 0.00 0.00 0.00 0.00 0.00 0.00 0.00 0.00 0.00 0.00 0.00 0.00 0.00 0.00 0.00 0.00 0.00 0.00 0.00
0.01 0.01 0.01 0.00 0.01 0.01 0.00 0.00 0.00 0.00 0.00 0.00 0.00 0.00 0.00 0.00 0.00 0.00 0.00 0.00 0.00 0.00 0.00 0.00 0.00 0.00 0.00 0.00 0.00 0.00 0.00 0.00 0.00 0.00 0.00 0.00 0.00 0.00 0.00 0.00 0.00 0.00 0.00 0.00
0.02 0.02 0.02 0.02 0.02 0.03 0.01 0.00 0.00 0.00 0.00 0.00 0.00 0.00 0.00 0.00 0.00 0.00 0.00 0.00 0.00 0.00 0.00 0.00 0.00 0.00 0.00 0.00 0.00 0.00 0.00 0.00 0.00 0.00 0.00 0.00 0.00 0.00 0.00 0.00 0.00 0.00 0.00 0.00
0.03 0.03 0.03 0.04 0.03 0.05 0.04 0.00 0.00 0.00 0.00 0.00 0.00 0.00 0.00 0.00 0.00 0.00 0.00 0.00 0.00 0.00 0.00 0.00 0.00 0.00 0.00 0.00 0.00 0.00 0.00 0.00 0.00 0.00 0.00 0.00 0.00 0.00 0.00 0.00 0.00 0.00 0.00 0.00
0.07 0.07 0.06 0.07 0.08 0.11 0.07 0.01 0.00 0.00 0.00 0.00 0.00 0.00 0.00 0.00 0.00 0.00 0.00 0.00 0.00 0.00 0.00 0.00 0.00 0.00 0.00 0.00 0.00 0.00 0.00 0.00 0.00 0.00 0.00 0.00 0.00 0.00 0.00 0.00 0.00 0.00 0.00 0.00
0.13 0.12 0.11 0.13 0.20 0.29 0.09 0.03 0.00 0.00 0.00 0.04 0.02 0.00 0.00 0.00 0.00 0.00 0.00 0.00 0.00 0.00 0.00 0.00 0.00 0.00 0.00 0.00 0.00 0.00 0.00 0.00 0.00 0.00 0.00 0.00 0.00 0.00 0.00 0.00 0.00 0.00 0.00 0.00
0.28 0.27 0.24 0.27 0.44 0.20 0.04 0.02 0.00 0.00 0.01 0.05 0.07 0.01 0.00 0.00 0.00 0.00 0.01 0.01 0.01 0.00 0.00 0.00 0.00 0.00 0.00 0.00 0.00 0.00 0.00 0.00 0.00 0.00 0.00 0.00 0.00 0.00 0.00 0.00 0.00 0.00 0.00 0.00
0.53 0.52 0.43 0.53 0.84 0.56 0.17 0.01 0.05 0.04 0.05 0.13 0.17 0.04 0.00 0.00 0.00 0.00 0.01 0.01 0.01 0.00 0.00 0.00 0.00 0.00 0.00 0.00 0.00 0.00 0.00 0.00 0.00 0.00 0.00 0.00 0.00 0.00 0.00 0.00 0.00 0.00 0.00 0.00
0.82 0.88 0.93 0.96 0.76 0.18 0.02 0.06 0.32 0.25 0.15 0.22 0.16 0.02 0.00 0.00 0.00 0.00 0.00 0.00 0.00 0.00 0.01 0.00 0.00 0.00 0.00 0.00 0.00 0.00 0.00 0.00 0.00 0.00 0.00 0.00 0.00 0.00 0.00 0.00 0.00 0.00 0.00 0.00
1.32 1.05 0.59 0.38 0.24 0.13 0.09 0.34 0.58 0.71 0.49 0.32 0.20 0.00 0.00 0.00 0.00 0.00 0.01 0.03 0.01 0.01 0.01 0.00 0.01 0.01 0.00 0.00 0.00 0.00 0.00 0.00 0.00 0.00 0.00 0.00 0.00 0.00 0.00 0.00 0.00 0.00 0.00 0.00
1.12 0.57 0.49 0.52 0.48 0.24 0.36 0.53 0.54 0.27 0.25 0.17 0.07 0.00 0.00 0.00 0.00 0.00 0.03 0.08 0.02 0.01 0.00 0.00 0.01 0.00 0.00 0.00 0.00 0.00 0.00 0.00 0.00 0.00 0.00 0.00 0.00 0.00 0.00 0.00 0.00 0.00 0.00 0.00
0.62 0.65 0.95 1.22 1.04 0.75 0.51 0.41 0.17 0.17 0.04 0.00 0.00 0.00 0.00 0.00 0.00 0.00 0.03 0.04 0.06 0.02 0.00 0.01 0.01 0.00 0.00 0.00 0.00 0.00 0.00 0.00 0.00 0.00 0.00 0.00 0.00 0.00 0.00 0.00 0.00 0.00 0.00 0.00
1.33 1.87 1.95 1.50 1.18 0.76 0.39 0.13 0.07 0.03 0.00 0.00 0.00 0.00 0.00 0.00 0.00 0.06 0.13 0.14 0.06 0.00 0.01 0.01 0.00 0.00 0.00 0.00 0.00 0.00 0.00 0.00 0.00 0.00 0.00 0.00 0.00 0.00 0.00 0.00 0.00 0.00 0.00 0.00
2.17 2.26 2.00 1.04 0.45 0.06 0.01 0.00 0.00 0.00 0.00 0.00 0.00 0.00 0.02 0.02 0.04 0.16 0.20 0.15 0.08 0.05 0.02 0.00 0.00 0.00 0.00 0.00 0.00 0.00 0.00 0.00 0.00 0.00 0.00 0.00 0.00 0.00 0.00 0.00 0.00 0.00 0.00 0.00
2.30 2.10 1.16 0.42 0.02 0.00 0.00 0.00 0.00 0.00 0.00 0.00 0.03 0.07 0.10 0.14 0.29 0.28 0.21 0.22 0.06 0.00 0.00 0.01 0.00 0.00 0.00 0.00 0.00 0.00 0.00 0.00 0.00 0.00 0.00 0.00 0.00 0.00 0.00 0.00 0.00 0.00 0.00 0.00
2.33 1.79 0.73 0.12 0.00 0.00 0.00 0.00 0.01 0.02 0.04 0.08 0.15 0.30 0.45 0.36 0.25 0.27 0.09 0.02 0.00 0.00 0.02 0.00 0.00 0.00 0.00 0.00 0.00 0.00 0.00 0.00 0.00 0.00 0.00 0.00 0.00 0.00 0.00 0.00 0.00 0.00 0.00 0.00
1.94 0.94 0.21 0.01 0.00 0.00 0.00 0.00 0.01 0.01 0.11 0.19 0.34 0.65 0.35 0.36 0.46 0.19 0.01 0.00 0.00 0.02 0.01 0.00 0.00 0.00 0.00 0.00 0.00 0.00 0.00 0.00 0.00 0.00 0.00 0.00 0.00 0.00 0.00 0.00 0.00 0.00 0.00 0.00